Work Boat No.22 — 0000000 — position and weather

sailwx.info

Track history (hours):
 
Tides and Currents Weather Stations Pressure Air Temp Water Temp Dewpoint Dewpoint Depression Visibility Wind Speed Wind Dir Waves Ship Positions

Work Boat No.22

Last reported at 2017-Dec-11 11:01 UTC. Time now 2017-Dec-11 11:28 UTC.
Position N 31°42' E 121°09'.

Length 30 m.

Type: Cargo ship. MMSI: 4150008.

Date/timePositionNaut miles runAvg speedWind from/ knotsBaromVisibWave heightAir tempDewpointWater temp
2017-Dec-11 11:01N 31°42' E 121°09'44407991475.5
2017-Dec-11 11:00N 44°09' E 028°40'43965275170.2
2017-Dec-11 11:00N 31°59' E 120°26'3815228.2
2017-Dec-11 11:00N 31°43' E 121°07'394355033.0
2017-Dec-11 11:00N 25°09' E 121°21'384691905.5
2017-Dec-11 11:00N 31°34' E 121°20'5395350.3
2017-Dec-11 11:00N 31°59' E 120°25'42151203.0
2017-Dec-11 11:00N 31°41' E 121°10'623371.3
2017-Dec-11 11:00N 31°47' E 121°06'347208145.8
2017-Dec-11 11:00N 37°33' E 121°24'354254889.6
2017-Dec-11 11:00N 31°39' E 121°13'443113851.2
2017-Dec-11 11:00N 24°41' E 118°27'442122394.6
2017-Dec-11 10:59N 31°38' E 121°14'91553.8
2017-Dec-11 10:59N 31°31' E 121°20'73058.0
2017-Dec-11 10:59N 31°35' E 121°27'7710420529.0
2017-Dec-11 10:58N 09°29' W 013°43'0 5.1
2017-Dec-11 10:58N 09°29' W 013°43'7708129068.4
2017-Dec-11 10:54N 31°29' E 121°24'6270.4
2017-Dec-11 10:53N 31°31' E 121°17'121892.4
2017-Dec-11 10:52N 31°41' E 121°11'22871.8
2017-Dec-11 10:51N 31°30' E 121°33'238145.5
2017-Dec-11 10:51N 31°41' E 121°10'132102.7
2017-Dec-11 10:50N 31°31' E 121°19'11445.3
2017-Dec-11 10:49N 31°41' E 121°13'142712.7
2017-Dec-11 10:49N 31°30' E 121°23'126.0
2017-Dec-11 10:46N 31°30' E 121°24'110.9
2017-Dec-11 10:41N 31°29' E 121°23'4372719.8
2017-Dec-11 10:31N 24°40' E 118°27'45149197.2
2017-Dec-11 10:30N 31°59' E 120°26'4731702595.1
2017-Dec-11 10:30N 24°26' E 117°53'464835544.4
2017-Dec-11 10:30N 31°31' E 121°23'0450.9
2017-Dec-11 10:30N 31°31' E 121°23'1323273.7
2017-Dec-11 10:30N 31°41' E 121°13'1322913.8
2017-Dec-11 10:30N 31°31' E 121°22'36376791.1
2017-Dec-11 10:30N 37°33' E 121°24'353317301.1
2017-Dec-11 10:30N 31°41' E 121°11'22097.2
2017-Dec-11 10:30N 31°40' E 121°13'4553908.2
2017-Dec-11 10:30N 31°59' E 120°25'449161728.0
2017-Dec-11 10:30N 24°41' E 118°27'443177109.1
2017-Dec-11 10:30N 31°33' E 121°31'38417961.6
2017-Dec-11 10:28N 25°09' E 121°22'77951476862.9
2017-Dec-11 10:28N 09°29' W 013°43'77071321221.1
2017-Dec-11 10:28N 31°30' E 121°23'11587.2
2017-Dec-11 10:26N 31°38' E 121°14'2075355750.5
2017-Dec-11 10:26N 01°14' E 104°02'207246325.9
2017-Dec-11 10:23N 31°31' E 121°19'10504.2
2017-Dec-11 10:22N 31°40' E 121°13'292034.9
2017-Dec-11 10:21N 31°15' E 121°30'363767.4
2017-Dec-11 10:21N 31°44' E 121°05'219480.0
2017-Dec-11 10:21N 31°30' E 121°24'6179.2
2017-Dec-11 10:19N 31°31' E 121°17'539.3
2017-Dec-11 10:11N 31°29' E 121°23'17206.6
2017-Dec-11 10:06N 31°44' E 121°12'4725537.1
2017-Dec-11 10:00N 24°26' E 117°53'473425643.6
2017-Dec-11 10:00N 31°59' E 120°26'2102.3
2017-Dec-11 10:00N 31°59' E 120°25'6659132.1
2017-Dec-11 09:59N 31°31' E 121°35'1710347.9
2017-Dec-11 09:59N 31°37' E 121°16'59531.8
2017-Dec-11 09:59N 31°33' E 121°20'72428.5
2017-Dec-11 09:59N 31°38' E 121°15'111364.5
2017-Dec-11 09:59N 31°29' E 121°23'36477054.9
2017-Dec-11 09:58N 37°33' E 121°24'2393253339.7
2017-Dec-11 09:58N 01°13' E 103°58'70488457353.8
2017-Dec-11 09:58N 09°29' W 013°43'76954616709.6
2017-Dec-11 09:58N 31°43' E 121°13'39444359.6
2017-Dec-11 09:57N 25°09' E 121°23'381195693.1
2017-Dec-11 09:57N 31°30' E 121°24'4443.6
2017-Dec-11 09:56N 31°31' E 121°19'7177.9
2017-Dec-11 09:54N 31°38' E 121°16'7699219961.9
2017-Dec-11 09:52N 09°29' W 013°43'77021630909.5
2017-Dec-11 09:52N 31°31' E 121°17'43628030.7
2017-Dec-11 09:51N 24°41' E 118°27'22135.2
2017-Dec-11 09:41N 24°32' E 118°05'46011488.9
2017-Dec-11 09:39N 31°41' E 121°13'248.6
2017-Dec-11 09:36N 31°43' E 121°13'6274.7
2017-Dec-11 09:34N 31°37' E 121°17'651081.5
2017-Dec-11 09:31N 30°52' E 122°11'4522775136.4
2017-Dec-11 09:30N 44°09' E 028°40'457816479249.7
2017-Dec-11 09:30N 24°26' E 117°53'467186610.6
2017-Dec-11 09:30N 31°36' E 121°18'61214.4
2017-Dec-11 09:30N 31°41' E 121°15'1223.9
2017-Dec-11 09:30N 31°42' E 121°14'26987.3
2017-Dec-11 09:30N 31°41' E 121°13'81439.0
2017-Dec-11 09:29N 31°35' E 121°19'2902.0
2017-Dec-11 09:29N 31°35' E 121°17'4911820.5
2017-Dec-11 09:29N 31°59' E 120°26'5059521.6
2017-Dec-11 09:29N 31°36' E 121°18'2081312082.0
2017-Dec-11 09:29N 01°12' E 103°54'2080623976.4
2017-Dec-11 09:28N 31°35' E 121°19'7702990271.8
2017-Dec-11 09:28N 09°29' W 013°43'0 4.4
2017-Dec-11 09:28N 09°29' W 013°43'7647299221.8
2017-Dec-11 09:26N 31°59' E 120°25'5817443.6
2017-Dec-11 09:26N 31°30' E 121°24'36427846.1
2017-Dec-11 09:25N 37°33' E 121°24'34818159.7
2017-Dec-11 09:24N 31°46' E 121°06'775992.2
2017-Dec-11 09:23N 30°53' E 122°11'604475.0
2017-Dec-11 09:23N 31°31' E 121°17'5403.6
2017-Dec-11 09:22N 31°36' E 121°18'3195.8
2017-Dec-11 09:21N 31°39' E 121°15'81758.9
2017-Dec-11 09:20N 31°31' E 121°19'207129236.4
2017-Dec-11 09:16N 01°15' E 104°03'207525933.8
2017-Dec-11 09:11N 31°35' E 121°20'45760943.5
2017-Dec-11 09:11N 24°32' E 118°05'161943494.7
2017-Dec-11 09:09N 01°28' E 103°43'205941887.5
2017-Dec-11 09:06N 31°15' E 121°30'12168.0
2017-Dec-11 09:02N 31°15' E 121°16'4463259158.6
2017-Dec-11 09:00N 44°09' E 028°40'445416034082.9
2017-Dec-11 09:00N 31°31' E 121°17'462151088.1
2017-Dec-11 09:00N 24°26' E 117°53'465119479.6
2017-Dec-11 09:00N 31°32' E 121°22'14986.0
2017-Dec-11 09:00N 31°33' E 121°20'770413867176.6
2017-Dec-11 09:00N 09°29' W 013°43'76993079751.2
2017-Dec-11 09:00N 31°38' E 121°17'2611781.6
2017-Dec-11 09:00N 31°14' E 121°29'163848.1
2017-Dec-11 08:59N 31°30' E 121°24'112727.1
2017-Dec-11 08:59N 31°38' E 121°15'20762491222.9
2017-Dec-11 08:59N 01°14' E 104°00'1622389343.7
2017-Dec-11 08:59N 24°32' E 118°05'440396039.4
2017-Dec-11 08:59N 30°55' E 122°10'639813.0
2017-Dec-11 08:58N 31°38' E 121°17'4828829.4
2017-Dec-11 08:58N 31°59' E 120°26'338243035.4
2017-Dec-11 08:58N 37°33' E 121°24'76221192933.6
2017-Dec-11 08:58N 09°29' W 013°43'0 4.3
2017-Dec-11 08:58N 09°29' W 013°43'7704770401.1
2017-Dec-11 08:57N 31°33' E 121°20'2232.2
2017-Dec-11 08:57N 31°32' E 121°22'6237.0
2017-Dec-11 08:55N 31°37' E 121°17'81249.7
2017-Dec-11 08:55N 31°30' E 121°23'201708.3
2017-Dec-11 08:54N 31°44' E 121°05'2085469133.1
2017-Dec-11 08:54N 01°10' E 103°50'2085394997.4
2017-Dec-11 08:53N 31°35' E 121°20'676608551.5
2017-Dec-11 08:53N 22°19' E 114°10'677128216.6
2017-Dec-11 08:53N 31°41' E 121°13'44860.5
2017-Dec-11 08:50N 31°59' E 120°25'206751673.1
2017-Dec-11 08:48N 01°28' E 103°43'206840035.4
2017-Dec-11 08:44N 31°31' E 121°19'11193.1
2017-Dec-11 08:41N 31°40' E 121°12'111425.1
2017-Dec-11 08:41N 31°37' E 121°25'208312373.1
2017-Dec-11 08:31N 01°13' E 103°56'48998817413.0
2017-Dec-11 08:30N 44°09' E 028°40'445216025733.9
2017-Dec-11 08:30N 31°36' E 121°18'44314.4
2017-Dec-11 08:30N 31°38' E 121°22'828932.5
2017-Dec-11 08:30N 31°31' E 121°17'462237427.0
2017-Dec-11 08:30N 24°26' E 117°53'464119359.9
2017-Dec-11 08:30N 31°30' E 121°25'28315.3
2017-Dec-11 08:30N 31°32' E 121°23'55198679.4
2017-Dec-11 08:30N 31°59' E 120°26'20831500109.9
2017-Dec-11 08:30N 01°09' E 103°47'2088939391.5
2017-Dec-11 08:30N 31°40' E 121°12'2250.7
2017-Dec-11 08:29N 31°39' E 121°14'132511.1
2017-Dec-11 08:29N 31°30' E 121°25'454327049.2
2017-Dec-11 08:29N 24°32' E 118°05'463151637.0
2017-Dec-11 08:29N 31°59' E 120°25'4453353.7
2017-Dec-11 08:29N 31°41' E 121°13'35348851.0
2017-Dec-11 08:28N 37°33' E 121°24'1138682575.4
2017-Dec-11 08:28N 21°11' E 110°25'72171623816.3
2017-Dec-11 08:28N 09°29' W 013°43'0 9.0
2017-Dec-11 08:28N 09°29' W 013°43'7702469965.7
2017-Dec-11 08:27N 31°35' E 121°19'386694089.8
2017-Dec-11 08:27N 25°09' E 121°23'366101383.4
2017-Dec-11 08:27N 31°15' E 121°16'168338.1
2017-Dec-11 08:26N 31°31' E 121°19'477.1
2017-Dec-11 08:23N 31°35' E 121°20'4373.7
2017-Dec-11 08:23N 31°37' E 121°25'13391.6
2017-Dec-11 08:21N 31°41' E 121°10'163908.0
2017-Dec-11 08:20N 31°30' E 121°24'67413252.7
2017-Dec-11 08:17N 22°19' E 114°10'67645946.5
2017-Dec-11 08:16N 31°41' E 121°11'41176.7
2017-Dec-11 08:16N 31°43' E 121°08'756.9
2017-Dec-11 08:09N 31°38' E 121°14'11353.4
2017-Dec-11 08:07N 31°30' E 121°23'10732.8
2017-Dec-11 08:06N 31°38' E 121°15'208323584.6
2017-Dec-11 08:01N 01°11' E 103°52'489717627841.0
2017-Dec-11 08:00N 44°09' E 028°40'435115664829.8
2017-Dec-11 08:00N 21°14' E 110°26'4551636289.5
2017-Dec-11 08:00N 24°26' E 117°53'465837082.4
2017-Dec-11 08:00N 31°33' E 121°21'62563.5
2017-Dec-11 08:00N 31°37' E 121°16'4828582.4
2017-Dec-11 08:00N 31°59' E 120°26'5294206.4
2017-Dec-11 08:00N 31°34' E 121°20'53702.3
2017-Dec-11 08:00N 31°30' E 121°24'451108336.0
2017-Dec-11 08:00N 24°32' E 118°10'45686383.0
2017-Dec-11 08:00N 31°38' E 121°14'472579.2
2017-Dec-11 07:58N 31°59' E 120°25'5118450.8
2017-Dec-11 07:58N 31°36' E 121°19'2091940952.0
2017-Dec-11 07:58N 01°06' E 103°44'70351809050.6
2017-Dec-11 07:58N 09°29' W 013°43'0 3.2
2017-Dec-11 07:58N 09°29' W 013°43'77072774604.1
2017-Dec-11 07:58N 31°30' E 121°23'38142836.2
2017-Dec-11 07:57N 25°10' E 121°24'1849745.8
2017-Dec-11 07:56N 24°32' E 118°05'46097421.9
2017-Dec-11 07:56N 31°37' E 121°25'11191.2
2017-Dec-11 07:52N 31°41' E 121°13'11774.2
2017-Dec-11 07:51N 31°31' E 121°17'2150.2
2017-Dec-11 07:51N 31°31' E 121°19'132312.9
2017-Dec-11 07:50N 31°41' E 121°10'13163.4
2017-Dec-11 07:46N 31°32' E 121°20'17178.2
2017-Dec-11 07:40N 31°15' E 121°16'32482.6
2017-Dec-11 07:36N 31°09' E 121°53'208023475.2
2017-Dec-11 07:31N 01°09' E 103°48'12652276671.7
2017-Dec-11 07:30N 21°12' E 110°25'1270653098.4
2017-Dec-11 07:30N 01°06' E 103°41'20911881810.4
2017-Dec-11 07:30N 31°32' E 121°23'382152873.3
2017-Dec-11 07:30N 25°09' E 121°22'195351176.2
2017-Dec-11 07:30N 24°26' E 117°53'183875.6
2017-Dec-11 07:30N 24°32' E 118°11'4431593089.5
2017-Dec-11 07:30N 31°09' E 121°54'403765.2
2017-Dec-11 07:29N 31°35' E 121°19'8821.9
2017-Dec-11 07:29N 31°41' E 121°13'1612.8
2017-Dec-11 07:29N 31°40' E 121°12'35370655.9
2017-Dec-11 07:28N 37°33' E 121°24'338202935.0
2017-Dec-11 07:28N 31°59' E 120°25'76471619323.5
2017-Dec-11 07:28N 09°29' W 013°43'77074623912.1
2017-Dec-11 07:28N 31°32' E 121°23'77079247813.0
2017-Dec-11 07:28N 09°29' W 013°43'7704200978.7
2017-Dec-11 07:25N 31°15' E 121°16'6464.4
2017-Dec-11 07:25N 31°12' E 121°09'221388.8
2017-Dec-11 07:24N 31°28' E 121°28'61772.5
2017-Dec-11 07:19N 31°59' E 120°26'8443638.8
2017-Dec-11 07:05N 21°05' E 110°30'85373136.7
2017-Dec-11 07:04N 31°31' E 121°17'9196.4
2017-Dec-11 07:02N 31°39' E 121°16'827489.9
2017-Dec-11 07:02N 31°37' E 121°25'121930.8
2017-Dec-11 07:01N 31°41' E 121°11'151436.6
2017-Dec-11 07:01N 31°30' E 121°23'20881073924.5
2017-Dec-11 07:01N 01°06' E 103°44'48948809418.0
2017-Dec-11 07:00N 44°09' E 028°40'44563208101.9
2017-Dec-11 07:00N 31°33' E 121°21'8563080096.0
2017-Dec-11 07:00N 21°11' E 110°25'12672279977.8
2017-Dec-11 07:00N 01°09' E 103°38'16271463940.4
2017-Dec-11 07:00N 24°26' E 117°53'466558672.7
2017-Dec-11 07:00N 31°34' E 121°19'62231.0
2017-Dec-11 07:00N 31°39' E 121°17'102084.7
2017-Dec-11 07:00N 31°45' E 121°06'39535587.4
2017-Dec-11 06:59N 25°10' E 121°23'381457333.0
2017-Dec-11 06:59N 31°31' E 121°25'1105.3
2017-Dec-11 06:58N 31°30' E 121°24'364186994.5
2017-Dec-11 06:58N 37°33' E 121°24'338607588.4
2017-Dec-11 06:58N 31°59' E 120°26'2338.8
2017-Dec-11 06:58N 31°59' E 120°25'76474588071.6
2017-Dec-11 06:58N 09°29' W 013°43'774427880132.9
2017-Dec-11 06:58N 31°07' E 121°57'77443982870.6
2017-Dec-11 06:58N 09°29' W 013°43'76982131725.4
2017-Dec-11 06:58N 31°38' E 121°15'8431.6
2017-Dec-11 06:56N 31°31' E 121°19'16550.4
2017-Dec-11 06:55N 31°15' E 121°16'25764.3
2017-Dec-11 06:53N 31°41' E 121°13'1288.1
2017-Dec-11 06:52N 31°41' E 121°11'46511390.5
2017-Dec-11 06:50N 24°26' E 118°05'46583784.5
2017-Dec-11 06:50N 31°37' E 121°25'7396.7
2017-Dec-11 06:49N 31°30' E 121°23'5847.7
2017-Dec-11 06:48N 31°31' E 121°17'85311952.3
2017-Dec-11 06:44N 21°05' E 110°30'85721120.9
2017-Dec-11 06:42N 31°38' E 121°14'46277.9
2017-Dec-11 06:32N 31°58' E 120°26'4396222891.4
2017-Dec-11 06:30N 44°09' E 028°40'45785493071.7
2017-Dec-11 06:30N 24°26' E 117°53'16271171766.0
2017-Dec-11 06:30N 01°07' E 103°40'74835.1
2017-Dec-11 06:30N 01°12' E 103°36'12641516650.5
2017-Dec-11 06:30N 21°11' E 110°25'650468267.2
2017-Dec-11 06:30N 25°10' E 121°23'412742388.1
2017-Dec-11 06:30N 31°59' E 120°26'9657826.2
2017-Dec-11 06:30N 31°05' E 122°00'9618239.7
2017-Dec-11 06:30N 31°58' E 120°26'4925094.9
2017-Dec-11 06:30N 31°36' E 121°17'85785730.4
2017-Dec-11 06:29N 21°05' E 110°30'86068791.0
2017-Dec-11 06:28N 31°38' E 121°19'41455.7
2017-Dec-11 06:28N 31°37' E 121°24'77062522086.8
2017-Dec-11 06:28N 09°29' W 013°43'0 2.7
2017-Dec-11 06:28N 09°29' W 013°43'76476882085.9
2017-Dec-11 06:28N 31°59' E 120°25'442963.9
2017-Dec-11 06:27N 31°41' E 121°13'1412554.3
2017-Dec-11 06:27N 31°31' E 121°24'2071621156.2
2017-Dec-11 06:27N 01°28' E 103°43'20681241098.4
2017-Dec-11 06:26N 31°31' E 121°19'161882.1
2017-Dec-11 06:26N 31°15' E 121°16'405593.3
2017-Dec-11 06:25N 31°04' E 122°01'571091.1
2017-Dec-11 06:22N 31°41' E 121°11'352634200.2
2017-Dec-11 06:22N 37°33' E 121°24'36529831.6
2017-Dec-11 06:22N 31°29' E 121°27'6497.5
2017-Dec-11 06:21N 31°32' E 121°22'335.1
2017-Dec-11 06:15N 31°30' E 121°24'3818905.4
2017-Dec-11 06:13N 25°10' E 121°58'2154492.7
2017-Dec-11 06:10N 24°32' E 118°05'4642957.7
2017-Dec-11 06:00N 31°59' E 120°26'20817492173.4
2017-Dec-11 06:00N 01°17' E 103°36'20807487965.0
2017-Dec-11 06:00N 31°59' E 120°25'20851876564.7
2017-Dec-11 06:00N 01°11' E 103°37'1794807259.6
2017-Dec-11 06:00N 25°10' E 121°57'390140224.8
2017-Dec-11 06:00N 31°38' E 121°21'859281216.7
2017-Dec-11 06:00N 21°11' E 110°25'1138240907.8
2017-Dec-11 06:00N 37°33' E 121°24'8082908305.8
2017-Dec-11 06:00N 24°26' E 117°53'46555832.1
2017-Dec-11 05:59N 31°34' E 121°19'384153726.9
2017-Dec-11 05:59N 25°10' E 121°24'38024007.9
2017-Dec-11 05:58N 31°30' E 121°24'77083468741.3
2017-Dec-11 05:58N 09°29' W 013°43'7704894677.1
2017-Dec-11 05:57N 31°15' E 121°16'3819422.0
2017-Dec-11 05:57N 31°05' E 121°59'7746185900.7
2017-Dec-11 05:55N 09°29' W 013°43'770527737113.5
2017-Dec-11 05:55N 31°38' E 121°22'996.4
2017-Dec-11 05:49N 31°41' E 121°13'58443.1
2017-Dec-11 05:41N 31°04' E 122°06'8668136.7
2017-Dec-11 05:35N 21°05' E 110°30'85711907.8
2017-Dec-11 05:31N 31°30' E 121°23'44591783633.8
2017-Dec-11 05:30N 44°09' E 028°40'43963956567.0
2017-Dec-11 05:30N 31°59' E 120°26'8423031757.0
2017-Dec-11 05:30N 21°11' E 110°25'12621514093.6
2017-Dec-11 05:30N 01°15' E 103°36'20837500166.6
2017-Dec-11 05:30N 31°31' E 121°20'463416615.4
2017-Dec-11 05:30N 24°26' E 117°53'472849701.3
2017-Dec-11 05:30N 31°59' E 120°25'417750800.0
2017-Dec-11 05:30N 25°09' E 121°54'282067.4
2017-Dec-11 05:29N 25°09' E 121°23'1766529690.8
2017-Dec-11 05:29N 01°20' E 103°38'208296107.4
2017-Dec-11 05:28N 31°41' E 121°13'769527702298.2
2017-Dec-11 05:28N 09°29' W 013°43'77089249995.0
2017-Dec-11 05:28N 31°30' E 121°24'77085549993.8
2017-Dec-11 05:28N 09°29' W 013°43'77072522361.4
2017-Dec-11 05:28N 31°30' E 121°23'7490.0
2017-Dec-11 05:27N 31°38' E 121°22'356182866.2
2017-Dec-11 05:27N 37°33' E 121°24'35539918.4
2017-Dec-11 05:26N 31°39' E 121°17'459556.7
2017-Dec-11 05:26N 31°07' E 121°55'39306.2
2017-Dec-11 05:18N 31°31' E 121°19'121277.3
2017-Dec-11 05:18N 31°41' E 121°10'632372.6
2017-Dec-11 05:16N 31°03' E 122°09'462984.1
2017-Dec-11 05:15N 31°29' E 121°24'193418920.1
2017-Dec-11 05:09N 00°01' E 114°09'193423925.0
2017-Dec-11 05:04N 31°31' E 121°17'85537091.8
2017-Dec-11 05:03N 21°04' E 110°28'84623245.2
2017-Dec-11 05:01N 31°59' E 120°26'439615826267.8
2017-Dec-11 05:00N 44°09' E 028°40'47155658259.3
2017-Dec-11 05:00N 25°09' E 121°22'649194760.9
2017-Dec-11 05:00N 21°11' E 110°25'6741213363.8
2017-Dec-11 05:00N 25°09' E 121°51'416136263.6
2017-Dec-11 05:00N 31°59' E 120°25'472106211.4
2017-Dec-11 05:00N 24°26' E 117°53'469168690.8
2017-Dec-11 05:00N 31°41' E 121°10'353253888.1
2017-Dec-11 05:00N 37°33' E 121°24'23901075417.3
2017-Dec-11 04:59N 01°24' E 103°39'59059.2
2017-Dec-11 04:59N 01°20' E 103°37'7026284203.6
2017-Dec-11 04:58N 09°29' W 013°43'77084625001.2
2017-Dec-11 04:58N 31°30' E 121°24'770827749967.6
2017-Dec-11 04:58N 09°29' W 013°43'7667237939.5
2017-Dec-11 04:56N 00°01' E 114°09'1943333015.6
2017-Dec-11 04:55N 31°41' E 121°13'9660.7
2017-Dec-11 04:55N 31°38' E 121°22'44429072.1
2017-Dec-11 04:54N 24°41' E 118°27'492590140.9
2017-Dec-11 04:54N 21°04' E 110°28'8583088999.5
2017-Dec-11 04:54N 31°31' E 121°22'224.9
2017-Dec-11 04:48N 31°31' E 121°19'59962.4
2017-Dec-11 04:44N 30°47' E 122°05'601461.9
2017-Dec-11 04:42N 31°31' E 121°17'0 2.9
2017-Dec-11 04:38N 31°31' E 121°17'19399.6
2017-Dec-11 04:36N 31°47' E 121°06'4605554.4
2017-Dec-11 04:31N 24°27' E 118°34'46101659507.5
2017-Dec-11 04:30N 44°09' E 028°40'439615826298.7
2017-Dec-11 04:30N 31°59' E 120°26'842252645.1
2017-Dec-11 04:30N 21°11' E 110°25'6711208644.4
2017-Dec-11 04:30N 25°09' E 121°48'21887117.5
2017-Dec-11 04:30N 24°26' E 117°53'462276998.2
2017-Dec-11 04:30N 31°31' E 121°17'436104656.0
2017-Dec-11 04:30N 24°41' E 118°27'16431971498.9
2017-Dec-11 04:30N 01°24' E 103°39'2390860307.7
2017-Dec-11 04:30N 37°33' E 121°24'39370737.7
2017-Dec-11 04:29N 31°03' E 122°15'567400.6
2017-Dec-11 04:29N 31°32' E 121°20'38326023.1
2017-Dec-11 04:28N 25°09' E 121°23'77963508171.3
2017-Dec-11 04:28N 09°29' W 013°43'7647482955.2
2017-Dec-11 04:27N 31°59' E 120°25'4420006.6
2017-Dec-11 04:27N 31°41' E 121°13'15430.6
2017-Dec-11 04:25N 31°30' E 121°24'486583319.7
2017-Dec-11 04:25N 23°34' E 119°34'4985806.4
2017-Dec-11 04:19N 31°45' E 121°06'2384426.9
2017-Dec-11 04:19N 31°29' E 121°26'9711.4
2017-Dec-11 04:19N 31°38' E 121°22'7961.9
2017-Dec-11 04:18N 31°31' E 121°19'391.5
2017-Dec-11 04:16N 31°30' E 121°23'2069275919.1
2017-Dec-11 04:16N 01°27' E 103°44'162816556.6
2017-Dec-11 04:10N 24°26' E 118°33'148749577.5
2017-Dec-11 04:08N 00°01' E 114°09'193449032.8
2017-Dec-11 04:05N 31°31' E 121°17'45847062.8
2017-Dec-11 04:05N 24°26' E 118°05'44713405.6
2017-Dec-11 04:03N 31°15' E 121°29'194546.9
2017-Dec-11 04:03N 31°32' E 121°20'5718713.3
2017-Dec-11 04:02N 30°52' E 122°08'4519137881.4
2017-Dec-11 04:00N 44°09' E 028°40'45784119939.7
2017-Dec-11 04:00N 24°26' E 117°53'456410807.6
2017-Dec-11 04:00N 21°11' E 110°25'8423031757.0
2017-Dec-11 04:00N 31°59' E 120°26'5314668.8
2017-Dec-11 04:00N 31°31' E 121°19'43771543.9
2017-Dec-11 04:00N 24°41' E 118°27'4251529144.1
2017-Dec-11 04:00N 31°14' E 121°29'7123091.5
2017-Dec-11 04:00N 31°59' E 120°25'1105921.8
2017-Dec-11 03:58N 30°53' E 122°08'546940.7
2017-Dec-11 03:58N 31°30' E 121°23'77073963719.3
2017-Dec-11 03:58N 09°29' W 013°43'77965613083.3
2017-Dec-11 03:58N 25°09' E 121°23'77969355135.7
2017-Dec-11 03:58N 09°29' W 013°43'77081387501.4
2017-Dec-11 03:57N 31°30' E 121°24'36425172.8
2017-Dec-11 03:57N 37°33' E 121°24'36413357.8
2017-Dec-11 03:55N 31°30' E 121°24'81539.0
2017-Dec-11 03:55N 31°38' E 121°22'2075574694.9
2017-Dec-11 03:54N 01°27' E 103°44'2051194350.1
2017-Dec-11 03:54N 31°16' E 121°12'16344.4
2017-Dec-11 03:51N 31°31' E 121°17'1934103914.2
2017-Dec-11 03:50N 00°01' E 114°09'1337229237.4
2017-Dec-11 03:49N 22°18' E 114°09'27218832.1
2017-Dec-11 03:49N 24°25' E 118°31'4385597.5
2017-Dec-11 03:44N 31°14' E 121°29'302069.2
2017-Dec-11 03:43N 31°41' E 121°13'85824117.3
2017-Dec-11 03:41N 21°05' E 110°30'85533467.0
2017-Dec-11 03:39N 31°47' E 121°02'21297.5
2017-Dec-11 03:35N 31°31' E 121°17'5202.0
2017-Dec-11 03:34N 31°30' E 121°23'11432.2
2017-Dec-11 03:32N 31°39' E 121°14'4447152459.6
2017-Dec-11 03:30N 44°09' E 028°40'45785493248.0
2017-Dec-11 03:30N 24°26' E 117°53'456273873.2
2017-Dec-11 03:30N 21°11' E 110°25'856513513.7
2017-Dec-11 03:30N 31°39' E 121°15'2220125.8
2017-Dec-11 03:30N 31°17' E 121°10'37736659.5
2017-Dec-11 03:30N 37°33' E 121°24'33871624.1
2017-Dec-11 03:29N 31°59' E 120°25'5262965.6
2017-Dec-11 03:29N 31°31' E 121°17'529274.3
2017-Dec-11 03:29N 31°59' E 120°26'5733913.9
2017-Dec-11 03:29N 31°30' E 121°23'5376.2
2017-Dec-11 03:28N 31°31' E 121°17'77026931400.7
2017-Dec-11 03:28N 09°29' W 013°43'768513833716.8
2017-Dec-11 03:28N 31°46' E 121°04'76854611238.3
2017-Dec-11 03:28N 09°29' W 013°43'7708895162.9
2017-Dec-11 03:27N 31°30' E 121°24'859103049.1
2017-Dec-11 03:27N 21°04' E 110°28'858154452.1
2017-Dec-11 03:26N 31°31' E 121°22'123689.8
2017-Dec-11 03:26N 31°41' E 121°13'1943368072.4
2017-Dec-11 03:26N 00°01' E 114°09'1942466031.4
2017-Dec-11 03:26N 31°38' E 121°22'4591654179.7
2017-Dec-11 03:26N 24°24' E 118°30'459413090.1
2017-Dec-11 03:26N 31°40' E 121°12'2072248694.7
2017-Dec-11 03:25N 01°27' E 103°44'20691862287.7
2017-Dec-11 03:25N 31°30' E 121°23'3236.1
2017-Dec-11 03:24N 31°31' E 121°19'38210418.5
2017-Dec-11 03:22N 25°09' E 121°23'37985194.2
2017-Dec-11 03:22N 31°28' E 121°27'14157.7
2017-Dec-11 03:16N 31°38' E 121°15'461449.9
2017-Dec-11 03:14N 31°58' E 120°26'108595.5
2017-Dec-11 03:03N 30°57' E 122°09'611233.6
2017-Dec-11 03:01N 31°37' E 121°17'44498009090.8
2017-Dec-11 03:00N 44°09' E 028°40'43531119249.8
2017-Dec-11 03:00N 21°11' E 110°25'4561643230.6
2017-Dec-11 03:00N 24°26' E 117°53'468561359.3
2017-Dec-11 03:00N 31°38' E 121°15'233168.7
2017-Dec-11 03:00N 31°17' E 121°06'37796936.7
2017-Dec-11 03:00N 37°33' E 121°24'33838051.0
2017-Dec-11 02:59N 31°59' E 120°25'46764626.1
2017-Dec-11 02:59N 24°23' E 118°28'7640639598.3
2017-Dec-11 02:58N 09°29' W 013°43'77581214266.7
2017-Dec-11 02:57N 30°56' E 122°09'191273216.2
2017-Dec-11 02:56N 00°01' E 114°09'1943148795.2
2017-Dec-11 02:55N 31°41' E 121°13'1017943.0
2017-Dec-11 02:55N 31°33' E 121°20'77031260571.0
2017-Dec-11 02:55N 09°29' W 013°43'7690838943.4
2017-Dec-11 02:54N 31°43' E 121°08'196730.9
2017-Dec-11 02:54N 31°30' E 121°23'6152.9
2017-Dec-11 02:52N 31°31' E 121°17'511962.2
2017-Dec-11 02:50N 31°58' E 120°26'1118.0
2017-Dec-11 02:50N 31°59' E 120°26'57206012.9
2017-Dec-11 02:50N 31°30' E 121°24'81963.0
2017-Dec-11 02:50N 31°38' E 121°22'24438.7
2017-Dec-11 02:46N 31°15' E 121°30'172487.0
2017-Dec-11 02:46N 31°30' E 121°23'6108.7
2017-Dec-11 02:43N 31°35' E 121°19'445321809.1
2017-Dec-11 02:30N 44°09' E 028°40'44532671935.9
2017-Dec-11 02:30N 31°16' E 121°04'2125486.9
2017-Dec-11 02:30N 31°31' E 121°21'464238424.9
2017-Dec-11 02:30N 24°26' E 117°53'465209309.9
2017-Dec-11 02:30N 31°34' E 121°18'3696.2
2017-Dec-11 02:30N 31°31' E 121°17'36376775.8
2017-Dec-11 02:30N 37°33' E 121°24'1138127982.3
2017-Dec-11 02:29N 21°11' E 110°25'8563080581.2
2017-Dec-11 02:29N 31°35' E 121°18'1165.9
2017-Dec-11 02:29N 31°35' E 121°19'7702533235.2
2017-Dec-11 02:28N 09°29' W 013°43'0 5.0
2017-Dec-11 02:28N 09°29' W 013°43'7703956288.6
2017-Dec-11 02:27N 31°33' E 121°20'51168.8
2017-Dec-11 02:27N 31°30' E 121°24'157711.6
2017-Dec-11 02:27N 31°40' E 121°12'9471.6
2017-Dec-11 02:26N 31°38' E 121°22'46343836.6
2017-Dec-11 02:25N 24°22' E 118°26'456328397.0
2017-Dec-11 02:25N 31°30' E 121°23'14330.8
2017-Dec-11 02:22N 31°41' E 121°13'119468.9
2017-Dec-11 02:22N 31°31' E 121°17'19346962351.9
2017-Dec-11 02:22N 00°01' E 114°09'193513044.2
2017-Dec-11 02:13N 31°31' E 121°19'8533944.2
2017-Dec-11 02:01N 21°11' E 110°25'435315669619.1
2017-Dec-11 02:00N 44°09' E 028°40'45783295951.7
2017-Dec-11 02:00N 24°26' E 117°53'466209766.7
2017-Dec-11 02:00N 31°36' E 121°17'22362.1
2017-Dec-11 02:00N 31°34' E 121°18'2203.3
2017-Dec-11 02:00N 31°32' E 121°20'361216579.7
2017-Dec-11 01:59N 37°33' E 121°24'7621277144.6
2017-Dec-11 01:58N 09°29' W 013°43'0 4.4
2017-Dec-11 01:58N 09°29' W 013°43'77091027827.1
2017-Dec-11 01:57N 31°30' E 121°25'058.6
2017-Dec-11 01:57N 31°30' E 121°24'15715.7
2017-Dec-11 01:56N 31°41' E 121°13'11162.2
2017-Dec-11 01:52N 31°31' E 121°17'6340.0
2017-Dec-11 01:51N 31°37' E 121°17'676110605.1
2017-Dec-11 01:50N 22°18' E 114°09'67117902.4
2017-Dec-11 01:48N 31°31' E 121°17'278.8
2017-Dec-11 01:47N 31°31' E 121°19'548423.6
2017-Dec-11 01:46N 31°59' E 120°25'571012.8
2017-Dec-11 01:43N 31°30' E 121°23'56939.6
2017-Dec-11 01:39N 31°59' E 120°26'523350.5
2017-Dec-11 01:38N 31°38' E 121°22'11120.3
2017-Dec-11 01:33N 31°28' E 121°27'45810559.0
2017-Dec-11 01:30N 24°20' E 118°22'2719653.4
2017-Dec-11 01:30N 24°26' E 117°53'473851276.9
2017-Dec-11 01:30N 31°59' E 120°26'4718880.9
2017-Dec-11 01:30N 31°37' E 121°16'45732926.0
2017-Dec-11 01:29N 24°32' E 118°05'254304661.9
2017-Dec-11 01:29N 22°18' E 114°10'675607254.7
2017-Dec-11 01:29N 31°34' E 121°20'45178.3
2017-Dec-11 01:29N 31°37' E 121°16'6829.5
2017-Dec-11 01:29N 31°31' E 121°19'5492.6
2017-Dec-11 01:28N 31°30' E 121°24'61674.0
2017-Dec-11 01:28N 31°31' E 121°17'362118627.3
2017-Dec-11 01:28N 37°33' E 121°24'76213919621.9
2017-Dec-11 01:28N 09°29' W 013°43'72173711562.1
2017-Dec-11 01:28N 21°11' E 110°25'853306942.8
2017-Dec-11 01:27N 31°31' E 121°18'8573.7
2017-Dec-11 01:27N 31°28' E 121°26'10620.9
2017-Dec-11 01:26N 31°38' E 121°22'537098.8
2017-Dec-11 01:25N 31°59' E 120°25'532977.4
2017-Dec-11 01:24N 31°31' E 121°18'1112656.5
2017-Dec-11 01:24N 31°41' E 121°13'111579.8
2017-Dec-11 01:24N 31°31' E 121°17'45714443.5
2017-Dec-11 01:22N 24°26' E 118°05'46516403.3
2017-Dec-11 01:20N 31°41' E 121°11'4755147.4
2017-Dec-11 01:15N 24°14' E 118°09'4697533.6
2017-Dec-11 01:11N 31°30' E 121°23'742.8
2017-Dec-11 01:01N 31°38' E 121°22'467840847.8
2017-Dec-11 01:00N 24°19' E 118°20'460416574369.5
2017-Dec-11 01:00N 44°09' E 028°40'43967913159.9
2017-Dec-11 01:00N 31°59' E 120°26'4731702553.9
2017-Dec-11 01:00N 24°26' E 117°53'46492851.0
2017-Dec-11 01:00N 31°31' E 121°24'169307.1
2017-Dec-11 01:00N 31°41' E 121°11'121949.7
2017-Dec-11 01:00N 31°31' E 121°17'114220.4
2017-Dec-11 01:00N 31°41' E 121°13'460183821.7
2017-Dec-11 00:59N 24°32' E 118°05'183347.4
2017-Dec-11 00:59N 24°15' E 118°11'467105157.2
2017-Dec-11 00:59N 31°30' E 121°23'147.6
2017-Dec-11 00:58N 31°30' E 121°23'5725811.5
2017-Dec-11 00:58N 31°59' E 120°25'76473058702.1
2017-Dec-11 00:58N 09°29' W 013°43'76216859320.2
2017-Dec-11 00:58N 37°33' E 121°24'355639082.4
2017-Dec-11 00:58N 31°38' E 121°14'769727708897.9
2017-Dec-11 00:58N 09°29' W 013°43'7708770829.1
2017-Dec-11 00:57N 31°30' E 121°24'534225.9
2017-Dec-11 00:56N 30°53' E 122°08'016.4
2017-Dec-11 00:56N 30°53' E 122°08'685807.7
2017-Dec-11 00:55N 31°19' E 120°55'2340906.5
2017-Dec-11 00:55N 31°31' E 121°18'9258.5
2017-Dec-11 00:53N 31°39' E 121°13'101410.0
2017-Dec-11 00:52N 31°31' E 121°19'452.0
2017-Dec-11 00:48N 31°29' E 121°23'67355102.8
2017-Dec-11 00:47N 22°19' E 114°09'6718854.0
2017-Dec-11 00:43N 31°31' E 121°17'5748304284.5
2017-Dec-11 00:42N 37°52' W 122°28'574253831.1
2017-Dec-11 00:35N 31°29' E 121°26'458275015.2
2017-Dec-11 00:35N 24°26' E 118°05'4665841.0
2017-Dec-11 00:31N 31°38' E 121°22'445416033181.7
2017-Dec-11 00:31N 44°09' E 028°40'46038285724.9
2017-Dec-11 00:30N 24°18' E 118°18'2421856.0
2017-Dec-11 00:30N 24°26' E 117°53'46387660.5
2017-Dec-11 00:30N 31°27' E 121°29'814702.1
2017-Dec-11 00:30N 31°32' E 121°21'1322815.7
2017-Dec-11 00:30N 31°41' E 121°11'5747559141.7
2017-Dec-11 00:29N 37°52' W 122°27'618311129554.3
2017-Dec-11 00:29N 24°32' E 118°05'464185674.3
2017-Dec-11 00:29N 31°59' E 120°26'567472.5
2017-Dec-11 00:29N 31°30' E 121°23'1526287.0
2017-Dec-11 00:29N 31°41' E 121°11'122524.1
2017-Dec-11 00:28N 31°31' E 121°19'2230.5
2017-Dec-11 00:28N 31°31' E 121°17'77013080599.4
2017-Dec-11 00:28N 09°29' W 013°43'0 7.4
2017-Dec-11 00:28N 09°29' W 013°43'764727528343.9
2017-Dec-11 00:28N 31°59' E 120°25'534533.5
2017-Dec-11 00:27N 31°31' E 121°18'3629659.8
2017-Dec-11 00:25N 37°33' E 121°24'36417467.8
2017-Dec-11 00:23N 31°29' E 121°24'043.9
2017-Dec-11 00:23N 31°30' E 121°24'151466.2
2017-Dec-11 00:22N 31°41' E 121°13'1192.8
2017-Dec-11 00:16N 31°31' E 121°17'6713934.3
2017-Dec-11 00:05N 22°19' E 114°10'663298536.1
2017-Dec-11 00:05N 30°47' E 122°06'011.3
2017-Dec-11 00:04N 30°47' E 122°06'711525.6
2017-Dec-11 00:01N 31°41' E 121°11'4443639737.4
2017-Dec-11 00:01N 44°09' E 028°40'46028284236.8
2017-Dec-11 00:00N 24°17' E 118°16'475342188.9
2017-Dec-11 00:00N 31°59' E 120°25'4651674105.0
2017-Dec-11 00:00N 24°30' E 118°04'124618.0
2017-Dec-11 00:00N 24°26' E 117°53'465128777.5
2017-Dec-11 00:00N 31°34' E 121°18'96678.9
2017-Dec-11 00:00N 31°41' E 121°11'57473448266.7
2017-Dec-11 00:00N 37°52' W 122°27'57491149712.6
2017-Dec-11 00:00N 31°31' E 121°17'671185808.3
2017-Dec-10 23:59N 22°19' E 114°10'7419290319.9
2017-Dec-10 23:58N 09°29' W 013°43'762113718636.7
2017-Dec-10 23:58N 37°33' E 121°24'76216859327.6
2017-Dec-10 23:58N 09°29' W 013°43'7695615600.0
2017-Dec-10 23:57N 31°41' E 121°13'63379.1
2017-Dec-10 23:57N 31°37' E 121°17'8249.5
2017-Dec-10 23:55N 31°41' E 121°10'39429563.8
2017-Dec-10 23:54N 25°09' E 121°48'38398574.9
2017-Dec-10 23:54N 31°31' E 121°18'523594.9
2017-Dec-10 23:53N 31°59' E 120°26'571112.1
2017-Dec-10 23:50N 31°30' E 121°24'31778.8
2017-Dec-10 23:48N 30°59' E 121°23'321629.7
2017-Dec-10 23:46N 31°31' E 121°19'333.9
2017-Dec-10 23:41N 31°30' E 121°23'25210.9
2017-Dec-10 23:34N 31°20' E 120°57'465575.4
2017-Dec-10 23:33N 31°58' E 120°25'207148419.5
2017-Dec-10 23:31N 01°25' E 103°40'48771596159.7
2017-Dec-10 23:30N 44°09' E 028°40'45782354250.7
2017-Dec-10 23:30N 24°26' E 117°53'16125803681.5
2017-Dec-10 23:30N 01°25' E 103°40'1776456577.1
2017-Dec-10 23:30N 25°10' E 121°48'391140871.5
2017-Dec-10 23:30N 31°40' E 121°13'58134.6
2017-Dec-10 23:30N 31°36' E 121°17'41478.3
2017-Dec-10 23:30N 31°34' E 121°20'5293740.7
2017-Dec-10 23:30N 31°58' E 120°26'4721107.2
2017-Dec-10 23:30N 31°38' E 121°15'73643.8
2017-Dec-10 23:29N 31°31' E 121°18'5231168.3
2017-Dec-10 23:29N 31°59' E 120°26'4312992.4
2017-Dec-10 23:29N 31°41' E 121°13'112535.3
2017-Dec-10 23:29N 31°31' E 121°17'61186.8
2017-Dec-10 23:29N 31°30' E 121°24'465152267.3
2017-Dec-10 23:28N 24°16' E 118°13'61873181973.3
2017-Dec-10 23:28N 37°53' W 122°26'6211657636.1
2017-Dec-10 23:28N 09°29' W 013°43'76214572878.6
2017-Dec-10 23:28N 37°33' E 121°24'37412130.6
2017-Dec-10 23:26N 31°20' E 120°56'44158765.6
2017-Dec-10 23:25N 24°27' E 118°03'46632866.6
2017-Dec-10 23:25N 31°38' E 121°22'7252.8
2017-Dec-10 23:23N 31°30' E 121°23'571993.8
2017-Dec-10 23:21N 31°59' E 120°25'531369.8
2017-Dec-10 23:19N 31°31' E 121°18'67227164.9
2017-Dec-10 23:17N 22°19' E 114°10'67351512.0
2017-Dec-10 23:16N 31°31' E 121°19'12150.8
2017-Dec-10 23:12N 31°41' E 121°10'32195.7
2017-Dec-10 23:02N 31°14' E 121°30'4475191789.7
2017-Dec-10 23:00N 44°09' E 028°40'44578023312.6
2017-Dec-10 23:00N 31°31' E 121°21'463416961.1
2017-Dec-10 23:00N 24°26' E 117°53'16685226.2
2017-Dec-10 23:00N 22°41' E 120°12'17570046.8
2017-Dec-10 23:00N 25°10' E 121°51'20774568.6
2017-Dec-10 23:00N 24°15' E 118°12'115090.0
2017-Dec-10 23:00N 24°25' E 118°05'462832115.4
2017-Dec-10 23:00N 31°34' E 121°19'312313.7
2017-Dec-10 23:00N 31°31' E 121°18'55771.0
2017-Dec-10 23:00N 31°31' E 121°24'92162.8
2017-Dec-10 22:59N 31°38' E 121°17'676202945.9
2017-Dec-10 22:59N 22°19' E 114°10'67529297.9
2017-Dec-10 22:58N 31°38' E 121°14'76973463785.6
2017-Dec-10 22:58N 09°29' W 013°43'0 6.7
2017-Dec-10 22:58N 09°29' W 013°43'76216859327.9
2017-Dec-10 22:58N 37°33' E 121°24'364186969.8
2017-Dec-10 22:57N 31°30' E 121°24'4425.2
2017-Dec-10 22:57N 31°31' E 121°19'119969.8
2017-Dec-10 22:57N 31°41' E 121°13'44883.3
2017-Dec-10 22:54N 31°59' E 120°25'2076934012.4
2017-Dec-10 22:54N 01°21' E 103°38'2067496152.1
2017-Dec-10 22:53N 31°14' E 121°30'18295.2
2017-Dec-10 22:50N 31°30' E 121°23'16557.2
2017-Dec-10 22:48N 31°41' E 121°10'32138.8
2017-Dec-10 22:34N 31°14' E 121°30'18293.0
2017-Dec-10 22:30N 31°31' E 121°23'469563250.6
2017-Dec-10 22:30N 24°14' E 118°10'480864284.6
2017-Dec-10 22:30N 31°59' E 120°26'7042007.0
2017-Dec-10 22:30N 31°14' E 121°29'1712484.9
2017-Dec-10 22:30N 31°30' E 121°23'46379405.8
2017-Dec-10 22:30N 24°26' E 117°53'46993855.3
2017-Dec-10 22:30N 31°35' E 121°27'131160.4
2017-Dec-10 22:29N 31°40' E 121°12'135170.7
2017-Dec-10 22:29N 31°30' E 121°23'14921.3
2017-Dec-10 22:28N 31°41' E 121°13'76954616989.2
2017-Dec-10 22:28N 09°30' W 013°43'0 4.8
2017-Dec-10 22:28N 09°29' W 013°43'762113718635.2
2017-Dec-10 22:28N 37°33' E 121°24'365131262.9
2017-Dec-10 22:27N 31°29' E 121°26'534192178.4
2017-Dec-10 22:27N 22°39' E 120°11'1606340189.7
2017-Dec-10 22:27N 01°20' E 103°37'2077467355.1
2017-Dec-10 22:27N 31°31' E 121°18'5315867.3
2017-Dec-10 22:27N 31°59' E 120°25'47144618.4
2017-Dec-10 22:26N 24°24' E 118°06'2505664.0
2017-Dec-10 22:23N 22°19' E 114°10'24016971.0
2017-Dec-10 22:22N 24°10' E 118°02'391422.5
2017-Dec-10 22:21N 24°41' E 118°27'21274.1
2017-Dec-10 22:16N 24°21' E 118°22'617686177.7
2017-Dec-10 22:12N 37°55' W 122°25'574883781.2
2017-Dec-10 22:08N 31°44' E 121°07'16265.3
2017-Dec-10 22:04N 31°31' E 121°18'201162.2
2017-Dec-10 22:03N 31°14' E 121°30'447598839.2
2017-Dec-10 22:01N 44°09' E 028°40'45984138255.1
2017-Dec-10 22:00N 24°13' E 118°07'619511150362.5
2017-Dec-10 22:00N 37°54' W 122°25'619911158000.0
2017-Dec-10 22:00N 24°12' E 118°04'480345533.9
2017-Dec-10 22:00N 31°43' E 121°08'5451962900.5
2017-Dec-10 22:00N 22°40' E 120°11'53462027.0
2017-Dec-10 22:00N 31°31' E 121°18'537933.2
2017-Dec-10 21:59N 31°59' E 120°25'443806.8
2017-Dec-10 21:59N 31°41' E 121°13'4325989.5
2017-Dec-10 21:59N 31°59' E 120°26'2077173928.2
2017-Dec-10 21:58N 01°20' E 103°37'70266323704.8
2017-Dec-10 21:58N 09°29' W 013°43'0 7.2
2017-Dec-10 21:58N 09°29' W 013°43'77143085567.9
2017-Dec-10 21:58N 31°33' E 121°31'193297.2
2017-Dec-10 21:57N 31°14' E 121°29'203067.3
2017-Dec-10 21:57N 31°31' E 121°18'437314353.9
2017-Dec-10 21:57N 24°41' E 118°27'27631017.5
2017-Dec-10 21:56N 22°19' E 114°10'67428532.7
2017-Dec-10 21:55N 31°30' E 121°24'364130876.7
2017-Dec-10 21:55N 37°33' E 121°24'808126518.5
2017-Dec-10 21:54N 24°20' E 118°21'4589812.4
2017-Dec-10 21:51N 31°31' E 121°17'5183.0
2017-Dec-10 21:50N 31°30' E 121°23'46166369.4
2017-Dec-10 21:49N 24°24' E 118°06'46930175.6
2017-Dec-10 21:48N 31°43' E 121°13'6188.9
2017-Dec-10 21:47N 31°38' E 121°17'5717.7
2017-Dec-10 21:46N 31°40' E 121°12'225.1
2017-Dec-10 21:42N 31°41' E 121°11'33183.6
2017-Dec-10 21:31N 31°13' E 121°30'5750413964.3
2017-Dec-10 21:30N 37°52' W 122°26'68523523757.4
2017-Dec-10 21:30N 44°09' E 028°40'47605711463.4
2017-Dec-10 21:30N 22°42' E 120°10'1608964961.3
2017-Dec-10 21:30N 01°20' E 103°37'1617582186.0
2017-Dec-10 21:30N 24°26' E 117°53'357827.3
2017-Dec-10 21:30N 24°41' E 118°27'3311811.6
2017-Dec-10 21:30N 24°14' E 118°07'24737031.8
2017-Dec-10 21:29N 22°19' E 114°10'6701206465.8
2017-Dec-10 21:29N 31°59' E 120°26'22710.1
2017-Dec-10 21:29N 31°59' E 120°25'579334.6
2017-Dec-10 21:29N 31°30' E 121°23'151890.3
2017-Dec-10 21:28N 31°41' E 121°11'7694865521.1
2017-Dec-10 21:28N 09°29' W 013°43'0 6.4
2017-Dec-10 21:28N 09°29' W 013°43'76869223053.4
2017-Dec-10 21:28N 31°07' E 120°54'387696465.4
2017-Dec-10 21:28N 37°33' E 121°24'38011304.2
2017-Dec-10 21:26N 31°13' E 121°30'44840295.4
2017-Dec-10 21:25N 24°24' E 118°06'46854346.2
2017-Dec-10 21:24N 31°41' E 121°15'3135.9
2017-Dec-10 21:23N 31°38' E 121°15'3828.6
2017-Dec-10 21:23N 31°41' E 121°13'111072.4
2017-Dec-10 21:22N 31°31' E 121°19'7170.9
2017-Dec-10 21:20N 31°38' E 121°17'7294.7
2017-Dec-10 21:19N 31°31' E 121°18'542.7
2017-Dec-10 21:11N 31°30' E 121°24'7434.0
2017-Dec-10 21:10N 31°35' E 121°19'436.1
2017-Dec-10 21:03N 31°31' E 121°17'207741999.4
2017-Dec-10 21:01N 01°20' E 103°37'1618582374.4
2017-Dec-10 21:00N 24°16' E 118°10'1934736.4
2017-Dec-10 21:00N 24°26' E 117°53'473283765.9
2017-Dec-10 21:00N 31°59' E 120°26'45060014.2
2017-Dec-10 21:00N 24°41' E 118°27'407244158.0
2017-Dec-10 21:00N 31°06' E 120°56'43164670.6
2017-Dec-10 20:59N 24°19' E 118°17'257185178.2
2017-Dec-10 20:59N 22°19' E 114°10'677187347.0
2017-Dec-10 20:59N 31°38' E 121°17'4925183.3
2017-Dec-10 20:59N 31°59' E 120°25'584868.0
2017-Dec-10 20:58N 31°30' E 121°24'57432953390.4
2017-Dec-10 20:58N 37°51' W 122°28'62131398028.4
2017-Dec-10 20:58N 09°29' W 013°43'0 7.8
2017-Dec-10 20:58N 09°29' W 013°43'77003960068.2
2017-Dec-10 20:58N 31°36' E 121°17'4994.3
2017-Dec-10 20:57N 31°33' E 121°20'61054.3
2017-Dec-10 20:57N 31°39' E 121°17'35520597.3
2017-Dec-10 20:56N 37°33' E 121°24'363130623.9
2017-Dec-10 20:56N 31°30' E 121°23'14364.3
2017-Dec-10 20:54N 31°41' E 121°13'11231.9
2017-Dec-10 20:51N 31°31' E 121°18'46014268.7
2017-Dec-10 20:49N 24°24' E 118°06'4602682.5
2017-Dec-10 20:39N 31°31' E 121°18'1 7.7
2017-Dec-10 20:35N 31°31' E 121°17'349.9
2017-Dec-10 20:31N 31°34' E 121°19'44548016342.6
2017-Dec-10 20:30N 44°09' E 028°40'457816479758.7
2017-Dec-10 20:30N 24°26' E 117°53'473851297.6
2017-Dec-10 20:30N 31°59' E 120°26'5829578.7
2017-Dec-10 20:30N 31°30' E 121°25'464208721.7
2017-Dec-10 20:30N 24°18' E 118°14'16215835629.9
2017-Dec-10 20:30N 01°20' E 103°37'20821249496.1
2017-Dec-10 20:30N 31°41' E 121°11'3311874.3
2017-Dec-10 20:30N 31°13' E 121°30'2115191.4
2017-Dec-10 20:30N 31°31' E 121°18'463416275.7
2017-Dec-10 20:30N 24°18' E 118°15'468842103.1
2017-Dec-10 20:30N 31°37' E 121°16'102608.2
2017-Dec-10 20:29N 31°30' E 121°24'674127647.0
2017-Dec-10 20:29N 22°19' E 114°10'989296675.8
2017-Dec-10 20:29N 37°33' E 121°24'36393301.2
2017-Dec-10 20:29N 31°30' E 121°23'92677.0
2017-Dec-10 20:29N 31°38' E 121°17'7729.0
2017-Dec-10 20:28N 31°31' E 121°17'86930.5
2017-Dec-10 20:28N 31°38' E 121°21'4671681540.7
2017-Dec-10 20:28N 24°24' E 118°06'76183047267.3
2017-Dec-10 20:28N 09°29' W 013°43'7707840729.5
2017-Dec-10 20:27N 31°32' E 121°23'7707182527.0
2017-Dec-10 20:25N 09°29' W 013°43'7695258897.5
2017-Dec-10 20:23N 31°41' E 121°13'189.9
2017-Dec-10 20:22N 31°41' E 121°11'1251.2
2017-Dec-10 20:09N 31°31' E 121°18'13133.6
2017-Dec-10 20:03N 31°30' E 121°33'46612159.6
2017-Dec-10 20:00N 24°26' E 117°53'457816479772.4
2017-Dec-10 20:00N 44°09' E 028°40'48793512579.6
2017-Dec-10 20:00N 01°20' E 103°37'20777478860.3
2017-Dec-10 20:00N 31°59' E 120°26'474341061.1
2017-Dec-10 20:00N 24°19' E 118°17'242768.3
2017-Dec-10 20:00N 24°41' E 118°27'283392.7
2017-Dec-10 19:59N 24°16' E 118°12'814154148.9
2017-Dec-10 19:59N 37°33' E 121°24'989154787.4
2017-Dec-10 19:59N 22°19' E 114°10'674202296.7
2017-Dec-10 19:58N 31°32' E 121°22'34924.6
2017-Dec-10 19:58N 31°30' E 121°24'84510.7
2017-Dec-10 19:58N 31°35' E 121°18'82315.7
2017-Dec-10 19:58N 31°41' E 121°11'467186768.0
2017-Dec-10 19:58N 24°24' E 118°06'460413652.0
2017-Dec-10 19:58N 31°28' E 121°27'77115551984.3
2017-Dec-10 19:58N 09°29' W 013°43'0 8.0
2017-Dec-10 19:58N 09°29' W 013°43'7702396111.6
2017-Dec-10 19:56N 31°31' E 121°18'185.9
2017-Dec-10 19:56N 31°31' E 121°17'533506.9
2017-Dec-10 19:55N 31°59' E 120°25'4411421.6
2017-Dec-10 19:55N 31°41' E 121°13'223.7
2017-Dec-10 19:51N 31°41' E 121°11'6340.7
2017-Dec-10 19:50N 31°38' E 121°17'779.4
2017-Dec-10 19:45N 31°31' E 121°18'445518625.4
2017-Dec-10 19:30N 44°09' E 028°40'460416574823.3
2017-Dec-10 19:30N 24°20' E 118°21'2695124.1
2017-Dec-10 19:30N 24°26' E 117°53'473567531.7
2017-Dec-10 19:30N 31°59' E 120°26'20771869716.5
2017-Dec-10 19:30N 01°20' E 103°37'20801069689.4
2017-Dec-10 19:30N 31°33' E 121°20'47065025.5
2017-Dec-10 19:30N 24°15' E 118°10'46880284.5
2017-Dec-10 19:29N 31°30' E 121°25'611074.4
2017-Dec-10 19:29N 31°31' E 121°18'53109.3
2017-Dec-10 19:29N 31°30' E 121°24'36465466.4
2017-Dec-10 19:29N 37°33' E 121°24'356639981.5
2017-Dec-10 19:29N 31°38' E 121°17'677105902.9
2017-Dec-10 19:29N 22°19' E 114°10'66977701.6
2017-Dec-10 19:28N 31°59' E 120°25'43155469.8
2017-Dec-10 19:28N 31°41' E 121°11'76941538735.0
2017-Dec-10 19:28N 09°29' W 013°43'012.9
2017-Dec-10 19:28N 09°29' W 013°43'7635499720.7
2017-Dec-10 19:27N 24°41' E 118°27'43637392.0
2017-Dec-10 19:26N 31°31' E 121°17'11714.2
2017-Dec-10 19:25N 31°41' E 121°13'46793378.2
2017-Dec-10 19:25N 24°24' E 118°06'46139477.1
2017-Dec-10 19:24N 31°30' E 121°24'54028562.5
2017-Dec-10 19:23N 22°33' E 120°20'54014625.4
2017-Dec-10 19:21N 31°31' E 121°18'937.9
2017-Dec-10 19:07N 31°28' E 121°27'45957033.5
2017-Dec-10 19:07N 24°27' E 117°59'458245567.4
2017-Dec-10 19:00N 44°09' E 028°40'45892360214.6
2017-Dec-10 19:00N 24°24' E 118°06'1720782.9
2017-Dec-10 19:00N 24°22' E 118°24'457548548.2
2017-Dec-10 19:00N 31°32' E 121°21'2079467758.4
2017-Dec-10 19:00N 01°20' E 103°37'20777478877.9
2017-Dec-10 19:00N 31°59' E 120°26'33820252.6
2017-Dec-10 18:59N 37°33' E 121°24'356639969.4
2017-Dec-10 18:59N 31°38' E 121°17'71746.4
2017-Dec-10 18:59N 31°31' E 121°21'674242512.2
2017-Dec-10 18:59N 22°19' E 114°10'6741212598.1
2017-Dec-10 18:59N 31°30' E 121°24'43892.9
2017-Dec-10 18:58N 31°31' E 121°19'111805.8
2017-Dec-10 18:58N 31°41' E 121°13'448002.6
2017-Dec-10 18:58N 31°59' E 120°25'764727528382.7
2017-Dec-10 18:58N 09°29' W 013°43'0 7.0
2017-Dec-10 18:58N 09°29' W 013°43'7635518577.7
2017-Dec-10 18:57N 24°41' E 118°27'16513204.1
2017-Dec-10 18:56N 22°33' E 120°20'540121527.5
2017-Dec-10 18:56N 31°30' E 121°23'295.3
2017-Dec-10 18:54N 31°29' E 121°26'74078.8
2017-Dec-10 18:54N 31°31' E 121°18'663.3
2017-Dec-10 18:49N 31°29' E 121°24'163609.6
2017-Dec-10 18:49N 31°41' E 121°11'46612805.1
2017-Dec-10 18:46N 24°26' E 118°02'46619510.6
2017-Dec-10 18:45N 31°41' E 121°11'123052.2
2017-Dec-10 18:45N 31°31' E 121°18'8334.0
2017-Dec-10 18:43N 31°28' E 121°27'446320868.1
2017-Dec-10 18:30N 44°09' E 028°40'45784119811.5
2017-Dec-10 18:30N 24°26' E 117°53'127186.9
2017-Dec-10 18:30N 24°24' E 118°06'472242630.4
2017-Dec-10 18:30N 31°59' E 120°26'5650747.0
2017-Dec-10 18:30N 31°30' E 121°23'1518580.9
2017-Dec-10 18:30N 31°41' E 121°11'20831874276.6
2017-Dec-10 18:30N 01°20' E 103°37'2079748295.2
2017-Dec-10 18:30N 31°29' E 121°25'45338857.9
2017-Dec-10 18:29N 24°23' E 118°28'804361823.8
2017-Dec-10 18:29N 37°33' E 121°24'9021623165.9
2017-Dec-10 18:29N 22°33' E 120°20'7771368088.9
2017-Dec-10 18:28N 09°29' W 013°43'0 6.5
2017-Dec-10 18:28N 09°29' W 013°43'77061631855.4
2017-Dec-10 18:27N 31°31' E 121°22'2293.8
2017-Dec-10 18:27N 31°32' E 121°21'43998672.1
2017-Dec-10 18:27N 24°41' E 118°27'4379947.6
2017-Dec-10 18:24N 31°31' E 121°18'5714.9
2017-Dec-10 18:24N 31°36' E 121°17'67532834.1
2017-Dec-10 18:23N 22°19' E 114°10'672484188.7
2017-Dec-10 18:22N 31°31' E 121°19'543237.2
2017-Dec-10 18:21N 31°59' E 120°25'992469.7
2017-Dec-10 18:19N 31°04' E 122°01'462264.7
2017-Dec-10 18:18N 31°31' E 121°18'11513.1
2017-Dec-10 18:17N 31°41' E 121°13'1492.8
2017-Dec-10 18:08N 31°30' E 121°23'1140.6
2017-Dec-10 18:07N 31°30' E 121°24'446039258.0
2017-Dec-10 18:00N 44°09' E 028°40'4578659169.2
2017-Dec-10 18:00N 24°26' E 117°53'469844697.4
2017-Dec-10 18:00N 31°41' E 121°11'5565574.6
2017-Dec-10 18:00N 31°05' E 121°59'451232165.2
2017-Dec-10 18:00N 24°24' E 118°06'2615675.6
2017-Dec-10 18:00N 24°41' E 118°27'43863037.1
2017-Dec-10 17:59N 31°31' E 121°21'2079356359.2
2017-Dec-10 17:59N 01°20' E 103°37'16072893124.4
2017-Dec-10 17:59N 22°33' E 120°20'34344092.3
2017-Dec-10 17:59N 22°19' E 114°10'271162516.7
2017-Dec-10 17:58N 24°25' E 118°31'45249318.4
2017-Dec-10 17:58N 31°32' E 121°20'77044622364.6
2017-Dec-10 17:58N 09°29' W 013°43'76975541639.0
2017-Dec-10 17:58N 31°38' E 121°14'769727708228.8
2017-Dec-10 17:58N 09°29' W 013°43'770713873175.3
2017-Dec-10 17:58N 31°30' E 121°23'5339.1
2017-Dec-10 17:57N 31°31' E 121°18'0 5.5
2017-Dec-10 17:56N 31°31' E 121°18'577.0
2017-Dec-10 17:53N 31°30' E 121°23'3787.0
2017-Dec-10 17:52N 31°31' E 121°19'4258.2
2017-Dec-10 17:51N 31°30' E 121°24'5813983.4
2017-Dec-10 17:51N 31°59' E 120°25'659701.0
2017-Dec-10 17:51N 31°30' E 121°33'5896.4
2017-Dec-10 17:50N 31°28' E 121°27'872.2
2017-Dec-10 17:43N 31°31' E 121°17'11456.0
2017-Dec-10 17:42N 31°41' E 121°13'17988.5
2017-Dec-10 17:41N 31°28' E 121°26'67446628.9
2017-Dec-10 17:40N 22°18' E 114°11'67422660.9
2017-Dec-10 17:38N 31°32' E 121°20'6683.6
2017-Dec-10 17:38N 31°29' E 121°25'446236176.1
2017-Dec-10 17:30N 44°09' E 028°40'458916520402.9
2017-Dec-10 17:30N 24°24' E 118°05'463166601.6
2017-Dec-10 17:30N 31°34' E 121°18'465558146.0
2017-Dec-10 17:30N 24°26' E 117°53'4731702595.1
2017-Dec-10 17:30N 31°59' E 120°26'4314192.0
2017-Dec-10 17:30N 31°41' E 121°13'20833748890.1
2017-Dec-10 17:30N 01°20' E 103°37'2079680284.4
2017-Dec-10 17:30N 31°29' E 121°24'437524430.7
2017-Dec-10 17:30N 24°41' E 118°27'436120805.1
2017-Dec-10 17:30N 31°31' E 121°17'54057185.7
2017-Dec-10 17:29N 22°33' E 120°20'9021082117.8
2017-Dec-10 17:29N 37°33' E 121°24'7621375854.1
2017-Dec-10 17:28N 09°29' W 013°43'0 6.5
2017-Dec-10 17:28N 09°29' W 013°43'77076936592.3
2017-Dec-10 17:28N 31°30' E 121°23'161702.5
2017-Dec-10 17:27N 31°41' E 121°11'4322039.9
2017-Dec-10 17:27N 31°59' E 120°25'66949157.8
2017-Dec-10 17:26N 22°19' E 114°10'674115493.3
2017-Dec-10 17:26N 31°30' E 121°23'1236.0
2017-Dec-10 17:25N 31°30' E 121°25'4452.6
2017-Dec-10 17:25N 31°32' E 121°20'266.6
2017-Dec-10 17:23N 31°31' E 121°18'46011907.9
2017-Dec-10 17:21N 24°24' E 118°06'4606208.0
2017-Dec-10 17:16N 31°31' E 121°19'1189.4
2017-Dec-10 17:09N 31°30' E 121°33'7346.3
2017-Dec-10 17:08N 31°30' E 121°24'1 5.7
2017-Dec-10 17:01N 31°30' E 121°24'4460472184.0
2017-Dec-10 17:00N 44°09' E 028°40'42272173661.8
2017-Dec-10 17:00N 37°33' E 121°24'363653337.4
2017-Dec-10 17:00N 31°30' E 121°22'23626.5
2017-Dec-10 17:00N 31°30' E 121°25'463119123.8
2017-Dec-10 17:00N 24°26' E 117°53'123318.2
2017-Dec-10 17:00N 24°24' E 118°06'46038493.0
2017-Dec-10 16:59N 31°31' E 121°18'460150580.7
2017-Dec-10 16:59N 24°24' E 118°05'462151308.2
2017-Dec-10 16:59N 31°33' E 121°19'674127673.2
2017-Dec-10 16:58N 22°19' E 114°10'7419621152.1
2017-Dec-10 16:58N 09°29' W 013°43'0 6.9
2017-Dec-10 16:58N 09°29' W 013°43'7026284210.5
2017-Dec-10 16:56N 01°20' E 103°37'2079299383.3
2017-Dec-10 16:56N 31°30' E 121°23'168.4
2017-Dec-10 16:55N 31°30' E 121°23'43719417.6
2017-Dec-10 16:54N 24°41' E 118°27'444133180.4
2017-Dec-10 16:54N 31°41' E 121°13'70125111.1
2017-Dec-10 16:54N 30°46' E 122°02'595096.6
2017-Dec-10 16:53N 31°31' E 121°17'6302.1
2017-Dec-10 16:52N 31°30' E 121°24'61190.5
2017-Dec-10 16:51N 31°31' E 121°17'131316.4
2017-Dec-10 16:51N 31°30' E 121°33'651238.4
2017-Dec-10 16:48N 31°59' E 120°25'611745.8
2017-Dec-10 16:46N 31°28' E 121°27'784.7
2017-Dec-10 16:40N 31°31' E 121°19'4512.2
2017-Dec-10 16:40N 31°30' E 121°24'53338.0
2017-Dec-10 16:31N 30°49' E 122°04'5321036.8
2017-Dec-10 16:30N 31°30' E 121°25'463166710.5
2017-Dec-10 16:30N 24°21' E 118°07'146239.7
2017-Dec-10 16:30N 24°26' E 117°53'123082.0
2017-Dec-10 16:30N 24°24' E 118°06'2647070.4
2017-Dec-10 16:30N 24°41' E 118°27'45095315.5
2017-Dec-10 16:30N 31°59' E 120°26'576437.9
2017-Dec-10 16:29N 31°30' E 121°24'52199.1
2017-Dec-10 16:29N 31°31' E 121°18'51800.6
2017-Dec-10 16:29N 31°30' E 121°23'105768.9
2017-Dec-10 16:29N 31°37' E 121°15'7924.7
2017-Dec-10 16:28N 31°31' E 121°17'77021155260.0
2017-Dec-10 16:28N 09°29' W 013°43'0 7.2
2017-Dec-10 16:28N 09°29' W 013°43'77079248807.2
2017-Dec-10 16:28N 31°30' E 121°23'572996.3
2017-Dec-10 16:26N 31°59' E 120°25'669109487.7
2017-Dec-10 16:26N 22°19' E 114°10'343154322.9
2017-Dec-10 16:26N 22°33' E 120°20'5419223.7
2017-Dec-10 16:22N 31°31' E 121°19'11255.6
2017-Dec-10 16:20N 31°30' E 121°33'13290.0
2017-Dec-10 16:17N 31°31' E 121°18'5278.3
2017-Dec-10 16:16N 31°30' E 121°24'379454333.5
2017-Dec-10 16:16N 25°12' E 121°43'39026029.8
2017-Dec-10 16:15N 31°41' E 121°11'7185.9
2017-Dec-10 16:13N 31°47' E 121°06'443521544.7
2017-Dec-10 16:00N 44°09' E 028°40'42272173663.1
2017-Dec-10 16:00N 37°33' E 121°24'808323147.4
2017-Dec-10 16:00N 24°26' E 117°53'1710413.1
2017-Dec-10 16:00N 24°18' E 118°09'1619224150.3
2017-Dec-10 16:00N 01°20' E 103°37'1622324420.7
2017-Dec-10 15:59N 24°24' E 118°06'471141293.4
2017-Dec-10 15:59N 31°59' E 120°25'669344101.7
2017-Dec-10 15:59N 22°19' E 114°10'7419338095.5
2017-Dec-10 15:58N 09°29' W 013°43'0 5.0
2017-Dec-10 15:58N 09°29' W 013°43'7716248021.8
2017-Dec-10 15:56N 31°30' E 121°33'131755.2
2017-Dec-10 15:55N 31°31' E 121°18'5231185.8
2017-Dec-10 15:55N 31°59' E 120°26'5613325.8
2017-Dec-10 15:55N 31°30' E 121°22'42221.6
2017-Dec-10 15:55N 31°31' E 121°17'67144.7
2017-Dec-10 15:55N 31°30' E 121°24'1236.8
2017-Dec-10 15:55N 31°30' E 121°23'1329.0
2017-Dec-10 15:54N 31°30' E 121°25'6787.7
2017-Dec-10 15:54N 31°31' E 121°18'437224532.0
2017-Dec-10 15:54N 24°41' E 118°27'44624315.9
2017-Dec-10 15:53N 31°45' E 121°06'2072865.9
2017-Dec-10 15:53N 31°30' E 121°23'3737.8
2017-Dec-10 15:52N 31°31' E 121°19'8134.8
2017-Dec-10 15:49N 31°38' E 121°14'814832.9
2017-Dec-10 15:49N 31°32' E 121°20'121142.1
2017-Dec-10 15:48N 31°41' E 121°11'16462.0
2017-Dec-10 15:46N 31°30' E 121°24'37835806.8
2017-Dec-10 15:45N 25°12' E 121°41'38415545.1
2017-Dec-10 15:44N 31°36' E 121°17'523.4
2017-Dec-10 15:31N 31°32' E 121°20'4455276522.7
2017-Dec-10 15:30N 44°09' E 028°40'45782354178.5
2017-Dec-10 15:30N 24°26' E 117°53'213765497.5
2017-Dec-10 15:30N 25°14' E 121°41'20140144.9
2017-Dec-10 15:30N 24°14' E 118°10'475855355.7
2017-Dec-10 15:30N 31°41' E 121°11'389350312.4
2017-Dec-10 15:30N 25°14' E 121°49'379227132.9
2017-Dec-10 15:30N 31°31' E 121°18'46053398.7
2017-Dec-10 15:29N 24°24' E 118°06'461414549.4
2017-Dec-10 15:29N 31°30' E 121°24'674186552.2
2017-Dec-10 15:29N 22°19' E 114°10'669267634.6
2017-Dec-10 15:29N 31°59' E 120°25'538224.0
2017-Dec-10 15:29N 31°31' E 121°17'7702589913.1
2017-Dec-10 15:28N 09°29' W 013°43'0 5.8
2017-Dec-10 15:28N 09°29' W 013°43'7698749016.0
2017-Dec-10 15:27N 31°37' E 121°15'442113582.6
2017-Dec-10 15:27N 24°41' E 118°27'1648988614.9
2017-Dec-10 15:27N 01°20' E 103°37'2078178078.4
2017-Dec-10 15:26N 31°59' E 120°26'535448.7
2017-Dec-10 15:25N 31°31' E 121°19'113970.8
2017-Dec-10 15:25N 31°41' E 121°13'143391.9
2017-Dec-10 15:25N 31°30' E 121°24'123879.3
2017-Dec-10 15:25N 31°39' E 121°14'123041.1
2017-Dec-10 15:25N 31°30' E 121°23'2137611.2
2017-Dec-10 15:25N 31°44' E 121°06'1815809.1
2017-Dec-10 15:24N 31°32' E 121°20'8155.6
2017-Dec-10 15:21N 31°38' E 121°14'71420.7
2017-Dec-10 15:21N 31°33' E 121°20'4167.7
2017-Dec-10 15:20N 31°30' E 121°23'15235.2
2017-Dec-10 15:16N 31°41' E 121°11'11764.7
2017-Dec-10 15:15N 31°31' E 121°17'13592.4
2017-Dec-10 15:14N 31°30' E 121°33'112261.7
2017-Dec-10 15:13N 31°32' E 121°20'0 3.4
2017-Dec-10 15:10N 31°32' E 121°20'7157.7
2017-Dec-10 15:07N 31°28' E 121°26'868.8
2017-Dec-10 15:01N 31°33' E 121°19'44545344767.7
2017-Dec-10 15:00N 44°09' E 028°40'43963956386.4
2017-Dec-10 15:00N 31°59' E 120°26'53190799.0
2017-Dec-10 15:00N 31°32' E 121°20'3621302204.2
2017-Dec-10 15:00N 37°33' E 121°24'7351322839.0
2017-Dec-10 15:00N 25°18' E 121°39'20112080.0
2017-Dec-10 14:59N 24°24' E 118°06'4611658104.6
2017-Dec-10 14:59N 31°30' E 121°24'6762.3
2017-Dec-10 14:59N 31°31' E 121°18'2077623164.0
2017-Dec-10 14:59N 01°20' E 103°37'20763737526.4
2017-Dec-10 14:59N 31°59' E 120°25'585191.7
2017-Dec-10 14:58N 31°30' E 121°24'77081734260.6
2017-Dec-10 14:58N 09°29' W 013°43'0 6.0
2017-Dec-10 14:58N 09°29' W 013°43'76951846888.0
2017-Dec-10 14:57N 31°39' E 121°13'15836.7
2017-Dec-10 14:56N 31°29' E 121°25'673151536.4
2017-Dec-10 14:56N 22°19' E 114°10'67423782.9
2017-Dec-10 14:54N 31°30' E 121°25'1510785.6
2017-Dec-10 14:54N 31°41' E 121°13'44455109.1
2017-Dec-10 14:54N 24°41' E 118°27'43823512.0
2017-Dec-10 14:53N 31°30' E 121°23'151207.7
2017-Dec-10 14:52N 31°41' E 121°11'8219.1
2017-Dec-10 14:50N 31°47' E 121°06'23318.0
2017-Dec-10 14:46N 31°30' E 121°23'112754.8
2017-Dec-10 14:45N 31°38' E 121°14'4296.2
2017-Dec-10 14:44N 31°35' E 121°17'168.8
2017-Dec-10 14:44N 31°36' E 121°18'4504.1
2017-Dec-10 14:43N 31°32' E 121°20'12163.0
2017-Dec-10 14:39N 31°41' E 121°11'647.6
2017-Dec-10 14:31N 31°38' E 121°17'91612.9
2017-Dec-10 14:31N 31°30' E 121°23'463119106.6
2017-Dec-10 14:31N 24°26' E 117°53'457816479232.5
2017-Dec-10 14:30N 44°09' E 028°40'44427995414.7
2017-Dec-10 14:30N 31°41' E 121°10'4174536.1
2017-Dec-10 14:30N 31°59' E 120°26'338607620.5
2017-Dec-10 14:30N 37°33' E 121°24'362651144.6
2017-Dec-10 14:30N 31°32' E 121°20'2081241704.9
2017-Dec-10 14:30N 01°17' E 103°36'2084577220.5
2017-Dec-10 14:30N 31°38' E 121°14'124982.6
2017-Dec-10 14:29N 31°30' E 121°24'5829941.6
2017-Dec-10 14:29N 31°59' E 120°25'4711695450.4
2017-Dec-10 14:29N 24°24' E 118°06'469140602.3
2017-Dec-10 14:29N 31°45' E 121°05'677405931.1
2017-Dec-10 14:29N 22°19' E 114°10'675404796.9
2017-Dec-10 14:29N 31°34' E 121°19'345040.2
2017-Dec-10 14:29N 31°05' E 120°59'373443.2
2017-Dec-10 14:28N 31°41' E 121°11'152495.9
2017-Dec-10 14:28N 31°30' E 121°23'37518733.3
2017-Dec-10 14:26N 25°15' E 121°41'37641051.7
2017-Dec-10 14:26N 31°31' E 121°18'55406.3
2017-Dec-10 14:26N 31°30' E 121°23'8783.8
2017-Dec-10 14:25N 31°37' E 121°16'1666.1
2017-Dec-10 14:25N 31°38' E 121°17'4436374.3
2017-Dec-10 14:21N 24°41' E 118°27'4448878.7
2017-Dec-10 14:18N 31°41' E 121°13'81748.1
2017-Dec-10 14:18N 31°34' E 121°18'3178.3
2017-Dec-10 14:16N 31°31' E 121°19'3206.0
2017-Dec-10 14:15N 31°30' E 121°23'5107.0
2017-Dec-10 14:13N 31°31' E 121°17'4592740.8
2017-Dec-10 14:03N 24°21' E 118°15'44713308.7
2017-Dec-10 14:01N 31°14' E 121°30'451124841.6
2017-Dec-10 14:01N 24°26' E 117°53'808415475.3
2017-Dec-10 14:00N 37°33' E 121°24'36426714.4
2017-Dec-10 14:00N 31°30' E 121°24'172829.6
2017-Dec-10 13:59N 31°14' E 121°30'664199174.5
2017-Dec-10 13:59N 22°19' E 114°10'25081885.3
2017-Dec-10 13:59N 24°24' E 118°06'8566.9
2017-Dec-10 13:58N 24°21' E 118°14'231183.6
2017-Dec-10 13:57N 24°41' E 118°27'165543161.4
2017-Dec-10 13:55N 01°13' E 103°36'208892786.0
2017-Dec-10 13:53N 31°36' E 121°17'5845.6
2017-Dec-10 13:53N 31°31' E 121°17'32029.8
2017-Dec-10 13:53N 31°32' E 121°20'35723.1
2017-Dec-10 13:53N 31°30' E 121°23'3843.2
2017-Dec-10 13:52N 31°31' E 121°19'73531.0
2017-Dec-10 13:52N 31°38' E 121°17'4911048.9
2017-Dec-10 13:52N 31°59' E 120°25'577383.4
2017-Dec-10 13:52N 31°30' E 121°23'46015317.4
2017-Dec-10 13:50N 24°25' E 118°04'4652721.4
2017-Dec-10 13:40N 31°39' E 121°13'1211044.2
2017-Dec-10 13:39N 31°30' E 121°23'52929.2
2017-Dec-10 13:39N 31°31' E 121°17'4564040.0
2017-Dec-10 13:33N 24°21' E 118°26'4607130604.9
2017-Dec-10 13:31N 44°09' E 028°40'457816479249.7
2017-Dec-10 13:30N 24°26' E 117°53'1730372.1
2017-Dec-10 13:30N 24°21' E 118°10'809582420.5
2017-Dec-10 13:30N 37°33' E 121°24'804578877.2
2017-Dec-10 13:30N 24°28' E 118°03'51396.4
2017-Dec-10 13:30N 24°24' E 118°06'16291172781.7
2017-Dec-10 13:30N 01°11' E 103°39'141050246.4
2017-Dec-10 13:28N 22°19' E 114°10'67131370.7
2017-Dec-10 13:27N 31°31' E 121°17'191922.8
2017-Dec-10 13:26N 31°15' E 121°30'212738.1
2017-Dec-10 13:26N 31°34' E 121°18'51272.2
2017-Dec-10 13:26N 31°30' E 121°23'3562.4
2017-Dec-10 13:25N 31°31' E 121°19'21744.7
2017-Dec-10 13:25N 31°31' E 121°17'71680.7
2017-Dec-10 13:25N 31°38' E 121°17'61988.0
2017-Dec-10 13:25N 31°32' E 121°20'4618.0
2017-Dec-10 13:25N 31°30' E 121°23'84000.1
2017-Dec-10 13:24N 31°37' E 121°22'84827.7
2017-Dec-10 13:24N 31°30' E 121°25'173968.7
2017-Dec-10 13:24N 31°41' E 121°11'151351.7
2017-Dec-10 13:23N 31°30' E 121°23'221023.9
2017-Dec-10 13:22N 31°47' E 121°06'231541.8
2017-Dec-10 13:21N 31°30' E 121°24'43768437.0
2017-Dec-10 13:21N 24°41' E 118°27'43722138.7
2017-Dec-10 13:20N 31°31' E 121°18'533664.0
2017-Dec-10 13:19N 31°59' E 120°25'54926.6
2017-Dec-10 13:15N 31°32' E 121°20'933850.3
2017-Dec-10 13:15N 31°39' E 121°13'33940.3
2017-Dec-10 13:13N 31°09' E 121°27'20531231530.7
2017-Dec-10 13:13N 01°27' E 103°45'206940049.1
2017-Dec-10 13:10N 31°30' E 121°24'45931763.2
2017-Dec-10 13:09N 24°20' E 118°24'460732139.6
2017-Dec-10 13:00N 44°09' E 028°40'459116528139.6
2017-Dec-10 13:00N 24°23' E 118°07'145416.0
2017-Dec-10 13:00N 24°26' E 117°53'1323347.0
2017-Dec-10 13:00N 24°32' E 118°05'82744.0
2017-Dec-10 13:00N 24°24' E 118°06'467210082.2
2017-Dec-10 13:00N 31°36' E 121°24'82475.1
2017-Dec-10 13:00N 31°31' E 121°17'193.5
2017-Dec-10 12:59N 31°31' E 121°18'672115134.2
2017-Dec-10 12:59N 22°19' E 114°10'141087499.2
2017-Dec-10 12:58N 01°10' E 103°42'2402221733.6
2017-Dec-10 12:57N 37°33' E 121°24'35263382.7
2017-Dec-10 12:57N 31°41' E 121°11'444114201.2
2017-Dec-10 12:57N 24°41' E 118°27'76352498602.6
2017-Dec-10 12:57N 09°29' W 013°43'7697291685.3
2017-Dec-10 12:55N 31°38' E 121°14'21395.6
2017-Dec-10 12:55N 31°38' E 121°17'77002132254.4
2017-Dec-10 12:55N 09°29' W 013°43'77006930056.6
2017-Dec-10 12:55N 31°36' E 121°17'5035843.0
2017-Dec-10 12:55N 31°59' E 120°25'388474.7
2017-Dec-10 12:54N 31°44' E 121°05'2177376.9
2017-Dec-10 12:54N 31°30' E 121°25'21978.9
2017-Dec-10 12:54N 31°30' E 121°23'460236550.4
2017-Dec-10 12:54N 24°19' E 118°22'46018609.0
2017-Dec-10 12:53N 31°30' E 121°23'3694.7
2017-Dec-10 12:52N 31°31' E 121°19'2068265904.9
2017-Dec-10 12:52N 01°27' E 103°45'70321582255.3
2017-Dec-10 12:52N 09°29' W 013°43'7696839539.5
2017-Dec-10 12:51N 31°39' E 121°13'2911516.1
2017-Dec-10 12:51N 31°14' E 121°30'84939702.8
2017-Dec-10 12:50N 21°05' E 110°30'85396001.0
2017-Dec-10 12:49N 31°31' E 121°17'550.1
2017-Dec-10 12:43N 31°30' E 121°23'10185.2
2017-Dec-10 12:40N 31°38' E 121°16'11121.9
2017-Dec-10 12:34N 31°30' E 121°24'446072325.9
2017-Dec-10 12:30N 44°09' E 028°40'44598026744.9
2017-Dec-10 12:30N 31°30' E 121°23'463208241.1
2017-Dec-10 12:30N 24°26' E 117°53'123612.4
2017-Dec-10 12:30N 24°24' E 118°06'467420358.1
2017-Dec-10 12:30N 31°41' E 121°11'151484.9
2017-Dec-10 12:29N 31°35' E 121°27'62784.5
2017-Dec-10 12:29N 31°30' E 121°23'9659.5
2017-Dec-10 12:28N 31°37' E 121°15'2691896.0
2017-Dec-10 12:28N 31°15' E 121°30'192783.0
2017-Dec-10 12:28N 31°31' E 121°17'2067496035.4
2017-Dec-10 12:28N 01°27' E 103°44'70323164484.3
2017-Dec-10 12:28N 09°29' W 013°43'7615702955.1
2017-Dec-10 12:27N 24°25' E 118°03'2710911.0
2017-Dec-10 12:27N 24°41' E 118°27'44288497.6
2017-Dec-10 12:27N 31°39' E 121°13'67569476.7
2017-Dec-10 12:26N 22°19' E 114°10'989296675.8
2017-Dec-10 12:26N 37°33' E 121°24'7621457287.5
2017-Dec-10 12:25N 09°29' W 013°43'76331717448.3
2017-Dec-10 12:24N 24°17' E 118°20'474142291.6
2017-Dec-10 12:24N 31°59' E 120°25'492595.8
2017-Dec-10 12:23N 31°38' E 121°17'42658.9
2017-Dec-10 12:23N 31°39' E 121°13'10845.1
2017-Dec-10 12:22N 31°31' E 121°19'208326591.0
2017-Dec-10 12:18N 01°10' E 103°46'158520311.3
2017-Dec-10 12:13N 23°01' E 118°58'53712797.9
2017-Dec-10 12:10N 31°47' E 120°59'273107.6
2017-Dec-10 12:10N 31°30' E 121°24'176137.9
2017-Dec-10 12:10N 31°14' E 121°30'39681.6
2017-Dec-10 12:06N 30°41' E 121°54'561944.5
2017-Dec-10 12:05N 31°30' E 121°23'556416.9
2017-Dec-10 12:04N 30°43' E 121°56'451674579.0
2017-Dec-10 12:00N 44°09' E 028°40'45152031960.9
2017-Dec-10 12:00N 30°40' E 121°53'431516935.3
2017-Dec-10 12:00N 24°26' E 117°53'434142118.3
2017-Dec-10 12:00N 30°43' E 121°56'109130499.1
2017-Dec-10 12:00N 31°59' E 120°25'33814849.2
2017-Dec-10 11:59N 37°33' E 121°24'989131856.6
2017-Dec-10 11:58N 22°19' E 114°10'1406361626.8
2017-Dec-10 11:58N 01°11' E 103°48'2086750925.4
2017-Dec-10 11:58N 31°38' E 121°17'77003464888.4
2017-Dec-10 11:58N 09°29' W 013°43'0 9.4
2017-Dec-10 11:58N 09°29' W 013°43'7707145269.7
2017-Dec-10 11:54N 31°30' E 121°23'45311828.0
2017-Dec-10 11:52N 24°31' E 118°05'20244.1
2017-Dec-10 11:47N 24°15' E 118°17'46546537.4
2017-Dec-10 11:47N 31°30' E 121°23'0231.8
2017-Dec-10 11:47N 31°30' E 121°23'248489.6
2017-Dec-10 11:46N 31°46' E 121°03'151566.8
2017-Dec-10 11:46N 31°38' E 121°17'5322.9
2017-Dec-10 11:45N 31°40' E 121°12'10855.5
2017-Dec-10 11:44N 31°31' E 121°17'141.9
2017-Dec-10 11:43N 31°31' E 121°18'5790.9
2017-Dec-10 11:43N 31°30' E 121°24'214435.2
2017-Dec-10 11:43N 31°44' E 121°06'371551.9
2017-Dec-10 11:41N 31°14' E 121°30'191294.7
2017-Dec-10 11:40N 31°31' E 121°19'47035227.8
2017-Dec-10 11:40N 24°12' E 118°11'47099509.7
2017-Dec-10 11:39N 31°30' E 121°25'23738.7
2017-Dec-10 11:37N 31°45' E 121°05'18778.5
2017-Dec-10 11:36N 31°32' E 121°20'2069232755.4
2017-Dec-10 11:35N 01°28' E 103°43'2072130864.6
2017-Dec-10 11:35N 31°39' E 121°13'3122.8
2017-Dec-10 11:33N 31°41' E 121°11'4443103853.8
2017-Dec-10 11:30N 44°09' E 028°40'45785493707.3
2017-Dec-10 11:30N 24°26' E 117°53'463166791.1
2017-Dec-10 11:30N 31°30' E 121°25'467420017.9
2017-Dec-10 11:30N 24°14' E 118°15'473170438.1
2017-Dec-10 11:30N 31°41' E 121°11'123595.1
2017-Dec-10 11:30N 31°31' E 121°18'1720213.1
2017-Dec-10 11:30N 31°45' E 121°06'469140646.1
2017-Dec-10 11:30N 24°24' E 118°06'80851910.9
2017-Dec-10 11:29N 37°33' E 121°24'363653151.9
2017-Dec-10 11:29N 31°30' E 121°23'9801.2
2017-Dec-10 11:28N 31°38' E 121°17'77002132225.0
2017-Dec-10 11:28N 09°29' W 013°43'77171028934.8
2017-Dec-10 11:27N 31°15' E 121°30'165097.2
2017-Dec-10 11:27N 31°30' E 121°24'128883.4
2017-Dec-10 11:27N 31°39' E 121°14'4711979.5
2017-Dec-10 11:27N 31°59' E 120°25'467186692.3
2017-Dec-10 11:27N 24°29' E 118°03'45552894.3
2017-Dec-10 11:26N 31°31' E 121°17'671201310.1
2017-Dec-10 11:26N 22°19' E 114°10'67273267.8
2017-Dec-10 11:25N 31°31' E 121°18'113575.2
2017-Dec-10 11:25N 31°40' E 121°11'76941538773.7
2017-Dec-10 11:25N 09°29' W 013°43'70285060363.3
2017-Dec-10 11:25N 01°25' E 103°40'2076133479.2
2017-Dec-10 11:24N 31°42' E 121°10'13526.5
2017-Dec-10 11:22N 31°31' E 121°19'60215698.6
2017-Dec-10 11:22N 30°37' E 121°50'6713371.5
2017-Dec-10 11:22N 31°38' E 121°17'121602.8
2017-Dec-10 11:22N 31°44' E 121°05'8461.4
2017-Dec-10 11:21N 31°39' E 121°13'121194.8
2017-Dec-10 11:20N 31°30' E 121°23'151.8
2017-Dec-10 11:19N 31°30' E 121°24'213009.3
2017-Dec-10 11:19N 31°45' E 121°06'2084357216.9
2017-Dec-10 11:18N 01°12' E 103°52'204926724.3
2017-Dec-10 11:14N 30°39' E 121°51'554600.7
2017-Dec-10 11:13N 31°29' E 121°24'4372604.2
2017-Dec-10 11:03N 24°41' E 118°27'43611544.9
2017-Dec-10 11:01N 31°31' E 121°17'44548017435.8
2017-Dec-10 11:00N 44°09' E 028°40'45785493241.6
2017-Dec-10 11:00N 24°26' E 117°53'463166793.1
2017-Dec-10 11:00N 31°30' E 121°25'1416201.0
2017-Dec-10 11:00N 31°39' E 121°13'464238859.5
2017-Dec-10 11:00N 24°26' E 118°03'423761139.4
2017-Dec-10 11:00N 30°38' E 121°49'5035799.4
2017-Dec-10 11:00N 31°25' E 121°30'3541612.9
2017-Dec-10 11:00N 31°06' E 120°56'43073692.7
2017-Dec-10 11:00N 24°24' E 118°06'468561391.3
2017-Dec-10 11:00N 31°43' E 121°08'2082340622.7
2017-Dec-10 10:59N 01°13' E 103°54'1402296877.4
2017-Dec-10 10:59N 22°19' E 114°10'1399279795.4
2017-Dec-10 10:59N 01°23' E 103°39'23912869150.2
2017-Dec-10 10:59N 37°33' E 121°24'818105141.2
2017-Dec-10 10:58N 24°12' E 118°12'47093918.6
2017-Dec-10 10:58N 31°31' E 121°20'77046933531.7
2017-Dec-10 10:58N 09°29' W 013°43'0 7.8
2017-Dec-10 10:58N 09°29' W 013°43'7647404828.1
2017-Dec-10 10:56N 31°59' E 120°25'4510906.4
2017-Dec-10 10:56N 31°39' E 121°13'121343.6
2017-Dec-10 10:56N 31°30' E 121°23'012.0
2017-Dec-10 10:54N 31°30' E 121°23'55729.0
2017-Dec-10 10:54N 31°31' E 121°17'122416.0
2017-Dec-10 10:54N 31°41' E 121°10'444106562.9
2017-Dec-10 10:54N 24°41' E 118°27'43723147.7
2017-Dec-10 10:53N 31°30' E 121°23'1191.9
2017-Dec-10 10:52N 31°29' E 121°23'44352.0
2017-Dec-10 10:52N 31°31' E 121°19'1662.5
2017-Dec-10 10:52N 31°31' E 121°18'51136.9
2017-Dec-10 10:52N 31°30' E 121°24'10190.7
2017-Dec-10 10:49N 31°38' E 121°17'6412.6
2017-Dec-10 10:48N 31°41' E 121°11'161301.8
2017-Dec-10 10:47N 31°30' E 121°24'7328.1
2017-Dec-10 10:46N 31°35' E 121°19'3523.4
2017-Dec-10 10:46N 31°38' E 121°17'7541.9
2017-Dec-10 10:45N 31°31' E 121°18'67215605.7
2017-Dec-10 10:42N 22°19' E 114°09'67916286.8
2017-Dec-10 10:40N 31°47' E 121°06'19352.2
2017-Dec-10 10:36N 31°32' E 121°20'445544928.6
2017-Dec-10 10:30N 44°09' E 028°40'45788239616.2
2017-Dec-10 10:30N 24°26' E 117°53'16131161168.0
2017-Dec-10 10:30N 01°14' E 103°57'2075257554.8
2017-Dec-10 10:30N 31°28' E 121°27'46091970.1
2017-Dec-10 10:30N 24°24' E 118°06'463151409.8
2017-Dec-10 10:29N 31°33' E 121°20'2079935750.5
2017-Dec-10 10:29N 01°21' E 103°38'2078325282.7
2017-Dec-10 10:29N 31°30' E 121°23'6742424782.1
2017-Dec-10 10:29N 22°19' E 114°10'675220752.0
2017-Dec-10 10:29N 31°32' E 121°22'21431.2
2017-Dec-10 10:29N 31°30' E 121°23'363326570.5
2017-Dec-10 10:29N 37°33' E 121°24'3531270411.6
2017-Dec-10 10:29N 31°41' E 121°12'7694565290.1
2017-Dec-10 10:28N 09°29' W 013°43'0 5.9
2017-Dec-10 10:28N 09°29' W 013°43'76995543581.6
2017-Dec-10 10:28N 31°37' E 121°16'44235340.7
2017-Dec-10 10:27N 24°41' E 118°27'44964707.5
2017-Dec-10 10:26N 31°58' E 120°26'525514.1
2017-Dec-10 10:26N 31°33' E 121°19'1715114.8
2017-Dec-10 10:26N 31°45' E 121°06'39652797.8
2017-Dec-10 10:25N 25°09' E 121°23'38052638.4
2017-Dec-10 10:25N 31°29' E 121°23'5273.2
2017-Dec-10 10:24N 31°31' E 121°18'31556.7
2017-Dec-10 10:24N 31°32' E 121°21'3302.7
2017-Dec-10 10:23N 31°31' E 121°17'61779.0
2017-Dec-10 10:23N 31°30' E 121°24'5274.9
2017-Dec-10 10:22N 31°32' E 121°20'96353.5
2017-Dec-10 10:22N 31°39' E 121°13'3240.7
2017-Dec-10 10:21N 31°41' E 121°11'6198.8
2017-Dec-10 10:19N 31°38' E 121°17'1090.1
2017-Dec-10 10:12N 31°30' E 121°24'17237.4
2017-Dec-10 10:08N 31°42' E 121°10'13937.5
2017-Dec-10 10:07N 31°31' E 121°18'870.6
2017-Dec-10 10:01N 31°38' E 121°15'20843751070.3
2017-Dec-10 10:00N 01°18' E 103°37'20821249470.3
2017-Dec-10 10:00N 31°34' E 121°19'466279364.5
2017-Dec-10 10:00N 24°26' E 117°53'463416872.4
2017-Dec-10 10:00N 31°30' E 121°24'52491.2
2017-Dec-10 10:00N 31°33' E 121°20'43978955.3
2017-Dec-10 10:00N 24°41' E 118°27'43787444.1
2017-Dec-10 09:59N 31°30' E 121°23'46169077.6
2017-Dec-10 09:59N 24°24' E 118°06'25069278.3
2017-Dec-10 09:59N 22°19' E 114°10'989178004.5
2017-Dec-10 09:59N 37°33' E 121°24'362130399.3
2017-Dec-10 09:58N 31°31' E 121°24'92336.4
2017-Dec-10 09:58N 31°38' E 121°17'77001108750.4
2017-Dec-10 09:58N 09°29' W 013°43'0 5.1
2017-Dec-10 09:58N 09°29' W 013°43'77091261410.5
2017-Dec-10 09:57N 31°30' E 121°25'10259.2
2017-Dec-10 09:55N 31°38' E 121°17'7936.3
2017-Dec-10 09:54N 31°32' E 121°20'5980.8
2017-Dec-10 09:54N 31°36' E 121°18'7294.9
2017-Dec-10 09:53N 31°30' E 121°23'143583.3
2017-Dec-10 09:52N 31°40' E 121°12'152013.0
2017-Dec-10 09:52N 31°30' E 121°24'141147.1
2017-Dec-10 09:51N 31°40' E 121°13'2664.8
2017-Dec-10 09:51N 31°41' E 121°11'15613.5
2017-Dec-10 09:50N 31°30' E 121°23'4477.5
2017-Dec-10 09:49N 31°31' E 121°18'445414279.2
2017-Dec-10 09:30N 44°09' E 028°40'45785493083.2
2017-Dec-10 09:30N 24°26' E 117°53'4631667873.3
2017-Dec-10 09:30N 31°30' E 121°24'82501.4
2017-Dec-10 09:30N 31°36' E 121°18'44193392.6
2017-Dec-10 09:30N 24°41' E 118°27'437121114.8
2017-Dec-10 09:30N 31°31' E 121°22'1450.0
2017-Dec-10 09:29N 31°32' E 121°22'67475868.8
2017-Dec-10 09:29N 22°19' E 114°10'989148337.1
2017-Dec-10 09:28N 37°33' E 121°24'36345080.7
2017-Dec-10 09:28N 31°30' E 121°24'77085549614.1
2017-Dec-10 09:28N 09°29' W 013°43'0 2.1
2017-Dec-10 09:28N 09°29' W 013°43'7707440391.6
2017-Dec-10 09:27N 31°30' E 121°23'115022.3
2017-Dec-10 09:26N 31°39' E 121°14'11905.6
2017-Dec-10 09:26N 31°30' E 121°23'910961.4
2017-Dec-10 09:26N 31°38' E 121°17'7636.4
2017-Dec-10 09:25N 31°31' E 121°18'53282.6
2017-Dec-10 09:25N 31°30' E 121°23'5559.4
2017-Dec-10 09:24N 31°31' E 121°18'2083174370.9
2017-Dec-10 09:24N 01°14' E 103°36'2082118972.4
2017-Dec-10 09:23N 31°59' E 120°25'584105.2
2017-Dec-10 09:22N 31°30' E 121°24'5340.6
2017-Dec-10 09:21N 31°31' E 121°18'10389.8
2017-Dec-10 09:19N 31°40' E 121°13'41832.5
2017-Dec-10 09:19N 31°38' E 121°17'758.5
2017-Dec-10 09:12N 31°32' E 121°20'11188.2
2017-Dec-10 09:09N 31°40' E 121°12'430.6
2017-Dec-10 09:01N 31°38' E 121°16'44491000926.9
2017-Dec-10 09:00N 44°09' E 028°40'44582292873.0
2017-Dec-10 09:00N 31°31' E 121°23'58304.1
2017-Dec-10 09:00N 31°31' E 121°18'462416005.8
2017-Dec-10 09:00N 24°26' E 117°53'464151950.9
2017-Dec-10 09:00N 31°31' E 121°24'3306.1
2017-Dec-10 09:00N 31°29' E 121°26'6053562.3
2017-Dec-10 08:59N 31°58' E 120°25'5337963.2
2017-Dec-10 08:59N 31°31' E 121°18'6764.9
2017-Dec-10 08:59N 31°30' E 121°26'6751214321.7
2017-Dec-10 08:59N 22°19' E 114°10'676221167.4
2017-Dec-10 08:59N 31°37' E 121°16'31025.6
2017-Dec-10 08:58N 31°40' E 121°13'354424584.2
2017-Dec-10 08:58N 37°33' E 121°24'3561282943.8
2017-Dec-10 08:58N 31°37' E 121°17'1179.9
2017-Dec-10 08:58N 31°38' E 121°17'77001205163.8
2017-Dec-10 08:58N 09°29' W 013°43'0 5.1
2017-Dec-10 08:58N 09°29' W 013°43'70271807057.8
2017-Dec-10 08:57N 01°12' E 103°37'20861072800.2
2017-Dec-10 08:57N 31°30' E 121°24'164816.2
2017-Dec-10 08:57N 31°14' E 121°29'161036.9
2017-Dec-10 08:56N 31°30' E 121°24'5119.6
2017-Dec-10 08:53N 31°31' E 121°18'206814398.9
2017-Dec-10 08:45N 01°28' E 103°43'16382948575.4
2017-Dec-10 08:45N 24°41' E 118°27'459419254.5
2017-Dec-10 08:30N 44°09' E 028°40'4578659168.7
2017-Dec-10 08:30N 24°26' E 117°53'355963.2
2017-Dec-10 08:30N 24°41' E 118°27'44952163.4
2017-Dec-10 08:29N 31°58' E 120°25'20831071424.4
2017-Dec-10 08:29N 01°11' E 103°40'1409362431.2
2017-Dec-10 08:29N 22°19' E 114°10'989148337.9
2017-Dec-10 08:28N 37°33' E 121°24'7621609718.7
2017-Dec-10 08:28N 09°29' W 013°43'0 4.6
2017-Dec-10 08:28N 09°29' W 013°43'30796824.4
2017-Dec-10 08:01N 44°09' E 028°40'48914401802.0
2017-Dec-10 08:00N 01°10' E 103°43'24021729548.6
2017-Dec-10 08:00N 37°33' E 121°24'808415475.3
2017-Dec-10 08:00N 24°26' E 117°53'3562548.0
2017-Dec-10 08:00N 24°41' E 118°27'7635280474.4
2017-Dec-10 07:59N 09°29' W 013°43'7419989241.7
2017-Dec-10 07:58N 22°19' E 114°10'7419785574.2
2017-Dec-10 07:58N 09°29' W 013°43'7031468734.1
2017-Dec-10 07:57N 01°28' E 103°43'7031212702.7
2017-Dec-10 07:55N 09°29' W 013°43'7648160076.9
2017-Dec-10 07:52N 31°58' E 120°26'4721443.8
2017-Dec-10 07:32N 24°19' E 118°23'26213694.8
2017-Dec-10 07:31N 22°18' E 114°09'1408153546.1
2017-Dec-10 07:31N 01°10' E 103°46'48948809622.6
2017-Dec-10 07:30N 44°09' E 028°39'42282536567.6
2017-Dec-10 07:30N 37°33' E 121°24'990187505.4
2017-Dec-10 07:30N 22°18' E 114°09'74191068314.9
2017-Dec-10 07:30N 09°29' W 013°43'76055475923.1
2017-Dec-10 07:30N 24°26' E 117°53'24119718.9
2017-Dec-10 07:29N 22°19' E 114°10'7419387094.7
2017-Dec-10 07:28N 09°29' W 013°43'0 5.0
2017-Dec-10 07:28N 09°29' W 013°43'7613346904.4
2017-Dec-10 07:26N 24°26' E 118°00'21419.6
2017-Dec-10 07:23N 24°19' E 118°23'164850.6
2017-Dec-10 07:23N 24°24' E 118°06'47210414.6
2017-Dec-10 07:20N 31°59' E 120°27'45525987.2
2017-Dec-10 07:19N 24°36' E 118°26'4331410.6
2017-Dec-10 07:01N 31°09' E 121°53'8918858.7
2017-Dec-10 07:01N 31°59' E 120°26'89106937.0
2017-Dec-10 07:00N 31°09' E 121°53'385346312.0
2017-Dec-10 07:00N 37°33' E 121°24'42273804488.1
2017-Dec-10 07:00N 44°09' E 028°39'45862751774.4
2017-Dec-10 07:00N 24°26' E 118°03'932850.0
2017-Dec-10 07:00N 24°26' E 117°53'281634.0
2017-Dec-10 06:59N 24°19' E 118°23'16282930567.1
2017-Dec-10 06:59N 01°11' E 103°50'7040288005.5
2017-Dec-10 06:58N 09°29' W 013°43'7419238477.8
2017-Dec-10 06:56N 22°19' E 114°10'7419430798.9
2017-Dec-10 06:55N 09°29' W 013°43'7638808707.9
2017-Dec-10 06:54N 24°34' E 118°28'1661232.2
2017-Dec-10 06:46N 22°28' E 120°27'159721699.3
2017-Dec-10 06:42N 01°28' E 103°44'487826171.1
2017-Dec-10 06:31N 44°09' E 028°40'45018102446.1
2017-Dec-10 06:30N 31°07' E 121°57'38741019.3
2017-Dec-10 06:30N 37°33' E 121°24'8081454163.5
2017-Dec-10 06:30N 24°26' E 117°53'3614320.4
2017-Dec-10 06:30N 24°32' E 118°31'1640256713.1
2017-Dec-10 06:29N 01°13' E 103°54'160358888.2
2017-Dec-10 06:28N 22°28' E 120°27'77789333624.5
2017-Dec-10 06:28N 09°29' W 013°43'0 5.9
2017-Dec-10 06:28N 09°29' W 013°43'76483933292.5
2017-Dec-10 06:27N 31°59' E 120°26'472100014.8
2017-Dec-10 06:27N 24°19' E 118°23'1617200699.9
2017-Dec-10 06:27N 01°27' E 103°45'139392853.8
2017-Dec-10 06:26N 22°19' E 114°10'25047402.6
2017-Dec-10 06:25N 24°24' E 118°06'4711333.3
2017-Dec-10 06:04N 31°58' E 120°26'4727555.9
2017-Dec-10 06:01N 24°26' E 117°53'457816479755.2
2017-Dec-10 06:00N 44°09' E 028°40'45068110368.5
2017-Dec-10 06:00N 31°05' E 122°02'39040069.1
2017-Dec-10 06:00N 37°33' E 121°24'338121670.8
2017-Dec-10 06:00N 31°59' E 120°27'67043068.2
2017-Dec-10 05:59N 22°19' E 114°10'7419398649.5
2017-Dec-10 05:58N 09°29' W 013°43'0 6.4
2017-Dec-10 05:58N 09°29' W 013°43'7836671621.2
2017-Dec-10 05:57N 25°11' E 122°06'1782156445.2
2017-Dec-10 05:56N 01°27' E 103°45'161695395.8
2017-Dec-10 05:55N 24°19' E 118°22'4731701307.5
2017-Dec-10 05:55N 31°59' E 120°26'45868746.8
2017-Dec-10 05:55N 24°31' E 118°32'4602878.8
2017-Dec-10 05:45N 31°60' E 120°27'47316685.6
2017-Dec-10 05:43N 24°24' E 118°06'458921263.9
2017-Dec-10 05:30N 44°09' E 028°40'4578969396.7
2017-Dec-10 05:30N 24°26' E 117°53'457822393.2
2017-Dec-10 05:30N 31°04' E 122°06'39178206.3
2017-Dec-10 05:30N 37°33' E 121°24'39439356.9
2017-Dec-10 05:29N 31°02' E 122°10'44423145.8
2017-Dec-10 05:28N 24°32' E 118°10'7621946075.3
2017-Dec-10 05:28N 09°29' W 013°43'0 4.0
2017-Dec-10 05:28N 09°29' W 013°43'76481147207.2
2017-Dec-10 05:27N 31°59' E 120°26'4731702385.2
2017-Dec-10 05:27N 24°18' E 118°22'26111465.8
2017-Dec-10 05:26N 22°19' E 114°10'25047402.6
2017-Dec-10 05:25N 24°24' E 118°06'252083.6
2017-Dec-10 05:25N 24°31' E 118°32'4624351.0
2017-Dec-10 05:18N 32°02' E 120°27'4612214.9
2017-Dec-10 05:06N 24°32' E 118°32'36406.5
2017-Dec-10 05:01N 24°26' E 117°53'760527379396.5
2017-Dec-10 05:01N 09°29' W 013°43'30785540893.3
2017-Dec-10 05:00N 44°09' E 028°40'4227422683.4
2017-Dec-10 05:00N 37°33' E 121°24'795954409.6
2017-Dec-10 05:00N 24°32' E 118°32'161347.6
2017-Dec-10 04:59N 24°18' E 118°22'26139125.4
2017-Dec-10 04:59N 22°19' E 114°10'672345557.1
2017-Dec-10 04:59N 32°01' E 120°27'46130707.5
2017-Dec-10 04:58N 24°31' E 118°32'1917239.7
2017-Dec-10 04:58N 24°33' E 118°11'46124790.3
2017-Dec-10 04:57N 31°59' E 120°26'47125703.9
2017-Dec-10 04:55N 24°24' E 118°06'761818344.7
2017-Dec-10 04:31N 09°29' W 013°43'776127939836.7
2017-Dec-10 04:30N 30°60' E 122°14'457274090.7
2017-Dec-10 04:30N 24°26' E 117°53'80888130.5
2017-Dec-10 04:30N 37°33' E 121°24'799718804.0
2017-Dec-10 04:30N 24°32' E 118°10'181540.1
2017-Dec-10 04:29N 24°18' E 118°22'161447.1
2017-Dec-10 04:28N 24°24' E 118°06'7618571359.7
2017-Dec-10 04:28N 09°29' W 013°43'7741488902.9
2017-Dec-10 04:27N 31°09' E 121°54'905155.1
2017-Dec-10 04:26N 31°58' E 120°26'45815259.3
2017-Dec-10 04:24N 24°32' E 118°32'27514545.3
2017-Dec-10 04:23N 22°19' E 114°10'27517076.9
2017-Dec-10 04:22N 24°31' E 118°32'45822916.2
2017-Dec-10 04:21N 31°59' E 120°26'67012178.6
2017-Dec-10 04:17N 22°19' E 114°09'67315152.0
2017-Dec-10 04:15N 31°09' E 121°53'774033053.1
2017-Dec-10 04:01N 09°29' W 013°43'776327945119.3
2017-Dec-10 04:00N 30°58' E 122°15'183462.0
2017-Dec-10 04:00N 31°08' E 121°57'45696565.6
2017-Dec-10 04:00N 24°26' E 117°53'808727076.5
2017-Dec-10 04:00N 37°33' E 121°24'744223050.1
2017-Dec-10 04:00N 25°11' E 122°05'358322411.4
2017-Dec-10 04:00N 31°09' E 121°55'9081208.6
2017-Dec-10 03:59N 31°59' E 120°26'67022969.3
2017-Dec-10 03:58N 22°19' E 114°09'276496136.4
2017-Dec-10 03:58N 24°31' E 118°32'171652.2
2017-Dec-10 03:57N 24°17' E 118°22'18602.3
2017-Dec-10 03:55N 24°32' E 118°12'7622653326.2
2017-Dec-10 03:55N 09°29' W 013°43'7032436475.0
2017-Dec-10 03:54N 01°27' E 103°44'161276368.6
2017-Dec-10 03:52N 24°24' E 118°06'25027291.8
2017-Dec-10 03:52N 22°19' E 114°10'43264837.9
2017-Dec-10 03:51N 25°09' E 121°23'41220908.4
2017-Dec-10 03:50N 31°59' E 120°26'4585121.2
2017-Dec-10 03:45N 24°32' E 118°32'4331805.8
2017-Dec-10 03:31N 30°57' E 122°15'776313973689.1
2017-Dec-10 03:30N 09°29' W 013°43'307811081693.6
2017-Dec-10 03:30N 44°09' E 028°40'45881835172.9
2017-Dec-10 03:30N 24°32' E 118°10'4431594559.9
2017-Dec-10 03:30N 31°06' E 121°59'452108521.7
2017-Dec-10 03:30N 24°17' E 118°21'811153748.1
2017-Dec-10 03:30N 37°33' E 121°24'808290832.7
2017-Dec-10 03:30N 24°26' E 117°53'24115221.6
2017-Dec-10 03:29N 22°19' E 114°10'25056297.4
2017-Dec-10 03:28N 24°24' E 118°06'7618623306.5
2017-Dec-10 03:28N 09°29' W 013°43'7744422419.6
2017-Dec-10 03:27N 31°07' E 121°57'931296.5
2017-Dec-10 03:22N 31°59' E 120°26'3481243.8
2017-Dec-10 03:05N 37°40' E 121°49'4054982.2
2017-Dec-10 03:01N 30°55' E 122°16'452316284180.1
2017-Dec-10 03:01N 44°09' E 028°40'307811081734.1
2017-Dec-10 03:00N 09°29' W 013°43'76215487209.8
2017-Dec-10 03:00N 24°32' E 118°10'175692.8
2017-Dec-10 03:00N 24°26' E 117°53'80896944.2
2017-Dec-10 03:00N 37°33' E 121°24'39056176.0
2017-Dec-10 02:59N 31°04' E 122°01'39695009.3
2017-Dec-10 02:59N 37°40' E 121°48'348418126.0
2017-Dec-10 02:59N 31°59' E 120°25'47147096.4
2017-Dec-10 02:58N 24°24' E 118°06'7618571365.6
2017-Dec-10 02:58N 09°29' W 013°43'77476971996.6
2017-Dec-10 02:58N 31°06' E 121°60'45254292.8
2017-Dec-10 02:57N 24°17' E 118°21'134759.5
2017-Dec-10 02:46N 22°45' E 120°08'3326900.8
2017-Dec-10 02:44N 22°19' E 114°10'6743102.0
2017-Dec-10 02:31N 30°53' E 122°17'776513977616.1
2017-Dec-10 02:30N 09°29' W 013°43'76214572671.0
2017-Dec-10 02:30N 24°32' E 118°10'173295.8
2017-Dec-10 02:30N 24°26' E 117°53'819294895.8
2017-Dec-10 02:30N 37°41' E 121°44'184288.4
2017-Dec-10 02:30N 37°33' E 121°24'33867617.8
2017-Dec-10 02:29N 31°59' E 120°26'47585498.1
2017-Dec-10 02:29N 24°17' E 118°21'4521627939.3
2017-Dec-10 02:29N 31°04' E 122°01'67489841.1
2017-Dec-10 02:29N 22°19' E 114°10'250112590.9
2017-Dec-10 02:28N 24°24' E 118°06'7618548511.0
2017-Dec-10 02:28N 09°29' W 013°43'779640265.7
2017-Dec-10 02:16N 25°09' E 121°23'16038369.6
2017-Dec-10 02:16N 24°31' E 118°32'4342445.6
2017-Dec-10 02:05N 31°02' E 122°06'451159266.0
2017-Dec-10 02:01N 44°09' E 028°40'307811081605.2
2017-Dec-10 02:00N 09°29' W 013°43'76344580434.2
2017-Dec-10 02:00N 37°41' E 121°40'819294772.7
2017-Dec-10 02:00N 24°26' E 117°53'196141373.0
2017-Dec-10 02:00N 25°09' E 121°24'74492365.3
2017-Dec-10 02:00N 37°33' E 121°24'39219861.0
2017-Dec-10 01:58N 31°03' E 122°04'100360728.3
2017-Dec-10 01:58N 31°59' E 120°26'67058802.1
2017-Dec-10 01:58N 22°19' E 114°10'74192225767.9
2017-Dec-10 01:58N 09°29' W 013°43'7634785177.8
2017-Dec-10 01:57N 24°16' E 118°20'15438.6
2017-Dec-10 01:55N 24°24' E 118°06'25166.3
2017-Dec-10 01:46N 24°31' E 118°32'262426.3
2017-Dec-10 01:45N 24°26' E 118°05'1712096.4
2017-Dec-10 01:40N 25°06' E 121°08'3596217.0
2017-Dec-10 01:37N 31°01' E 122°08'4554379.6
2017-Dec-10 01:31N 24°26' E 117°53'760513689667.2
2017-Dec-10 01:30N 09°29' W 013°43'307811081547.5
2017-Dec-10 01:30N 44°09' E 028°40'45905507458.0
2017-Dec-10 01:30N 24°24' E 118°06'8181472478.1
2017-Dec-10 01:30N 37°42' E 121°35'753301075.4
2017-Dec-10 01:30N 25°09' E 121°22'354159162.1
2017-Dec-10 01:30N 31°01' E 122°08'39450717.3
2017-Dec-10 01:30N 37°33' E 121°24'393117975.6
2017-Dec-10 01:29N 31°02' E 122°06'71132.7
2017-Dec-10 01:29N 31°06' E 121°59'7746774642.6
2017-Dec-10 01:28N 09°29' W 013°43'70311581995.1
2017-Dec-10 01:28N 01°28' E 103°43'7031666102.1
2017-Dec-10 01:28N 09°29' W 013°43'7419222577.2
2017-Dec-10 01:26N 22°19' E 114°10'27520211.7
2017-Dec-10 01:25N 24°31' E 118°32'43523721.1
2017-Dec-10 01:24N 31°07' E 121°55'45340769.8
2017-Dec-10 01:23N 24°16' E 118°20'4455576.3
2017-Dec-10 01:18N 30°48' E 122°18'16269.6
2017-Dec-10 01:15N 31°01' E 122°07'6744358.5
2017-Dec-10 01:05N 22°19' E 114°09'100314672.6
2017-Dec-10 01:01N 37°31' E 122°10'81671623.9
2017-Dec-10 01:01N 24°26' E 117°53'16085787599.3
2017-Dec-10 01:01N 01°28' E 103°43'703125311961.9
2017-Dec-10 01:00N 09°30' W 013°43'76485506558.0
2017-Dec-10 01:00N 31°59' E 120°26'4711696575.4
2017-Dec-10 01:00N 24°24' E 118°06'45904130594.4
2017-Dec-10 01:00N 44°09' E 028°40'47153395145.0
2017-Dec-10 01:00N 25°09' E 121°22'353115676.3
2017-Dec-10 01:00N 31°00' E 122°09'21270.9
2017-Dec-10 01:00N 30°59' E 122°10'39288295.4
2017-Dec-10 01:00N 37°31' E 122°10'3733534.7
2017-Dec-10 01:00N 37°33' E 121°24'39520591.4
2017-Dec-10 00:58N 31°00' E 122°09'43434695.9
2017-Dec-10 00:58N 24°31' E 118°32'191467.6
2017-Dec-10 00:57N 24°16' E 118°20'7633219833.8
2017-Dec-10 00:55N 09°30' W 013°43'7768210257.3
2017-Dec-10 00:53N 30°46' E 122°17'66912816.8
2017-Dec-10 00:50N 22°19' E 114°10'3299702.5
2017-Dec-10 00:48N 22°50' E 120°04'3291618.3
2017-Dec-10 00:35N 22°19' E 114°09'3294106.5
2017-Dec-10 00:31N 22°51' E 120°03'474817092812.4
2017-Dec-10 00:30N 44°09' E 028°40'42232533893.2
2017-Dec-10 00:30N 37°43' E 121°27'8182944439.7
2017-Dec-10 00:30N 24°26' E 117°53'80864629.5
2017-Dec-10 00:30N 37°33' E 121°24'397476529.9
2017-Dec-10 00:30N 30°58' E 122°10'020.3
2017-Dec-10 00:29N 30°58' E 122°10'35279088.2
2017-Dec-10 00:28N 25°09' E 121°22'349628880.1
2017-Dec-10 00:28N 30°56' E 122°10'20642477292.9
2017-Dec-10 00:28N 01°27' E 103°42'2068465387.9
2017-Dec-10 00:28N 31°59' E 120°26'76482502978.7
2017-Dec-10 00:28N 09°30' W 013°43'7633482072.4
2017-Dec-10 00:27N 24°17' E 118°19'2584239.1
2017-Dec-10 00:23N 22°19' E 114°09'66727303.7
2017-Dec-10 00:22N 30°44' E 122°17'668400641.2
2017-Dec-10 00:22N 22°19' E 114°10'74191669332.5
2017-Dec-10 00:21N 09°30' W 013°43'7648229431.6
2017-Dec-10 00:19N 31°58' E 120°26'5461728.4
2017-Dec-10 00:01N 22°52' E 120°02'474617084472.8
2017-Dec-10 00:00N 44°09' E 028°40'307811081519.6
2017-Dec-10 00:00N 09°30' W 013°43'76186856381.9
2017-Dec-10 00:00N 24°24' E 118°06'8172942177.9
2017-Dec-10 00:00N 37°44' E 121°22'8182943248.7
2017-Dec-10 00:00N 24°26' E 117°53'474341405.0
2017-Dec-10 00:00N 32°00' E 120°27'10930211.8
2017-Dec-10 00:00N 30°55' E 122°10'34840456.3
2017-Dec-10 00:00N 25°09' E 121°23'34751996.9
2017-Dec-09 23:59N 30°53' E 122°10'2065256344.4
2017-Dec-09 23:59N 01°25' E 103°40'1397558809.5
2017-Dec-09 23:59N 22°19' E 114°10'1197.0
2017-Dec-09 23:58N 22°19' E 114°09'25844188.1
2017-Dec-09 23:58N 24°17' E 118°19'47510493.9
2017-Dec-09 23:55N 31°59' E 120°26'1081835.2
2017-Dec-09 23:52N 30°57' E 122°10'7758148565.0
2017-Dec-09 23:49N 09°30' W 013°43'774925759.2
2017-Dec-09 23:31N 22°52' E 120°02'4911768408.7
2017-Dec-09 23:30N 30°51' E 122°08'44694547.4
2017-Dec-09 23:30N 24°26' E 117°53'817326937.3
2017-Dec-09 23:30N 37°44' E 121°18'817326839.4
2017-Dec-09 23:30N 24°24' E 118°06'44430720.7
2017-Dec-09 23:29N 30°52' E 122°09'20673719862.1
2017-Dec-09 23:29N 01°22' E 103°38'1401114624.1
2017-Dec-09 23:28N 22°19' E 114°09'669344190.9
2017-Dec-09 23:28N 31°59' E 120°26'475113985.7
2017-Dec-09 23:28N 24°17' E 118°19'25877313.9
2017-Dec-09 23:28N 22°19' E 114°10'7419256819.9
2017-Dec-09 23:26N 09°30' W 013°43'775018283.6
2017-Dec-09 23:01N 22°51' E 120°03'153549359.8
2017-Dec-09 23:01N 24°26' E 117°53'45785493258.7
2017-Dec-09 23:00N 44°09' E 028°40'42123790949.0
2017-Dec-09 23:00N 37°45' E 121°14'34940474.7
2017-Dec-09 23:00N 31°59' E 120°26'1117987.6
2017-Dec-09 22:59N 30°48' E 122°07'20653716734.8
2017-Dec-09 22:59N 01°20' E 103°37'7026377528.8
2017-Dec-09 22:58N 09°30' W 013°43'7419185480.9
2017-Dec-09 22:56N 22°19' E 114°10'665478726.4
2017-Dec-09 22:55N 30°49' E 122°07'40612608.1
2017-Dec-09 22:53N 37°33' E 121°24'80818755.6
2017-Dec-09 22:51N 24°24' E 118°06'1852713.8
2017-Dec-09 22:47N 25°09' E 121°24'158580.5
2017-Dec-09 22:31N 22°50' E 120°04'16105797139.2
2017-Dec-09 22:31N 01°20' E 103°37'487917562822.2
2017-Dec-09 22:30N 44°09' E 028°40'45203254405.5
2017-Dec-09 22:30N 30°45' E 122°03'4231521145.7
2017-Dec-09 22:30N 37°45' E 121°09'817245081.5
2017-Dec-09 22:30N 24°26' E 117°53'440144073.5
2017-Dec-09 22:30N 30°46' E 122°04'40944612.9
2017-Dec-09 22:29N 37°33' E 121°24'76215487425.1
2017-Dec-09 22:29N 09°30' W 013°43'7419503949.0
2017-Dec-09 22:28N 22°19' E 114°10'7419702874.4
2017-Dec-09 22:28N 09°30' W 013°43'021.7
2017-Dec-09 22:28N 09°30' W 013°43'7648550654.1
2017-Dec-09 22:27N 31°59' E 120°26'47153019.3
2017-Dec-09 22:26N 24°24' E 118°06'4396215.8
2017-Dec-09 22:22N 30°47' E 122°06'3403709.1
2017-Dec-09 22:17N 25°09' E 121°23'1763698.7
2017-Dec-09 22:14N 24°18' E 118°18'4447394.6
2017-Dec-09 22:10N 30°52' E 122°08'206812707.2
2017-Dec-09 22:01N 01°20' E 103°37'48798781397.0
2017-Dec-09 22:00N 44°09' E 028°40'42082524566.5
2017-Dec-09 22:00N 37°43' E 121°06'814977268.7
2017-Dec-09 22:00N 24°26' E 117°53'2417816.6
2017-Dec-09 21:58N 22°19' E 114°10'74198903098.4
2017-Dec-09 21:58N 09°30' W 013°43'77513487748.9
2017-Dec-09 21:58N 30°44' E 121°58'7751606564.1
2017-Dec-09 21:58N 09°30' W 013°43'0 5.6
2017-Dec-09 21:57N 09°30' W 013°43'77932550430.3
2017-Dec-09 21:57N 25°09' E 121°20'17323989.8
2017-Dec-09 21:57N 24°18' E 118°18'13199.3
2017-Dec-09 21:53N 24°24' E 118°06'47140395.6
2017-Dec-09 21:52N 31°59' E 120°26'1249891.6
2017-Dec-09 21:52N 30°30' E 122°07'19195.0
2017-Dec-09 21:46N 30°49' E 122°07'6652665.8
2017-Dec-09 21:31N 22°19' E 114°09'24157822.0
2017-Dec-09 21:31N 24°26' E 117°53'4331560460.4
2017-Dec-09 21:30N 30°42' E 121°56'774927894660.4
2017-Dec-09 21:30N 09°30' W 013°43'76036842747.8
2017-Dec-09 21:30N 37°43' E 121°06'23962874924.6
2017-Dec-09 21:30N 01°20' E 103°37'17661589433.5
2017-Dec-09 21:30N 25°10' E 121°23'412296674.8
2017-Dec-09 21:30N 31°59' E 120°26'47122926.4
2017-Dec-09 21:29N 24°24' E 118°06'135776.3
2017-Dec-09 21:29N 24°18' E 118°18'25846393.9
2017-Dec-09 21:29N 22°19' E 114°10'7419460504.3
2017-Dec-09 21:28N 09°30' W 013°43'0 0.6
2017-Dec-09 21:26N 09°30' W 013°43'7419275335.7
2017-Dec-09 21:25N 22°19' E 114°09'2755532.1
2017-Dec-09 21:22N 24°31' E 118°32'4102907.9
2017-Dec-09 21:13N 30°40' E 121°54'451721146.4
2017-Dec-09 21:00N 44°09' E 028°40'307811081726.0
2017-Dec-09 21:00N 09°30' W 013°43'76194571180.3
2017-Dec-09 21:00N 24°38' E 118°09'1922959.4
2017-Dec-09 21:00N 24°26' E 117°53'12522.1
2017-Dec-09 20:59N 24°24' E 118°06'471212064.1
2017-Dec-09 20:59N 31°59' E 120°26'20771068051.8
2017-Dec-09 20:59N 01°20' E 103°37'140280129.4
2017-Dec-09 20:58N 22°19' E 114°10'99223648.0
2017-Dec-09 20:55N 37°43' E 121°06'817154854.2
2017-Dec-09 20:55N 24°18' E 118°18'176632849.8
2017-Dec-09 20:55N 25°09' E 121°23'160287846.0
2017-Dec-09 20:55N 24°31' E 118°32'1381391.7
2017-Dec-09 20:49N 22°46' E 120°08'77571642592.3
2017-Dec-09 20:49N 09°30' W 013°43'776550638.8
2017-Dec-09 20:39N 30°56' E 122°17'452430674.1
2017-Dec-09 20:30N 44°09' E 028°39'458516504628.9
2017-Dec-09 20:30N 24°38' E 118°10'1636159166.5
2017-Dec-09 20:30N 01°20' E 103°37'16171455360.1
2017-Dec-09 20:30N 24°26' E 117°53'47221803.0
2017-Dec-09 20:28N 31°59' E 120°26'34659288.7
2017-Dec-09 20:28N 37°43' E 121°06'900231304.8
2017-Dec-09 20:28N 22°45' E 120°12'77609311800.5
2017-Dec-09 20:28N 09°30' W 013°43'776327946893.3
2017-Dec-09 20:28N 30°57' E 122°15'433311722.8
2017-Dec-09 20:28N 24°31' E 118°32'181173.9
2017-Dec-09 20:27N 24°18' E 118°18'13874.5
2017-Dec-09 20:26N 24°24' E 118°06'1851083.3
2017-Dec-09 20:16N 25°09' E 121°23'4324010.8
2017-Dec-09 20:09N 22°19' E 114°09'448630876.9
2017-Dec-09 20:00N 44°09' E 028°40'45182033121.2
2017-Dec-09 20:00N 30°58' E 122°12'455327355.3
2017-Dec-09 20:00N 24°26' E 117°53'195755.0
2017-Dec-09 20:00N 24°38' E 118°09'45727887.1
2017-Dec-09 19:59N 31°59' E 120°26'471188500.0
2017-Dec-09 19:59N 24°24' E 118°06'81462329.4
2017-Dec-09 19:58N 37°43' E 121°06'802115539.8
2017-Dec-09 19:58N 24°31' E 118°32'16044318.9
2017-Dec-09 19:58N 25°10' E 121°23'17666359152.7
2017-Dec-09 19:58N 01°20' E 103°37'1403265777.9
2017-Dec-09 19:57N 22°19' E 114°09'25838678.4
2017-Dec-09 19:57N 24°18' E 118°18'7632203507.5
2017-Dec-09 19:55N 09°30' W 013°43'011.0
2017-Dec-09 19:54N 09°30' W 013°43'774898211.1
2017-Dec-09 19:50N 31°05' E 122°01'6746064.8
2017-Dec-09 19:43N 22°18' E 114°11'742135476.8
2017-Dec-09 19:31N 09°30' W 013°43'702625294490.4
2017-Dec-09 19:31N 01°20' E 103°37'487917562784.7
2017-Dec-09 19:30N 44°09' E 028°40'307811081550.9
2017-Dec-09 19:30N 09°30' W 013°43'77563490061.6
2017-Dec-09 19:30N 31°00' E 122°08'437786686.6
2017-Dec-09 19:30N 24°38' E 118°09'178640545.2
2017-Dec-09 19:30N 25°09' E 121°22'195702925.9
2017-Dec-09 19:30N 24°26' E 117°53'12395.7
2017-Dec-09 19:28N 24°24' E 118°06'252132.5
2017-Dec-09 19:28N 24°31' E 118°32'181107.7
2017-Dec-09 19:27N 24°18' E 118°18'81731299.1
2017-Dec-09 19:25N 37°43' E 121°06'3462588.5
2017-Dec-09 19:17N 31°59' E 120°26'4659197.5
2017-Dec-09 19:14N 24°25' E 118°31'460920259.6
2017-Dec-09 19:00N 44°09' E 028°40'45784119938.8
2017-Dec-09 19:00N 24°26' E 117°53'16212917015.1
2017-Dec-09 19:00N 01°17' E 103°36'20792494282.2
2017-Dec-09 19:00N 31°02' E 122°05'101181823.3
2017-Dec-09 19:00N 31°59' E 120°26'4121483393.2
2017-Dec-09 19:00N 25°09' E 121°22'1845920.3
2017-Dec-09 18:58N 24°24' E 118°06'131178.8
2017-Dec-09 18:58N 24°18' E 118°18'7632194851.0
2017-Dec-09 18:55N 09°30' W 013°43'76031710690.2
2017-Dec-09 18:55N 37°43' E 121°06'81024306.4
2017-Dec-09 18:53N 24°24' E 118°29'7640280657.4
2017-Dec-09 18:52N 09°29' W 013°43'7622347345.0
2017-Dec-09 18:50N 24°08' E 118°06'7622271686.4
2017-Dec-09 18:49N 09°29' W 013°43'7642167750.0
2017-Dec-09 18:46N 24°31' E 118°32'460618081.4
2017-Dec-09 18:30N 44°09' E 028°40'48832197361.1
2017-Dec-09 18:30N 01°13' E 103°36'1642537490.0
2017-Dec-09 18:30N 24°38' E 118°09'4571645279.0
2017-Dec-09 18:30N 31°59' E 120°26'412741432.9
2017-Dec-09 18:30N 25°10' E 121°23'19658886.6
2017-Dec-09 18:30N 24°26' E 117°53'455819011.1
2017-Dec-09 18:30N 31°04' E 122°01'44494029.0
2017-Dec-09 18:30N 24°23' E 118°26'21932.5
2017-Dec-09 18:28N 24°10' E 118°08'827330733.3
2017-Dec-09 18:28N 37°43' E 121°06'802137547.4
2017-Dec-09 18:28N 24°31' E 118°32'1832768.7
2017-Dec-09 18:28N 24°18' E 118°19'13184.2
2017-Dec-09 18:23N 24°24' E 118°06'4507437.8
2017-Dec-09 18:20N 30°58' E 122°11'7759109105.9
2017-Dec-09 18:16N 09°29' W 013°43'0 7.2
2017-Dec-09 18:15N 09°29' W 013°43'0 0.1
2017-Dec-09 18:01N 09°29' W 013°43'307811081609.2
2017-Dec-09 18:00N 44°09' E 028°40'46021840696.5
2017-Dec-09 18:00N 24°12' E 118°11'153530.3
2017-Dec-09 18:00N 24°22' E 118°23'6895.3
2017-Dec-09 18:00N 24°18' E 118°19'214549.6
2017-Dec-09 17:59N 24°38' E 118°09'17964430.9
2017-Dec-09 17:59N 25°10' E 121°23'75442384.9
2017-Dec-09 17:58N 37°43' E 121°06'81427636.2
2017-Dec-09 17:56N 24°24' E 118°06'471282739.5
2017-Dec-09 17:56N 31°59' E 120°26'941258.0
2017-Dec-09 17:52N 31°06' E 121°57'4354286.7
2017-Dec-09 17:46N 24°31' E 118°32'4061963.3
2017-Dec-09 17:33N 30°37' E 121°51'42113057.3
2017-Dec-09 17:31N 24°20' E 118°21'7634508902.6
2017-Dec-09 17:31N 09°29' W 013°43'307711078756.7
2017-Dec-09 17:31N 44°08' E 028°39'460316571743.6
2017-Dec-09 17:30N 24°14' E 118°14'762813730231.3
2017-Dec-09 17:30N 09°29' W 013°43'761913713683.9
2017-Dec-09 17:30N 24°38' E 118°09'1969060.0
2017-Dec-09 17:30N 24°26' E 117°53'1624449672.4
2017-Dec-09 17:30N 01°09' E 103°43'1633840075.5
2017-Dec-09 17:30N 24°21' E 118°20'420216227.3
2017-Dec-09 17:30N 30°37' E 121°51'42420086.2
2017-Dec-09 17:29N 24°18' E 118°18'191236.2
2017-Dec-09 17:28N 24°31' E 118°32'80218516.0
2017-Dec-09 17:25N 37°43' E 121°06'34688934.5
2017-Dec-09 17:25N 31°59' E 120°26'41218535.6
2017-Dec-09 17:24N 25°10' E 121°24'1746143.4
2017-Dec-09 17:22N 24°20' E 118°20'26210592.2
2017-Dec-09 17:20N 22°19' E 114°07'2524322.4
2017-Dec-09 17:17N 24°24' E 118°06'250940.9
2017-Dec-09 17:01N 22°19' E 114°09'43155428.1
2017-Dec-09 17:01N 25°09' E 121°22'779528060301.2
2017-Dec-09 17:01N 09°29' W 013°43'307911082892.6
2017-Dec-09 17:00N 44°09' E 028°40'30795541424.3
2017-Dec-09 17:00N 09°29' W 013°43'761927427334.9
2017-Dec-09 17:00N 24°38' E 118°09'2073424.6
2017-Dec-09 17:00N 24°19' E 118°18'244119.1
2017-Dec-09 17:00N 24°26' E 117°53'2226687.3
2017-Dec-09 17:00N 24°21' E 118°16'415690.9
2017-Dec-09 17:00N 24°16' E 118°17'13694.8
2017-Dec-09 16:59N 24°24' E 118°06'1626450185.8
2017-Dec-09 16:59N 01°10' E 103°47'162748003.0
2017-Dec-09 16:57N 24°17' E 118°18'81832721.4
2017-Dec-09 16:55N 37°43' E 121°06'34695774.0
2017-Dec-09 16:55N 31°59' E 120°26'207215839.2
2017-Dec-09 16:47N 01°14' E 103°60'139950859.0
2017-Dec-09 16:45N 22°19' E 114°09'741929807.6
2017-Dec-09 16:31N 09°29' W 013°43'30795541416.9
2017-Dec-09 16:30N 44°09' E 028°40'30795541397.7
2017-Dec-09 16:30N 09°29' W 013°43'76286865388.1
2017-Dec-09 16:30N 24°18' E 118°15'51651.8
2017-Dec-09 16:30N 24°18' E 118°20'7633465729.5
2017-Dec-09 16:29N 09°29' W 013°43'77952158574.8
2017-Dec-09 16:29N 25°09' E 121°22'75453209.2
2017-Dec-09 16:28N 37°43' E 121°06'23944309660.2
2017-Dec-09 16:28N 01°14' E 103°57'1618200905.9
2017-Dec-09 16:28N 24°17' E 118°18'257185222.6
2017-Dec-09 16:28N 22°19' E 114°10'67047277.0
2017-Dec-09 16:27N 31°59' E 120°26'47135343.7
2017-Dec-09 16:26N 24°24' E 118°06'16218036.1
2017-Dec-09 16:14N 01°13' E 103°53'704331733.4
2017-Dec-09 16:01N 09°29' W 013°43'762227440550.7
2017-Dec-09 16:00N 24°22' E 118°10'178642325.9
2017-Dec-09 16:00N 25°10' E 121°19'779114023758.9
2017-Dec-09 16:00N 09°29' W 013°43'76199142372.3
2017-Dec-09 16:00N 24°38' E 118°09'1634980696.5
2017-Dec-09 16:00N 01°12' E 103°54'16262926944.7
2017-Dec-09 16:00N 24°20' E 118°23'2850497.2
2017-Dec-09 16:00N 24°26' E 117°53'25938.8
2017-Dec-09 15:59N 24°17' E 118°18'819109138.5
2017-Dec-09 15:58N 37°43' E 121°06'992223207.7
2017-Dec-09 15:58N 22°19' E 114°09'2506049.0
2017-Dec-09 15:55N 24°24' E 118°06'47111088.2
2017-Dec-09 15:53N 31°59' E 120°26'574026256.7
2017-Dec-09 15:40N 41°14' E 001°49'208313485.6
2017-Dec-09 15:31N 09°29' W 013°43'0 8.4
2017-Dec-09 15:30N 09°29' W 013°43'763813747973.3
2017-Dec-09 15:30N 24°22' E 118°26'1762255.7
2017-Dec-09 15:30N 24°14' E 118°09'245311.6
2017-Dec-09 15:30N 24°38' E 118°09'1935013.3
2017-Dec-09 15:30N 24°26' E 117°53'1323309.9
2017-Dec-09 15:30N 24°24' E 118°07'59501260092.0
2017-Dec-09 15:30N 41°14' E 001°49'59642385787.8
2017-Dec-09 15:30N 24°17' E 118°18'162559679.5
2017-Dec-09 15:28N 01°10' E 103°50'20801872360.2
2017-Dec-09 15:28N 31°59' E 120°26'67089300.4
2017-Dec-09 15:27N 22°19' E 114°10'99225877.2
2017-Dec-09 15:25N 37°43' E 121°06'8148491.2
2017-Dec-09 15:19N 24°24' E 118°06'2503721.5
2017-Dec-09 15:15N 22°19' E 114°09'2481408.8
2017-Dec-09 15:05N 24°25' E 118°02'2237.2
2017-Dec-09 15:04N 24°25' E 118°04'458770575.1
2017-Dec-09 15:01N 44°09' E 028°40'30793694264.5
2017-Dec-09 15:00N 09°29' W 013°43'760513689663.5
2017-Dec-09 15:00N 24°26' E 117°53'1036621.3
2017-Dec-09 15:00N 24°25' E 118°04'1424441.5
2017-Dec-09 15:00N 24°38' E 118°09'59433565755.2
2017-Dec-09 15:00N 41°14' E 001°49'59471646890.4
2017-Dec-09 15:00N 24°25' E 118°03'152064.5
2017-Dec-09 15:00N 24°17' E 118°17'1611294.1
2017-Dec-09 15:00N 24°25' E 118°03'24935823.3
2017-Dec-09 14:59N 22°19' E 114°10'432155693.3
2017-Dec-09 14:59N 25°09' E 121°24'18521539.1
2017-Dec-09 14:58N 24°24' E 118°06'1628488539.0
2017-Dec-09 14:58N 01°08' E 103°46'24042884858.2
2017-Dec-09 14:58N 37°43' E 121°06'81032055.2
2017-Dec-09 14:57N 24°24' E 118°29'4421173.9
2017-Dec-09 14:34N 30°60' E 122°10'4507577.8
2017-Dec-09 14:31N 24°24' E 118°06'45908262260.3
2017-Dec-09 14:30N 44°09' E 028°40'30783693993.4
2017-Dec-09 14:30N 09°29' W 013°43'76051244514.8
2017-Dec-09 14:30N 24°26' E 117°53'622768.1
2017-Dec-09 14:30N 24°25' E 117°59'62059.3
2017-Dec-09 14:30N 24°29' E 118°04'6239.9
2017-Dec-09 14:28N 24°24' E 118°06'76189141816.7
2017-Dec-09 14:28N 09°29' W 013°43'77943507469.6
2017-Dec-09 14:28N 25°09' E 121°22'353115431.1
2017-Dec-09 14:28N 30°59' E 122°10'5866285353.1
2017-Dec-09 14:27N 41°14' E 001°49'5528199005.1
2017-Dec-09 14:25N 37°43' E 121°06'81984253.1
2017-Dec-09 14:25N 24°17' E 118°17'45336265.5
2017-Dec-09 14:24N 31°04' E 122°01'67450523.2
2017-Dec-09 14:23N 22°19' E 114°10'252670.2
2017-Dec-09 14:00N 24°22' E 118°09'459416539187.3
2017-Dec-09 14:00N 44°10' E 028°39'307811080463.7
2017-Dec-09 14:00N 09°29' W 013°43'017.6
2017-Dec-09 14:00N 09°29' W 013°43'77967016012.6
2017-Dec-09 14:00N 25°10' E 121°23'19688275.9
2017-Dec-09 14:00N 24°26' E 117°53'135135.8
2017-Dec-09 14:00N 24°23' E 118°06'712578.8
2017-Dec-09 14:00N 24°24' E 117°59'24520043.0
2017-Dec-09 13:59N 22°19' E 114°10'74193815624.1
2017-Dec-09 13:59N 09°29' W 013°43'70301054536.0
2017-Dec-09 13:59N 01°07' E 103°39'2407228056.5
2017-Dec-09 13:58N 37°43' E 121°06'39817708.6
2017-Dec-09 13:57N 31°07' E 121°57'1695.9
2017-Dec-09 13:47N 30°55' E 122°10'109466.6
2017-Dec-09 13:33N 31°59' E 120°26'47214169.7
2017-Dec-09 13:31N 24°21' E 118°13'762527451701.8
2017-Dec-09 13:30N 09°30' W 013°43'76054563236.1
2017-Dec-09 13:30N 24°26' E 117°53'162807.0
2017-Dec-09 13:30N 24°22' E 118°09'183109656.3
2017-Dec-09 13:30N 25°09' E 121°23'43233819.6
2017-Dec-09 13:29N 22°19' E 114°10'741913354724.3
2017-Dec-09 13:29N 09°29' W 013°43'7612215763.6
2017-Dec-09 13:27N 24°24' E 117°59'1628189044.3
2017-Dec-09 13:27N 01°10' E 103°37'2405106909.9
2017-Dec-09 13:25N 37°43' E 121°06'41414453.5
2017-Dec-09 13:23N 30°53' E 122°09'4425828.5
2017-Dec-09 13:19N 24°20' E 118°21'47225729.2
2017-Dec-09 13:18N 31°59' E 120°26'439615246.3
2017-Dec-09 13:01N 44°09' E 028°40'460016560024.9
2017-Dec-09 13:00N 24°21' E 118°16'76299154841.2
2017-Dec-09 13:00N 09°29' W 013°43'76241247554.8
2017-Dec-09 13:00N 24°19' E 118°11'1831865.8
2017-Dec-09 13:00N 24°26' E 117°53'621282.5
2017-Dec-09 13:00N 24°24' E 117°59'196899.4
2017-Dec-09 13:00N 24°19' E 118°19'7632538733.5
2017-Dec-09 12:59N 09°29' W 013°43'7419182941.8
2017-Dec-09 12:57N 22°19' E 114°10'66661520.8
2017-Dec-09 12:56N 30°50' E 122°08'41631892.7
2017-Dec-09 12:55N 37°43' E 121°06'4004412.4
2017-Dec-09 12:50N 31°06' E 121°59'208362482.0
2017-Dec-09 12:48N 01°13' E 103°35'208431003.3
2017-Dec-09 12:44N 31°59' E 120°26'66921511.2
2017-Dec-09 12:42N 22°19' E 114°09'25216204.4
2017-Dec-09 12:41N 24°30' E 118°04'1165.5
2017-Dec-09 12:31N 24°26' E 117°53'457816479232.5
2017-Dec-09 12:31N 44°09' E 028°40'30792770671.4
2017-Dec-09 12:30N 09°29' W 013°43'77579308265.1
2017-Dec-09 12:30N 30°47' E 122°06'43987755.6
2017-Dec-09 12:30N 24°18' E 118°17'1812815.6
2017-Dec-09 12:30N 24°24' E 117°59'63260.3
2017-Dec-09 12:30N 24°29' E 118°03'251180670.4
2017-Dec-09 12:30N 22°19' E 114°09'7419684813.5
2017-Dec-09 12:29N 09°29' W 013°43'7419452703.4
2017-Dec-09 12:28N 22°19' E 114°10'9921190359.4
2017-Dec-09 12:28N 37°43' E 121°06'240391066.7
2017-Dec-09 12:27N 01°13' E 103°35'2082340767.1
2017-Dec-09 12:26N 31°05' E 122°01'5854100360.5
2017-Dec-09 12:23N 41°14' E 001°49'20835616.3
2017-Dec-09 12:00N 09°29' W 013°43'761613708835.4
2017-Dec-09 12:00N 24°26' E 118°04'1018289.9
2017-Dec-09 12:00N 24°26' E 117°53'45788239624.8
2017-Dec-09 12:00N 44°09' E 028°40'46023313443.6
2017-Dec-09 12:00N 24°17' E 118°15'174310.3
2017-Dec-09 12:00N 24°24' E 117°59'7612441967.9
2017-Dec-09 11:59N 09°29' W 013°43'7753680749.8
2017-Dec-09 11:58N 30°44' E 122°01'5870293476.6
2017-Dec-09 11:57N 41°14' E 001°49'6177494191.0
2017-Dec-09 11:56N 01°13' E 103°35'2403120158.2
2017-Dec-09 11:55N 37°43' E 121°06'99219407.9
2017-Dec-09 11:52N 22°19' E 114°10'6746667.7
2017-Dec-09 11:46N 31°03' E 122°04'4551761.8
2017-Dec-09 11:31N 24°26' E 117°53'457816479232.5
2017-Dec-09 11:30N 44°09' E 028°40'30792770670.5
2017-Dec-09 11:30N 09°30' W 013°43'76271830529.9
2017-Dec-09 11:30N 24°16' E 118°13'7627386732.1
2017-Dec-09 11:29N 09°29' W 013°43'7750619962.4
2017-Dec-09 11:28N 30°42' E 121°57'423507658.5
2017-Dec-09 11:28N 37°43' E 121°06'815108615.8
2017-Dec-09 11:28N 24°24' E 117°59'1611170620.8
2017-Dec-09 11:27N 01°15' E 104°02'271477.0
2017-Dec-09 11:26N 01°13' E 103°35'2084277879.5
2017-Dec-09 11:26N 31°59' E 120°26'57416889068.9
2017-Dec-09 11:26N 41°12' E 001°49'586197229.5
2017-Dec-09 11:22N 31°02' E 122°05'4688179.2
2017-Dec-09 11:19N 23°34' E 119°34'5076289.7
2017-Dec-09 11:14N 31°58' E 120°26'6707510.0
2017-Dec-09 11:08N 22°19' E 114°10'98919889.4
2017-Dec-09 11:05N 37°33' E 121°23'422751930.1
2017-Dec-09 11:00N 44°09' E 028°40'30792770657.8
2017-Dec-09 11:00N 09°30' W 013°43'76261372683.3
2017-Dec-09 11:00N 24°15' E 118°12'457205712.2
2017-Dec-09 11:00N 31°01' E 122°07'45560678.9
2017-Dec-09 11:00N 24°26' E 117°53'76051303780.6
2017-Dec-09 10:59N 09°30' W 013°43'7047667582.3
2017-Dec-09 10:59N 01°13' E 103°57'2395410525.8
2017-Dec-09 10:58N 37°43' E 121°06'815108615.8
2017-Dec-09 10:58N 24°24' E 117°59'24563065.8
2017-Dec-09 10:57N 22°18' E 114°09'5842250387.5
2017-Dec-09 10:56N 41°14' E 001°49'6059661029.3
2017-Dec-09 10:56N 23°34' E 119°35'16368293.7
2017-Dec-09 10:44N 01°13' E 103°35'140912713.6
2017-Dec-09 10:37N 22°18' E 114°09'670219338.2
2017-Dec-09 10:37N 31°59' E 120°26'439641320.3
2017-Dec-09 10:30N 44°09' E 028°40'307811082585.6
2017-Dec-09 10:30N 09°30' W 013°43'76251143740.3
2017-Dec-09 10:30N 24°13' E 118°10'16161939309.2
2017-Dec-09 10:30N 01°11' E 103°52'1618582406.8
2017-Dec-09 10:30N 24°26' E 117°53'162476941.3
2017-Dec-09 10:29N 01°13' E 103°35'70241945240.4
2017-Dec-09 10:28N 09°28' W 013°42'76032280895.9
2017-Dec-09 10:28N 37°43' E 121°06'992510350.0
2017-Dec-09 10:28N 22°18' E 114°09'24642112.6
2017-Dec-09 10:28N 24°24' E 117°59'7612260970.5
2017-Dec-09 10:26N 09°30' W 013°43'7419202330.3
2017-Dec-09 10:24N 22°19' E 114°09'100634497.7
2017-Dec-09 10:22N 37°41' E 121°55'5567345550.6
2017-Dec-09 10:21N 41°14' E 001°49'574079172.8
2017-Dec-09 10:17N 31°59' E 120°26'20837731.5
2017-Dec-09 10:01N 01°09' E 103°47'16235841474.9
2017-Dec-09 10:01N 24°26' E 117°53'457816479232.5
2017-Dec-09 10:00N 44°09' E 028°40'307811082582.1
2017-Dec-09 10:00N 09°30' W 013°43'0 0.8
2017-Dec-09 09:59N 09°30' W 013°43'7025665563.6
2017-Dec-09 09:58N 01°13' E 103°35'2403786485.9
2017-Dec-09 09:58N 37°43' E 121°06'99266149.5
2017-Dec-09 09:57N 22°19' E 114°08'5840166871.1
2017-Dec-09 09:55N 41°14' E 001°49'5943822934.1
2017-Dec-09 09:55N 24°24' E 117°59'4508346.9
2017-Dec-09 09:51N 30°56' E 122°09'108379.7
2017-Dec-09 09:34N 31°59' E 120°26'439667343.9
2017-Dec-09 09:30N 44°09' E 028°40'45782059904.1
2017-Dec-09 09:30N 24°26' E 117°53'41158.1
2017-Dec-09 09:30N 24°24' E 117°56'1627292910.5
2017-Dec-09 09:30N 01°06' E 103°42'2079325434.5
2017-Dec-09 09:29N 30°53' E 122°08'7757930883.3
2017-Dec-09 09:29N 09°30' W 013°43'1144.1
2017-Dec-09 09:28N 09°28' W 013°42'72261858158.7
2017-Dec-09 09:28N 21°05' E 110°34'1260756037.5
2017-Dec-09 09:28N 01°13' E 103°35'2084129360.2
2017-Dec-09 09:27N 31°59' E 120°26'3462637.8
2017-Dec-09 09:19N 37°43' E 121°06'9935998.1
2017-Dec-09 09:09N 22°18' E 114°08'4348057.7
2017-Dec-09 09:06N 25°09' E 121°23'746167938.9
2017-Dec-09 09:06N 37°36' E 121°25'99317518.7
2017-Dec-09 09:02N 22°18' E 114°09'2427993.8
2017-Dec-09 09:01N 24°26' E 117°53'2239619.5
2017-Dec-09 09:01N 24°11' E 118°11'762627452301.8
2017-Dec-09 09:00N 09°30' W 013°43'702912652739.1
2017-Dec-09 09:00N 01°09' E 103°38'1263378942.1
2017-Dec-09 09:00N 21°03' E 110°37'644331099.0
2017-Dec-09 09:00N 25°09' E 121°23'433222658.4
2017-Dec-09 09:00N 22°18' E 114°09'993223344.3
2017-Dec-09 09:00N 37°36' E 121°25'7622560004.6
2017-Dec-09 08:59N 09°30' W 013°43'7648860400.3
2017-Dec-09 08:58N 31°59' E 120°26'34677816.4
2017-Dec-09 08:58N 37°43' E 121°06'3015468.1
2017-Dec-09 08:58N 37°44' E 121°43'823148222.6
2017-Dec-09 08:58N 24°25' E 117°52'2415452.4
2017-Dec-09 08:55N 22°18' E 114°09'140925749.8
2017-Dec-09 08:52N 01°13' E 103°35'140820863.4
2017-Dec-09 08:48N 22°18' E 114°08'66512207.1
2017-Dec-09 08:44N 30°47' E 122°05'7756429545.9
2017-Dec-09 08:43N 09°28' W 013°42'208370095.2
2017-Dec-09 08:42N 41°14' E 001°49'555330104.5
2017-Dec-09 08:31N 37°45' E 121°40'423115232785.3
2017-Dec-09 08:30N 44°09' E 028°40'48832197157.9
2017-Dec-09 08:30N 01°13' E 103°36'1624584711.9
2017-Dec-09 08:30N 24°26' E 117°53'196353339.0
2017-Dec-09 08:30N 25°09' E 121°23'18154409.2
2017-Dec-09 08:30N 24°14' E 118°13'818226651.4
2017-Dec-09 08:30N 37°36' E 121°25'34127864.1
2017-Dec-09 08:29N 31°59' E 120°26'76486883208.2
2017-Dec-09 08:29N 09°29' W 013°43'7025301088.3
2017-Dec-09 08:28N 01°13' E 103°35'126459850.3
2017-Dec-09 08:26N 21°11' E 110°25'7216472346.5
2017-Dec-09 08:25N 09°28' W 013°42'74181335259.7
2017-Dec-09 08:25N 22°18' E 114°09'99220650.0
2017-Dec-09 08:22N 37°43' E 121°06'815112815.1
2017-Dec-09 08:22N 24°25' E 117°52'2428141.8
2017-Dec-09 08:20N 22°18' E 114°08'26011278.1
2017-Dec-09 08:19N 24°32' E 118°10'7994713.3
2017-Dec-09 08:08N 37°33' E 121°23'41010036.3
2017-Dec-09 08:06N 30°45' E 122°01'4254735.8
2017-Dec-09 08:01N 24°32' E 118°10'16385898273.0
2017-Dec-09 08:01N 01°13' E 103°35'70256322907.3
2017-Dec-09 08:00N 09°29' W 013°43'30791583239.9
2017-Dec-09 08:00N 44°09' E 028°40'43512610865.0
2017-Dec-09 08:00N 21°14' E 110°26'649212362.4
2017-Dec-09 08:00N 25°09' E 121°23'41257097.8
2017-Dec-09 08:00N 31°59' E 120°26'476142882.4
2017-Dec-09 07:59N 24°16' E 118°16'8131463536.7
2017-Dec-09 07:59N 37°33' E 121°23'76211016187.4
2017-Dec-09 07:59N 09°29' W 013°43'7603595024.8
2017-Dec-09 07:58N 37°43' E 121°06'76031368532.1
2017-Dec-09 07:58N 09°28' W 013°42'7024722512.1
2017-Dec-09 07:57N 01°13' E 103°35'2404262298.6
2017-Dec-09 07:57N 37°36' E 121°25'81123940.6
2017-Dec-09 07:55N 24°25' E 117°52'2411667.2
2017-Dec-09 07:46N 22°18' E 114°09'27349108.1
2017-Dec-09 07:46N 24°26' E 118°32'4209755.0
2017-Dec-09 07:43N 30°44' E 121°58'4134373.2
2017-Dec-09 07:37N 37°36' E 121°25'8056981.1
2017-Dec-09 07:31N 24°25' E 118°31'764227510937.7
2017-Dec-09 07:30N 09°29' W 013°43'76235488290.0
2017-Dec-09 07:30N 37°36' E 121°25'1137409178.9
2017-Dec-09 07:30N 21°16' E 110°24'8383018028.3
2017-Dec-09 07:30N 31°59' E 120°26'342307891.2
2017-Dec-09 07:30N 37°37' E 121°27'815209462.1
2017-Dec-09 07:30N 24°18' E 118°19'813487743.0
2017-Dec-09 07:30N 37°36' E 121°23'24041081741.5
2017-Dec-09 07:30N 01°13' E 103°35'16245847528.7
2017-Dec-09 07:30N 24°26' E 117°53'22432327.7
2017-Dec-09 07:29N 25°12' E 121°55'78251341385.4
2017-Dec-09 07:29N 09°29' W 013°43'7603622071.9
2017-Dec-09 07:28N 37°43' E 121°06'815101144.6
2017-Dec-09 07:28N 24°25' E 117°52'1623139144.0
2017-Dec-09 07:27N 01°13' E 103°35'140881772.1
2017-Dec-09 07:26N 22°18' E 114°08'2772689.0
2017-Dec-09 07:20N 24°31' E 118°32'41320636.1
2017-Dec-09 07:19N 30°42' E 121°56'774925711.5
2017-Dec-09 07:00N 09°29' W 013°43'72186495765.4
2017-Dec-09 07:00N 21°11' E 110°25'12644548716.5
2017-Dec-09 07:00N 01°13' E 103°35'16241949164.5
2017-Dec-09 07:00N 24°26' E 117°53'222133093.6
2017-Dec-09 07:00N 25°12' E 121°52'749245085.0
2017-Dec-09 07:00N 37°41' E 121°29'81671661.3
2017-Dec-09 06:59N 24°20' E 118°23'76359162588.9
2017-Dec-09 06:59N 09°29' W 013°43'764827532946.6
2017-Dec-09 06:59N 31°59' E 120°26'457823121.7
2017-Dec-09 06:59N 24°33' E 118°31'16481483232.5
2017-Dec-09 06:59N 01°14' E 103°36'1622486577.0
2017-Dec-09 06:59N 24°25' E 117°52'76053911094.7
2017-Dec-09 06:59N 09°29' W 013°43'7621219471.7
2017-Dec-09 06:57N 37°36' E 121°23'16567.5
2017-Dec-09 06:55N 37°43' E 121°06'993274991.1
2017-Dec-09 06:55N 22°18' E 114°08'65313440.2
2017-Dec-09 06:52N 30°40' E 121°54'29876.8
2017-Dec-09 06:50N 31°09' E 121°54'4462201.4
2017-Dec-09 06:38N 24°23' E 118°27'31255.4
2017-Dec-09 06:31N 24°26' E 117°53'16245847487.9
2017-Dec-09 06:31N 01°13' E 103°35'702512645846.2
2017-Dec-09 06:30N 09°29' W 013°43'70264215656.4
2017-Dec-09 06:30N 01°18' E 103°37'12594530955.6
2017-Dec-09 06:30N 21°12' E 110°25'43535223189.2
2017-Dec-09 06:30N 44°09' E 028°40'47344260894.3
2017-Dec-09 06:30N 25°12' E 121°49'18611932.1
2017-Dec-09 06:29N 24°34' E 118°28'763813747705.7
2017-Dec-09 06:29N 09°29' W 013°43'76051520982.3
2017-Dec-09 06:29N 24°25' E 117°52'76055475538.0
2017-Dec-09 06:29N 09°29' W 013°43'76216858501.8
2017-Dec-09 06:29N 37°36' E 121°23'3891402152.4
2017-Dec-09 06:29N 31°07' E 121°57'39683820.2
2017-Dec-09 06:29N 37°43' E 121°30'192862.5
2017-Dec-09 06:28N 37°43' E 121°06'81247923.2
2017-Dec-09 06:27N 24°22' E 118°26'468210707.1
2017-Dec-09 06:27N 31°59' E 120°26'468281005.0
2017-Dec-09 06:27N 24°22' E 118°26'4316054.0
2017-Dec-09 06:23N 30°42' E 122°14'66513299.0
2017-Dec-09 06:20N 22°18' E 114°10'43253687.6
2017-Dec-09 06:19N 25°09' E 121°24'371141.8
2017-Dec-09 06:17N 25°12' E 122°04'6643.1
2017-Dec-09 06:17N 25°12' E 121°58'4175904.9
2017-Dec-09 06:12N 32°00' E 120°27'6733381.6
2017-Dec-09 06:01N 22°18' E 114°09'44868074209.2
2017-Dec-09 06:00N 44°09' E 028°40'42265070874.6
2017-Dec-09 06:00N 37°43' E 121°30'11441373328.1
2017-Dec-09 06:00N 21°15' E 110°25'721612989668.5
2017-Dec-09 06:00N 09°29' W 013°43'78165627446.5
2017-Dec-09 06:00N 25°12' E 121°45'216259189.0
2017-Dec-09 06:00N 24°26' E 117°53'1616157210.5
2017-Dec-09 06:00N 01°21' E 103°38'70271011847.7
2017-Dec-09 05:59N 09°29' W 013°43'0 1.5
2017-Dec-09 05:59N 09°29' W 013°43'76219144682.8
2017-Dec-09 05:59N 37°36' E 121°23'809104069.9
2017-Dec-09 05:58N 24°21' E 118°23'1517953.7
2017-Dec-09 05:58N 24°36' E 118°26'799319431.8
2017-Dec-09 05:58N 37°43' E 121°06'754339198.5
2017-Dec-09 05:58N 25°09' E 121°24'33976385.2
2017-Dec-09 05:58N 30°46' E 122°15'33418222.0
2017-Dec-09 05:57N 25°12' E 122°02'683.2
2017-Dec-09 05:52N 25°11' E 121°55'2264443.6
2017-Dec-09 05:49N 24°25' E 117°52'35405.3
2017-Dec-09 05:44N 24°24' E 118°31'16387389.5
2017-Dec-09 05:31N 01°18' E 103°37'16205831240.3
2017-Dec-09 05:31N 24°26' E 117°53'45788239617.5
2017-Dec-09 05:30N 44°09' E 028°40'47398530630.4
2017-Dec-09 05:30N 25°11' E 121°54'415298813.2
2017-Dec-09 05:30N 31°59' E 120°26'472849129.5
2017-Dec-09 05:30N 24°20' E 118°21'206184980.5
2017-Dec-09 05:30N 25°12' E 122°00'683819631.8
2017-Dec-09 05:30N 21°10' E 110°25'651292818.4
2017-Dec-09 05:30N 25°10' E 121°23'74637840.2
2017-Dec-09 05:29N 37°36' E 121°23'101053.8
2017-Dec-09 05:28N 37°43' E 121°32'80095969.8
2017-Dec-09 05:28N 24°39' E 118°26'293193.7
2017-Dec-09 05:27N 24°14' E 118°10'7624347432.6
2017-Dec-09 05:26N 09°29' W 013°43'0 6.5
2017-Dec-09 05:26N 09°29' W 013°43'7603595029.5
2017-Dec-09 05:25N 37°43' E 121°06'7603570235.6
2017-Dec-09 05:24N 09°29' W 013°43'776567849.3
2017-Dec-09 05:17N 30°51' E 122°16'4516133.5
2017-Dec-09 05:13N 24°25' E 117°52'45637306.3
2017-Dec-09 05:12N 31°01' E 122°08'4552306.9
2017-Dec-09 05:00N 24°26' E 117°53'16151453767.1
2017-Dec-09 05:00N 01°22' E 103°38'17816412192.5
2017-Dec-09 05:00N 25°10' E 121°51'675607469.5
2017-Dec-09 05:00N 21°11' E 110°25'681816703.3
2017-Dec-09 05:00N 25°12' E 121°57'20649391.3
2017-Dec-09 05:00N 24°18' E 118°18'447115040.0
2017-Dec-09 05:00N 30°54' E 122°15'4101476567.7
2017-Dec-09 05:00N 37°42' E 121°34'11686.5
2017-Dec-09 04:59N 37°36' E 121°23'34181744.3
2017-Dec-09 04:59N 31°59' E 120°26'34649803.3
2017-Dec-09 04:58N 37°43' E 121°06'81515602.4
2017-Dec-09 04:55N 24°25' E 117°52'369169.3
2017-Dec-09 04:55N 24°40' E 118°27'76351018026.3
2017-Dec-09 04:54N 09°29' W 013°43'0 0.7
2017-Dec-09 04:53N 09°29' W 013°43'0 2.1
2017-Dec-09 04:53N 09°29' W 013°43'77581745522.6
2017-Dec-09 04:53N 30°59' E 122°10'451612223.8
2017-Dec-09 04:30N 44°09' E 028°40'47374262877.4
2017-Dec-09 04:30N 25°10' E 121°49'782028152933.7
2017-Dec-09 04:30N 09°29' W 013°43'762913732555.6
2017-Dec-09 04:30N 24°17' E 118°16'2381931.7
2017-Dec-09 04:30N 24°26' E 117°53'225269413.5
2017-Dec-09 04:30N 25°12' E 121°55'20674258.9
2017-Dec-09 04:30N 24°33' E 118°11'1626836159.4
2017-Dec-09 04:30N 01°26' E 103°40'2401540130.6
2017-Dec-09 04:30N 37°42' E 121°36'406243728.1
2017-Dec-09 04:30N 30°57' E 122°13'2651.6
2017-Dec-09 04:29N 30°57' E 122°11'10965240.2
2017-Dec-09 04:29N 31°59' E 120°26'76482294418.2
2017-Dec-09 04:29N 09°29' W 013°43'0 0.6
2017-Dec-09 04:29N 09°29' W 013°43'762127434059.5
2017-Dec-09 04:29N 37°36' E 121°23'991187708.6
2017-Dec-09 04:29N 22°19' E 114°09'67328832.3
2017-Dec-09 04:27N 31°10' E 121°52'4575380.9
2017-Dec-09 04:22N 24°25' E 117°52'160654047.3
2017-Dec-09 04:20N 01°27' E 103°45'163722157.1
2017-Dec-09 04:16N 24°40' E 118°27'79417865.8
2017-Dec-09 04:13N 37°43' E 121°06'8143860.4
2017-Dec-09 04:01N 24°26' E 117°53'4561643240.3
2017-Dec-09 04:01N 21°11' E 110°25'435315669174.6
2017-Dec-09 04:00N 44°09' E 028°40'451616257464.6
2017-Dec-09 04:00N 31°01' E 122°11'165695.0
2017-Dec-09 04:00N 31°08' E 121°55'3571285415.9
2017-Dec-09 04:00N 25°11' E 121°53'206739962.4
2017-Dec-09 04:00N 24°32' E 118°10'16221946153.4
2017-Dec-09 04:00N 01°28' E 103°44'23981726900.3
2017-Dec-09 04:00N 37°42' E 121°38'349139442.5
2017-Dec-09 04:00N 31°59' E 120°26'478343826.3
2017-Dec-09 04:00N 24°16' E 118°12'81745230.8
2017-Dec-09 03:59N 37°36' E 121°23'79048198.3
2017-Dec-09 03:58N 24°40' E 118°27'7635241109.5
2017-Dec-09 03:56N 09°29' W 013°43'0 8.0
2017-Dec-09 03:56N 09°29' W 013°43'7603636540.8
2017-Dec-09 03:55N 37°43' E 121°06'815366653.9
2017-Dec-09 03:55N 24°25' E 117°52'7605651848.4
2017-Dec-09 03:54N 09°29' W 013°43'7631807988.6
2017-Dec-09 03:54N 24°19' E 118°18'4397212.4
2017-Dec-09 03:50N 30°48' E 122°06'1065.7
2017-Dec-09 03:41N 30°42' E 121°57'4283695.8
2017-Dec-09 03:34N 24°26' E 118°05'458786013.8
2017-Dec-09 03:30N 44°09' E 028°40'450216208172.4
2017-Dec-09 03:30N 31°06' E 121°59'460827367.2
2017-Dec-09 03:30N 24°14' E 118°09'1917041.0
2017-Dec-09 03:30N 24°26' E 117°53'456821615.3
2017-Dec-09 03:30N 21°11' E 110°25'675809956.9
2017-Dec-09 03:30N 25°11' E 121°51'17741277056.1
2017-Dec-09 03:30N 01°28' E 103°44'2400959824.6
2017-Dec-09 03:30N 37°42' E 121°40'810224248.2
2017-Dec-09 03:30N 24°33' E 118°11'7622508109.7
2017-Dec-09 03:29N 09°29' W 013°43'0 0.7
2017-Dec-09 03:29N 09°29' W 013°43'7603651693.5
2017-Dec-09 03:28N 37°43' E 121°06'169367.0
2017-Dec-09 03:28N 37°36' E 121°23'39439440.9
2017-Dec-09 03:27N 31°03' E 122°08'451324389.8
2017-Dec-09 03:27N 24°20' E 118°20'76334579803.7
2017-Dec-09 03:27N 09°29' W 013°43'760586637.7
2017-Dec-09 03:22N 24°25' E 117°52'36668.6
2017-Dec-09 03:19N 24°40' E 118°27'16375363.7
2017-Dec-09 03:01N 01°28' E 103°43'24008640435.3
2017-Dec-09 03:01N 37°42' E 121°41'423415244024.7
2017-Dec-09 03:00N 44°09' E 028°40'45782354175.9
2017-Dec-09 03:00N 24°26' E 117°53'28101236.3
2017-Dec-09 03:00N 24°21' E 118°23'193115905.3
2017-Dec-09 03:00N 25°11' E 121°49'211759759.3
2017-Dec-09 03:00N 24°13' E 118°05'7620428653.1
2017-Dec-09 02:59N 09°29' W 013°43'0 1.3
2017-Dec-09 02:59N 09°29' W 013°43'7621583698.3
2017-Dec-09 02:58N 37°36' E 121°23'811973454.4
2017-Dec-09 02:58N 24°25' E 117°52'3610697.5
2017-Dec-09 02:58N 24°40' E 118°27'42910799.2
2017-Dec-09 02:55N 31°05' E 122°03'126.7
2017-Dec-09 02:54N 31°05' E 122°02'40116403.1
2017-Dec-09 02:52N 37°43' E 121°06'41125950.9
2017-Dec-09 02:51N 30°55' E 122°10'10922985.1
2017-Dec-09 02:51N 31°59' E 120°26'57168471.3
2017-Dec-09 02:50N 22°28' E 120°26'1702172.1
2017-Dec-09 02:46N 25°09' E 121°23'196773.2
2017-Dec-09 02:31N 24°26' E 117°53'457816479249.7
2017-Dec-09 02:30N 44°09' E 028°40'450316210777.5
2017-Dec-09 02:30N 31°06' E 121°59'397713953.6
2017-Dec-09 02:30N 37°42' E 121°43'752300755.0
2017-Dec-09 02:30N 25°10' E 121°46'670482160.5
2017-Dec-09 02:30N 21°12' E 110°25'11394101383.5
2017-Dec-09 02:30N 37°35' E 121°26'40920754.9
2017-Dec-09 02:29N 30°47' E 122°05'77563988988.8
2017-Dec-09 02:29N 09°29' W 013°43'7603636537.6
2017-Dec-09 02:28N 37°43' E 121°06'2387429578.5
2017-Dec-09 02:28N 01°28' E 103°43'206828417.7
2017-Dec-09 02:23N 31°04' E 122°07'1023146.0
2017-Dec-09 02:22N 31°59' E 120°26'45012568.8
2017-Dec-09 02:19N 24°40' E 118°27'42839530.7
2017-Dec-09 02:19N 31°05' E 121°60'2066437431.1
2017-Dec-09 02:18N 01°27' E 103°45'206636820.7
2017-Dec-09 02:15N 31°09' E 121°55'4571885.6
2017-Dec-09 02:01N 24°25' E 117°52'457816479096.7
2017-Dec-09 02:01N 44°09' E 028°40'44978095133.5
2017-Dec-09 02:00N 31°08' E 121°54'391140745.9
2017-Dec-09 02:00N 37°39' E 121°27'1141684399.2
2017-Dec-09 02:00N 21°14' E 110°26'454817580.9
2017-Dec-09 02:00N 24°26' E 117°53'47241477.8
2017-Dec-09 01:59N 31°59' E 120°26'41537370.9
2017-Dec-09 01:59N 25°09' E 121°46'18325271.0
2017-Dec-09 01:58N 24°40' E 118°27'1637113360.7
2017-Dec-09 01:58N 01°28' E 103°43'70311808002.0
2017-Dec-09 01:57N 09°29' W 013°43'7638859300.5
2017-Dec-09 01:57N 37°42' E 121°45'7638808752.1
2017-Dec-09 01:56N 09°29' W 013°43'0 0.1
2017-Dec-09 01:56N 09°29' W 013°43'761749320.6
2017-Dec-09 01:47N 24°26' E 118°05'81214255.3
2017-Dec-09 01:43N 37°43' E 121°06'41419619.3
2017-Dec-09 01:42N 30°52' E 122°09'4174066.5
2017-Dec-09 01:36N 37°49' E 121°52'4067195.4
2017-Dec-09 01:32N 31°03' E 122°04'16513.9
2017-Dec-09 01:30N 31°13' E 121°49'390281045.3
2017-Dec-09 01:30N 37°43' E 121°28'11482066652.0
2017-Dec-09 01:30N 21°10' E 110°25'457548066.0
2017-Dec-09 01:30N 24°26' E 117°53'76059126432.6
2017-Dec-09 01:30N 09°29' W 013°43'76389165406.2
2017-Dec-09 01:30N 37°42' E 121°44'2401270125.5
2017-Dec-09 01:30N 01°28' E 103°43'7031527330.6
2017-Dec-09 01:29N 09°29' W 013°43'7603608244.8
2017-Dec-09 01:28N 37°43' E 121°06'81524042.9
2017-Dec-09 01:26N 24°25' E 117°52'2424288.8
2017-Dec-09 01:23N 22°18' E 114°08'27747549.9
2017-Dec-09 01:22N 24°40' E 118°27'6875944.7
2017-Dec-09 01:15N 36°00' E 120°22'31811790.4
2017-Dec-09 01:14N 30°56' E 122°10'142535.3
2017-Dec-09 01:13N 31°06' E 121°59'3049126.2
2017-Dec-09 01:11N 35°60' E 120°25'8846550.2
2017-Dec-09 01:03N 22°19' E 114°09'973134699.5
2017-Dec-09 01:03N 37°39' E 120°14'40869981.5
2017-Dec-09 01:03N 31°02' E 122°07'45015133.3
2017-Dec-09 01:01N 24°26' E 118°05'4587825698.6
2017-Dec-09 01:00N 44°09' E 028°40'457816479249.7
2017-Dec-09 01:00N 24°26' E 117°53'8022887272.1
2017-Dec-09 01:00N 37°39' E 120°14'7013244.3
2017-Dec-09 01:00N 37°42' E 121°42'114992.8
2017-Dec-09 01:00N 37°46' E 121°29'7623403591.9
2017-Dec-09 00:59N 09°29' W 013°43'703125311869.0
2017-Dec-09 00:59N 01°28' E 103°43'1392715768.1
2017-Dec-09 00:59N 22°18' E 114°08'27747541.8
2017-Dec-09 00:58N 24°40' E 118°27'794178658.4
2017-Dec-09 00:58N 37°43' E 121°06'40075872.5
2017-Dec-09 00:58N 31°05' E 122°00'30661294.3
2017-Dec-09 00:58N 36°00' E 120°22'312373946.3
2017-Dec-09 00:57N 31°01' E 122°07'77552326357.6
2017-Dec-09 00:57N 09°29' W 013°43'7605396772.2
2017-Dec-09 00:56N 24°25' E 117°52'76051825150.2
2017-Dec-09 00:56N 09°29' W 013°43'7758797983.8
2017-Dec-09 00:55N 30°58' E 122°10'4093799.2
2017-Dec-09 00:49N 37°47' E 121°54'82533369.0
2017-Dec-09 00:47N 24°26' E 118°05'2517842.8
2017-Dec-09 00:45N 22°19' E 114°09'448518042.2
2017-Dec-09 00:30N 44°09' E 028°40'457816479249.7
2017-Dec-09 00:30N 24°26' E 117°53'8022887305.0
2017-Dec-09 00:30N 37°38' E 120°18'589987.0
2017-Dec-09 00:30N 37°50' E 121°30'111220.1
2017-Dec-09 00:30N 37°42' E 121°40'7634518550.0
2017-Dec-09 00:29N 09°30' W 013°43'7603882932.7
2017-Dec-09 00:28N 37°43' E 121°06'81523655.1
2017-Dec-09 00:26N 24°25' E 117°52'362981.2
2017-Dec-09 00:25N 24°40' E 118°27'163714307.2
2017-Dec-09 00:19N 01°28' E 103°43'1614138379.8
2017-Dec-09 00:18N 23°32' E 119°30'161429953.2
2017-Dec-09 00:15N 01°27' E 103°45'1613215133.0
2017-Dec-09 00:14N 24°26' E 118°05'4692769.5
2017-Dec-09 00:04N 31°58' E 120°26'439675717.1
2017-Dec-09 00:00N 44°09' E 028°40'423215235866.9
2017-Dec-09 00:00N 37°42' E 121°38'8192949998.2
2017-Dec-09 00:00N 24°26' E 117°53'10434120.9
2017-Dec-09 00:00N 23°33' E 119°31'1045371.3
2017-Dec-08 23:59N 24°25' E 117°52'1607826213.6
2017-Dec-08 23:59N 01°27' E 103°44'2406188315.4
2017-Dec-08 23:58N 37°54' E 121°31'7623194632.3
2017-Dec-08 23:56N 09°30' W 013°43'0 0.7
2017-Dec-08 23:54N 09°30' W 013°43'0 1.0
2017-Dec-08 23:53N 09°30' W 013°43'7635639216.9
2017-Dec-08 23:52N 24°40' E 118°27'794190569.0
2017-Dec-08 23:52N 37°43' E 121°06'34640175.1
2017-Dec-08 23:52N 31°59' E 120°25'206770193.6
2017-Dec-08 23:50N 01°28' E 103°43'206720169.3
2017-Dec-08 23:44N 31°58' E 120°26'34020736.7
2017-Dec-08 23:43N 37°38' E 120°18'34013173.2
2017-Dec-08 23:41N 31°58' E 120°27'439724734.3
2017-Dec-08 23:31N 44°09' E 028°40'4578499370.7
2017-Dec-08 23:30N 24°26' E 117°53'81986717.5
2017-Dec-08 23:29N 37°42' E 121°36'820163980.9
2017-Dec-08 23:29N 24°25' E 117°52'76051825163.9
2017-Dec-08 23:29N 09°30' W 013°43'7603701821.0
2017-Dec-08 23:28N 37°43' E 121°06'7603471913.1
2017-Dec-08 23:27N 09°30' W 013°43'703189441.1
2017-Dec-08 23:23N 01°28' E 103°43'1637842091.3
2017-Dec-08 23:22N 24°40' E 118°27'1639143946.0
2017-Dec-08 23:22N 01°27' E 103°41'2412104630.7
2017-Dec-08 23:20N 37°58' E 121°32'621499.4
2017-Dec-08 23:18N 37°38' E 120°18'81311571.5
2017-Dec-08 23:14N 24°13' E 118°06'459721000.9
2017-Dec-08 23:01N 44°09' E 028°40'45785493076.3
2017-Dec-08 23:00N 24°26' E 117°53'819420972.5
2017-Dec-08 23:00N 37°42' E 121°35'828331020.4
2017-Dec-08 23:00N 24°14' E 118°07'7622338747.2
2017-Dec-08 22:59N 09°30' W 013°43'76351018020.4
2017-Dec-08 22:58N 24°40' E 118°27'784402945.1
2017-Dec-08 22:58N 37°38' E 120°18'3817054.0
2017-Dec-08 22:58N 37°43' E 121°06'7603488767.0
2017-Dec-08 22:57N 09°30' W 013°43'7031210931.8
2017-Dec-08 22:55N 01°28' E 103°43'51262.7
2017-Dec-08 22:55N 01°25' E 103°40'161119658.2
2017-Dec-08 22:50N 24°25' E 117°52'4732560.5
2017-Dec-08 22:39N 31°59' E 120°25'439531084.4
2017-Dec-08 22:31N 44°09' E 028°40'45983310211.9
2017-Dec-08 22:30N 24°17' E 118°10'1615581513.5
2017-Dec-08 22:30N 01°23' E 103°39'78191.7
2017-Dec-08 22:30N 01°28' E 103°43'1608361710.6
2017-Dec-08 22:30N 24°26' E 117°53'815326037.8
2017-Dec-08 22:30N 37°39' E 121°31'20733.2
2017-Dec-08 22:28N 37°43' E 121°06'7603196913.7
2017-Dec-08 22:26N 09°30' W 013°43'76351099461.3
2017-Dec-08 22:25N 24°40' E 118°27'7635392663.8
2017-Dec-08 22:24N 09°30' W 013°43'7605109509.5
2017-Dec-08 22:20N 24°25' E 117°52'457814012.8
2017-Dec-08 22:00N 44°09' E 028°40'45781373269.4
2017-Dec-08 22:00N 24°26' E 117°53'812730412.0
2017-Dec-08 22:00N 37°36' E 121°27'81243013.2
2017-Dec-08 21:59N 24°25' E 117°52'76051825163.6
2017-Dec-08 21:59N 09°30' W 013°43'010.7
2017-Dec-08 21:59N 09°30' W 013°43'7603912364.6
2017-Dec-08 21:58N 37°43' E 121°06'2396221133.7
2017-Dec-08 21:58N 01°20' E 103°37'9338.2
2017-Dec-08 21:56N 01°28' E 103°43'7031452001.1
2017-Dec-08 21:55N 09°30' W 013°43'7635249875.7
2017-Dec-08 21:53N 24°40' E 118°27'4501528.7
2017-Dec-08 21:35N 31°59' E 120°25'10638123.1
2017-Dec-08 21:35N 30°43' E 121°52'451256800.5
2017-Dec-08 21:30N 44°09' E 028°40'45783295849.9
2017-Dec-08 21:30N 24°26' E 117°53'16081929105.0
2017-Dec-08 21:30N 01°28' E 103°44'2044525532.2
2017-Dec-08 21:30N 30°44' E 121°51'43424811.0
2017-Dec-08 21:29N 24°25' E 117°52'76051955533.1
2017-Dec-08 21:29N 09°30' W 013°43'010.7
2017-Dec-08 21:29N 09°30' W 013°43'0 0.4
2017-Dec-08 21:27N 09°30' W 013°43'7635429473.2
2017-Dec-08 21:26N 24°40' E 118°27'79451045.3
2017-Dec-08 21:25N 37°43' E 121°06'3469979.0
2017-Dec-08 21:23N 31°58' E 120°27'34447664.9
2017-Dec-08 21:23N 37°38' E 121°28'56300.1
2017-Dec-08 21:12N 37°38' E 120°18'417422734.3
2017-Dec-08 21:00N 44°09' E 028°40'45781029952.0
2017-Dec-08 21:00N 24°26' E 117°53'43787343.7
2017-Dec-08 21:00N 30°48' E 121°51'4171501441.5
2017-Dec-08 21:00N 37°38' E 120°18'5410799.0
2017-Dec-08 21:00N 37°36' E 121°26'7623498970.9
2017-Dec-08 20:59N 09°30' W 013°43'703125312047.8
2017-Dec-08 20:59N 01°28' E 103°43'2387286384.0
2017-Dec-08 20:58N 37°43' E 121°06'8151466615.5
2017-Dec-08 20:58N 24°25' E 117°52'161692339.0
2017-Dec-08 20:57N 01°20' E 103°38'7026240904.6
2017-Dec-08 20:55N 09°30' W 013°43'763587536.1
2017-Dec-08 20:50N 24°40' E 118°27'459514055.2
2017-Dec-08 20:30N 44°09' E 028°40'45783295845.8
2017-Dec-08 20:30N 24°26' E 117°53'76052106096.6
2017-Dec-08 20:30N 09°30' W 013°43'70311265614.2
2017-Dec-08 20:30N 01°28' E 103°44'7031538560.6
2017-Dec-08 20:29N 09°30' W 013°43'0 0.5
2017-Dec-08 20:28N 09°30' W 013°43'7603142557.6
2017-Dec-08 20:25N 37°43' E 121°06'2396116538.6
2017-Dec-08 20:24N 01°20' E 103°38'161620268.4
2017-Dec-08 20:19N 24°25' E 117°52'457814739.8
2017-Dec-08 20:00N 44°09' E 028°40'45782354178.5
2017-Dec-08 20:00N 24°26' E 117°53'7605369991.1
2017-Dec-08 19:59N 09°30' W 013°43'021.4
2017-Dec-08 19:59N 09°30' W 013°43'067.5
2017-Dec-08 19:59N 09°30' W 013°43'7031333056.8
2017-Dec-08 19:58N 01°28' E 103°44'160735923.3
2017-Dec-08 19:55N 24°25' E 117°52'161621786.8
2017-Dec-08 19:51N 01°20' E 103°38'16475311.9
2017-Dec-08 19:32N 24°40' E 118°27'4595168807.7
2017-Dec-08 19:30N 44°09' E 028°40'4578633817.2
2017-Dec-08 19:30N 24°26' E 117°53'7605441602.4
2017-Dec-08 19:29N 09°30' W 013°43'70312531235.3
2017-Dec-08 19:29N 01°28' E 103°44'7031872840.5
2017-Dec-08 19:28N 09°30' W 013°43'76032105466.8
2017-Dec-08 19:28N 37°43' E 121°06'7603471913.8
2017-Dec-08 19:27N 09°30' W 013°43'760582462.2
2017-Dec-08 19:22N 24°25' E 117°52'361408.7
2017-Dec-08 19:20N 24°40' E 118°27'4502625.2
2017-Dec-08 19:10N 31°58' E 120°27'4723039.6
2017-Dec-08 19:01N 24°26' E 117°53'16085787314.9
2017-Dec-08 19:01N 01°28' E 103°44'48781596447.5
2017-Dec-08 19:00N 44°09' E 028°40'4207118324.6
2017-Dec-08 18:58N 37°43' E 121°06'81588885.8
2017-Dec-08 18:58N 24°25' E 117°52'7605199836.2
2017-Dec-08 18:55N 09°30' W 013°43'0 1.5
2017-Dec-08 18:54N 09°30' W 013°43'763547802.3
2017-Dec-08 18:44N 24°40' E 118°27'164716604.8
2017-Dec-08 18:38N 01°20' E 103°38'161712736.8
2017-Dec-08 18:31N 24°26' E 117°53'45785493083.2
2017-Dec-08 18:30N 44°09' E 028°40'4878462129.0
2017-Dec-08 18:30N 01°28' E 103°44'9750.6
2017-Dec-08 18:29N 01°20' E 103°38'70265058998.2
2017-Dec-08 18:29N 09°30' W 013°43'0 2.5
2017-Dec-08 18:29N 09°30' W 013°43'7605480306.1
2017-Dec-08 18:28N 24°25' E 117°52'23817880.6
2017-Dec-08 18:27N 22°18' E 114°12'99234667.0
2017-Dec-08 18:25N 37°43' E 121°06'54915.0
2017-Dec-08 18:22N 37°33' E 122°13'79633732.1
2017-Dec-08 18:20N 24°40' E 118°27'763542480.9
2017-Dec-08 18:09N 09°28' W 013°42'307920833.7
2017-Dec-08 18:00N 44°09' E 028°40'48781254352.6
2017-Dec-08 18:00N 01°28' E 103°44'16081929110.6
2017-Dec-08 18:00N 24°26' E 117°53'81423821.3
2017-Dec-08 17:58N 37°43' E 121°06'381919.8
2017-Dec-08 17:57N 37°38' E 120°18'75621701405.0
2017-Dec-08 17:57N 09°29' W 013°43'7635785326.6
2017-Dec-08 17:56N 24°40' E 118°27'795954141.3
2017-Dec-08 17:56N 37°32' E 122°12'76659197842.1
2017-Dec-08 17:56N 09°29' W 013°43'7649187326.9
2017-Dec-08 17:54N 31°58' E 120°27'2076191669.3
2017-Dec-08 17:53N 01°20' E 103°38'161676539.8
2017-Dec-08 17:52N 24°25' E 117°52'760472615.5
2017-Dec-08 17:45N 09°28' W 013°42'761670847.2
2017-Dec-08 17:39N 24°25' E 118°04'458832638.5
2017-Dec-08 17:30N 44°09' E 028°40'45865503761.3
2017-Dec-08 17:30N 24°26' E 118°03'1613387047.0
2017-Dec-08 17:30N 01°28' E 103°44'1608141154.8
2017-Dec-08 17:30N 24°26' E 117°53'81625539.9
2017-Dec-08 17:28N 37°31' E 122°10'531307.6
2017-Dec-08 17:25N 37°43' E 121°06'79450149.2
2017-Dec-08 17:24N 24°40' E 118°27'36833.6
2017-Dec-08 17:22N 24°25' E 117°52'76041610356.8
2017-Dec-08 17:21N 09°28' W 013°42'1127.4
2017-Dec-08 17:21N 09°29' W 013°43'30799144.2
2017-Dec-08 17:00N 44°09' E 028°40'45781831027.7
2017-Dec-08 17:00N 24°26' E 117°53'16081446874.2
2017-Dec-08 17:00N 01°28' E 103°43'1616264430.6
2017-Dec-08 17:00N 24°29' E 118°04'761591684.5
2017-Dec-08 16:55N 09°28' W 013°42'15254.1
2017-Dec-08 16:55N 09°29' W 013°43'7605385600.3
2017-Dec-08 16:54N 24°25' E 117°52'81510783.9
2017-Dec-08 16:49N 37°43' E 121°06'381336.3
2017-Dec-08 16:47N 37°38' E 120°18'99204463790.0
2017-Dec-08 16:47N 32°05' W 081°04'10772705098.5
2017-Dec-08 16:46N 01°20' E 103°38'164782331.8
2017-Dec-08 16:45N 24°40' E 118°27'35141.2
2017-Dec-08 16:31N 24°26' E 117°53'457816479755.2
2017-Dec-08 16:30N 44°09' E 028°40'30792770661.1
2017-Dec-08 16:30N 09°28' W 013°42'40154817676.3
2017-Dec-08 16:30N 32°05' W 081°04'105424743802.0
2017-Dec-08 16:30N 24°40' E 118°27'16371964832.6
2017-Dec-08 16:30N 01°28' E 103°44'23641215877.1
2017-Dec-08 16:30N 37°38' E 120°18'75621296313.2
2017-Dec-08 16:30N 09°29' W 013°43'7026294128.8
2017-Dec-08 16:28N 01°20' E 103°38'23961077977.8
2017-Dec-08 16:28N 37°43' E 121°06'42079124.4
2017-Dec-08 16:00N 44°09' E 028°40'45781831085.8
2017-Dec-08 16:00N 24°26' E 117°53'3520810.1
2017-Dec-08 16:00N 24°40' E 118°27'364135.3
2017-Dec-08 16:00N 24°25' E 117°52'7605651849.6
2017-Dec-08 15:59N 09°29' W 013°43'7031872842.9
2017-Dec-08 15:59N 01°28' E 103°44'2387409116.5
2017-Dec-08 15:58N 37°43' E 121°06'23962155952.6
2017-Dec-08 15:58N 01°20' E 103°38'7026549865.4
2017-Dec-08 15:57N 09°31' W 013°43'2163.8
2017-Dec-08 15:57N 09°29' W 013°43'760517450.3
2017-Dec-08 15:31N 24°26' E 117°53'45785493251.7
2017-Dec-08 15:30N 44°09' E 028°40'48782926786.7
2017-Dec-08 15:30N 01°28' E 103°44'1077419392430.3
2017-Dec-08 15:30N 32°05' W 081°04'105426325069.4
2017-Dec-08 15:30N 24°40' E 118°27'7635832926.8
2017-Dec-08 15:30N 09°29' W 013°43'0 1.1
2017-Dec-08 15:29N 09°29' W 013°43'2162.6
2017-Dec-08 15:28N 09°31' W 013°43'76022280481.7
2017-Dec-08 15:28N 37°43' E 121°06'81533715.3
2017-Dec-08 15:27N 24°25' E 117°52'16618.8
2017-Dec-08 15:25N 24°19' E 118°08'1618416181.0
2017-Dec-08 15:25N 01°20' E 103°38'16269337.1
2017-Dec-08 15:14N 24°30' E 118°04'44413200.7
2017-Dec-08 15:12N 30°57' E 122°10'4573340.5
2017-Dec-08 15:04N 24°12' E 118°11'460273302.5
2017-Dec-08 15:00N 44°09' E 028°40'52302091831.0
2017-Dec-08 15:00N 32°05' W 081°03'1052337882912.0
2017-Dec-08 15:00N 24°26' E 117°53'162463.1
2017-Dec-08 15:00N 24°19' E 118°08'1018857.4
2017-Dec-08 15:00N 24°28' E 118°03'76151958171.7
2017-Dec-08 15:00N 09°29' W 013°43'0 1.3
2017-Dec-08 14:59N 09°29' W 013°43'70311406223.6
2017-Dec-08 14:59N 01°28' E 103°43'70311265519.4
2017-Dec-08 14:58N 09°31' W 013°43'76254575105.3
2017-Dec-08 14:58N 24°13' E 118°12'1615161541.8
2017-Dec-08 14:58N 01°20' E 103°38'1647237117.2
2017-Dec-08 14:57N 24°40' E 118°27'363884.6
2017-Dec-08 14:57N 24°25' E 117°52'81531204.6
2017-Dec-08 14:55N 37°43' E 121°06'40030022.8
2017-Dec-08 14:54N 31°05' E 121°60'18879.7
2017-Dec-08 14:53N 30°48' E 122°07'1101721.3
2017-Dec-08 14:49N 31°58' E 120°27'97408.5
2017-Dec-08 14:35N 31°04' E 122°01'4555978.6
2017-Dec-08 14:31N 24°19' E 118°08'1656651.3
2017-Dec-08 14:31N 24°26' E 117°53'457816479246.1
2017-Dec-08 14:30N 44°09' E 028°40'52292353071.1
2017-Dec-08 14:30N 32°05' W 081°02'105407589109.9
2017-Dec-08 14:30N 24°40' E 118°27'16371178928.4
2017-Dec-08 14:30N 01°28' E 103°43'7031816517.8
2017-Dec-08 14:30N 09°29' W 013°43'76291056282.9
2017-Dec-08 14:29N 24°14' E 118°14'76292112561.6
2017-Dec-08 14:29N 09°29' W 013°43'76162741935.9
2017-Dec-08 14:29N 24°25' E 118°04'7615913840.2
2017-Dec-08 14:28N 09°31' W 013°43'76021954695.3
2017-Dec-08 14:28N 37°43' E 121°06'346103945.8
2017-Dec-08 14:28N 31°58' E 120°27'9617195.0
2017-Dec-08 14:28N 31°05' E 122°00'151526.4
2017-Dec-08 14:27N 30°51' E 122°09'4484288.8
2017-Dec-08 14:21N 24°25' E 117°52'161618236.7
2017-Dec-08 14:15N 01°20' E 103°37'487919623.5
2017-Dec-08 14:00N 44°09' E 028°40'52272351974.6
2017-Dec-08 14:00N 32°05' W 080°59'1076812921646.7
2017-Dec-08 14:00N 01°20' E 103°37'16471976115.1
2017-Dec-08 14:00N 24°40' E 118°27'2623441.7
2017-Dec-08 14:00N 24°16' E 118°17'2588563.6
2017-Dec-08 14:00N 24°26' E 117°53'1126.5
2017-Dec-08 14:00N 24°25' E 117°52'161692.7
2017-Dec-08 13:59N 24°19' E 118°08'1609386220.1
2017-Dec-08 13:59N 01°28' E 103°43'2387195262.8
2017-Dec-08 13:58N 37°43' E 121°06'7603329774.5
2017-Dec-08 13:57N 09°29' W 013°43'280.1
2017-Dec-08 13:55N 09°31' W 013°43'7757450427.4
2017-Dec-08 13:54N 30°55' E 122°10'93714.2
2017-Dec-08 13:54N 30°47' E 122°06'0 6.6
2017-Dec-08 13:51N 30°47' E 122°06'23996.3
2017-Dec-08 13:50N 31°08' E 121°55'92347.3
2017-Dec-08 13:34N 31°59' E 120°25'4727620.7
2017-Dec-08 13:30N 24°26' E 117°53'457816479232.5
2017-Dec-08 13:30N 44°09' E 028°40'4605872561.0
2017-Dec-08 13:30N 24°18' E 118°20'105534221131.5
2017-Dec-08 13:30N 32°04' W 081°00'105412371779.3
2017-Dec-08 13:30N 24°19' E 118°08'161744.0
2017-Dec-08 13:29N 24°25' E 117°52'363464.7
2017-Dec-08 13:29N 24°40' E 118°27'76342114020.3
2017-Dec-08 13:28N 09°31' W 013°43'262.6
2017-Dec-08 13:27N 09°29' W 013°43'0 0.7
2017-Dec-08 13:26N 09°29' W 013°43'7603117979.6
2017-Dec-08 13:22N 37°43' E 121°06'238713508.8
2017-Dec-08 13:12N 01°28' E 103°43'206782674.2
2017-Dec-08 13:10N 31°59' E 120°25'214.2
2017-Dec-08 13:01N 31°58' E 120°27'43971130750.4
2017-Dec-08 13:01N 44°09' E 028°40'48792509085.4
2017-Dec-08 13:00N 01°20' E 103°37'1077119387920.3
2017-Dec-08 13:00N 32°03' W 081°02'1052412628360.5
2017-Dec-08 13:00N 24°26' E 117°53'7605720513.8
2017-Dec-08 13:00N 09°29' W 013°43'7605944057.5
2017-Dec-08 12:59N 24°25' E 117°52'1657543.6
2017-Dec-08 12:59N 24°19' E 118°08'1425250.4
2017-Dec-08 12:59N 24°20' E 118°23'76363436161.5
2017-Dec-08 12:59N 09°29' W 013°43'2158.6
2017-Dec-08 12:58N 09°31' W 013°43'76022736572.1
2017-Dec-08 12:58N 37°43' E 121°06'238743173.7
2017-Dec-08 12:55N 01°28' E 103°43'139239462.5
2017-Dec-08 12:53N 22°18' E 114°08'27799658.6
2017-Dec-08 12:53N 24°40' E 118°27'2784383.4
2017-Dec-08 12:49N 22°18' E 114°07'6764539.7
2017-Dec-08 12:40N 30°58' E 122°10'451728985.0
2017-Dec-08 12:30N 44°09' E 028°40'45788239616.2
2017-Dec-08 12:30N 24°26' E 117°53'105256314864.1
2017-Dec-08 12:30N 32°01' W 081°02'107723231622.3
2017-Dec-08 12:30N 01°18' E 103°37'7026790411.4
2017-Dec-08 12:30N 09°29' W 013°43'70316328038.2
2017-Dec-08 12:30N 01°28' E 103°43'7031767033.6
2017-Dec-08 12:29N 09°29' W 013°43'2149.8
2017-Dec-08 12:28N 09°31' W 013°43'76023420718.4
2017-Dec-08 12:28N 37°43' E 121°06'819589339.5
2017-Dec-08 12:28N 24°19' E 118°08'162398.0
2017-Dec-08 12:28N 24°25' E 117°52'24020125.6
2017-Dec-08 12:27N 22°17' E 114°10'67262041.9
2017-Dec-08 12:26N 30°55' E 122°10'2650.9
2017-Dec-08 12:26N 30°57' E 122°10'4257185.9
2017-Dec-08 12:23N 24°40' E 118°27'2764246.9
2017-Dec-08 12:19N 22°19' E 114°09'267192495.1
2017-Dec-08 12:19N 24°22' E 118°27'2691979.4
2017-Dec-08 12:10N 22°18' E 114°07'448526999.8
2017-Dec-08 12:00N 44°09' E 028°40'48824393539.5
2017-Dec-08 12:00N 01°15' E 103°36'107759697167.3
2017-Dec-08 12:00N 31°59' W 081°02'105272706913.7
2017-Dec-08 12:00N 24°26' E 117°53'3339921.5
2017-Dec-08 12:00N 24°23' E 118°29'2035641.6
2017-Dec-08 12:00N 24°19' E 118°08'76211143223.3
2017-Dec-08 12:00N 09°29' W 013°43'0 1.2
2017-Dec-08 11:59N 09°29' W 013°43'74181570809.7
2017-Dec-08 11:59N 22°18' E 114°08'277110788.4
2017-Dec-08 11:59N 24°40' E 118°27'76341832149.3
2017-Dec-08 11:58N 09°31' W 013°43'76022736573.0
2017-Dec-08 11:58N 37°43' E 121°06'815112815.8
2017-Dec-08 11:58N 24°25' E 117°52'8035515.5
2017-Dec-08 11:49N 37°38' E 120°18'417413526.1
2017-Dec-08 11:30N 44°09' E 028°40'457816479232.5
2017-Dec-08 11:30N 24°26' E 117°53'105296317446.6
2017-Dec-08 11:30N 31°58' W 081°03'107794311700.3
2017-Dec-08 11:30N 01°12' E 103°38'7028744131.6
2017-Dec-08 11:30N 09°30' W 013°43'75621944458.2
2017-Dec-08 11:29N 37°38' E 120°18'75621183585.9
2017-Dec-08 11:29N 09°29' W 013°43'2137.6
2017-Dec-08 11:28N 09°31' W 013°43'76023909390.8
2017-Dec-08 11:28N 37°43' E 121°06'2387143192.9
2017-Dec-08 11:27N 01°28' E 103°43'16078407.0
2017-Dec-08 11:16N 24°25' E 117°52'4557445.0
2017-Dec-08 11:12N 30°58' E 122°10'321.3
2017-Dec-08 11:04N 30°56' E 122°11'451976745.1
2017-Dec-08 11:00N 44°09' E 028°40'48882199637.2
2017-Dec-08 11:00N 01°11' E 103°40'1078438821027.4
2017-Dec-08 11:00N 31°57' W 081°04'1053012636446.3
2017-Dec-08 11:00N 24°26' E 117°53'80284911.6
2017-Dec-08 11:00N 37°38' E 120°18'807152951.6
2017-Dec-08 10:59N 24°19' E 118°08'76211143225.0
2017-Dec-08 10:59N 09°30' W 013°43'76351099457.9
2017-Dec-08 10:59N 24°40' E 118°27'76341616602.4
2017-Dec-08 10:58N 09°31' W 013°43'258.2
2017-Dec-08 10:57N 09°30' W 013°43'7759109971.2
2017-Dec-08 10:52N 30°57' E 122°11'4107562.7
2017-Dec-08 10:49N 37°43' E 121°06'8155191.5
2017-Dec-08 10:40N 24°25' E 117°52'457829799.7
2017-Dec-08 10:31N 44°09' E 028°40'52362094499.3
2017-Dec-08 10:30N 31°57' W 081°04'105307581867.8
2017-Dec-08 10:30N 24°26' E 117°53'802240582.7
2017-Dec-08 10:30N 37°38' E 120°18'807145304.0
2017-Dec-08 10:30N 24°19' E 118°08'76213919620.9
2017-Dec-08 10:30N 09°30' W 013°43'703425321596.0
2017-Dec-08 10:30N 01°09' E 103°43'7034684368.6
2017-Dec-08 10:29N 09°30' W 013°43'76351145268.7
2017-Dec-08 10:29N 24°40' E 118°27'76341616603.5
2017-Dec-08 10:28N 09°31' W 013°43'76023420718.0
2017-Dec-08 10:28N 37°43' E 121°06'2387477310.3
2017-Dec-08 10:28N 01°28' E 103°43'16077923.3
2017-Dec-08 10:16N 24°25' E 117°52'457818029.8
2017-Dec-08 10:00N 44°09' E 028°40'52362692927.6
2017-Dec-08 10:00N 31°57' W 081°04'105307581867.8
2017-Dec-08 10:00N 24°26' E 117°53'802721748.2
2017-Dec-08 10:00N 37°38' E 120°18'2381153036.1
2017-Dec-08 09:59N 01°09' E 103°45'1624146164.7
2017-Dec-08 09:59N 24°19' E 118°08'28100917.8
2017-Dec-08 09:59N 24°40' E 118°27'362415.4
2017-Dec-08 09:58N 24°25' E 117°52'7605421194.8
2017-Dec-08 09:57N 09°30' W 013°43'274.0
2017-Dec-08 09:55N 09°31' W 013°43'76022736574.9
2017-Dec-08 09:55N 37°43' E 121°06'4223872.9
2017-Dec-08 09:49N 30°43' E 121°59'204764086.2
2017-Dec-08 09:47N 01°28' E 103°43'206626275.1
2017-Dec-08 09:42N 31°05' E 122°00'450523571.3
2017-Dec-08 09:31N 44°09' E 028°40'45783295846.5
2017-Dec-08 09:30N 24°26' E 117°53'7605582537.6
2017-Dec-08 09:30N 09°30' W 013°43'4012380114.2
2017-Dec-08 09:29N 31°57' W 081°04'40127222144.4
2017-Dec-08 09:29N 09°30' W 013°43'2146.4
2017-Dec-08 09:28N 09°31' W 013°43'76023040638.8
2017-Dec-08 09:28N 37°43' E 121°06'81965489.4
2017-Dec-08 09:27N 24°19' E 118°08'28920.2
2017-Dec-08 09:26N 24°40' E 118°27'45073620.8
2017-Dec-08 09:25N 31°58' E 120°27'47354916.9
2017-Dec-08 09:25N 24°25' E 117°52'160738560.2
2017-Dec-08 09:22N 01°28' E 103°43'487813477.1
2017-Dec-08 09:00N 44°09' E 028°40'52362692927.6
2017-Dec-08 09:00N 31°57' W 081°04'105306318223.1
2017-Dec-08 09:00N 24°26' E 117°53'353290.5
2017-Dec-08 09:00N 24°40' E 118°27'1648211931.4
2017-Dec-08 08:59N 01°11' E 103°50'16201166507.1
2017-Dec-08 08:59N 24°19' E 118°08'76223919652.5
2017-Dec-08 08:59N 09°30' W 013°43'2146.5
2017-Dec-08 08:58N 09°31' W 013°43'7031703059.3
2017-Dec-08 08:58N 01°28' E 103°43'16075783989.1
2017-Dec-08 08:58N 24°25' E 117°52'7605441573.8
2017-Dec-08 08:57N 09°30' W 013°43'7648146450.3
2017-Dec-08 08:54N 31°59' E 120°26'3464770.6
2017-Dec-08 08:49N 37°43' E 121°06'8289316.2
2017-Dec-08 08:44N 24°08' E 118°14'46818499.8
2017-Dec-08 08:42N 21°11' E 110°25'111428047.4
2017-Dec-08 08:40N 37°38' E 120°18'417426550.4
2017-Dec-08 08:30N 44°09' E 028°40'43532238453.5
2017-Dec-08 08:30N 21°11' E 110°25'1029618532631.7
2017-Dec-08 08:30N 31°57' W 081°04'1053037909338.9
2017-Dec-08 08:30N 24°26' E 117°53'352977.1
2017-Dec-08 08:30N 24°40' E 118°27'178975.0
2017-Dec-08 08:30N 24°32' E 118°10'142449.5
2017-Dec-08 08:29N 24°19' E 118°08'161873746.8
2017-Dec-08 08:28N 01°12' E 103°52'1616484783.7
2017-Dec-08 08:28N 24°25' E 117°52'7605268408.2
2017-Dec-08 08:26N 09°30' W 013°43'76313924502.3
2017-Dec-08 08:26N 24°10' E 118°16'7630832348.4
2017-Dec-08 08:25N 09°31' W 013°43'76023909393.1
2017-Dec-08 08:25N 37°43' E 121°06'7603297510.4
2017-Dec-08 08:24N 09°30' W 013°43'7648640294.3
2017-Dec-08 08:23N 31°59' E 120°26'34013007.7
2017-Dec-08 08:21N 37°38' E 120°18'236415225.9
2017-Dec-08 08:12N 01°28' E 103°43'1077655340.1
2017-Dec-08 08:00N 31°57' W 081°04'1077619396809.9
2017-Dec-08 08:00N 01°28' E 103°43'1250750015.2
2017-Dec-08 08:00N 21°14' E 110°26'47277308.8
2017-Dec-08 08:00N 24°14' E 118°19'2712198.8
2017-Dec-08 08:00N 24°25' E 117°52'1657694.7
2017-Dec-08 08:00N 24°19' E 118°08'76226859364.8
2017-Dec-08 08:00N 09°30' W 013°43'76216858967.5
2017-Dec-08 08:00N 24°32' E 118°10'1712524.1
2017-Dec-08 07:59N 24°26' E 117°53'8021443496.5
2017-Dec-08 07:59N 37°38' E 120°18'7562486112.7
2017-Dec-08 07:59N 09°30' W 013°43'7044905675.3
2017-Dec-08 07:58N 01°13' E 103°54'1401168144.1
2017-Dec-08 07:58N 22°20' E 114°07'67060289.1
2017-Dec-08 07:57N 31°59' E 120°26'7647286749.6
2017-Dec-08 07:55N 09°31' W 013°43'76023040636.5
2017-Dec-08 07:55N 37°43' E 121°06'420710240.4
2017-Dec-08 07:30N 44°09' E 028°40'43963165181.8
2017-Dec-08 07:30N 31°58' E 120°26'8403025169.0
2017-Dec-08 07:30N 21°12' E 110°25'478573420.8
2017-Dec-08 07:30N 24°18' E 118°23'105642001631.2
2017-Dec-08 07:30N 31°57' W 081°04'1053018954660.1
2017-Dec-08 07:30N 24°26' E 117°53'1608643069.5
2017-Dec-08 07:30N 01°28' E 103°43'1607723005.9
2017-Dec-08 07:30N 24°25' E 117°52'76056844384.1
2017-Dec-08 07:30N 09°30' W 013°43'0 1.1
2017-Dec-08 07:29N 09°30' W 013°43'7622831439.2
2017-Dec-08 07:28N 24°19' E 118°08'76204572257.0
2017-Dec-08 07:28N 09°31' W 013°43'76023040639.3
2017-Dec-08 07:28N 37°43' E 121°06'3473690.6
2017-Dec-08 07:23N 31°58' E 120°27'3409283.9
2017-Dec-08 07:20N 37°38' E 120°18'78317517.4
2017-Dec-08 07:18N 24°40' E 118°27'2782200.5
2017-Dec-08 07:10N 22°18' E 114°07'13928758.9
2017-Dec-08 07:01N 01°28' E 103°43'48788780417.3
2017-Dec-08 07:00N 44°09' E 028°40'43533133834.9
2017-Dec-08 07:00N 21°11' E 110°25'1029618532631.7
2017-Dec-08 07:00N 31°57' W 081°04'105503165085.5
2017-Dec-08 07:00N 24°19' E 118°08'7622831437.8
2017-Dec-08 07:00N 09°30' W 013°43'7562850695.5
2017-Dec-08 06:59N 37°38' E 120°18'75622722231.5
2017-Dec-08 06:59N 09°30' W 013°43'76485506537.4
2017-Dec-08 06:59N 31°58' E 120°26'7647809647.0
2017-Dec-08 06:58N 09°31' W 013°43'7604222549.6
2017-Dec-08 06:56N 24°25' E 117°52'81546558.6
2017-Dec-08 06:55N 37°43' E 121°06'79430736.9
2017-Dec-08 06:54N 24°40' E 118°27'2777567.2
2017-Dec-08 06:51N 22°18' E 114°07'67189456.5
2017-Dec-08 06:51N 31°58' E 120°27'67011223.0
2017-Dec-08 06:47N 22°18' E 114°09'114.6
2017-Dec-08 06:44N 22°19' E 114°10'448620495.8
2017-Dec-08 06:30N 44°09' E 028°40'5236698165.8
2017-Dec-08 06:30N 31°57' W 081°04'102962180309.6
2017-Dec-08 06:30N 21°11' E 110°25'72174330147.9
2017-Dec-08 06:30N 09°29' W 013°43'76482294414.1
2017-Dec-08 06:29N 31°59' E 120°26'47690161.8
2017-Dec-08 06:29N 24°19' E 118°08'76222286483.3
2017-Dec-08 06:29N 09°29' W 013°43'70311947107.3
2017-Dec-08 06:29N 01°28' E 103°44'7031973483.4
2017-Dec-08 06:28N 09°31' W 013°43'76023420716.0
2017-Dec-08 06:28N 37°43' E 121°06'79431071.0
2017-Dec-08 06:27N 24°40' E 118°27'365565.9
2017-Dec-08 06:26N 24°25' E 117°52'80320942.7
2017-Dec-08 06:24N 37°38' E 120°18'9735642.6
2017-Dec-08 06:14N 22°19' E 114°10'6734609.1
2017-Dec-08 06:05N 31°09' E 121°54'449762511.1
2017-Dec-08 06:00N 44°09' E 028°40'43533133831.5
2017-Dec-08 06:00N 21°11' E 110°25'861309832.2
2017-Dec-08 06:00N 31°08' E 121°55'9129732.1
2017-Dec-08 06:00N 31°59' E 120°26'1025718463112.3
2017-Dec-08 06:00N 31°57' W 081°04'10550949525.6
2017-Dec-08 05:59N 24°19' E 118°08'166411.5
2017-Dec-08 05:59N 24°25' E 117°52'803289008.8
2017-Dec-08 05:59N 37°38' E 120°18'23648511088.3
2017-Dec-08 05:59N 01°28' E 103°44'7031177009.6
2017-Dec-08 05:57N 09°29' W 013°43'7419417336.4
2017-Dec-08 05:56N 22°19' E 114°10'74181570910.2
2017-Dec-08 05:55N 09°31' W 013°43'76023909390.0
2017-Dec-08 05:55N 37°43' E 121°06'9924602.6
2017-Dec-08 05:42N 22°18' E 114°10'448622909.3
2017-Dec-08 05:30N 44°09' E 028°40'44861153645.8
2017-Dec-08 05:30N 22°18' E 114°10'13931671319.0
2017-Dec-08 05:30N 01°28' E 103°44'2066531172.1
2017-Dec-08 05:30N 31°05' E 121°60'862238577.2
2017-Dec-08 05:30N 21°11' E 110°25'466839619.0
2017-Dec-08 05:30N 24°19' E 118°08'80740935.8
2017-Dec-08 05:29N 37°38' E 120°18'385679.4
2017-Dec-08 05:28N 37°43' E 121°06'7603307542.8
2017-Dec-08 05:27N 09°29' W 013°43'277.0
2017-Dec-08 05:25N 09°31' W 013°43'760489748.8
2017-Dec-08 05:20N 24°25' E 117°52'2402171.6
2017-Dec-08 05:14N 22°19' E 114°10'670267905.3
2017-Dec-08 05:13N 31°59' E 120°26'45015013.5
2017-Dec-08 05:12N 24°40' E 118°27'872947.3
2017-Dec-08 05:10N 23°37' E 119°32'50316771.5
2017-Dec-08 05:08N 31°58' E 120°25'10257302664.7
2017-Dec-08 05:06N 31°57' W 081°04'523656608.0
2017-Dec-08 05:00N 44°09' E 028°40'46922412774.9
2017-Dec-08 05:00N 23°36' E 119°32'1066138380797.0
2017-Dec-08 05:00N 31°57' W 081°04'102969266315.8
2017-Dec-08 05:00N 21°11' E 110°25'1114286484.3
2017-Dec-08 05:00N 37°38' E 120°18'75621183596.4
2017-Dec-08 05:00N 09°29' W 013°43'7753996766.9
2017-Dec-08 04:59N 31°02' E 122°05'77531550523.3
2017-Dec-08 04:59N 09°29' W 013°43'703125312262.8
2017-Dec-08 04:59N 01°28' E 103°44'2067265807.3
2017-Dec-08 04:58N 31°59' E 120°26'34683005.6
2017-Dec-08 04:58N 37°43' E 121°06'819491167.2
2017-Dec-08 04:58N 24°19' E 118°08'281176.8
2017-Dec-08 04:57N 24°40' E 118°27'27615749.0
2017-Dec-08 04:56N 22°19' E 114°10'74181570911.4
2017-Dec-08 04:55N 09°31' W 013°43'7416287078.9
2017-Dec-08 04:54N 22°18' E 114°07'6654766.6
2017-Dec-08 04:45N 30°47' E 122°05'1112583.9
2017-Dec-08 04:43N 32°02' E 120°30'439721390.7
2017-Dec-08 04:30N 44°09' E 028°40'435315669174.6
2017-Dec-08 04:30N 21°11' E 110°25'1247748322.9
2017-Dec-08 04:30N 01°28' E 103°44'7031632808.4
2017-Dec-08 04:30N 09°29' W 013°43'76223048644.1
2017-Dec-08 04:30N 24°19' E 118°08'162894.1
2017-Dec-08 04:29N 24°25' E 117°52'105301222885.8
2017-Dec-08 04:29N 31°57' W 081°04'4012601780.0
2017-Dec-08 04:28N 09°31' W 013°43'76023420718.4
2017-Dec-08 04:28N 37°43' E 121°06'79486621.3
2017-Dec-08 04:28N 24°40' E 118°27'78333574.9
2017-Dec-08 04:26N 37°38' E 120°18'97389847.9
2017-Dec-08 04:26N 22°19' E 114°10'6719781.7
2017-Dec-08 04:21N 31°60' E 120°27'6724837.2
2017-Dec-08 04:13N 22°18' E 114°09'6697549.3
2017-Dec-08 04:08N 30°52' E 122°08'452037146.8
2017-Dec-08 04:00N 44°09' E 028°40'52362356309.6
2017-Dec-08 04:00N 31°57' W 081°04'105501266034.2
2017-Dec-08 04:00N 24°19' E 118°08'466119945.0
2017-Dec-08 04:00N 21°11' E 110°25'1247166297.4
2017-Dec-08 03:59N 01°28' E 103°43'20652478038.7
2017-Dec-08 03:59N 30°56' E 122°13'41355044.5
2017-Dec-08 03:59N 37°38' E 120°18'7562223136.8
2017-Dec-08 03:57N 09°29' W 013°43'7419410915.0
2017-Dec-08 03:56N 22°19' E 114°10'74181570911.5
2017-Dec-08 03:55N 09°31' W 013°43'76023909393.1
2017-Dec-08 03:55N 37°43' E 121°06'79486622.3
2017-Dec-08 03:55N 24°40' E 118°27'36399.3
2017-Dec-08 03:49N 24°25' E 117°52'4735478.8
2017-Dec-08 03:44N 31°59' E 120°26'4622198.4
2017-Dec-08 03:31N 24°32' E 118°10'4588284759.5
2017-Dec-08 03:30N 44°09' E 028°40'43537834818.7
2017-Dec-08 03:30N 21°11' E 110°25'102977413953.4
2017-Dec-08 03:30N 31°56' W 081°04'107773879604.2
2017-Dec-08 03:30N 01°28' E 103°43'20671860677.7
2017-Dec-08 03:30N 31°59' E 120°26'47695169.6
2017-Dec-08 03:30N 24°19' E 118°08'76222286480.5
2017-Dec-08 03:30N 09°29' W 013°43'0 1.0
2017-Dec-08 03:29N 09°29' W 013°43'76211055235.9
2017-Dec-08 03:28N 24°32' E 118°10'185485.3
2017-Dec-08 03:28N 24°25' E 117°52'44399699.2
2017-Dec-08 03:28N 30°47' E 122°05'41467803.4
2017-Dec-08 03:28N 24°40' E 118°27'7634194911.1
2017-Dec-08 03:25N 09°31' W 013°43'7560579087.9
2017-Dec-08 03:24N 37°38' E 120°18'38273.7
2017-Dec-08 03:16N 37°43' E 121°06'420816080.4
2017-Dec-08 03:00N 44°09' E 028°40'52392095748.8
2017-Dec-08 03:00N 31°54' W 081°06'1029712356674.4
2017-Dec-08 03:00N 21°15' E 110°25'83847153.1
2017-Dec-08 02:59N 31°59' E 120°26'2067338306.5
2017-Dec-08 02:59N 01°28' E 103°43'2387204560.0
2017-Dec-08 02:58N 37°43' E 121°06'819736756.2
2017-Dec-08 02:58N 24°19' E 118°08'7622311792.5
2017-Dec-08 02:57N 09°29' W 013°43'277.5
2017-Dec-08 02:55N 09°31' W 013°43'7634704678.0
2017-Dec-08 02:55N 24°40' E 118°27'4152487.2
2017-Dec-08 02:45N 30°47' E 122°05'673.3
2017-Dec-08 02:40N 30°53' E 122°08'451928895.7
2017-Dec-08 02:30N 44°09' E 028°40'52412358602.3
2017-Dec-08 02:30N 31°51' W 081°05'99352384355.0
2017-Dec-08 02:30N 37°38' E 120°18'23641418536.4
2017-Dec-08 02:30N 01°28' E 103°43'70311100522.7
2017-Dec-08 02:30N 09°29' W 013°43'76229145900.6
2017-Dec-08 02:30N 24°19' E 118°08'7622653277.4
2017-Dec-08 02:29N 09°29' W 013°43'2901.6
2017-Dec-08 02:29N 09°31' W 013°43'77509299663.2
2017-Dec-08 02:29N 30°43' E 121°59'42244652.3
2017-Dec-08 02:28N 37°43' E 121°06'815133326.7
2017-Dec-08 02:28N 24°25' E 117°52'456102601.2
2017-Dec-08 02:28N 21°10' E 110°25'84231918.5
2017-Dec-08 02:26N 31°59' E 120°26'67040202.6
2017-Dec-08 02:25N 22°19' E 114°09'27655229.8
2017-Dec-08 02:25N 24°40' E 118°27'276829.1
2017-Dec-08 02:05N 22°18' E 114°09'2516367.1
2017-Dec-08 02:02N 24°26' E 118°05'44237028.5
2017-Dec-08 02:02N 30°52' E 122°09'4520250332.2
2017-Dec-08 02:00N 44°09' E 028°40'5244674170.4
2017-Dec-08 02:00N 31°51' W 081°08'1055819004660.5
2017-Dec-08 02:00N 24°19' E 118°08'25047396.9
2017-Dec-08 02:00N 22°18' E 114°09'67051329.7
2017-Dec-08 01:59N 31°59' E 120°26'20677442451.4
2017-Dec-08 01:59N 01°28' E 103°44'2386195258.6
2017-Dec-08 01:58N 37°43' E 121°06'79495283.4
2017-Dec-08 01:58N 24°40' E 118°27'49176885.4
2017-Dec-08 01:57N 21°11' E 110°25'7217683704.7
2017-Dec-08 01:57N 09°29' W 013°43'7419621090.2
2017-Dec-08 01:56N 22°18' E 114°09'741913353416.1
2017-Dec-08 01:56N 09°29' W 013°43'2165.9
2017-Dec-08 01:55N 09°31' W 013°43'7604977620.4
2017-Dec-08 01:55N 24°25' E 117°52'4415167.9
2017-Dec-08 01:50N 30°45' E 122°04'1142.6
2017-Dec-08 01:34N 30°55' E 122°10'451888404.3
2017-Dec-08 01:30N 44°09' E 028°40'4878462119.5
2017-Dec-08 01:30N 01°28' E 103°43'70311807996.6
2017-Dec-08 01:30N 09°29' W 013°43'76221306553.9
2017-Dec-08 01:29N 24°19' E 118°08'442122351.1
2017-Dec-08 01:29N 30°47' E 122°06'664298679.9
2017-Dec-08 01:29N 22°18' E 114°09'74198902259.5
2017-Dec-08 01:29N 09°29' W 013°43'2164.6
2017-Dec-08 01:28N 09°31' W 013°43'76022736574.9
2017-Dec-08 01:28N 37°43' E 121°06'794105871.7
2017-Dec-08 01:28N 24°40' E 118°27'2767811.2
2017-Dec-08 01:26N 22°19' E 114°10'24019207.1
2017-Dec-08 01:25N 24°25' E 117°52'10542230005.1
2017-Dec-08 01:22N 31°49' W 081°10'10266124013.2
2017-Dec-08 01:17N 32°04' E 120°27'439315911.7
2017-Dec-08 01:00N 44°09' E 028°40'45951181578.6
2017-Dec-08 01:00N 24°19' E 118°08'819982362.7
2017-Dec-08 01:00N 37°43' E 121°06'41635676.3
2017-Dec-08 00:59N 30°50' E 122°08'2057151129.9
2017-Dec-08 00:59N 01°28' E 103°43'107852043396.7
2017-Dec-08 00:58N 31°47' W 081°10'4017139035.9
2017-Dec-08 00:57N 09°29' W 013°43'7419398647.0
2017-Dec-08 00:56N 22°19' E 114°10'74181669093.7
2017-Dec-08 00:55N 09°31' W 013°43'7604130350.5
2017-Dec-08 00:52N 24°25' E 117°52'36234.4
2017-Dec-08 00:43N 24°40' E 118°27'7963939.2
2017-Dec-08 00:31N 37°44' E 121°08'23888598215.9
2017-Dec-08 00:31N 01°28' E 103°44'487817560694.3
2017-Dec-08 00:30N 44°09' E 028°40'3078213109.9
2017-Dec-08 00:30N 09°29' W 013°43'76229145864.5
2017-Dec-08 00:30N 24°19' E 118°08'7622638082.2
2017-Dec-08 00:29N 09°29' W 013°43'2163.5
2017-Dec-08 00:28N 09°31' W 013°43'7604977628.8
2017-Dec-08 00:28N 24°25' E 117°52'803963362.8
2017-Dec-08 00:28N 37°38' E 120°18'783470053.0
2017-Dec-08 00:28N 24°40' E 118°27'42222023.6
2017-Dec-08 00:26N 30°54' E 122°09'451910435.4
2017-Dec-08 00:00N 44°09' E 028°40'45174065717.2
2017-Dec-08 00:00N 30°57' E 122°10'413114470.5
2017-Dec-08 00:00N 37°47' E 121°07'82322977.9
2017-Dec-07 23:58N 24°19' E 118°08'7622322793.3
2017-Dec-07 23:57N 09°29' W 013°43'7635335197.4
2017-Dec-07 23:55N 24°40' E 118°27'763413741131.9
2017-Dec-07 23:55N 09°31' W 013°43'75601296054.0
2017-Dec-07 23:55N 37°38' E 120°18'2364163677.6
2017-Dec-07 23:54N 01°28' E 103°43'487812445.5
2017-Dec-07 23:30N 44°09' E 028°40'42022160946.7
2017-Dec-07 23:30N 37°51' E 121°05'7600608028.7
2017-Dec-07 23:30N 09°29' W 013°43'76219145797.5
2017-Dec-07 23:30N 24°19' E 118°08'80739814.2
2017-Dec-07 23:28N 37°38' E 120°18'783564059.1
2017-Dec-07 23:28N 24°40' E 118°27'76349160820.3
2017-Dec-07 23:28N 09°31' W 013°43'775355934.4
2017-Dec-07 23:20N 31°01' E 122°07'4564837.8
2017-Dec-07 23:14N 24°25' E 117°52'160723704.4
2017-Dec-07 23:10N 01°28' E 103°43'487830224.2
2017-Dec-07 23:01N 44°09' E 028°40'4175300568.9
2017-Dec-07 23:00N 37°38' E 120°18'807968813.2
2017-Dec-07 23:00N 24°19' E 118°08'45590960.0
2017-Dec-07 22:59N 31°02' E 122°04'456410105.8
2017-Dec-07 22:59N 24°25' E 117°52'36534.2
2017-Dec-07 22:55N 24°40' E 118°27'763413741231.9
2017-Dec-07 22:55N 09°31' W 013°43'75951302010.8
2017-Dec-07 22:55N 37°55' E 121°01'2395278170.2
2017-Dec-07 22:54N 01°28' E 103°43'7031575267.0
2017-Dec-07 22:54N 09°30' W 013°43'0 0.4
2017-Dec-07 22:50N 09°30' W 013°43'74191335464.0
2017-Dec-07 22:50N 22°19' E 114°10'448614142.8
2017-Dec-07 22:30N 44°09' E 028°40'45051158538.5
2017-Dec-07 22:30N 31°04' E 122°01'45565538.6
2017-Dec-07 22:30N 24°19' E 118°08'76222110578.6
2017-Dec-07 22:30N 09°30' W 013°43'75623402790.0
2017-Dec-07 22:29N 37°38' E 120°18'803240842.5
2017-Dec-07 22:29N 24°25' E 117°52'1607413127.1
2017-Dec-07 22:29N 01°28' E 103°43'70311807989.3
2017-Dec-07 22:29N 09°30' W 013°43'7635858954.0
2017-Dec-07 22:28N 24°40' E 118°27'76349160821.9
2017-Dec-07 22:28N 09°31' W 013°43'7418160875.5
2017-Dec-07 22:25N 22°19' E 114°10'244684.4
2017-Dec-07 22:04N 24°12' E 118°04'459675904.6
2017-Dec-07 22:00N 44°09' E 028°40'4501900108.9
2017-Dec-07 22:00N 31°07' E 121°56'463555067.4
2017-Dec-07 22:00N 24°12' E 118°05'351144.5
2017-Dec-07 21:58N 24°40' E 118°27'2814442.6
2017-Dec-07 21:58N 24°19' E 118°08'16501.6
2017-Dec-07 21:56N 24°25' E 117°52'803170005.2
2017-Dec-07 21:56N 37°38' E 120°18'39013897.6
2017-Dec-07 21:54N 31°13' E 121°30'7718661527.1
2017-Dec-07 21:54N 09°30' W 013°43'270.4
2017-Dec-07 21:52N 09°31' W 013°43'7031506202.6
2017-Dec-07 21:51N 01°28' E 103°43'6215107053.4
2017-Dec-07 21:48N 48°59' E 001°59'558780770.7
2017-Dec-07 21:44N 31°14' E 121°30'447520264.8
2017-Dec-07 21:30N 44°09' E 028°40'1138682508.7
2017-Dec-07 21:30N 48°58' E 002°00'57871602603.9
2017-Dec-07 21:30N 24°14' E 118°08'4574.6
2017-Dec-07 21:30N 24°19' E 118°08'76223048611.7
2017-Dec-07 21:30N 09°30' W 013°43'0 0.9
2017-Dec-07 21:29N 09°30' W 013°43'7635886661.5
2017-Dec-07 21:28N 24°40' E 118°27'76346870614.5
2017-Dec-07 21:28N 09°31' W 013°43'7604230030.3
2017-Dec-07 21:26N 24°25' E 117°52'4524191.8
2017-Dec-07 21:20N 31°14' E 121°30'38921209.1
2017-Dec-07 21:19N 37°38' E 120°18'236445272.6
2017-Dec-07 21:16N 01°28' E 103°43'16096429.6
2017-Dec-07 21:01N 24°17' E 118°11'45998277779.4
2017-Dec-07 21:00N 44°09' E 028°40'41753005686.9
2017-Dec-07 21:00N 37°38' E 120°18'52091562763.1
2017-Dec-07 21:00N 48°57' E 002°03'578210407857.4
2017-Dec-07 21:00N 24°19' E 118°08'7622783927.9
2017-Dec-07 21:00N 09°30' W 013°43'0 1.4
2017-Dec-07 20:59N 09°30' W 013°43'7635858953.3
2017-Dec-07 20:58N 24°40' E 118°27'76349160819.9
2017-Dec-07 20:58N 09°31' W 013°43'760491245.4
2017-Dec-07 20:53N 24°25' E 117°52'2156.8
2017-Dec-07 20:31N 24°18' E 118°14'46008280519.9
2017-Dec-07 20:30N 44°09' E 028°40'41752504740.6
2017-Dec-07 20:30N 37°38' E 120°18'52072082865.0
2017-Dec-07 20:30N 48°59' E 002°04'2509231612.5
2017-Dec-07 20:30N 09°30' W 013°43'76051303693.4
2017-Dec-07 20:29N 24°25' E 117°52'1657685.8
2017-Dec-07 20:29N 24°19' E 118°08'76221247161.1
2017-Dec-07 20:29N 09°30' W 013°43'7635832924.5
2017-Dec-07 20:28N 24°40' E 118°27'76345496493.3
2017-Dec-07 20:28N 09°31' W 013°43'762916525.8
2017-Dec-07 20:01N 24°20' E 118°18'460216567300.2
2017-Dec-07 20:01N 44°09' E 028°40'1133110273.9
2017-Dec-07 20:00N 48°59' E 002°07'2511502135.9
2017-Dec-07 20:00N 09°30' W 013°43'76221613969.4
2017-Dec-07 19:59N 24°19' E 118°08'1611537.2
2017-Dec-07 19:59N 24°25' E 117°52'76051190330.6
2017-Dec-07 19:59N 09°30' W 013°43'70313164009.1
2017-Dec-07 19:59N 01°28' E 103°43'7031872771.9
2017-Dec-07 19:58N 09°31' W 013°43'7560105492.7
2017-Dec-07 19:54N 37°38' E 120°18'78346234.4
2017-Dec-07 19:53N 24°40' E 118°27'15727.9
2017-Dec-07 19:52N 24°26' E 118°32'1130.1
2017-Dec-07 19:31N 24°21' E 118°21'46048286792.5
2017-Dec-07 19:30N 44°09' E 028°40'59244265144.9
2017-Dec-07 19:30N 10°09' W 075°30'3653268352.9
2017-Dec-07 19:30N 09°30' W 013°43'7635704780.1
2017-Dec-07 19:29N 24°40' E 118°27'76354581081.8
2017-Dec-07 19:29N 09°30' W 013°43'75621008234.6
2017-Dec-07 19:28N 37°38' E 120°18'75602721713.2
2017-Dec-07 19:28N 09°31' W 013°43'760491245.4
2017-Dec-07 19:23N 24°25' E 117°52'35572.9
2017-Dec-07 19:20N 24°25' E 118°30'162622168.1
2017-Dec-07 19:15N 01°28' E 103°43'487819910.0
2017-Dec-07 19:00N 44°09' E 028°40'48782508653.0
2017-Dec-07 19:00N 01°28' E 103°43'1609206896.7
2017-Dec-07 19:00N 24°19' E 118°08'76221444074.9
2017-Dec-07 19:00N 09°30' W 013°43'0 1.4
2017-Dec-07 18:59N 09°30' W 013°43'2161.9
2017-Dec-07 18:58N 09°31' W 013°43'7639743217.4
2017-Dec-07 18:58N 24°24' E 118°28'111454012327.0
2017-Dec-07 18:57N 10°12' W 075°31'11137440596.1
2017-Dec-07 18:56N 24°40' E 118°27'181177.1
2017-Dec-07 18:55N 24°23' E 118°25'16248305.5
2017-Dec-07 18:43N 01°14' E 104°01'160914780.3
2017-Dec-07 18:37N 24°25' E 117°52'457843829.2
2017-Dec-07 18:30N 44°09' E 028°40'473417043582.1
2017-Dec-07 18:30N 25°09' E 121°45'113138145069.3
2017-Dec-07 18:30N 10°13' W 075°31'1114420060060.3
2017-Dec-07 18:30N 24°24' E 118°28'2378.0
2017-Dec-07 18:30N 24°23' E 118°27'1810642.3
2017-Dec-07 18:30N 24°19' E 118°08'76221143225.4
2017-Dec-07 18:30N 09°30' W 013°43'7635670394.3
2017-Dec-07 18:29N 24°40' E 118°27'7634654339.4
2017-Dec-07 18:28N 09°31' W 013°43'76041052830.9
2017-Dec-07 18:28N 24°25' E 117°52'161123480.5
2017-Dec-07 18:24N 01°14' E 103°59'2154.1
2017-Dec-07 18:01N 01°28' E 103°43'48785853514.8
2017-Dec-07 18:00N 44°09' E 028°40'3078213103.2
2017-Dec-07 18:00N 09°30' W 013°43'763627490104.2
2017-Dec-07 18:00N 24°23' E 118°24'151351.6
2017-Dec-07 17:59N 24°19' E 118°08'7620653179.5
2017-Dec-07 17:58N 09°31' W 013°43'7634200601.9
2017-Dec-07 17:56N 24°40' E 118°27'164417617.9
2017-Dec-07 17:50N 01°13' E 103°55'1617200673.5
2017-Dec-07 17:50N 24°25' E 117°58'5764175860.5
2017-Dec-07 17:48N 48°54' E 002°10'575967534.0
2017-Dec-07 17:43N 24°25' E 117°52'457822360.6
2017-Dec-07 17:30N 44°09' E 028°40'48782508670.0
2017-Dec-07 17:30N 01°28' E 103°44'62042233552.4
2017-Dec-07 17:30N 48°55' E 002°12'5764943140.2
2017-Dec-07 17:30N 24°25' E 117°60'76122108010.8
2017-Dec-07 17:30N 09°29' W 013°43'763413741095.2
2017-Dec-07 17:30N 24°22' E 118°22'1346572.3
2017-Dec-07 17:30N 24°19' E 118°08'282595.4
2017-Dec-07 17:29N 24°40' E 118°27'76354581054.0
2017-Dec-07 17:29N 09°29' W 013°43'2163.0
2017-Dec-07 17:28N 09°31' W 013°43'704259372.0
2017-Dec-07 17:21N 01°11' E 103°52'161641268.7
2017-Dec-07 17:19N 24°25' E 117°52'112556.8
2017-Dec-07 17:18N 24°25' E 118°04'16135380.0
2017-Dec-07 17:01N 01°28' E 103°44'487817560668.9
2017-Dec-07 17:00N 44°09' E 028°40'48964406334.8
2017-Dec-07 17:00N 01°10' E 103°50'1624531480.3
2017-Dec-07 17:00N 24°25' E 118°04'7617761655.1
2017-Dec-07 17:00N 09°29' W 013°43'76152741367.1
2017-Dec-07 16:59N 24°27' E 118°03'7615668626.7
2017-Dec-07 16:59N 09°29' W 013°43'76211524298.6
2017-Dec-07 16:58N 24°19' E 118°08'76201828902.5
2017-Dec-07 16:58N 09°31' W 013°43'7631704359.6
2017-Dec-07 16:58N 24°21' E 118°19'21760.5
2017-Dec-07 16:56N 24°40' E 118°27'36296.7
2017-Dec-07 16:49N 24°25' E 117°52'45768575.8
2017-Dec-07 16:48N 31°09' E 121°53'3613403.2
2017-Dec-07 16:42N 25°09' E 121°23'471624643.0
2017-Dec-07 16:30N 44°09' E 028°40'45951654209.7
2017-Dec-07 16:30N 24°19' E 118°08'31119.7
2017-Dec-07 16:30N 24°21' E 118°06'1611362423.9
2017-Dec-07 16:30N 01°28' E 103°44'1618831890.1
2017-Dec-07 16:30N 24°31' E 118°04'761513707892.2
2017-Dec-07 16:30N 09°29' W 013°43'703812668261.2
2017-Dec-07 16:30N 01°09' E 103°47'1629837892.2
2017-Dec-07 16:30N 24°20' E 118°17'17716740.7
2017-Dec-07 16:29N 25°10' E 121°23'162584527.0
2017-Dec-07 16:29N 24°40' E 118°27'76353054036.6
2017-Dec-07 16:29N 09°29' W 013°43'2174.2
2017-Dec-07 16:28N 09°31' W 013°43'7604912453.5
2017-Dec-07 16:28N 24°25' E 117°52'11108104961.8
2017-Dec-07 16:21N 10°15' W 075°31'11155280813.6
2017-Dec-07 16:19N 31°07' E 121°57'450114609.9
2017-Dec-07 16:00N 44°09' E 028°40'45951503827.0
2017-Dec-07 16:00N 24°19' E 118°08'456164123.7
2017-Dec-07 16:00N 31°06' E 121°59'453407798.7
2017-Dec-07 16:00N 24°19' E 118°14'179161350.5
2017-Dec-07 16:00N 25°09' E 121°23'77961220197.8
2017-Dec-07 16:00N 09°29' W 013°43'7031684108.6
2017-Dec-07 15:59N 01°28' E 103°44'2138175.7
2017-Dec-07 15:59N 01°06' E 103°45'70362110697.5
2017-Dec-07 15:59N 09°29' W 013°43'2172.9
2017-Dec-07 15:58N 09°31' W 013°43'7604943917.5
2017-Dec-07 15:58N 24°25' E 117°52'111081999521.8
2017-Dec-07 15:57N 10°15' W 075°31'1113589681.7
2017-Dec-07 15:50N 24°40' E 118°27'37976.7
2017-Dec-07 15:48N 24°07' E 118°10'16015595.3
2017-Dec-07 15:31N 01°28' E 103°43'48788780271.3
2017-Dec-07 15:30N 44°09' E 028°40'45954135524.2
2017-Dec-07 15:30N 24°19' E 118°08'3861.7
2017-Dec-07 15:30N 24°17' E 118°11'910493.7
2017-Dec-07 15:30N 24°09' E 118°11'7627858003.4
2017-Dec-07 15:30N 09°29' W 013°43'77493487186.4
2017-Dec-07 15:29N 31°05' E 122°02'2087536779.8
2017-Dec-07 15:29N 01°05' E 103°41'7032904173.0
2017-Dec-07 15:29N 09°29' W 013°43'2175.2
2017-Dec-07 15:28N 09°31' W 013°43'7634366429.9
2017-Dec-07 15:27N 24°40' E 118°27'111366681317.8
2017-Dec-07 15:27N 10°15' W 075°31'11109307620.1
2017-Dec-07 15:25N 24°25' E 117°52'2171992.3
2017-Dec-07 15:18N 25°09' E 121°46'7533072.5
2017-Dec-07 15:03N 37°38' E 120°18'236448085.1
2017-Dec-07 15:01N 01°28' E 103°44'48788780470.0
2017-Dec-07 15:00N 44°09' E 028°40'4734896953.0
2017-Dec-07 15:00N 25°09' E 121°46'202181373.8
2017-Dec-07 15:00N 24°11' E 118°13'2119205.5
2017-Dec-07 15:00N 24°30' E 118°04'76161054462.6
2017-Dec-07 15:00N 09°29' W 013°43'76231055487.1
2017-Dec-07 14:59N 24°15' E 118°09'811139013.1
2017-Dec-07 14:59N 37°38' E 120°18'75629074209.5
2017-Dec-07 14:59N 09°29' W 013°43'70291331873.1
2017-Dec-07 14:58N 01°08' E 103°38'70291807420.2
2017-Dec-07 14:58N 09°31' W 013°43'3653164407.2
2017-Dec-07 14:57N 10°15' W 075°31'11109254717.7
2017-Dec-07 14:54N 24°25' E 117°52'36649.8
2017-Dec-07 14:51N 24°40' E 118°27'4302975.3
2017-Dec-07 14:42N 31°04' E 122°07'72188.8
2017-Dec-07 14:42N 31°05' E 121°60'450423195.5
2017-Dec-07 14:30N 44°09' E 028°40'45951837952.7
2017-Dec-07 14:30N 24°19' E 118°08'20573872.4
2017-Dec-07 14:30N 25°12' E 121°46'18359914.3
2017-Dec-07 14:30N 24°40' E 118°27'7831410148.3
2017-Dec-07 14:30N 37°38' E 120°18'2383659832.9
2017-Dec-07 14:30N 01°11' E 103°36'1822015.0
2017-Dec-07 14:30N 01°28' E 103°43'70316328042.7
2017-Dec-07 14:30N 09°29' W 013°43'0 0.9
2017-Dec-07 14:29N 09°29' W 013°43'76301962128.2
2017-Dec-07 14:29N 24°12' E 118°16'76291445555.6
2017-Dec-07 14:28N 09°31' W 013°43'7615652680.5
2017-Dec-07 14:28N 24°26' E 118°03'111191026385.4
2017-Dec-07 14:27N 10°15' W 075°31'11168558375.2
2017-Dec-07 14:26N 31°03' E 122°09'6772842.6
2017-Dec-07 14:11N 22°19' E 114°09'2412822.2
2017-Dec-07 14:06N 24°25' E 117°52'457847766.0
2017-Dec-07 14:00N 44°09' E 028°40'41743756880.1
2017-Dec-07 14:00N 37°38' E 120°18'23642127801.3
2017-Dec-07 14:00N 01°28' E 103°43'1518529.8
2017-Dec-07 14:00N 01°14' E 103°36'16221459960.7
2017-Dec-07 14:00N 24°25' E 117°52'1619231.6
2017-Dec-07 14:00N 24°19' E 118°08'288436.5
2017-Dec-07 14:00N 24°40' E 118°27'2798516.1
2017-Dec-07 14:00N 24°14' E 118°18'76321962564.2
2017-Dec-07 14:00N 09°29' W 013°43'78207038208.8
2017-Dec-07 14:00N 25°13' E 121°50'34929936.8
2017-Dec-07 13:59N 31°02' E 122°11'77581994949.1
2017-Dec-07 13:59N 09°29' W 013°43'2191.9
2017-Dec-07 13:58N 09°31' W 013°43'781787398.9
2017-Dec-07 13:53N 25°09' E 121°47'11313357259.2
2017-Dec-07 13:51N 10°15' W 075°31'11165275290.8
2017-Dec-07 13:48N 31°02' E 122°05'3551491.4
2017-Dec-07 13:34N 25°09' E 121°23'471675796.4
2017-Dec-07 13:30N 44°09' E 028°40'45121624387.9
2017-Dec-07 13:30N 31°01' E 122°07'3481251717.9
2017-Dec-07 13:30N 25°14' E 121°54'17893220804.8
2017-Dec-07 13:30N 01°18' E 103°37'16185826136.4
2017-Dec-07 13:30N 24°25' E 117°52'8032890088.5
2017-Dec-07 13:30N 37°38' E 120°18'23644255620.3
2017-Dec-07 13:30N 01°28' E 103°43'16145809782.2
2017-Dec-07 13:30N 24°16' E 118°20'4541632616.5
2017-Dec-07 13:30N 31°01' E 122°12'429140451.1
2017-Dec-07 13:30N 24°40' E 118°27'282200.5
2017-Dec-07 13:29N 24°19' E 118°08'18573934.6
2017-Dec-07 13:29N 25°09' E 121°24'77961477135.7
2017-Dec-07 13:29N 09°29' W 013°43'1116.0
2017-Dec-07 13:28N 09°30' W 013°43'7418437763.2
2017-Dec-07 13:27N 22°19' E 114°09'109472074233.4
2017-Dec-07 13:27N 10°15' W 075°31'365366422.7
2017-Dec-07 13:24N 09°29' W 013°43'776120172.3
2017-Dec-07 13:00N 30°59' E 122°13'450809968.6
2017-Dec-07 13:00N 24°18' E 118°23'20142497.2
2017-Dec-07 13:00N 25°13' E 121°55'347624305.9
2017-Dec-07 13:00N 30°60' E 122°10'409368029.3
2017-Dec-07 13:00N 37°38' E 120°18'108625586115.9
2017-Dec-07 13:00N 10°17' W 075°31'3653571799.9
2017-Dec-07 13:00N 09°29' W 013°43'762213718861.6
2017-Dec-07 13:00N 24°19' E 118°08'7622559952.5
2017-Dec-07 12:59N 09°29' W 013°43'78201042638.2
2017-Dec-07 12:58N 25°14' E 121°50'78197036740.1
2017-Dec-07 12:58N 09°31' W 013°43'70271806844.1
2017-Dec-07 12:58N 01°22' E 103°39'164598678.8
2017-Dec-07 12:57N 24°40' E 118°27'163737786.8
2017-Dec-07 12:54N 01°28' E 103°43'1607826278.2
2017-Dec-07 12:54N 24°25' E 117°52'4561152.2
2017-Dec-07 12:30N 30°58' E 122°14'4461607072.3
2017-Dec-07 12:30N 24°20' E 118°25'317939.5
2017-Dec-07 12:30N 24°25' E 117°52'8032890109.9
2017-Dec-07 12:30N 37°38' E 120°18'783201449.7
2017-Dec-07 12:30N 24°40' E 118°27'1637736841.5
2017-Dec-07 12:30N 01°28' E 103°43'1778581942.6
2017-Dec-07 12:30N 25°12' E 121°57'78274696288.6
2017-Dec-07 12:30N 09°29' W 013°43'36541315380.6
2017-Dec-07 12:29N 10°19' W 075°32'3654365384.6
2017-Dec-07 12:29N 09°29' W 013°43'78217038657.7
2017-Dec-07 12:29N 25°14' E 121°51'78201082704.6
2017-Dec-07 12:28N 09°31' W 013°43'76203919077.0
2017-Dec-07 12:28N 24°19' E 118°08'1612103618.9
2017-Dec-07 12:27N 01°26' E 103°41'20676776.0
2017-Dec-07 12:09N 30°56' E 122°12'206414685.0
2017-Dec-07 12:01N 01°28' E 103°43'48778779075.6
2017-Dec-07 12:00N 44°07' E 028°40'45221627882.4
2017-Dec-07 12:00N 30°57' E 122°14'42776810.5
2017-Dec-07 12:00N 24°40' E 118°27'2811233.2
2017-Dec-07 12:00N 24°19' E 118°08'76221714866.2
2017-Dec-07 12:00N 09°29' W 013°43'36543288575.3
2017-Dec-07 12:00N 10°19' W 075°32'111431028576.9
2017-Dec-07 11:59N 24°22' E 118°28'76403437960.6
2017-Dec-07 11:59N 09°29' W 013°43'70322301395.0
2017-Dec-07 11:59N 01°27' E 103°44'1776375994.0
2017-Dec-07 11:58N 25°13' E 121°51'782014076484.5
2017-Dec-07 11:58N 09°31' W 013°43'7604307568.7
2017-Dec-07 11:57N 24°25' E 117°52'4537949.8
2017-Dec-07 11:53N 30°54' E 122°13'3445676.8
2017-Dec-07 11:50N 25°11' E 121°58'17785564.4
2017-Dec-07 11:31N 01°28' E 103°43'48775852229.6
2017-Dec-07 11:30N 44°06' E 028°40'46091508518.2
2017-Dec-07 11:30N 24°24' E 118°30'194174377.1
2017-Dec-07 11:30N 25°11' E 121°58'19346377.8
2017-Dec-07 11:30N 24°40' E 118°27'1113520042651.3
2017-Dec-07 11:30N 10°16' W 075°31'3653657554.2
2017-Dec-07 11:30N 09°29' W 013°43'762213718894.9
2017-Dec-07 11:30N 24°19' E 118°08'610448.5
2017-Dec-07 11:30N 24°13' E 118°07'193516.4
2017-Dec-07 11:29N 24°25' E 117°52'76051244448.5
2017-Dec-07 11:29N 09°29' W 013°43'77622149574.3
2017-Dec-07 11:29N 30°52' E 122°13'77611330453.9
2017-Dec-07 11:28N 09°31' W 013°43'78214692404.3
2017-Dec-07 11:28N 25°13' E 121°52'1776127842.3
2017-Dec-07 11:27N 01°27' E 103°45'236457506.1
2017-Dec-07 11:25N 37°38' E 120°18'3363807.0
2017-Dec-07 11:20N 32°02' E 120°28'439513794.4
2017-Dec-07 11:00N 44°07' E 028°41'46001104064.0
2017-Dec-07 11:00N 24°14' E 118°11'53235.7
2017-Dec-07 11:00N 24°19' E 118°08'7622338737.7
2017-Dec-07 10:59N 09°29' W 013°43'76481449022.9
2017-Dec-07 10:58N 32°02' E 120°26'76463058496.4
2017-Dec-07 10:58N 09°31' W 013°43'78213519434.0
2017-Dec-07 10:58N 25°13' E 121°52'7822284442.2
2017-Dec-07 10:57N 09°29' W 013°43'77652329354.5
2017-Dec-07 10:56N 30°54' E 122°16'2065200890.2
2017-Dec-07 10:56N 01°28' E 103°43'1786160725.3
2017-Dec-07 10:55N 25°29' E 121°47'187112426.0
2017-Dec-07 10:55N 24°40' E 118°27'1637117874.9
2017-Dec-07 10:54N 01°27' E 103°45'1606109113.3
2017-Dec-07 10:53N 24°25' E 117°52'2412682.7
2017-Dec-07 10:48N 22°18' E 114°09'6758049.1
2017-Dec-07 10:43N 30°58' E 122°12'10874.8
2017-Dec-07 10:42N 30°48' E 122°13'3396812.7
2017-Dec-07 10:39N 25°09' E 122°01'474632855.3
2017-Dec-07 10:30N 44°09' E 028°40'46022761219.1
2017-Dec-07 10:30N 24°16' E 118°15'20436778.5
2017-Dec-07 10:30N 25°26' E 121°46'7813907360.4
2017-Dec-07 10:30N 09°30' W 013°43'0 1.2
2017-Dec-07 10:29N 09°29' W 013°43'76221371885.2
2017-Dec-07 10:28N 24°19' E 118°08'76202493958.1
2017-Dec-07 10:28N 09°31' W 013°43'78219385228.4
2017-Dec-07 10:28N 25°13' E 121°52'18956612.9
2017-Dec-07 10:28N 24°40' E 118°27'42440152.9
2017-Dec-07 10:27N 30°53' E 122°16'45352585.6
2017-Dec-07 10:27N 24°25' E 117°52'160775117.4
2017-Dec-07 10:26N 01°28' E 103°43'2057172182.0
2017-Dec-07 10:25N 30°47' E 122°13'2056137091.2
2017-Dec-07 10:24N 01°27' E 103°45'205416357.8
2017-Dec-07 10:16N 30°43' E 122°13'15119.6
2017-Dec-07 10:09N 30°58' E 122°10'348179182.2
2017-Dec-07 10:09N 25°10' E 122°01'36217158.2
2017-Dec-07 10:07N 31°12' E 121°49'449139240.9
2017-Dec-07 10:01N 44°09' E 028°40'4517774400.3
2017-Dec-07 10:00N 30°58' E 122°10'450323685.1
2017-Dec-07 10:00N 24°18' E 118°18'198713648.3
2017-Dec-07 10:00N 25°23' E 121°45'324105991.7
2017-Dec-07 10:00N 30°46' E 122°13'445534506.6
2017-Dec-07 10:00N 24°25' E 117°52'452162566.6
2017-Dec-07 10:00N 30°51' E 122°16'776613978248.3
2017-Dec-07 10:00N 09°30' W 013°43'7764931642.8
2017-Dec-07 09:59N 30°45' E 122°13'77641270424.5
2017-Dec-07 09:59N 09°30' W 013°43'2203.4
2017-Dec-07 09:58N 09°31' W 013°43'78213519423.9
2017-Dec-07 09:58N 25°13' E 121°52'21110258.0
2017-Dec-07 09:57N 24°19' E 118°08'160931656.5
2017-Dec-07 09:54N 01°28' E 103°43'126.0
2017-Dec-07 09:52N 01°27' E 103°44'2403109487.3
2017-Dec-07 09:50N 37°32' E 122°11'79534057.3
2017-Dec-07 09:49N 24°40' E 118°27'1968712.8
2017-Dec-07 09:48N 25°10' E 122°01'17796247.7
2017-Dec-07 09:31N 01°28' E 103°43'48788780267.8
2017-Dec-07 09:30N 44°09' E 028°40'46061275424.9
2017-Dec-07 09:30N 24°20' E 118°22'197118324.0
2017-Dec-07 09:30N 25°13' E 121°51'95370.2
2017-Dec-07 09:30N 25°19' E 121°44'21745965.7
2017-Dec-07 09:30N 24°25' E 117°52'23082919.3
2017-Dec-07 09:30N 25°10' E 122°01'78317047754.9
2017-Dec-07 09:30N 09°30' W 013°43'0 1.0
2017-Dec-07 09:29N 09°30' W 013°43'76222494330.8
2017-Dec-07 09:29N 24°19' E 118°08'76201613736.4
2017-Dec-07 09:28N 09°31' W 013°43'76341446444.4
2017-Dec-07 09:28N 24°40' E 118°27'35698.5
2017-Dec-07 09:25N 24°26' E 117°53'47228348.4
2017-Dec-07 09:24N 31°59' E 120°26'112947.9
2017-Dec-07 09:17N 30°52' E 122°12'206187274.4
2017-Dec-07 09:15N 01°27' E 103°44'175637857.2
2017-Dec-07 09:13N 25°09' E 121°23'3402273.6
2017-Dec-07 09:04N 30°46' E 122°17'453085825.4
2017-Dec-07 09:00N 44°09' E 028°40'453016307661.8
2017-Dec-07 09:00N 30°46' E 122°17'4351566887.4
2017-Dec-07 09:00N 24°22' E 118°26'3155367.1
2017-Dec-07 09:00N 24°26' E 117°53'163352.2
2017-Dec-07 09:00N 24°19' E 118°08'203183028.3
2017-Dec-07 09:00N 25°16' E 121°43'204104741.5
2017-Dec-07 09:00N 24°19' E 118°07'475855894.4
2017-Dec-07 09:00N 31°59' E 120°26'11179615.0
2017-Dec-07 09:00N 30°54' E 122°12'34482516.7
2017-Dec-07 09:00N 25°11' E 122°00'78309396438.7
2017-Dec-07 09:00N 09°30' W 013°43'0 1.0
2017-Dec-07 08:59N 09°30' W 013°43'2189.4
2017-Dec-07 08:58N 09°31' W 013°43'7794850258.2
2017-Dec-07 08:58N 25°09' E 121°23'175681046.1
2017-Dec-07 08:56N 01°28' E 103°43'160717265.2
2017-Dec-07 08:51N 24°25' E 117°52'45515029.8
2017-Dec-07 08:49N 30°58' E 122°10'4261535135.2
2017-Dec-07 08:49N 24°40' E 118°27'163714589.1
2017-Dec-07 08:42N 01°27' E 103°44'487924948.7
2017-Dec-07 08:30N 44°09' E 028°40'45783295849.9
2017-Dec-07 08:30N 24°26' E 117°53'1922457.2
2017-Dec-07 08:30N 24°18' E 118°11'19859517.4
2017-Dec-07 08:30N 25°13' E 121°41'180324592.2
2017-Dec-07 08:30N 24°24' E 118°30'1625975249.3
2017-Dec-07 08:30N 01°28' E 103°43'1774236517.5
2017-Dec-07 08:30N 25°13' E 121°48'78199382319.6
2017-Dec-07 08:30N 09°30' W 013°43'76481835505.8
2017-Dec-07 08:29N 31°59' E 120°26'7648834314.2
2017-Dec-07 08:29N 09°28' W 013°42'76219145533.7
2017-Dec-07 08:29N 24°19' E 118°08'7620979769.3
2017-Dec-07 08:28N 09°31' W 013°43'7756332407.5
2017-Dec-07 08:27N 30°59' E 122°10'34889517.3
2017-Dec-07 08:27N 25°11' E 121°60'331047.0
2017-Dec-07 08:25N 25°09' E 121°23'1623594.4
2017-Dec-07 08:22N 24°40' E 118°27'27722191.2
2017-Dec-07 08:21N 22°18' E 114°08'67140254.2
2017-Dec-07 08:20N 31°59' E 120°26'47330422.9
2017-Dec-07 08:19N 24°25' E 117°52'160679221.6
2017-Dec-07 08:18N 01°27' E 103°44'161928437.7
2017-Dec-07 08:15N 24°21' E 118°24'46923793.4
2017-Dec-07 08:13N 31°58' E 120°25'8414889.6
2017-Dec-07 08:03N 21°11' E 110°25'65014905.6
2017-Dec-07 08:01N 25°09' E 121°23'47165658742.9
2017-Dec-07 08:00N 44°09' E 028°40'45783295846.5
2017-Dec-07 08:00N 24°26' E 117°53'456410810.1
2017-Dec-07 08:00N 21°11' E 110°25'473283909.7
2017-Dec-07 08:00N 24°18' E 118°16'20118522.0
2017-Dec-07 08:00N 25°14' E 121°48'41287152.5
2017-Dec-07 07:59N 31°59' E 120°27'45120287.2
2017-Dec-07 07:58N 24°40' E 118°27'284820.1
2017-Dec-07 07:58N 24°19' E 118°08'47659083.7
2017-Dec-07 07:57N 31°59' E 120°26'2067212654.7
2017-Dec-07 07:57N 01°28' E 103°43'7030538486.7
2017-Dec-07 07:56N 09°28' W 013°42'3330.4
2017-Dec-07 07:55N 09°31' W 013°43'7604943910.2
2017-Dec-07 07:55N 24°25' E 117°52'1606109115.4
2017-Dec-07 07:54N 01°27' E 103°44'161835080.4
2017-Dec-07 07:51N 24°20' E 118°22'4435502.4
2017-Dec-07 07:46N 30°53' E 122°14'15147.2
2017-Dec-07 07:40N 31°03' E 122°02'207719680.1
2017-Dec-07 07:34N 01°10' E 103°50'178982556.0
2017-Dec-07 07:33N 25°12' E 121°59'177850411.3
2017-Dec-07 07:31N 01°28' E 103°43'12514503751.5
2017-Dec-07 07:31N 21°15' E 110°25'1266911484.1
2017-Dec-07 07:30N 01°10' E 103°50'48963524857.2
2017-Dec-07 07:30N 44°09' E 028°40'43961758408.8
2017-Dec-07 07:30N 31°59' E 120°26'76494589227.5
2017-Dec-07 07:30N 09°28' W 013°43'7622885139.7
2017-Dec-07 07:30N 24°19' E 118°08'208747681.7
2017-Dec-07 07:30N 25°14' E 121°48'238288.4
2017-Dec-07 07:29N 25°10' E 121°23'35634639.1
2017-Dec-07 07:29N 31°04' E 122°01'774813946580.5
2017-Dec-07 07:29N 09°28' W 013°42'763127472960.1
2017-Dec-07 07:29N 24°18' E 118°19'7631981067.6
2017-Dec-07 07:28N 09°31' W 013°43'76321717127.9
2017-Dec-07 07:28N 24°19' E 118°20'2239566.0
2017-Dec-07 07:28N 24°40' E 118°27'42620986.3
2017-Dec-07 07:27N 30°56' E 122°14'45413745.5
2017-Dec-07 07:25N 24°25' E 117°52'10647907.8
2017-Dec-07 07:25N 23°34' E 119°34'16517945.7
2017-Dec-07 07:24N 25°11' E 121°59'46332081.2
2017-Dec-07 07:23N 22°19' E 114°09'139314969.3
2017-Dec-07 07:18N 01°27' E 103°44'17746231.6
2017-Dec-07 07:01N 25°14' E 121°48'47338519307.4
2017-Dec-07 07:01N 44°09' E 028°40'46034142540.1
2017-Dec-07 07:00N 24°18' E 118°18'1632979141.6
2017-Dec-07 07:00N 01°07' E 103°45'1625835949.6
2017-Dec-07 07:00N 24°26' E 117°53'76062738106.0
2017-Dec-07 07:00N 09°28' W 013°43'76492753535.5
2017-Dec-07 07:00N 31°59' E 120°26'476155787.7
2017-Dec-07 07:00N 24°19' E 118°08'7620308241.8
2017-Dec-07 06:58N 09°31' W 013°43'76341832163.0
2017-Dec-07 06:58N 24°40' E 118°27'3610696.0
2017-Dec-07 06:58N 24°25' E 117°52'160788977.6
2017-Dec-07 06:57N 01°28' E 103°43'1270.4
2017-Dec-07 06:56N 01°27' E 103°44'17561580524.2
2017-Dec-07 06:56N 25°09' E 121°23'7796719596.2
2017-Dec-07 06:56N 09°28' W 013°42'763268684.7
2017-Dec-07 06:49N 24°18' E 118°19'16931.8
2017-Dec-07 06:48N 24°32' E 118°10'213153140.3
2017-Dec-07 06:48N 25°11' E 122°01'474516221.3
2017-Dec-07 06:30N 44°09' E 028°40'48908802427.5
2017-Dec-07 06:30N 01°07' E 103°40'16321958312.8
2017-Dec-07 06:30N 24°17' E 118°15'72494.8
2017-Dec-07 06:30N 24°19' E 118°08'16091930915.4
2017-Dec-07 06:30N 01°28' E 103°44'16221946115.5
2017-Dec-07 06:30N 24°32' E 118°10'76215487449.6
2017-Dec-07 06:30N 09°28' W 013°43'782028153461.4
2017-Dec-07 06:30N 25°11' E 121°49'1772138701.0
2017-Dec-07 06:29N 01°27' E 103°44'1756137446.0
2017-Dec-07 06:28N 25°09' E 121°23'77951476886.6
2017-Dec-07 06:28N 09°31' W 013°43'76316867718.3
2017-Dec-07 06:28N 24°18' E 118°19'47441609.3
2017-Dec-07 06:27N 31°59' E 120°26'45116895.0
2017-Dec-07 06:26N 24°40' E 118°27'76354580934.1
2017-Dec-07 06:26N 09°28' W 013°42'7217927836.1
2017-Dec-07 06:25N 21°11' E 110°25'68137715.6
2017-Dec-07 06:24N 25°11' E 121°58'228892.8
2017-Dec-07 06:09N 24°25' E 117°52'21149.2
2017-Dec-07 06:00N 24°16' E 118°13'460116562250.4
2017-Dec-07 06:00N 44°09' E 028°40'47412437998.6
2017-Dec-07 06:00N 25°11' E 121°55'206743174.8
2017-Dec-07 06:00N 24°33' E 118°11'462276956.6
2017-Dec-07 06:00N 31°59' E 120°26'4731701159.8
2017-Dec-07 06:00N 24°26' E 117°53'76056844601.8
2017-Dec-07 06:00N 09°28' W 013°42'76053041837.5
2017-Dec-07 06:00N 24°25' E 117°52'1607206553.7
2017-Dec-07 05:59N 01°28' E 103°44'7031372214.0
2017-Dec-07 05:58N 09°31' W 013°43'7620375801.9
2017-Dec-07 05:57N 24°19' E 118°08'18436832.1
2017-Dec-07 05:57N 25°10' E 121°23'1756230.8
2017-Dec-07 05:55N 24°18' E 118°19'1631209735.0
2017-Dec-07 05:55N 01°12' E 103°36'165456720.0
2017-Dec-07 05:53N 24°40' E 118°27'16375497.9
2017-Dec-07 05:35N 01°27' E 103°44'112.0
2017-Dec-07 05:31N 01°28' E 103°44'48788780268.0
2017-Dec-07 05:30N 44°09' E 028°40'47388528681.1
2017-Dec-07 05:30N 25°10' E 121°52'198356655.5
2017-Dec-07 05:30N 24°20' E 118°21'2647167.1
2017-Dec-07 05:30N 24°26' E 117°53'1620216049.6
2017-Dec-07 05:30N 01°17' E 103°36'1769454902.1
2017-Dec-07 05:30N 25°10' E 121°23'18366025.9
2017-Dec-07 05:30N 24°15' E 118°10'7624538177.2
2017-Dec-07 05:29N 09°28' W 013°42'3333.4
2017-Dec-07 05:28N 09°31' W 013°43'7620831319.3
2017-Dec-07 05:28N 24°19' E 118°08'7622762206.0
2017-Dec-07 05:27N 09°28' W 013°43'7636109515.6
2017-Dec-07 05:23N 24°40' E 118°27'171847.5
2017-Dec-07 05:22N 24°32' E 118°10'474568597.9
2017-Dec-07 05:22N 21°11' E 110°25'4566211.9
2017-Dec-07 05:18N 24°25' E 117°52'4565785.1
2017-Dec-07 05:13N 31°07' E 121°55'461151006.0
2017-Dec-07 05:13N 24°11' E 118°12'205994.1
2017-Dec-07 05:01N 25°10' E 121°49'47368525212.3
2017-Dec-07 05:00N 44°09' E 028°40'48782508653.0
2017-Dec-07 05:00N 01°28' E 103°44'16052888170.9
2017-Dec-07 05:00N 24°13' E 118°07'481288667.2
2017-Dec-07 05:00N 31°59' E 120°26'4731701159.8
2017-Dec-07 05:00N 24°26' E 117°53'76062489212.9
2017-Dec-07 05:00N 09°28' W 013°43'76282288375.6
2017-Dec-07 05:00N 24°10' E 118°12'93032.1
2017-Dec-07 05:00N 24°19' E 118°08'132817.8
2017-Dec-07 04:59N 24°21' E 118°21'1626158160.2
2017-Dec-07 04:59N 01°22' E 103°38'70266323459.9
2017-Dec-07 04:59N 09°28' W 013°42'7217838053.8
2017-Dec-07 04:58N 21°11' E 110°25'721625977007.4
2017-Dec-07 04:58N 09°31' W 013°43'7739773893.2
2017-Dec-07 04:58N 31°09' E 121°53'42914697.7
2017-Dec-07 04:56N 24°40' E 118°27'16373883.0
2017-Dec-07 04:31N 01°28' E 103°44'48788780305.5
2017-Dec-07 04:30N 44°09' E 028°40'43962260919.4
2017-Dec-07 04:30N 31°59' E 120°26'412185493.9
2017-Dec-07 04:30N 25°09' E 121°23'196705729.3
2017-Dec-07 04:30N 24°26' E 117°53'76062489219.6
2017-Dec-07 04:30N 09°28' W 013°43'131.1
2017-Dec-07 04:29N 09°28' W 013°42'3331.2
2017-Dec-07 04:28N 09°31' W 013°43'7633356867.0
2017-Dec-07 04:27N 24°20' E 118°21'27252.4
2017-Dec-07 04:20N 24°25' E 117°52'160699706.5
2017-Dec-07 04:19N 01°27' E 103°45'1247408188.9
2017-Dec-07 04:19N 21°11' E 110°25'21813743.9
2017-Dec-07 04:18N 22°18' E 114°08'2773781.9
2017-Dec-07 04:14N 24°40' E 118°27'1471637.8
2017-Dec-07 04:08N 25°05' E 121°07'470635371.9
2017-Dec-07 04:00N 44°09' E 028°40'47154243535.8
2017-Dec-07 04:00N 25°09' E 121°22'19558444.8
2017-Dec-07 04:00N 24°26' E 117°53'76063911636.5
2017-Dec-07 04:00N 09°28' W 013°43'74186676169.1
2017-Dec-07 04:00N 22°18' E 114°08'25350528.8
2017-Dec-07 04:00N 24°26' E 118°05'121877.8
2017-Dec-07 03:59N 24°25' E 117°52'473142039.3
2017-Dec-07 03:59N 31°59' E 120°26'2068413505.3
2017-Dec-07 03:59N 01°28' E 103°44'70303615652.8
2017-Dec-07 03:59N 09°28' W 013°42'3365.9
2017-Dec-07 03:58N 09°31' W 013°43'7634192183.6
2017-Dec-07 03:56N 24°40' E 118°27'1637226683.5
2017-Dec-07 03:55N 01°27' E 103°45'161686847.1
2017-Dec-07 03:54N 24°19' E 118°21'161618013.6
2017-Dec-07 03:49N 01°27' E 103°45'160922536.6
2017-Dec-07 03:45N 24°19' E 118°08'4663756.6
2017-Dec-07 03:37N 21°11' E 110°25'4675569.7
2017-Dec-07 03:32N 24°19' E 118°09'0 5.2
2017-Dec-07 03:30N 24°18' E 118°09'459616545121.5
2017-Dec-07 03:30N 44°09' E 028°40'48782195083.4
2017-Dec-07 03:30N 01°28' E 103°44'20681240527.9
2017-Dec-07 03:30N 31°59' E 120°26'473850569.5
2017-Dec-07 03:30N 24°26' E 117°53'76061955817.3
2017-Dec-07 03:30N 09°28' W 013°43'70328438618.5
2017-Dec-07 03:30N 01°27' E 103°45'160982741.3
2017-Dec-07 03:29N 24°19' E 118°08'16938104.3
2017-Dec-07 03:28N 25°05' E 121°07'77801333783.1
2017-Dec-07 03:28N 09°31' W 013°43'76331249041.5
2017-Dec-07 03:28N 24°18' E 118°21'47317733.4
2017-Dec-07 03:26N 31°58' E 120°26'671142046.7
2017-Dec-07 03:26N 22°18' E 114°08'2606636.5
2017-Dec-07 03:24N 24°32' E 118°10'185062.7
2017-Dec-07 03:23N 24°25' E 117°52'19710751.8
2017-Dec-07 03:22N 25°09' E 121°23'361325074.9
2017-Dec-07 03:22N 31°09' E 121°53'86017298.3
2017-Dec-07 03:19N 21°11' E 110°25'5514703.2
2017-Dec-07 03:12N 22°41' E 120°11'159822471.7
2017-Dec-07 03:08N 01°27' E 103°45'16375893810.3
2017-Dec-07 03:08N 24°40' E 118°27'454544459.6
2017-Dec-07 03:08N 32°02' E 120°26'94772.8
2017-Dec-07 03:01N 31°08' E 121°57'450016200327.1
2017-Dec-07 03:00N 44°09' E 028°40'48791463712.0
2017-Dec-07 03:00N 01°27' E 103°45'16091447973.3
2017-Dec-07 03:00N 24°19' E 118°08'43389.2
2017-Dec-07 03:00N 24°15' E 118°10'76255489912.9
2017-Dec-07 03:00N 09°28' W 013°43'76493933682.8
2017-Dec-07 03:00N 31°59' E 120°26'412211856.5
2017-Dec-07 03:00N 25°10' E 121°23'162586.7
2017-Dec-07 02:59N 25°05' E 121°07'15226093.5
2017-Dec-07 02:59N 22°41' E 120°11'15332312.4
2017-Dec-07 02:59N 24°40' E 118°27'76353435724.2
2017-Dec-07 02:59N 09°28' W 013°42'70301205207.3
2017-Dec-07 02:58N 01°28' E 103°43'70313163797.1
2017-Dec-07 02:58N 09°31' W 013°43'7620271603.3
2017-Dec-07 02:57N 24°32' E 118°10'1622253843.0
2017-Dec-07 02:56N 01°27' E 103°44'124776108.2
2017-Dec-07 02:55N 21°11' E 110°25'4565635.6
2017-Dec-07 02:50N 24°25' E 117°52'2164.9
2017-Dec-07 02:31N 24°12' E 118°11'46018282593.8
2017-Dec-07 02:30N 44°09' E 028°40'47161061047.1
2017-Dec-07 02:30N 25°10' E 121°23'1756790252.6
2017-Dec-07 02:30N 01°27' E 103°45'70323616550.8
2017-Dec-07 02:30N 09°28' W 013°43'1862.9
2017-Dec-07 02:30N 09°28' W 013°42'70301807823.0
2017-Dec-07 02:30N 01°28' E 103°44'1622648676.8
2017-Dec-07 02:30N 24°32' E 118°10'82328.4
2017-Dec-07 02:29N 24°26' E 118°05'15513919.7
2017-Dec-07 02:29N 22°43' E 120°11'7758930987.5
2017-Dec-07 02:28N 09°31' W 013°43'721625977035.5
2017-Dec-07 02:28N 21°11' E 110°25'477572942.2
2017-Dec-07 02:28N 24°18' E 118°21'2605668.3
2017-Dec-07 02:25N 22°17' E 114°11'2753271.9
2017-Dec-07 02:20N 24°40' E 118°27'164193781.3
2017-Dec-07 02:19N 01°25' E 103°40'10709367153.2
2017-Dec-07 02:18N 10°15' W 075°31'592020854.0
2017-Dec-07 02:00N 44°09' E 028°40'48782926756.3
2017-Dec-07 02:00N 01°28' E 103°43'611312.2
2017-Dec-07 02:00N 01°23' E 103°39'70272299761.6
2017-Dec-07 02:00N 09°27' W 013°43'0112.7
2017-Dec-07 02:00N 09°28' W 013°43'76229146574.5
2017-Dec-07 02:00N 24°19' E 118°08'1017524.6
2017-Dec-07 02:00N 24°09' E 118°11'235449.1
2017-Dec-07 02:00N 24°32' E 118°10'15410239.6
2017-Dec-07 01:59N 22°44' E 120°10'7757930891.4
2017-Dec-07 01:58N 09°31' W 013°43'7795876890.9
2017-Dec-07 01:58N 25°10' E 121°23'434156168.4
2017-Dec-07 01:57N 22°19' E 114°08'97450070.3
2017-Dec-07 01:56N 37°38' E 120°18'7832820273.2
2017-Dec-07 01:56N 24°40' E 118°27'362292.2
2017-Dec-07 01:55N 24°25' E 117°52'1606385511.9
2017-Dec-07 01:55N 01°27' E 103°45'16151453564.7
2017-Dec-07 01:55N 24°18' E 118°21'1591781.1
2017-Dec-07 01:50N 25°06' E 121°08'63718633.5
2017-Dec-07 01:48N 21°11' E 110°25'107591046783.0
2017-Dec-07 01:47N 10°15' W 075°31'1110956565.2
2017-Dec-07 01:35N 24°26' E 117°53'81071162.7
2017-Dec-07 01:35N 37°36' E 121°25'82612291.3
2017-Dec-07 01:31N 24°06' E 118°11'46068291079.8
2017-Dec-07 01:30N 44°09' E 028°40'30802771731.5
2017-Dec-07 01:30N 09°28' W 013°43'70311947072.1
2017-Dec-07 01:30N 01°28' E 103°43'1017193.8
2017-Dec-07 01:30N 01°20' E 103°37'17586327156.4
2017-Dec-07 01:30N 25°09' E 121°09'7511351404.4
2017-Dec-07 01:30N 37°38' E 120°18'807290643.9
2017-Dec-07 01:30N 24°17' E 118°21'76381833117.2
2017-Dec-07 01:30N 09°24' W 013°45'76391195686.0
2017-Dec-07 01:29N 24°40' E 118°27'79061824.6
2017-Dec-07 01:29N 37°36' E 121°25'811292083.2
2017-Dec-07 01:28N 24°25' E 117°52'169645.7
2017-Dec-07 01:28N 24°19' E 118°08'76204572256.0
2017-Dec-07 01:28N 09°31' W 013°43'3653101173.4
2017-Dec-07 01:26N 10°15' W 075°31'111091666316.3
2017-Dec-07 01:26N 24°26' E 117°53'18611164.0
2017-Dec-07 01:25N 25°12' E 121°11'15720980.2
2017-Dec-07 01:24N 22°45' E 120°10'1561270.6
2017-Dec-07 01:17N 25°11' E 121°12'470617322.5
2017-Dec-07 01:00N 44°09' E 028°40'45955514027.4
2017-Dec-07 01:00N 24°19' E 118°08'76266863016.7
2017-Dec-07 01:00N 09°25' W 013°45'702812650523.4
2017-Dec-07 01:00N 01°17' E 103°37'1765907857.2
2017-Dec-07 01:00N 25°12' E 121°14'1270.5
2017-Dec-07 01:00N 25°11' E 121°14'1128040607831.6
2017-Dec-07 01:00N 10°16' W 075°31'10711771216.6
2017-Dec-07 00:59N 01°28' E 103°43'1600115181.9
2017-Dec-07 00:58N 22°44' E 120°10'77582792713.3
2017-Dec-07 00:58N 09°31' W 013°43'76046843814.7
2017-Dec-07 00:58N 24°26' E 117°53'19613590.0
2017-Dec-07 00:57N 25°09' E 121°23'78045619041.2
2017-Dec-07 00:57N 09°24' W 013°49'7643119117.6
2017-Dec-07 00:53N 24°40' E 118°27'24369.6
2017-Dec-07 00:49N 24°17' E 118°21'47532855.7
2017-Dec-07 00:48N 31°58' E 120°26'4062618.0
2017-Dec-07 00:39N 25°15' E 121°16'1763423061.5
2017-Dec-07 00:39N 01°24' E 103°39'1070876183.1
2017-Dec-07 00:31N 10°17' W 075°31'591921308176.2
2017-Dec-07 00:30N 44°09' E 028°40'47081210644.5
2017-Dec-07 00:30N 25°14' E 121°17'71827.2
2017-Dec-07 00:30N 25°10' E 121°23'17731595328.8
2017-Dec-07 00:30N 01°14' E 103°36'910873.9
2017-Dec-07 00:30N 01°22' E 103°39'1606578041.5
2017-Dec-07 00:30N 22°42' E 120°10'77719325179.1
2017-Dec-07 00:30N 09°24' W 013°53'61192.5
2017-Dec-07 00:29N 09°24' W 013°47'76289153780.6
2017-Dec-07 00:29N 24°19' E 118°08'7620375801.5
2017-Dec-07 00:28N 09°31' W 013°43'7633560774.4
2017-Dec-07 00:27N 24°17' E 118°21'4748414.3
2017-Dec-07 00:24N 31°58' E 120°26'45042664.4
2017-Dec-07 00:23N 24°40' E 118°27'163750381.2
2017-Dec-07 00:21N 01°28' E 103°43'139318638.3
2017-Dec-07 00:17N 22°18' E 114°09'2404119.6
2017-Dec-07 00:13N 24°25' E 117°52'2186045.0
2017-Dec-07 00:11N 25°09' E 121°47'41612803.3
2017-Dec-07 00:09N 31°58' E 120°26'115876.2
2017-Dec-07 00:01N 30°38' E 122°03'11173788684.6
2017-Dec-07 00:01N 10°17' W 075°31'591910654088.1
2017-Dec-07 00:00N 44°09' E 028°40'43965275200.7
2017-Dec-07 00:00N 31°58' E 120°26'765713782738.9
2017-Dec-07 00:00N 09°23' W 013°50'70333616769.3
2017-Dec-07 00:00N 01°19' E 103°37'1608175412.8
2017-Dec-07 00:00N 22°40' E 120°10'777513995037.0
2017-Dec-07 00:00N 09°25' W 013°57'781128118650.7
2017-Dec-07 00:00N 25°09' E 121°23'61457.2
2017-Dec-06 23:59N 25°15' E 121°21'185332235.5
2017-Dec-06 23:59N 24°19' E 118°08'2825181.8
2017-Dec-06 23:59N 24°40' E 118°27'18466197.6
2017-Dec-06 23:59N 25°09' E 121°48'45490733.2
2017-Dec-06 23:59N 22°19' E 114°08'7417620916.5
2017-Dec-06 23:58N 09°31' W 013°43'7031903942.3
2017-Dec-06 23:58N 01°28' E 103°43'1615101992.9
2017-Dec-06 23:57N 24°18' E 118°21'271214.3
2017-Dec-06 23:55N 24°25' E 117°52'4341563202.2
2017-Dec-06 23:55N 30°38' E 122°03'23145.3
2017-Dec-06 23:46N 31°01' E 122°07'1116544267.7
2017-Dec-06 23:31N 10°17' W 075°31'591910654087.6
2017-Dec-06 23:30N 44°09' E 028°40'45952067719.7
2017-Dec-06 23:30N 24°19' E 118°08'207186505.5
2017-Dec-06 23:30N 25°12' E 121°48'2417231.9
2017-Dec-06 23:30N 25°09' E 121°22'35497981.7
2017-Dec-06 23:30N 31°01' E 122°08'512115230.2
2017-Dec-06 23:30N 22°39' E 120°10'1612263740.9
2017-Dec-06 23:29N 01°09' E 103°43'16532976223.2
2017-Dec-06 23:29N 24°40' E 118°27'1652180204.3
2017-Dec-06 23:29N 01°15' E 103°36'7025683532.5
2017-Dec-06 23:28N 09°31' W 013°43'77931558569.1
2017-Dec-06 23:28N 25°17' E 121°23'40415481.3
2017-Dec-06 23:26N 31°58' E 120°26'4736427.5
2017-Dec-06 23:22N 24°25' E 117°52'27856.0
2017-Dec-06 23:20N 24°17' E 118°20'1614580970.5
2017-Dec-06 23:20N 01°28' E 103°43'1071133213.8
2017-Dec-06 23:00N 10°17' W 075°31'112833384923.6
2017-Dec-06 23:00N 22°41' E 120°10'16091931295.5
2017-Dec-06 23:00N 01°10' E 103°47'17881073098.8
2017-Dec-06 23:00N 25°15' E 121°50'266646.5
2017-Dec-06 23:00N 25°09' E 121°22'17422313.8
2017-Dec-06 22:59N 24°17' E 118°20'2511069.2
2017-Dec-06 22:59N 24°40' E 118°27'1654180454.6
2017-Dec-06 22:59N 01°12' E 103°38'1626836262.0
2017-Dec-06 22:59N 24°19' E 118°08'76201055130.8
2017-Dec-06 22:58N 09°31' W 013°43'76041368668.8
2017-Dec-06 22:58N 24°25' E 117°52'1983891.0
2017-Dec-06 22:55N 25°15' E 121°23'1735555.3
2017-Dec-06 22:53N 24°15' E 118°24'1615223559.9
2017-Dec-06 22:53N 01°28' E 103°43'206883640.2
2017-Dec-06 22:51N 31°59' E 120°26'549170599.9
2017-Dec-06 22:46N 48°56' E 002°15'5620219930.7
2017-Dec-06 22:45N 30°58' E 122°10'451718908.6
2017-Dec-06 22:31N 44°09' E 028°40'1129677413.3
2017-Dec-06 22:30N 48°55' E 002°13'578520825943.8
2017-Dec-06 22:30N 24°16' E 118°19'176211164.2
2017-Dec-06 22:30N 25°10' E 121°23'17656355103.6
2017-Dec-06 22:30N 01°12' E 103°51'1785803415.0
2017-Dec-06 22:30N 25°16' E 121°50'210188771.6
2017-Dec-06 22:30N 24°21' E 118°06'474426468.2
2017-Dec-06 22:30N 31°59' E 120°26'2084833783.6
2017-Dec-06 22:30N 01°10' E 103°42'1775709811.2
2017-Dec-06 22:30N 25°14' E 121°21'16122318.7
2017-Dec-06 22:29N 24°40' E 118°27'253914.6
2017-Dec-06 22:29N 24°16' E 118°21'19517132.7
2017-Dec-06 22:28N 25°09' E 121°47'78177035721.7
2017-Dec-06 22:28N 09°31' W 013°43'7757997311.1
2017-Dec-06 22:28N 22°42' E 120°09'16528265.0
2017-Dec-06 22:27N 25°14' E 121°20'17583164703.3
2017-Dec-06 22:27N 01°28' E 103°43'10711277414.0
2017-Dec-06 22:25N 10°17' W 075°31'111713351298.2
2017-Dec-06 22:25N 30°56' E 122°10'4539269.1
2017-Dec-06 22:22N 24°25' E 117°52'3137786.7
2017-Dec-06 22:22N 23°60' E 118°12'186526.0
2017-Dec-06 22:01N 25°14' E 121°19'47092119227.6
2017-Dec-06 22:00N 44°09' E 028°40'45878257064.2
2017-Dec-06 22:00N 24°25' E 118°04'182218222.9
2017-Dec-06 22:00N 25°13' E 121°17'2825131.4
2017-Dec-06 22:00N 25°12' E 121°48'248490.1
2017-Dec-06 22:00N 25°09' E 121°22'2522849.0
2017-Dec-06 22:00N 25°16' E 121°49'21244842.0
2017-Dec-06 22:00N 23°60' E 118°12'18535007.3
2017-Dec-06 22:00N 25°13' E 121°19'7789354957.7
2017-Dec-06 21:58N 09°31' W 013°43'76041440705.1
2017-Dec-06 21:58N 24°25' E 117°52'19417487.9
2017-Dec-06 21:57N 25°14' E 121°19'407209476.9
2017-Dec-06 21:57N 31°59' E 120°26'2083833053.5
2017-Dec-06 21:57N 01°10' E 103°46'162797639.7
2017-Dec-06 21:56N 24°17' E 118°18'11136728911.3
2017-Dec-06 21:55N 10°17' W 075°31'11135852870.4
2017-Dec-06 21:54N 24°40' E 118°27'163795073.4
2017-Dec-06 21:53N 01°28' E 103°43'161116061.4
2017-Dec-06 21:47N 24°15' E 118°16'4516319.0
2017-Dec-06 21:43N 30°55' E 122°11'3264.2
2017-Dec-06 21:42N 30°53' E 122°09'4983770.1
2017-Dec-06 21:34N 22°46' E 120°08'89942588.5
2017-Dec-06 21:33N 37°43' E 121°17'82018813.8
2017-Dec-06 21:30N 24°17' E 118°19'46053315654.7
2017-Dec-06 21:30N 44°09' E 028°40'47324258361.0
2017-Dec-06 21:30N 25°16' E 121°49'202103986.6
2017-Dec-06 21:30N 24°15' E 118°16'174624625.9
2017-Dec-06 21:30N 25°12' E 121°17'3689.1
2017-Dec-06 21:30N 25°13' E 121°14'17891320.6
2017-Dec-06 21:30N 24°30' E 118°04'185111042.0
2017-Dec-06 21:30N 25°10' E 121°23'7794318861.7
2017-Dec-06 21:28N 09°31' W 013°43'7604364978.3
2017-Dec-06 21:27N 24°25' E 117°52'22017966.4
2017-Dec-06 21:26N 25°14' E 121°48'3423318.3
2017-Dec-06 21:20N 30°56' E 122°11'206322507.7
2017-Dec-06 21:15N 01°28' E 103°43'107111243904.6
2017-Dec-06 21:14N 10°15' W 075°31'112793383792.4
2017-Dec-06 21:14N 22°47' E 120°08'50421596.1
2017-Dec-06 21:12N 30°59' E 122°10'427153578.9
2017-Dec-06 21:12N 24°40' E 118°27'78480589.0
2017-Dec-06 21:12N 37°38' E 120°18'3398092.9
2017-Dec-06 21:09N 31°59' E 120°26'114.8
2017-Dec-06 21:07N 31°58' E 120°26'4899508.6
2017-Dec-06 21:04N 24°04' E 118°12'45511967.9
2017-Dec-06 21:01N 30°49' E 122°07'44236172.5
2017-Dec-06 21:01N 24°17' E 118°17'460416574052.0
2017-Dec-06 21:00N 44°09' E 028°40'47052419682.3
2017-Dec-06 21:00N 25°12' E 121°11'17511050782.9
2017-Dec-06 21:00N 01°28' E 103°43'17571054148.2
2017-Dec-06 21:00N 25°10' E 121°24'184132525.3
2017-Dec-06 21:00N 24°32' E 118°05'207745870.7
2017-Dec-06 21:00N 25°17' E 121°48'3222783.0
2017-Dec-06 21:00N 25°11' E 121°14'15670121.0
2017-Dec-06 21:00N 22°46' E 120°09'13415057.3
2017-Dec-06 20:59N 24°05' E 118°11'14865.1
2017-Dec-06 20:58N 24°17' E 118°18'19889144.9
2017-Dec-06 20:58N 25°15' E 121°47'78169379095.1
2017-Dec-06 20:58N 09°31' W 013°43'7634473835.2
2017-Dec-06 20:57N 24°40' E 118°27'42714104.6
2017-Dec-06 20:55N 31°01' E 122°07'124407.4
2017-Dec-06 20:55N 30°48' E 122°07'11532.7
2017-Dec-06 20:54N 30°58' E 122°10'4558807.4
2017-Dec-06 20:51N 24°25' E 117°52'4744899.9
2017-Dec-06 20:45N 31°59' E 120°26'  
2017-Dec-04 10:31N 44°09' E 028°40'43963956610.6
2017-Dec-04 10:30N 31°58' E 120°26'483262.9
2017-Dec-04 10:30N 31°36' E 121°16'3145.7
2017-Dec-04 10:28N 31°34' E 121°18'385154024.5
2017-Dec-04 10:28N 25°09' E 121°22'3515715.9
2017-Dec-04 10:25N 30°57' E 122°10'5620033.3
2017-Dec-04 10:24N 31°32' E 121°20'36124544.7
2017-Dec-04 10:24N 37°33' E 121°23'81234371.3
2017-Dec-04 10:22N 24°19' E 118°07'4553014.3
2017-Dec-04 10:13N 31°01' E 122°07'15541.6
2017-Dec-04 10:11N 30°47' E 122°06'13468.1
2017-Dec-04 10:10N 30°59' E 122°10'572835.4
2017-Dec-04 10:09N 31°38' E 121°22'9211.3
2017-Dec-04 10:06N 31°41' E 121°12'444347748.2
2017-Dec-04 10:00N 44°09' E 028°40'44758054859.4
2017-Dec-04 10:00N 31°14' E 121°30'36448568.6
2017-Dec-04 10:00N 25°10' E 121°23'382458842.4
2017-Dec-04 10:00N 31°32' E 121°20'53615.1
2017-Dec-04 10:00N 31°36' E 121°16'35725213.2
2017-Dec-04 09:59N 37°33' E 121°23'35518279.6
2017-Dec-04 09:58N 31°38' E 121°15'13307.1
2017-Dec-04 09:55N 31°29' E 121°25'46492719.5
2017-Dec-04 09:55N 24°19' E 118°07'47118847.1
2017-Dec-04 09:54N 31°38' E 121°22'584060.9
2017-Dec-04 09:53N 30°58' E 122°10'723785.6
2017-Dec-04 09:52N 31°44' E 121°06'361399.5
2017-Dec-04 09:50N 31°59' E 120°27'1052942.3
2017-Dec-04 09:48N 31°00' E 122°09'1051730.4
2017-Dec-04 09:44N 31°58' E 120°26'551489.8
2017-Dec-04 09:42N 31°30' E 121°22'1410099.7
2017-Dec-04 09:42N 31°41' E 121°12'20309.1
2017-Dec-04 09:38N 31°27' E 121°28'206954355.9
2017-Dec-04 09:36N 01°27' E 103°44'2068531694.3
2017-Dec-04 09:36N 31°59' E 120°27'10019980.0
2017-Dec-04 09:35N 31°03' E 122°04'311828.0
2017-Dec-04 09:34N 31°14' E 121°29'447470034.0
2017-Dec-04 09:30N 44°09' E 028°40'44555346070.6
2017-Dec-04 09:30N 31°32' E 121°20'5412058.8
2017-Dec-04 09:30N 30°60' E 122°10'5870015.9
2017-Dec-04 09:30N 31°36' E 121°16'89659.7
2017-Dec-04 09:30N 31°30' E 121°22'173451.6
2017-Dec-04 09:30N 31°14' E 121°30'394354.0
2017-Dec-04 09:29N 30°57' E 122°10'5524763.6
2017-Dec-04 09:29N 31°38' E 121°27'356127985.2
2017-Dec-04 09:29N 37°33' E 121°23'744133928.6
2017-Dec-04 09:29N 25°09' E 121°23'387115967.9
2017-Dec-04 09:28N 31°36' E 121°27'151458.8
2017-Dec-04 09:28N 31°41' E 121°10'19988.1
2017-Dec-04 09:27N 31°28' E 121°27'2115.1
2017-Dec-04 09:26N 31°29' E 121°24'46469563.1
2017-Dec-04 09:25N 24°19' E 118°07'47534197.7
2017-Dec-04 09:24N 31°58' E 120°26'015.0
2017-Dec-04 09:23N 31°58' E 120°26'4959020.9
2017-Dec-04 09:23N 31°37' E 121°18'375.3
2017-Dec-04 09:20N 31°38' E 121°22'9109.5
2017-Dec-04 09:16N 31°29' E 121°24'39902.6
2017-Dec-04 09:13N 31°05' E 121°60'543107.3
2017-Dec-04 09:12N 31°41' E 121°12'25355.7
2017-Dec-04 09:08N 31°16' E 121°03'445237361.4
2017-Dec-04 09:00N 44°09' E 028°40'44592293094.6
2017-Dec-04 09:00N 31°30' E 121°23'1103.6
2017-Dec-04 09:00N 31°30' E 121°22'5613432.1
2017-Dec-04 09:00N 30°52' E 122°10'6211781.9
2017-Dec-04 08:59N 31°38' E 121°22'5110293.2
2017-Dec-04 08:59N 31°58' E 120°26'33886935.6
2017-Dec-04 08:59N 37°33' E 121°23'35840218.9
2017-Dec-04 08:58N 31°36' E 121°27'93935.8
2017-Dec-04 08:58N 31°36' E 121°16'387116007.6
2017-Dec-04 08:58N 25°09' E 121°24'38922239.3
2017-Dec-04 08:57N 31°39' E 121°26'9837.4
2017-Dec-04 08:56N 31°30' E 121°23'4507.2
2017-Dec-04 08:56N 31°32' E 121°20'2071372817.6
2017-Dec-04 08:56N 01°26' E 103°41'20751067026.0
2017-Dec-04 08:55N 31°37' E 121°18'252108.9
2017-Dec-04 08:55N 31°14' E 121°30'231209.4
2017-Dec-04 08:54N 31°16' E 121°03'521268.0
2017-Dec-04 08:51N 31°58' E 120°26'1081018.9
2017-Dec-04 08:45N 30°57' E 122°10'32075.2
2017-Dec-04 08:45N 30°54' E 122°10'6816380.3
2017-Dec-04 08:44N 31°41' E 121°12'223.0
2017-Dec-04 08:39N 31°40' E 121°14'143713.2
2017-Dec-04 08:39N 31°29' E 121°25'446130590.2
2017-Dec-04 08:30N 44°09' E 028°40'47161414687.9
2017-Dec-04 08:30N 25°10' E 121°23'383172471.3
2017-Dec-04 08:30N 31°33' E 121°19'42500.8
2017-Dec-04 08:30N 31°36' E 121°16'54772.2
2017-Dec-04 08:30N 31°38' E 121°22'828426.2
2017-Dec-04 08:30N 31°30' E 121°22'147235.6
2017-Dec-04 08:30N 31°41' E 121°12'434043.8
2017-Dec-04 08:29N 31°58' E 120°26'4959020.9
2017-Dec-04 08:29N 31°37' E 121°18'2077439936.2
2017-Dec-04 08:29N 01°24' E 103°39'2078831299.3
2017-Dec-04 08:29N 31°40' E 121°14'35374795.4
2017-Dec-04 08:28N 37°33' E 121°23'358429001.5
2017-Dec-04 08:28N 31°36' E 121°27'22895.5
2017-Dec-04 08:27N 31°14' E 121°30'66523460.9
2017-Dec-04 08:25N 22°19' E 114°08'25190223.8
2017-Dec-04 08:25N 24°19' E 118°07'24923612.9
2017-Dec-04 08:24N 22°19' E 114°09'21912150.6
2017-Dec-04 08:23N 21°11' E 110°25'8616510.3
2017-Dec-04 08:15N 30°54' E 122°10'57229.6
2017-Dec-04 08:01N 31°36' E 121°24'8571028856.0
2017-Dec-04 08:00N 21°14' E 110°25'852613663.9
2017-Dec-04 08:00N 31°36' E 121°16'387139298.6
2017-Dec-04 08:00N 25°09' E 121°22'431129329.2
2017-Dec-04 08:00N 22°18' E 114°09'673302876.4
2017-Dec-04 08:00N 31°30' E 121°22'565141.8
2017-Dec-04 07:59N 31°58' E 120°26'455528.0
2017-Dec-04 07:59N 31°40' E 121°14'101915.6
2017-Dec-04 07:58N 31°32' E 121°20'3611300868.2
2017-Dec-04 07:58N 37°33' E 121°23'40290501.0
2017-Dec-04 07:58N 30°53' E 122°09'448268870.5
2017-Dec-04 07:58N 24°19' E 118°07'1618215679.5
2017-Dec-04 07:58N 01°21' E 103°38'2079831694.3
2017-Dec-04 07:57N 31°36' E 121°17'20749574.2
2017-Dec-04 07:44N 01°15' E 104°02'1378.6
2017-Dec-04 07:35N 01°10' E 103°50'2088375859.6
2017-Dec-04 07:34N 31°36' E 121°27'120.4
2017-Dec-04 07:31N 31°35' E 121°28'44598027046.3
2017-Dec-04 07:30N 44°09' E 028°40'48792195540.2
2017-Dec-04 07:30N 01°19' E 103°37'12584529596.4
2017-Dec-04 07:30N 21°12' E 110°25'853219328.4
2017-Dec-04 07:30N 31°32' E 121°20'71568.1
2017-Dec-04 07:30N 31°28' E 121°26'41788.4
2017-Dec-04 07:30N 31°30' E 121°22'2082394478.7
2017-Dec-04 07:29N 01°10' E 103°49'14071012889.2
2017-Dec-04 07:29N 22°18' E 114°10'66474706.9
2017-Dec-04 07:29N 31°14' E 121°30'38052546.8
2017-Dec-04 07:28N 37°33' E 121°23'74434786.1
2017-Dec-04 07:27N 25°09' E 121°23'176084465.4
2017-Dec-04 07:26N 01°14' E 103°58'2075133372.2
2017-Dec-04 07:25N 31°29' E 121°25'582203.3
2017-Dec-04 07:23N 31°58' E 120°26'484961.3
2017-Dec-04 07:23N 31°36' E 121°16'5147.6
2017-Dec-04 07:21N 31°31' E 121°19'598154.2
2017-Dec-04 07:20N 30°50' E 122°08'44525421.9
2017-Dec-04 07:19N 24°19' E 118°07'47158419.7
2017-Dec-04 07:19N 31°40' E 121°14'137.9
2017-Dec-04 07:16N 31°39' E 121°13'6759882.0
2017-Dec-04 07:12N 22°19' E 114°09'663159118.6
2017-Dec-04 07:12N 30°47' E 122°06'59456.1
2017-Dec-04 07:04N 31°36' E 121°27'445868878.8
2017-Dec-04 07:00N 44°09' E 028°40'48973526002.2
2017-Dec-04 07:00N 01°12' E 103°53'14035052058.9
2017-Dec-04 07:00N 22°19' E 114°09'21937607.7
2017-Dec-04 07:00N 21°11' E 110°25'854236590.8
2017-Dec-04 07:00N 31°30' E 121°22'5715663.3
2017-Dec-04 07:00N 30°48' E 122°07'6030683.0
2017-Dec-04 06:59N 31°32' E 121°20'5315795.8
2017-Dec-04 06:59N 31°58' E 120°26'2087500902.5
2017-Dec-04 06:59N 01°06' E 103°44'2078207779.8
2017-Dec-04 06:58N 31°13' E 121°30'2327082.1
2017-Dec-04 06:58N 31°36' E 121°27'358128702.6
2017-Dec-04 06:58N 37°33' E 121°23'812265596.3
2017-Dec-04 06:58N 24°19' E 118°07'47194121.7
2017-Dec-04 06:58N 31°40' E 121°14'5966.7
2017-Dec-04 06:57N 31°36' E 121°16'7264.6
2017-Dec-04 06:56N 31°31' E 121°21'4107.4
2017-Dec-04 06:54N 31°29' E 121°25'58884.2
2017-Dec-04 06:50N 31°58' E 120°26'6698926.4
2017-Dec-04 06:45N 22°19' E 114°10'448618228.2
2017-Dec-04 06:30N 44°09' E 028°40'4353979323.4
2017-Dec-04 06:30N 21°11' E 110°25'8551538789.7
2017-Dec-04 06:30N 31°33' E 121°19'20851072190.8
2017-Dec-04 06:30N 01°09' E 103°47'930695.6
2017-Dec-04 06:30N 01°08' E 103°39'20931255917.6
2017-Dec-04 06:30N 31°40' E 121°14'2089103028.7
2017-Dec-04 06:29N 01°14' E 103°36'2401864275.2
2017-Dec-04 06:29N 37°33' E 121°23'81291297.4
2017-Dec-04 06:28N 24°19' E 118°07'24919089.8
2017-Dec-04 06:27N 22°19' E 114°10'673346118.9
2017-Dec-04 06:27N 31°32' E 121°20'7235.9
2017-Dec-04 06:25N 31°36' E 121°27'3013624.7
2017-Dec-04 06:25N 31°09' E 121°11'2316776.6
2017-Dec-04 06:25N 31°30' E 121°22'18667.4
2017-Dec-04 06:24N 31°13' E 121°30'7123192.7
2017-Dec-04 06:23N 31°59' E 120°26'585390.9
2017-Dec-04 06:23N 31°29' E 121°25'018.6
2017-Dec-04 06:21N 31°29' E 121°25'67414179.0
2017-Dec-04 06:18N 22°19' E 114°09'448515063.2
2017-Dec-04 06:00N 44°09' E 028°40'488517585862.0
2017-Dec-04 06:00N 01°12' E 103°38'20881503103.2
2017-Dec-04 06:00N 31°36' E 121°16'1344.3
2017-Dec-04 06:00N 31°35' E 121°17'2748675.5
2017-Dec-04 06:00N 31°09' E 121°09'832187236.1
2017-Dec-04 06:00N 21°11' E 110°25'1269120175.2
2017-Dec-04 05:59N 01°06' E 103°42'20901253856.7
2017-Dec-04 05:59N 31°29' E 121°26'36437443.7
2017-Dec-04 05:59N 37°33' E 121°24'41118750.1
2017-Dec-04 05:57N 30°43' E 121°57'2063353598.0
2017-Dec-04 05:57N 01°12' E 103°36'2090501564.1
2017-Dec-04 05:57N 31°40' E 121°12'142767.5
2017-Dec-04 05:56N 31°30' E 121°22'4646444.9
2017-Dec-04 05:52N 24°19' E 118°07'4649548.5
2017-Dec-04 05:49N 31°31' E 121°19'67252603.3
2017-Dec-04 05:48N 22°19' E 114°09'66940156.2
2017-Dec-04 05:47N 31°59' E 120°26'67032578.2
2017-Dec-04 05:46N 22°19' E 114°10'6783422.6
2017-Dec-04 05:34N 31°41' E 121°15'444671453.0
2017-Dec-04 05:31N 44°09' E 028°40'43532238448.9
2017-Dec-04 05:30N 21°11' E 110°25'856385210.5
2017-Dec-04 05:30N 31°29' E 121°26'2313705.2
2017-Dec-04 05:30N 31°11' E 121°09'275988.2
2017-Dec-04 05:30N 31°37' E 121°16'61161.9
2017-Dec-04 05:30N 31°32' E 121°20'3631.3
2017-Dec-04 05:29N 31°30' E 121°22'20811872777.4
2017-Dec-04 05:29N 01°17' E 103°37'20863754351.5
2017-Dec-04 05:29N 31°40' E 121°14'20907523209.5
2017-Dec-04 05:29N 01°11' E 103°40'2088357988.3
2017-Dec-04 05:29N 31°37' E 121°17'35698711.0
2017-Dec-04 05:29N 37°33' E 121°24'989111250.0
2017-Dec-04 05:28N 22°19' E 114°10'67854200.8
2017-Dec-04 05:27N 31°40' E 121°16'9238.3
2017-Dec-04 05:25N 31°31' E 121°19'464334201.5
2017-Dec-04 05:25N 24°19' E 118°07'24921885.7
2017-Dec-04 05:24N 22°19' E 114°09'67531131.4
2017-Dec-04 05:23N 31°36' E 121°16'10324.7
2017-Dec-04 05:21N 31°29' E 121°25'0 5.6
2017-Dec-04 05:18N 31°29' E 121°25'4592443.0
2017-Dec-04 05:07N 24°26' E 118°02'458541265.3
2017-Dec-04 05:00N 44°09' E 028°40'44502288453.5
2017-Dec-04 05:00N 31°36' E 121°16'20877514373.0
2017-Dec-04 05:00N 01°10' E 103°43'1629418813.5
2017-Dec-04 05:00N 24°26' E 118°03'439526686.1
2017-Dec-04 05:00N 31°13' E 121°09'835300424.1
2017-Dec-04 05:00N 21°11' E 110°25'854118273.1
2017-Dec-04 04:59N 31°32' E 121°20'20851876338.5
2017-Dec-04 04:59N 01°14' E 103°36'20853753610.0
2017-Dec-04 04:59N 31°29' E 121°26'10915.1
2017-Dec-04 04:59N 31°38' E 121°20'355212905.8
2017-Dec-04 04:59N 37°33' E 121°24'2391614948.9
2017-Dec-04 04:58N 01°23' E 103°39'2065743479.9
2017-Dec-04 04:58N 31°14' E 121°29'452162622.8
2017-Dec-04 04:58N 24°19' E 118°07'4645716.5
2017-Dec-04 04:53N 31°30' E 121°22'67331454.3
2017-Dec-04 04:52N 22°19' E 114°10'67655314.4
2017-Dec-04 04:51N 31°39' E 121°14'020.2
2017-Dec-04 04:50N 31°39' E 121°13'232.4
2017-Dec-04 04:46N 31°38' E 121°16'122793.9
2017-Dec-04 04:46N 31°29' E 121°25'8543.7
2017-Dec-04 04:45N 31°22' E 121°30'24169.5
2017-Dec-04 04:36N 31°16' E 121°03'445247560.9
2017-Dec-04 04:31N 44°09' E 028°40'445016019288.5
2017-Dec-04 04:30N 31°37' E 121°17'59563.6
2017-Dec-04 04:30N 31°32' E 121°20'20803743507.2
2017-Dec-04 04:30N 01°19' E 103°37'2059411714.9
2017-Dec-04 04:30N 31°16' E 121°03'2442750.0
2017-Dec-04 04:30N 31°37' E 121°17'20877514634.7
2017-Dec-04 04:30N 01°09' E 103°45'16285860438.2
2017-Dec-04 04:30N 24°24' E 118°06'46087189.5
2017-Dec-04 04:30N 31°29' E 121°26'674110287.6
2017-Dec-04 04:29N 22°19' E 114°10'67539825.3
2017-Dec-04 04:28N 31°36' E 121°16'46884167.7
2017-Dec-04 04:28N 24°19' E 118°07'47024511.2
2017-Dec-04 04:27N 31°40' E 121°12'1315696.5
2017-Dec-04 04:27N 31°36' E 121°26'35717872.0
2017-Dec-04 04:26N 37°33' E 121°24'98846211.6
2017-Dec-04 04:24N 22°19' E 114°09'6645826.7
2017-Dec-04 04:18N 31°13' E 121°30'33817.8
2017-Dec-04 04:15N 31°41' E 121°10'01558.7
2017-Dec-04 04:15N 31°42' E 121°10'13203.7
2017-Dec-04 04:11N 31°31' E 121°19'543.9
2017-Dec-04 04:05N 31°29' E 121°24'9244.4
2017-Dec-04 04:03N 31°36' E 121°18'231188.7
2017-Dec-04 04:01N 31°16' E 121°03'4453281223.2
2017-Dec-04 04:00N 44°09' E 028°40'48948809873.2
2017-Dec-04 04:00N 01°11' E 103°48'1407844054.1
2017-Dec-04 04:00N 22°19' E 114°09'219157954.9
2017-Dec-04 04:00N 21°11' E 110°25'1139819849.6
2017-Dec-04 04:00N 37°34' E 121°25'36286876.7
2017-Dec-04 04:00N 31°32' E 121°20'1214602.7
2017-Dec-04 04:00N 31°41' E 121°10'7693.3
2017-Dec-04 03:59N 31°36' E 121°16'56401.7
2017-Dec-04 03:59N 31°31' E 121°19'6372.8
2017-Dec-04 03:58N 31°29' E 121°26'1611369.6
2017-Dec-04 03:58N 31°40' E 121°12'104598.0
2017-Dec-04 03:58N 31°33' E 121°21'466839202.0
2017-Dec-04 03:58N 24°19' E 118°07'47051259.0
2017-Dec-04 03:57N 31°40' E 121°13'14340.3
2017-Dec-04 03:55N 31°30' E 121°23'794.8
2017-Dec-04 03:51N 31°36' E 121°27'6739.1
2017-Dec-04 03:50N 31°33' E 121°20'223055.8
2017-Dec-04 03:50N 31°16' E 121°04'36717874.0
2017-Dec-04 03:49N 25°09' E 121°23'38510923.0
2017-Dec-04 03:47N 31°35' E 121°19'330.6
2017-Dec-04 03:42N 31°37' E 121°17'46315576.0
2017-Dec-04 03:40N 24°26' E 118°05'4613739.5
2017-Dec-04 03:32N 31°34' E 121°20'4454140644.5
2017-Dec-04 03:31N 44°09' E 028°40'47165658745.6
2017-Dec-04 03:30N 25°09' E 121°23'3871392039.4
2017-Dec-04 03:30N 31°36' E 121°16'8553078509.9
2017-Dec-04 03:30N 21°11' E 110°25'85683288.8
2017-Dec-04 03:30N 31°29' E 121°26'366164905.6
2017-Dec-04 03:30N 37°36' E 121°25'2399719610.5
2017-Dec-04 03:29N 01°12' E 103°52'20821873600.9
2017-Dec-04 03:29N 31°37' E 121°17'71397.9
2017-Dec-04 03:29N 31°32' E 121°22'217591.7
2017-Dec-04 03:29N 31°17' E 121°05'203535.1
2017-Dec-04 03:29N 31°30' E 121°22'31269.2
2017-Dec-04 03:28N 31°32' E 121°20'46557701.6
2017-Dec-04 03:28N 24°19' E 118°07'47123863.7
2017-Dec-04 03:27N 31°36' E 121°27'2076533742.9
2017-Dec-04 03:27N 01°28' E 103°44'2072573796.9
2017-Dec-04 03:26N 31°37' E 121°16'22547.4
2017-Dec-04 03:24N 31°17' E 121°09'202402.7
2017-Dec-04 03:23N 31°35' E 121°19'332.6
2017-Dec-04 03:19N 31°33' E 121°21'21935.8
2017-Dec-04 03:18N 31°14' E 121°30'33238.2
2017-Dec-04 03:09N 31°42' E 121°09'13207.3
2017-Dec-04 03:05N 31°31' E 121°19'124.6
2017-Dec-04 03:03N 31°32' E 121°20'85223970.5
2017-Dec-04 03:01N 21°14' E 110°26'435215665448.2
2017-Dec-04 03:00N 44°09' E 028°40'48798782514.5
2017-Dec-04 03:00N 01°27' E 103°45'20507380329.3
2017-Dec-04 03:00N 31°17' E 121°07'4661.9
2017-Dec-04 03:00N 31°16' E 121°03'2316420.1
2017-Dec-04 03:00N 31°35' E 121°19'3636.6
2017-Dec-04 03:00N 31°32' E 121°20'20761868297.2
2017-Dec-04 03:00N 01°14' E 103°55'20767474777.1
2017-Dec-04 03:00N 31°29' E 121°26'366329816.6
2017-Dec-04 03:00N 37°36' E 121°25'382344060.0
2017-Dec-04 03:00N 31°13' E 121°30'364131130.0
2017-Dec-04 02:59N 25°09' E 121°23'382105840.0
2017-Dec-04 02:59N 31°31' E 121°19'194761.6
2017-Dec-04 02:59N 31°17' E 121°06'2514847.3
2017-Dec-04 02:59N 31°41' E 121°11'116430.1
2017-Dec-04 02:59N 31°33' E 121°20'46637258.6
2017-Dec-04 02:58N 24°19' E 118°07'47114734.9
2017-Dec-04 02:56N 31°36' E 121°27'712028.9
2017-Dec-04 02:56N 31°33' E 121°20'271.3
2017-Dec-04 02:54N 31°32' E 121°22'767.0
2017-Dec-04 02:48N 31°36' E 121°16'252887.3
2017-Dec-04 02:48N 31°16' E 121°34'17225.3
2017-Dec-04 02:43N 31°30' E 121°22'55337.0
2017-Dec-04 02:34N 31°59' E 120°27'439787932.7
2017-Dec-04 02:31N 44°09' E 028°40'446116058776.7
2017-Dec-04 02:30N 31°29' E 121°25'8543073872.4
2017-Dec-04 02:30N 21°13' E 110°26'853768013.5
2017-Dec-04 02:30N 31°27' E 121°26'123690.8
2017-Dec-04 02:30N 31°36' E 121°16'52310.2
2017-Dec-04 02:30N 31°32' E 121°19'198601.4
2017-Dec-04 02:30N 31°17' E 121°05'1969643.7
2017-Dec-04 02:30N 31°32' E 121°20'33792.8
2017-Dec-04 02:30N 31°30' E 121°22'5511674.3
2017-Dec-04 02:30N 31°59' E 120°27'3401225600.6
2017-Dec-04 02:30N 37°36' E 121°25'36457022.5
2017-Dec-04 02:29N 31°31' E 121°19'84650.1
2017-Dec-04 02:29N 31°36' E 121°27'259997.2
2017-Dec-04 02:29N 31°17' E 121°08'44728225.0
2017-Dec-04 02:28N 24°19' E 118°07'4647360.8
2017-Dec-04 02:24N 31°29' E 121°25'15522.9
2017-Dec-04 02:22N 31°15' E 121°31'206032099.8
2017-Dec-04 02:19N 01°27' E 103°45'2048387977.1
2017-Dec-04 02:18N 31°16' E 121°03'204840502.3
2017-Dec-04 02:15N 01°27' E 103°45'206914187.2
2017-Dec-04 02:06N 31°31' E 121°22'45917214.2
2017-Dec-04 02:05N 24°26' E 118°05'25211959.5
2017-Dec-04 02:04N 22°18' E 114°08'448585882.3
2017-Dec-04 02:00N 44°09' E 028°40'44534007377.7
2017-Dec-04 02:00N 31°16' E 121°03'239122.8
2017-Dec-04 02:00N 31°36' E 121°16'8553078391.8
2017-Dec-04 02:00N 21°11' E 110°25'833272615.0
2017-Dec-04 02:00N 31°16' E 121°03'2215793.6
2017-Dec-04 02:00N 31°31' E 121°22'1190.7
2017-Dec-04 02:00N 31°30' E 121°22'3737.8
2017-Dec-04 01:59N 31°32' E 121°20'364218275.0
2017-Dec-04 01:59N 37°36' E 121°25'364327591.2
2017-Dec-04 01:59N 31°32' E 121°20'0179.3
2017-Dec-04 01:59N 31°31' E 121°19'460103474.0
2017-Dec-04 01:59N 24°26' E 118°02'460110408.3
2017-Dec-04 01:59N 31°29' E 121°26'46441780.0
2017-Dec-04 01:58N 24°19' E 118°07'46436325.7
2017-Dec-04 01:57N 31°29' E 121°25'206994290.0
2017-Dec-04 01:56N 01°27' E 103°45'1756486276.7
2017-Dec-04 01:56N 25°09' E 121°23'38753545.3
2017-Dec-04 01:55N 31°36' E 121°27'68115045.9
2017-Dec-04 01:53N 22°18' E 114°08'67518829.6
2017-Dec-04 01:50N 31°28' E 121°26'85485.2
2017-Dec-04 01:50N 31°31' E 121°18'206759539.0
2017-Dec-04 01:48N 01°27' E 103°44'206920298.3
2017-Dec-04 01:42N 31°32' E 121°20'270.2
2017-Dec-04 01:40N 31°31' E 121°18'445427317.2
2017-Dec-04 01:30N 44°09' E 028°40'48793513004.5
2017-Dec-04 01:30N 01°27' E 103°45'2069413753.5
2017-Dec-04 01:30N 31°32' E 121°20'51066.5
2017-Dec-04 01:30N 31°36' E 121°16'5876.2
2017-Dec-04 01:29N 31°32' E 121°20'364261847.4
2017-Dec-04 01:29N 37°36' E 121°25'364100892.6
2017-Dec-04 01:29N 31°31' E 121°19'214753.9
2017-Dec-04 01:29N 31°17' E 121°01'224995.7
2017-Dec-04 01:29N 31°33' E 121°19'1135.4
2017-Dec-04 01:28N 31°32' E 121°20'465334473.4
2017-Dec-04 01:28N 24°19' E 118°07'46453911.0
2017-Dec-04 01:27N 31°29' E 121°26'67530389.1
2017-Dec-04 01:26N 22°18' E 114°08'681613118.7
2017-Dec-04 01:26N 31°36' E 121°27'28338.9
2017-Dec-04 01:21N 31°16' E 121°03'18944.2
2017-Dec-04 01:20N 31°30' E 121°17'5116.4
2017-Dec-04 01:17N 31°30' E 121°22'41320.1
2017-Dec-04 01:17N 31°28' E 121°26'446315985.4
2017-Dec-04 01:00N 44°09' E 028°40'445016019167.5
2017-Dec-04 01:00N 31°36' E 121°16'232567.4
2017-Dec-04 01:00N 31°18' E 120°60'2220230.4
2017-Dec-04 01:00N 31°34' E 121°19'46379367.7
2017-Dec-04 01:00N 24°25' E 118°01'461829785.0
2017-Dec-04 00:59N 31°29' E 121°26'366219877.7
2017-Dec-04 00:59N 37°36' E 121°25'36493686.0
2017-Dec-04 00:59N 31°31' E 121°19'62878.2
2017-Dec-04 00:59N 31°30' E 121°26'84643.3
2017-Dec-04 00:59N 31°30' E 121°17'46228703.1
2017-Dec-04 00:58N 24°19' E 118°07'46516724.3
2017-Dec-04 00:56N 31°32' E 121°20'2069173194.6
2017-Dec-04 00:56N 01°27' E 103°44'204887766.7
2017-Dec-04 00:54N 31°17' E 121°02'65390468.0
2017-Dec-04 00:54N 22°18' E 114°08'68114094.7
2017-Dec-04 00:51N 31°36' E 121°27'8848.2
2017-Dec-04 00:50N 31°28' E 121°26'23621.0
2017-Dec-04 00:48N 31°16' E 121°03'4416054.4
2017-Dec-04 00:44N 24°26' E 118°02'45978703.4
2017-Dec-04 00:43N 31°31' E 121°18'2072108117.3
2017-Dec-04 00:42N 01°24' E 103°40'207212090.2
2017-Dec-04 00:32N 31°58' E 120°26'4396184033.4
2017-Dec-04 00:30N 44°09' E 028°40'43963165311.3
2017-Dec-04 00:30N 31°58' E 120°26'48173138.2
2017-Dec-04 00:30N 31°36' E 121°16'225054.7
2017-Dec-04 00:30N 31°16' E 121°04'44199315.8
2017-Dec-04 00:30N 24°24' E 118°06'461829459.6
2017-Dec-04 00:30N 31°32' E 121°20'0129.7
2017-Dec-04 00:30N 31°32' E 121°20'205269.3
2017-Dec-04 00:29N 31°13' E 121°30'382196593.4
2017-Dec-04 00:29N 37°36' E 121°25'367132294.2
2017-Dec-04 00:29N 31°28' E 121°26'413191.2
2017-Dec-04 00:29N 31°30' E 121°22'51247.3
2017-Dec-04 00:29N 31°30' E 121°17'66815.6
2017-Dec-04 00:29N 31°36' E 121°16'46762305.4
2017-Dec-04 00:28N 24°19' E 118°09'1617109861.6
2017-Dec-04 00:28N 01°22' E 103°39'2055264203.7
2017-Dec-04 00:27N 31°16' E 121°03'28932.7
2017-Dec-04 00:25N 31°36' E 121°27'302033.5
2017-Dec-04 00:24N 31°19' E 120°57'281174.4
2017-Dec-04 00:23N 31°27' E 121°29'207334866.5
2017-Dec-04 00:19N 01°26' E 103°40'20711490948.6
2017-Dec-04 00:19N 31°31' E 121°18'5210.2
2017-Dec-04 00:18N 31°30' E 121°24'151634.7
2017-Dec-04 00:17N 31°25' E 121°07'66216438.2
2017-Dec-04 00:15N 22°18' E 114°09'24911790.9
2017-Dec-04 00:14N 24°26' E 118°02'42924932.9
2017-Dec-04 00:13N 30°42' E 121°56'54761.8
2017-Dec-04 00:08N 31°29' E 121°26'6113.7
2017-Dec-04 00:05N 31°31' E 121°19'445557693.1
2017-Dec-04 00:01N 44°09' E 028°40'44551603785.5
2017-Dec-04 00:00N 31°17' E 121°06'192044.4
2017-Dec-04 00:00N 31°32' E 121°20'81204.4
2017-Dec-03 23:59N 31°39' E 121°14'154069.1
2017-Dec-03 23:59N 31°28' E 121°26'711892.1
2017-Dec-03 23:59N 31°31' E 121°19'62611.1
2017-Dec-03 23:59N 31°29' E 121°25'367219909.8
2017-Dec-03 23:59N 37°36' E 121°25'3761355192.3
2017-Dec-03 23:59N 31°20' E 120°56'2341902.2
2017-Dec-03 23:59N 31°32' E 121°20'2218.2
2017-Dec-03 23:58N 31°31' E 121°18'133960.5
2017-Dec-03 23:58N 31°25' E 121°32'473704.2
2017-Dec-03 23:57N 30°43' E 121°58'5810903.6
2017-Dec-03 23:57N 31°16' E 121°03'231142.7
2017-Dec-03 23:56N 31°29' E 121°25'460110301.6
2017-Dec-03 23:56N 24°26' E 118°02'46769984.1
2017-Dec-03 23:55N 31°36' E 121°27'7406.7
2017-Dec-03 23:54N 31°32' E 121°20'211583.2
2017-Dec-03 23:53N 31°13' E 121°30'206655090.8
2017-Dec-03 23:51N 01°22' E 103°38'5107.5
2017-Dec-03 23:48N 01°17' E 103°36'208239657.8
2017-Dec-03 23:45N 31°29' E 121°25'325.8
2017-Dec-03 23:39N 31°30' E 121°22'36010547.6
2017-Dec-03 23:37N 37°27' E 122°17'427137407.4
2017-Dec-03 23:30N 44°09' E 028°40'44518011929.2
2017-Dec-03 23:30N 31°35' E 121°17'85768.4
2017-Dec-03 23:30N 31°41' E 121°10'2421759.9
2017-Dec-03 23:30N 31°17' E 121°09'205612.8
2017-Dec-03 23:30N 31°36' E 121°16'51202.6
2017-Dec-03 23:30N 31°32' E 121°20'61455.5
2017-Dec-03 23:30N 31°29' E 121°25'64037.9
2017-Dec-03 23:30N 31°32' E 121°20'2036865.8
2017-Dec-03 23:29N 31°13' E 121°30'212567.0
2017-Dec-03 23:29N 31°30' E 121°17'365219109.0
2017-Dec-03 23:29N 37°36' E 121°25'377452777.5
2017-Dec-03 23:29N 31°19' E 120°54'263274.6
2017-Dec-03 23:28N 31°30' E 121°22'136.5
2017-Dec-03 23:27N 31°30' E 121°22'215126.2
2017-Dec-03 23:27N 31°16' E 121°03'601440.6
2017-Dec-03 23:25N 30°45' E 122°03'532290.0
2017-Dec-03 23:23N 31°28' E 121°26'45947238.3
2017-Dec-03 23:23N 24°26' E 118°02'1888345.1
2017-Dec-03 23:21N 25°09' E 121°23'3801368369.6
2017-Dec-03 23:21N 31°29' E 121°25'763.5
2017-Dec-03 23:15N 31°36' E 121°27'445818639.4
2017-Dec-03 23:00N 44°09' E 028°40'42277608833.5
2017-Dec-03 23:00N 37°35' E 121°25'363261062.2
2017-Dec-03 23:00N 31°32' E 121°20'933012.1
2017-Dec-03 23:00N 31°39' E 121°13'2485291.6
2017-Dec-03 23:00N 31°16' E 121°12'1762420.3
2017-Dec-03 23:00N 31°30' E 121°23'5768028.0
2017-Dec-03 23:00N 30°48' E 122°06'6013417.1
2017-Dec-03 23:00N 31°32' E 121°20'460103560.9
2017-Dec-03 23:00N 24°26' E 118°02'46175423.1
2017-Dec-03 22:59N 31°32' E 121°20'3581.0
2017-Dec-03 22:59N 31°30' E 121°17'1116.0
2017-Dec-03 22:58N 31°31' E 121°18'5359.9
2017-Dec-03 22:58N 31°36' E 121°16'38757998.9
2017-Dec-03 22:57N 25°10' E 121°23'367330586.1
2017-Dec-03 22:57N 31°16' E 121°03'27852.0
2017-Dec-03 22:55N 31°23' E 121°34'10358.4
2017-Dec-03 22:53N 31°13' E 121°30'2074497649.6
2017-Dec-03 22:53N 01°15' E 103°36'5158.9
2017-Dec-03 22:51N 01°11' E 103°39'2092209246.1
2017-Dec-03 22:51N 31°36' E 121°27'71907.8
2017-Dec-03 22:51N 31°29' E 121°26'172.7
2017-Dec-03 22:50N 31°28' E 121°26'8121.8
2017-Dec-03 22:46N 31°33' E 121°19'691396.8
2017-Dec-03 22:43N 30°43' E 122°14'623324.4
2017-Dec-03 22:42N 31°29' E 121°25'0157.5
2017-Dec-03 22:42N 31°29' E 121°26'59631.7
2017-Dec-03 22:37N 31°58' E 120°26'012.6
2017-Dec-03 22:36N 31°59' E 120°26'439649923.8
2017-Dec-03 22:30N 44°09' E 028°40'44601337956.4
2017-Dec-03 22:30N 31°30' E 121°24'38176112.3
2017-Dec-03 22:30N 25°09' E 121°21'387696916.8
2017-Dec-03 22:30N 31°36' E 121°16'21856.7
2017-Dec-03 22:30N 31°35' E 121°18'61219517.5
2017-Dec-03 22:30N 30°52' E 122°08'58104478.6
2017-Dec-03 22:30N 31°32' E 121°20'5347600.2
2017-Dec-03 22:30N 31°59' E 120°26'470564248.7
2017-Dec-03 22:30N 24°26' E 118°02'4701693023.5
2017-Dec-03 22:30N 31°59' E 120°26'21413.4
2017-Dec-03 22:30N 32°00' E 120°27'7232175.3
2017-Dec-03 22:29N 31°13' E 121°30'152377.6
2017-Dec-03 22:29N 31°28' E 121°26'810079.2
2017-Dec-03 22:29N 31°30' E 121°17'711875.6
2017-Dec-03 22:29N 31°29' E 121°24'365328413.4
2017-Dec-03 22:29N 37°34' E 121°26'36237267.2
2017-Dec-03 22:28N 31°32' E 121°20'21964.0
2017-Dec-03 22:27N 31°16' E 121°03'286777.6
2017-Dec-03 22:27N 31°36' E 121°27'973.1
2017-Dec-03 22:19N 31°31' E 121°18'661856.9
2017-Dec-03 22:17N 30°48' E 122°15'6519429.6
2017-Dec-03 22:17N 31°31' E 121°19'38332840.3
2017-Dec-03 22:16N 25°09' E 121°47'3813857.1
2017-Dec-03 22:10N 31°30' E 121°22'208520677.9
2017-Dec-03 22:04N 01°10' E 103°41'488974894.8
2017-Dec-03 22:01N 44°09' E 028°40'473717054640.0
2017-Dec-03 22:00N 25°09' E 121°50'387347970.5
2017-Dec-03 22:00N 31°35' E 121°18'3827.3
2017-Dec-03 22:00N 31°32' E 121°20'363435358.2
2017-Dec-03 22:00N 37°35' E 121°26'3591293191.5
2017-Dec-03 22:00N 31°36' E 121°16'387126650.8
2017-Dec-03 22:00N 25°09' E 121°21'349251532.0
2017-Dec-03 22:00N 30°56' E 122°10'5720596.6
2017-Dec-03 22:00N 31°31' E 121°17'61079.6
2017-Dec-03 21:59N 31°37' E 121°16'610902.1
2017-Dec-03 21:59N 31°32' E 121°20'2086469246.6
2017-Dec-03 21:59N 01°10' E 103°42'2085214455.1
2017-Dec-03 21:58N 31°30' E 121°22'3118.7
2017-Dec-03 21:57N 31°29' E 121°25'238293.7
2017-Dec-03 21:57N 31°16' E 121°03'19730.7
2017-Dec-03 21:55N 31°31' E 121°18'92491.3
2017-Dec-03 21:55N 31°36' E 121°27'6136491.7
2017-Dec-03 21:55N 30°51' E 122°15'1155161.0
2017-Dec-03 21:54N 31°59' E 120°26'470338545.1
2017-Dec-03 21:54N 24°26' E 118°02'45843398.5
2017-Dec-03 21:53N 31°30' E 121°17'3110244.5
2017-Dec-03 21:53N 31°01' E 121°29'32321.1
2017-Dec-03 21:47N 31°32' E 121°20'986.3
2017-Dec-03 21:41N 31°39' E 121°14'444625856.0
2017-Dec-03 21:30N 44°09' E 028°40'44503203830.1
2017-Dec-03 21:30N 31°36' E 121°16'0113.8
2017-Dec-03 21:30N 31°36' E 121°17'12488.3
2017-Dec-03 21:30N 31°37' E 121°16'478516.2
2017-Dec-03 21:30N 31°58' E 120°26'344247879.3
2017-Dec-03 21:30N 37°39' E 121°28'813975125.8
2017-Dec-03 21:30N 24°26' E 118°02'46097506.5
2017-Dec-03 21:29N 31°32' E 121°20'2113.2
2017-Dec-03 21:28N 31°31' E 121°18'96522.7
2017-Dec-03 21:28N 31°39' E 121°13'14713.8
2017-Dec-03 21:27N 31°29' E 121°25'239213.8
2017-Dec-03 21:27N 31°16' E 121°03'214271.8
2017-Dec-03 21:27N 31°30' E 121°22'5447.8
2017-Dec-03 21:26N 31°30' E 121°17'208091338.5
2017-Dec-03 21:25N 01°10' E 103°47'2079108491.4
2017-Dec-03 21:24N 31°00' E 122°08'531860.4
2017-Dec-03 21:22N 31°31' E 121°17'5916208.6
2017-Dec-03 21:22N 30°57' E 122°13'8487.4
2017-Dec-03 21:21N 31°02' E 122°06'472006.6
2017-Dec-03 21:19N 31°36' E 121°27'23176.2
2017-Dec-03 21:11N 31°13' E 121°30'282004.2
2017-Dec-03 21:11N 31°38' E 121°15'36635.2
2017-Dec-03 21:07N 31°04' E 121°28'448039925.1
2017-Dec-03 21:01N 44°09' E 028°40'45102319435.6
2017-Dec-03 21:00N 31°02' E 122°05'5815982.8
2017-Dec-03 21:00N 31°39' E 121°13'448395.7
2017-Dec-03 21:00N 31°58' E 120°26'4413233.4
2017-Dec-03 21:00N 31°39' E 121°13'933083.0
2017-Dec-03 21:00N 31°31' E 121°17'4591651226.0
2017-Dec-03 21:00N 24°26' E 118°02'447201295.1
2017-Dec-03 20:59N 31°13' E 121°30'37133896.9
2017-Dec-03 20:59N 31°01' E 122°11'5412126.5
2017-Dec-03 20:59N 31°32' E 121°20'7681.6
2017-Dec-03 20:59N 31°38' E 121°15'76680.4
2017-Dec-03 20:59N 31°31' E 121°18'6299.0
2017-Dec-03 20:57N 31°29' E 121°25'239215.2
2017-Dec-03 20:57N 31°16' E 121°03'213075.7
2017-Dec-03 20:57N 31°30' E 121°22'5602.1
2017-Dec-03 20:56N 31°30' E 121°17'102820.3
2017-Dec-03 20:56N 31°36' E 121°27'963.9
2017-Dec-03 20:48N 31°36' E 121°16'111180.6
2017-Dec-03 20:47N 31°28' E 121°26'723784.1
2017-Dec-03 20:47N 31°31' E 121°19'38418673.5
2017-Dec-03 20:46N 25°09' E 121°54'4596965.5
2017-Dec-03 20:42N 22°19' E 114°09'140263091.3
2017-Dec-03 20:41N 01°13' E 103°53'489629135.9
2017-Dec-03 20:30N 44°09' E 028°40'42237601323.7
2017-Dec-03 20:30N 37°46' E 121°30'37040410.0
2017-Dec-03 20:30N 31°36' E 121°16'519228.8
2017-Dec-03 20:30N 31°31' E 121°17'45997130.9
2017-Dec-03 20:30N 24°26' E 118°02'460552550.0
2017-Dec-03 20:30N 31°32' E 121°20'2118586.1
2017-Dec-03 20:29N 31°13' E 121°30'2066495772.7
2017-Dec-03 20:29N 01°13' E 103°55'2076934330.1
2017-Dec-03 20:29N 31°28' E 121°26'723784.1
2017-Dec-03 20:29N 31°31' E 121°19'1249.4
2017-Dec-03 20:29N 31°31' E 121°18'71670.1
2017-Dec-03 20:29N 31°38' E 121°15'12565.3
2017-Dec-03 20:27N 31°29' E 121°25'383349.5
2017-Dec-03 20:27N 31°05' E 121°59'40145354.5
2017-Dec-03 20:27N 31°30' E 121°22'4512368.5
2017-Dec-03 20:26N 31°04' E 122°05'4919600.4
2017-Dec-03 20:26N 31°30' E 121°17'18520.3
2017-Dec-03 20:24N 31°16' E 121°03'37011393.4
2017-Dec-03 20:22N 25°09' E 121°54'3528445.3
2017-Dec-03 20:20N 31°00' E 122°09'508648.6
2017-Dec-03 20:19N 31°36' E 121°27'6814178.0
2017-Dec-03 20:09N 22°18' E 114°08'66045662.1
2017-Dec-03 20:09N 31°08' E 121°28'3588218.0
2017-Dec-03 20:06N 25°09' E 121°23'39813780.7
2017-Dec-03 20:04N 31°47' E 121°06'443467643.5
2017-Dec-03 20:00N 44°09' E 028°40'42211013111.3
2017-Dec-03 20:00N 37°50' E 121°30'3941419999.7
2017-Dec-03 20:00N 31°16' E 121°03'367330458.9
2017-Dec-03 20:00N 25°10' E 121°23'18730652.9
2017-Dec-03 20:00N 24°26' E 118°02'451116065.2
2017-Dec-03 19:59N 31°07' E 121°55'397735.8
2017-Dec-03 19:59N 31°31' E 121°19'242993.1
2017-Dec-03 19:59N 31°08' E 121°27'3211383.8
2017-Dec-03 19:58N 31°38' E 121°15'677187600.2
2017-Dec-03 19:58N 22°18' E 114°08'6722418152.9
2017-Dec-03 19:58N 31°30' E 121°17'4312033.0
2017-Dec-03 19:58N 31°06' E 121°58'2069310420.7
2017-Dec-03 19:58N 01°15' E 103°59'2073103632.9
2017-Dec-03 19:56N 31°30' E 121°22'814489.6
2017-Dec-03 19:56N 31°36' E 121°16'5407.3
2017-Dec-03 19:56N 31°31' E 121°18'91472.1
2017-Dec-03 19:55N 31°36' E 121°27'562629.1
2017-Dec-03 19:54N 31°59' E 120°26'719816.7
2017-Dec-03 19:53N 31°13' E 121°30'152104.1
2017-Dec-03 19:53N 31°28' E 121°26'261920.7
2017-Dec-03 19:52N 31°47' E 121°06'191455.1
2017-Dec-03 19:51N 31°31' E 121°17'31829.4
2017-Dec-03 19:49N 31°07' E 120°55'374354.1
2017-Dec-03 19:49N 31°43' E 121°07'708119.1
2017-Dec-03 19:48N 30°58' E 122°10'0 0.7
2017-Dec-03 19:35N 30°58' E 122°10'34920623.2
2017-Dec-03 19:34N 25°09' E 121°53'474079735.9
2017-Dec-03 19:30N 44°09' E 028°40'44542004311.2
2017-Dec-03 19:30N 31°06' E 120°56'35861296.6
2017-Dec-03 19:30N 25°09' E 121°22'412494484.7
2017-Dec-03 19:30N 31°59' E 120°26'7286239.0
2017-Dec-03 19:30N 31°09' E 121°27'44393710.1
2017-Dec-03 19:30N 24°26' E 118°02'447201295.1
2017-Dec-03 19:29N 31°13' E 121°30'2610259.2
2017-Dec-03 19:29N 31°36' E 121°16'8318.6
2017-Dec-03 19:28N 31°30' E 121°22'384153747.2
2017-Dec-03 19:28N 37°54' E 121°31'76554007.3
2017-Dec-03 19:27N 25°09' E 121°53'38430037.7
2017-Dec-03 19:26N 31°32' E 121°20'2234.8
2017-Dec-03 19:26N 31°31' E 121°18'1195.1
2017-Dec-03 19:25N 31°30' E 121°17'268.2
2017-Dec-03 19:23N 31°31' E 121°19'8737.2
2017-Dec-03 19:22N 31°38' E 121°15'10230.1
2017-Dec-03 19:20N 31°36' E 121°27'24800.5
2017-Dec-03 19:18N 31°17' E 121°09'1628175.0
2017-Dec-03 19:18N 31°31' E 121°17'562301.1
2017-Dec-03 19:17N 30°57' E 122°10'451716869.6
2017-Dec-03 19:01N 44°09' E 028°40'4450640767.3
2017-Dec-03 19:00N 31°36' E 121°16'3441125.4
2017-Dec-03 19:00N 31°05' E 120°60'6172860.4
2017-Dec-03 19:00N 31°59' E 120°26'416299463.7
2017-Dec-03 19:00N 25°10' E 121°52'21340381.3
2017-Dec-03 19:00N 24°26' E 118°02'447268380.4
2017-Dec-03 18:59N 31°13' E 121°30'364187102.0
2017-Dec-03 18:59N 25°10' E 121°23'36248211.9
2017-Dec-03 18:59N 31°11' E 121°28'223282.8
2017-Dec-03 18:59N 31°32' E 121°20'73267.8
2017-Dec-03 18:58N 31°38' E 121°15'234053.9
2017-Dec-03 18:58N 31°17' E 121°08'191364.0
2017-Dec-03 18:57N 31°29' E 121°25'687.3
2017-Dec-03 18:53N 31°31' E 121°18'45986912.9
2017-Dec-03 18:52N 24°26' E 118°02'45838323.3
2017-Dec-03 18:52N 31°30' E 121°17'55820.8
2017-Dec-03 18:52N 31°30' E 121°22'4152.6
2017-Dec-03 18:50N 31°31' E 121°17'191955.5
2017-Dec-03 18:49N 31°16' E 121°03'28159.6
2017-Dec-03 18:39N 31°36' E 121°27'21274.9
2017-Dec-03 18:34N 31°47' E 121°06'443471586.8
2017-Dec-03 18:31N 44°09' E 028°40'44502669851.8
2017-Dec-03 18:30N 31°36' E 121°16'518183.9
2017-Dec-03 18:30N 31°32' E 121°20'213311.0
2017-Dec-03 18:30N 31°16' E 121°03'2417146.8
2017-Dec-03 18:30N 31°13' E 121°30'44764330.7
2017-Dec-03 18:30N 24°26' E 118°02'447805141.1
2017-Dec-03 18:29N 31°13' E 121°30'182562.8
2017-Dec-03 18:29N 31°30' E 121°22'10801.3
2017-Dec-03 18:28N 31°38' E 121°15'3744112.8
2017-Dec-03 18:28N 31°03' E 121°03'303965.6
2017-Dec-03 18:28N 31°30' E 121°17'10611.1
2017-Dec-03 18:27N 31°36' E 121°27'386463295.7
2017-Dec-03 18:27N 25°10' E 121°24'38120794.8
2017-Dec-03 18:26N 31°31' E 121°18'582141.3
2017-Dec-03 18:24N 30°52' E 122°08'573535.5
2017-Dec-03 18:23N 31°31' E 121°19'53393.8
2017-Dec-03 18:15N 31°59' E 120°26'36445.8
2017-Dec-03 18:10N 31°47' E 121°06'443427335.4
2017-Dec-03 18:00N 44°09' E 028°40'44502669862.5
2017-Dec-03 18:00N 31°36' E 121°16'517884.4
2017-Dec-03 18:00N 31°32' E 121°20'198682.2
2017-Dec-03 18:00N 31°15' E 121°30'3651313074.9
2017-Dec-03 18:00N 25°11' E 121°51'2623645.6
2017-Dec-03 18:00N 25°09' E 121°22'412212026.4
2017-Dec-03 18:00N 31°59' E 120°26'717731.3
2017-Dec-03 17:59N 31°13' E 121°30'181884.4
2017-Dec-03 17:59N 31°30' E 121°22'221906.2
2017-Dec-03 17:58N 31°47' E 121°06'31652.1
2017-Dec-03 17:55N 31°16' E 121°03'231184.7
2017-Dec-03 17:54N 31°29' E 121°25'684.6
2017-Dec-03 17:50N 31°31' E 121°18'21740.4
2017-Dec-03 17:48N 31°46' E 121°01'20563.4
2017-Dec-03 17:46N 31°30' E 121°17'19751.2
2017-Dec-03 17:44N 31°47' E 121°04'205088.6
2017-Dec-03 17:44N 31°31' E 121°19'8558.0
2017-Dec-03 17:43N 31°36' E 121°27'5817476.5
2017-Dec-03 17:43N 30°49' E 122°06'71612.8
2017-Dec-03 17:36N 31°41' E 121°10'12583.6
2017-Dec-03 17:35N 31°32' E 121°20'445561925.4
2017-Dec-03 17:30N 44°09' E 028°40'47361217726.5
2017-Dec-03 17:30N 25°11' E 121°50'391140691.7
2017-Dec-03 17:30N 31°41' E 121°11'2530570.7
2017-Dec-03 17:30N 31°16' E 121°03'242669.5
2017-Dec-03 17:29N 31°13' E 121°30'447322056.4
2017-Dec-03 17:29N 24°26' E 118°02'46375806.7
2017-Dec-03 17:29N 31°36' E 121°16'82230.5
2017-Dec-03 17:29N 31°30' E 121°22'222223.9
2017-Dec-03 17:28N 31°47' E 121°06'193824.4
2017-Dec-03 17:28N 31°32' E 121°20'5471.5
2017-Dec-03 17:27N 31°29' E 121°25'27856.9
2017-Dec-03 17:25N 31°46' E 121°00'203746.9
2017-Dec-03 17:25N 31°34' E 121°19'4789.8
2017-Dec-03 17:25N 31°31' E 121°17'38226422.0
2017-Dec-03 17:24N 25°09' E 121°23'38913869.5
2017-Dec-03 17:22N 31°38' E 121°15'81289.1
2017-Dec-03 17:22N 31°30' E 121°17'10231.9
2017-Dec-03 17:19N 31°36' E 121°27'931.2
2017-Dec-03 17:03N 31°37' E 121°17'4450114418.2
2017-Dec-03 17:00N 44°09' E 028°40'47341136148.8
2017-Dec-03 17:00N 25°12' E 121°48'38555460.5
2017-Dec-03 17:00N 31°37' E 121°17'1124.6
2017-Dec-03 16:59N 31°36' E 121°16'1831663.7
2017-Dec-03 16:59N 31°47' E 120°60'2280226.2
2017-Dec-03 16:59N 31°32' E 121°20'2104.7
2017-Dec-03 16:58N 31°31' E 121°17'85477.9
2017-Dec-03 16:58N 31°38' E 121°15'12268.3
2017-Dec-03 16:58N 31°38' E 121°16'72913.3
2017-Dec-03 16:58N 31°30' E 121°17'114268.8
2017-Dec-03 16:58N 31°35' E 121°28'46621236.6
2017-Dec-03 16:56N 24°26' E 118°02'1884505.1
2017-Dec-03 16:54N 25°09' E 121°23'4128889.9
2017-Dec-03 16:51N 31°59' E 120°26'521798.3
2017-Dec-03 16:49N 31°16' E 121°03'231201.9
2017-Dec-03 16:48N 31°29' E 121°25'171357.9
2017-Dec-03 16:47N 31°13' E 121°30'181232.1
2017-Dec-03 16:47N 31°30' E 121°22'181863.7
2017-Dec-03 16:46N 31°14' E 121°30'32698.2
2017-Dec-03 16:43N 31°41' E 121°10'429.7
2017-Dec-03 16:36N 31°42' E 121°14'6910423.0
2017-Dec-03 16:36N 30°43' E 121°59'451851466.6
2017-Dec-03 16:30N 44°09' E 028°40'444516003272.9
2017-Dec-03 16:30N 31°41' E 121°15'518777.7
2017-Dec-03 16:30N 31°36' E 121°16'38465841.4
2017-Dec-03 16:30N 25°13' E 121°47'38899893.3
2017-Dec-03 16:30N 31°40' E 121°12'1037355.1
2017-Dec-03 16:30N 31°32' E 121°20'23174.3
2017-Dec-03 16:30N 31°31' E 121°18'45956988.9
2017-Dec-03 16:29N 24°26' E 118°02'45934457.8
2017-Dec-03 16:29N 31°30' E 121°22'263474.2
2017-Dec-03 16:28N 31°47' E 120°59'216894.2
2017-Dec-03 16:28N 31°34' E 121°19'415653.9
2017-Dec-03 16:28N 31°30' E 121°17'38120486.8
2017-Dec-03 16:27N 25°09' E 121°23'36682242.5
2017-Dec-03 16:27N 31°15' E 121°29'20683.3
2017-Dec-03 16:25N 31°33' E 121°21'51903.8
2017-Dec-03 16:25N 31°35' E 121°15'251367.6
2017-Dec-03 16:23N 31°13' E 121°30'281092.4
2017-Dec-03 16:22N 31°38' E 121°15'46445165.1
2017-Dec-03 16:21N 24°26' E 118°04'459236161.5
2017-Dec-03 16:21N 31°29' E 121°25'8497.5
2017-Dec-03 16:20N 31°22' E 121°30'461370.4
2017-Dec-03 16:18N 30°43' E 121°57'59778.0
2017-Dec-03 16:14N 31°31' E 121°18'4635674.3
2017-Dec-03 16:09N 24°19' E 118°07'463128218.7
2017-Dec-03 16:09N 31°27' E 121°28'772.9
2017-Dec-03 16:03N 31°23' E 121°34'4472111038.1
2017-Dec-03 16:01N 44°09' E 028°40'44555345949.0
2017-Dec-03 16:00N 31°32' E 121°20'76038.1
2017-Dec-03 16:00N 31°39' E 121°17'389200213.4
2017-Dec-03 16:00N 25°09' E 121°23'37564209.3
2017-Dec-03 16:00N 31°24' E 121°32'1113378.4
2017-Dec-03 16:00N 31°32' E 121°23'193041.8
2017-Dec-03 15:59N 31°13' E 121°30'2443438.0
2017-Dec-03 15:59N 31°35' E 121°17'2794.9
2017-Dec-03 15:59N 31°36' E 121°16'463277984.8
2017-Dec-03 15:59N 24°26' E 118°02'46561937.7
2017-Dec-03 15:59N 31°38' E 121°16'38520374.4
2017-Dec-03 15:58N 25°14' E 121°46'20614282.8
2017-Dec-03 15:57N 24°19' E 118°07'46326478.8
2017-Dec-03 15:56N 31°31' E 121°18'162910.6
2017-Dec-03 15:55N 31°23' E 121°34'10514.8
2017-Dec-03 15:54N 31°29' E 121°25'283.4
2017-Dec-03 15:53N 31°28' E 121°27'8212.7
2017-Dec-03 15:50N 31°31' E 121°17'16781.3
2017-Dec-03 15:49N 31°44' E 121°07'53436.8
2017-Dec-03 15:42N 31°09' E 121°53'44887.0
2017-Dec-03 15:39N 31°16' E 121°03'292046.1
2017-Dec-03 15:38N 31°44' E 121°11'17274.7
2017-Dec-03 15:34N 31°30' E 121°22'445869183.6
2017-Dec-03 15:30N 44°09' E 028°40'4462642517.4
2017-Dec-03 15:30N 31°29' E 121°26'46498220.8
2017-Dec-03 15:30N 24°19' E 118°07'18523809.6
2017-Dec-03 15:29N 25°09' E 121°23'214935.8
2017-Dec-03 15:29N 25°14' E 121°45'378272437.2
2017-Dec-03 15:29N 31°32' E 121°20'2792.1
2017-Dec-03 15:29N 31°31' E 121°18'3928361.9
2017-Dec-03 15:29N 31°08' E 121°55'346358.8
2017-Dec-03 15:28N 31°29' E 121°25'124300.0
2017-Dec-03 15:28N 31°23' E 121°36'221536.7
2017-Dec-03 15:27N 31°36' E 121°16'86954.5
2017-Dec-03 15:27N 31°43' E 121°13'177785.3
2017-Dec-03 15:27N 31°29' E 121°25'86995.5
2017-Dec-03 15:27N 31°35' E 121°18'46329746.9
2017-Dec-03 15:26N 24°26' E 118°02'46150242.0
2017-Dec-03 15:26N 31°32' E 121°20'20546.9
2017-Dec-03 15:23N 31°13' E 121°30'33523.3
2017-Dec-03 15:20N 31°42' E 121°10'72790.5
2017-Dec-03 15:14N 30°41' E 121°55'651385.2
2017-Dec-03 15:11N 31°37' E 121°16'67712308.4
2017-Dec-03 15:08N 22°18' E 114°08'106030761.8
2017-Dec-03 15:06N 38°45' E 121°36'419245864.7
2017-Dec-03 15:00N 44°09' E 028°40'44598025910.7
2017-Dec-03 15:00N 31°30' E 121°23'31064.2
2017-Dec-03 15:00N 31°33' E 121°21'4317016.5
2017-Dec-03 15:00N 31°06' E 121°60'4148669.7
2017-Dec-03 15:00N 31°30' E 121°22'20721491975.2
2017-Dec-03 15:00N 01°15' E 104°01'2062247384.1
2017-Dec-03 14:59N 31°13' E 121°30'234537.8
2017-Dec-03 14:59N 31°36' E 121°26'6274629.6
2017-Dec-03 14:59N 30°39' E 121°56'6144151.0
2017-Dec-03 14:59N 31°32' E 121°20'4215.9
2017-Dec-03 14:58N 31°36' E 121°18'42036.4
2017-Dec-03 14:58N 31°40' E 121°16'47128726.1
2017-Dec-03 14:57N 24°19' E 118°07'18522222.3
2017-Dec-03 14:56N 25°09' E 121°23'38718094.0
2017-Dec-03 14:55N 31°36' E 121°16'610328.8
2017-Dec-03 14:55N 31°30' E 121°17'277.4
2017-Dec-03 14:53N 31°31' E 121°19'131002.1
2017-Dec-03 14:52N 31°42' E 121°10'4414311592.5
2017-Dec-03 14:51N 31°49' E 034°39'44162649787.1
2017-Dec-03 14:51N 31°41' E 121°12'42576561.9
2017-Dec-03 14:51N 38°45' E 121°36'81158373.3
2017-Dec-03 14:50N 25°15' E 121°45'3913606.0
2017-Dec-03 14:44N 31°44' E 121°06'16347.6
2017-Dec-03 14:41N 31°31' E 121°18'13138.4
2017-Dec-03 14:35N 31°42' E 121°09'444059200.2
2017-Dec-03 14:30N 44°09' E 028°40'793570666.3
2017-Dec-03 14:30N 31°49' E 034°39'43891316815.4
2017-Dec-03 14:30N 01°14' E 103°58'20761868478.7
2017-Dec-03 14:30N 31°33' E 121°20'58202.4
2017-Dec-03 14:30N 31°36' E 121°16'83750.0
2017-Dec-03 14:30N 31°42' E 121°09'131355.6
2017-Dec-03 14:29N 31°32' E 121°20'383196870.6
2017-Dec-03 14:29N 25°09' E 121°23'389279919.1
2017-Dec-03 14:29N 31°38' E 121°20'5579.9
2017-Dec-03 14:29N 31°33' E 121°20'522242.9
2017-Dec-03 14:27N 31°59' E 120°26'47565797.9
2017-Dec-03 14:27N 24°19' E 118°07'4656977.4
2017-Dec-03 14:23N 31°30' E 121°25'3768202.6
2017-Dec-03 14:20N 25°15' E 121°45'3777423.3
2017-Dec-03 14:17N 31°31' E 121°19'1477.1
2017-Dec-03 14:17N 31°31' E 121°18'121304.5
2017-Dec-03 14:16N 31°42' E 121°10'4273450.6
2017-Dec-03 14:09N 38°48' E 121°37'643266.6
2017-Dec-03 14:08N 37°48' E 121°07'3747640.4
2017-Dec-03 14:05N 31°34' E 121°19'322078.1
2017-Dec-03 14:04N 31°14' E 121°48'402369.5
2017-Dec-03 14:03N 31°40' E 121°12'5133.5
2017-Dec-03 14:01N 31°36' E 121°16'445016018999.4
2017-Dec-03 14:00N 44°09' E 028°40'44611003735.0
2017-Dec-03 14:00N 31°29' E 121°25'1526736.3
2017-Dec-03 14:00N 31°40' E 121°13'1112738.3
2017-Dec-03 14:00N 31°37' E 121°25'61360.0
2017-Dec-03 14:00N 31°36' E 121°17'467280424.4
2017-Dec-03 14:00N 24°19' E 118°07'465209144.6
2017-Dec-03 14:00N 31°32' E 121°19'2258.8
2017-Dec-03 13:59N 31°34' E 121°19'43571118.3
2017-Dec-03 13:59N 38°48' E 121°38'42831452.7
2017-Dec-03 13:58N 31°41' E 121°12'1134.4
2017-Dec-03 13:58N 31°40' E 121°13'252409.2
2017-Dec-03 13:57N 31°16' E 121°03'403483.2
2017-Dec-03 13:56N 31°13' E 121°49'364655535.3
2017-Dec-03 13:56N 25°09' E 121°23'2012193.6
2017-Dec-03 13:56N 25°15' E 121°45'377135888.6
2017-Dec-03 13:56N 31°31' E 121°19'3753457.3
2017-Dec-03 13:50N 37°46' E 121°08'3923445.9
2017-Dec-03 13:43N 31°14' E 121°30'10124.8
2017-Dec-03 13:38N 31°23' E 121°34'5571113298.9
2017-Dec-03 13:35N 48°57' E 002°17'112614799.3
2017-Dec-03 13:30N 44°09' E 028°40'4208757419.2
2017-Dec-03 13:30N 37°44' E 121°08'749299794.1
2017-Dec-03 13:30N 25°15' E 121°45'813243966.3
2017-Dec-03 13:30N 38°48' E 121°37'428771270.5
2017-Dec-03 13:30N 31°40' E 121°13'470423383.7
2017-Dec-03 13:30N 24°19' E 118°07'469844094.1
2017-Dec-03 13:30N 31°38' E 121°15'85754.6
2017-Dec-03 13:30N 31°37' E 121°25'2313911.3
2017-Dec-03 13:29N 31°14' E 121°30'202344.1
2017-Dec-03 13:29N 31°31' E 121°19'934151.3
2017-Dec-03 13:29N 31°39' E 121°13'94715.1
2017-Dec-03 13:29N 31°32' E 121°20'91473.2
2017-Dec-03 13:28N 31°39' E 121°13'451465.8
2017-Dec-03 13:27N 31°09' E 121°53'36161900.6
2017-Dec-03 13:26N 25°09' E 121°23'36424751.8
2017-Dec-03 13:25N 31°14' E 121°30'1089.7
2017-Dec-03 13:19N 31°23' E 121°34'557269175.1
2017-Dec-03 13:14N 48°56' E 002°14'576180069.2
2017-Dec-03 13:10N 24°24' E 117°58'46357477.0
2017-Dec-03 13:09N 31°29' E 121°25'23708.9
2017-Dec-03 13:07N 31°16' E 121°03'2515159.4
2017-Dec-03 13:07N 31°41' E 121°10'565.1
2017-Dec-03 13:02N 31°45' E 121°06'4436166345.1
2017-Dec-03 13:01N 44°09' E 028°40'42077572657.9
2017-Dec-03 13:00N 37°43' E 121°05'52333139710.2
2017-Dec-03 13:00N 48°55' E 002°13'58833529549.4
2017-Dec-03 13:00N 25°10' E 121°23'380683671.7
2017-Dec-03 13:00N 31°29' E 121°25'4621664137.9
2017-Dec-03 13:00N 24°24' E 117°59'468421635.1
2017-Dec-03 13:00N 31°42' E 121°09'336544.6
2017-Dec-03 13:00N 31°15' E 121°30'4824889.6
2017-Dec-03 13:00N 30°28' E 121°43'415747095.0
2017-Dec-03 13:00N 24°19' E 118°07'468420952.8
2017-Dec-03 13:00N 31°36' E 121°18'44158095.5
2017-Dec-03 13:00N 31°07' E 121°57'4018174.5
2017-Dec-03 12:59N 31°37' E 121°25'7908.5
2017-Dec-03 12:59N 31°32' E 121°20'460331546.7
2017-Dec-03 12:59N 24°26' E 118°02'45829985.9
2017-Dec-03 12:58N 31°30' E 121°17'101786.4
2017-Dec-03 12:58N 31°40' E 121°13'52348.5
2017-Dec-03 12:58N 31°36' E 121°16'3283.8
2017-Dec-03 12:57N 31°39' E 121°15'8479.2
2017-Dec-03 12:56N 31°31' E 121°19'5971016.9
2017-Dec-03 12:56N 30°47' E 122°05'715709.6
2017-Dec-03 12:55N 31°41' E 121°10'208695068.3
2017-Dec-03 12:54N 01°10' E 103°48'2073114837.6
2017-Dec-03 12:53N 31°15' E 121°30'3593737.8
2017-Dec-03 12:47N 25°16' E 121°44'4541792.6
2017-Dec-03 12:32N 22°18' E 114°08'4485206996.4
2017-Dec-03 12:31N 44°09' E 028°40'44498007406.0
2017-Dec-03 12:30N 31°38' E 121°16'466104748.7
2017-Dec-03 12:30N 24°25' E 118°03'461118531.5
2017-Dec-03 12:30N 31°32' E 121°20'465111542.4
2017-Dec-03 12:30N 24°19' E 118°07'206185078.6
2017-Dec-03 12:30N 25°16' E 121°45'381274491.1
2017-Dec-03 12:30N 31°36' E 121°16'72002.7
2017-Dec-03 12:29N 31°37' E 121°25'38882065.1
2017-Dec-03 12:29N 25°09' E 121°23'365328215.5
2017-Dec-03 12:29N 31°14' E 121°30'2035289.6
2017-Dec-03 12:29N 31°31' E 121°19'4601655543.5
2017-Dec-03 12:29N 24°26' E 118°02'466119835.3
2017-Dec-03 12:29N 31°40' E 121°13'104999.1
2017-Dec-03 12:29N 31°33' E 121°20'201000.9
2017-Dec-03 12:27N 31°15' E 121°30'3882913.7
2017-Dec-03 12:19N 37°43' E 121°05'37324443.7
2017-Dec-03 12:19N 31°30' E 121°24'675142888.1
2017-Dec-03 12:18N 22°18' E 114°08'67218746.2
2017-Dec-03 12:16N 31°30' E 121°17'7551.4
2017-Dec-03 12:15N 31°29' E 121°25'19220.4
2017-Dec-03 12:10N 31°42' E 121°08'711160.6
2017-Dec-03 12:06N 30°53' E 122°09'741155.4
2017-Dec-03 12:03N 31°45' E 121°07'4436128800.5
2017-Dec-03 12:01N 44°09' E 028°40'44442666515.6
2017-Dec-03 12:00N 31°40' E 121°13'466129181.1
2017-Dec-03 12:00N 24°24' E 118°07'4532.9
2017-Dec-03 12:00N 24°19' E 118°07'20753101.7
2017-Dec-03 11:59N 25°15' E 121°46'215483.5
2017-Dec-03 11:59N 25°09' E 121°23'38291722.2
2017-Dec-03 11:59N 31°31' E 121°19'11581.2
2017-Dec-03 11:59N 31°31' E 121°18'162364.7
2017-Dec-03 11:59N 31°44' E 121°06'6517945.6
2017-Dec-03 11:58N 31°04' E 122°06'323502.6
2017-Dec-03 11:58N 31°15' E 121°31'193330.0
2017-Dec-03 11:57N 31°32' E 121°20'1518451.3
2017-Dec-03 11:57N 31°23' E 121°34'16838.1
2017-Dec-03 11:56N 31°37' E 121°25'71370.5
2017-Dec-03 11:56N 31°36' E 121°16'52073.0
2017-Dec-03 11:56N 31°32' E 121°20'372407.0
2017-Dec-03 11:55N 31°09' E 121°54'371442.8
2017-Dec-03 11:53N 31°32' E 121°20'46557704.8
2017-Dec-03 11:53N 24°18' E 118°09'4525633.2
2017-Dec-03 11:48N 31°14' E 121°29'39676.1
2017-Dec-03 11:44N 30°55' E 122°10'44745957.0
2017-Dec-03 11:44N 24°26' E 118°02'812108327.2
2017-Dec-03 11:43N 37°43' E 121°05'3709388.9
2017-Dec-03 11:41N 31°33' E 121°20'152710.6
2017-Dec-03 11:41N 31°24' E 121°34'20663.4
2017-Dec-03 11:39N 31°38' E 121°17'1193.7
2017-Dec-03 11:32N 31°29' E 121°25'471832.9
2017-Dec-03 11:30N 31°03' E 122°10'5262520.9
2017-Dec-03 11:30N 31°32' E 121°20'21805.7
2017-Dec-03 11:30N 31°34' E 121°19'4237637.1
2017-Dec-03 11:30N 31°08' E 121°57'45874971.7
2017-Dec-03 11:30N 24°16' E 118°10'20627457.9
2017-Dec-03 11:29N 25°15' E 121°47'37545000.0
2017-Dec-03 11:29N 31°29' E 121°24'5876.3
2017-Dec-03 11:29N 31°31' E 121°19'20292.9
2017-Dec-03 11:25N 31°14' E 121°30'383208.7
2017-Dec-03 11:24N 30°57' E 122°10'453116357.6
2017-Dec-03 11:24N 24°19' E 118°07'81838.1
2017-Dec-03 11:23N 24°26' E 118°02'46075304.8
2017-Dec-03 11:23N 31°32' E 121°20'183731.2
2017-Dec-03 11:23N 31°45' E 121°06'1244484.0
2017-Dec-03 11:23N 31°36' E 121°16'67629324.4
2017-Dec-03 11:21N 22°18' E 114°08'67497057.1
2017-Dec-03 11:21N 31°30' E 121°22'13758.0
2017-Dec-03 11:20N 31°40' E 121°13'301145.1
2017-Dec-03 11:18N 31°14' E 121°29'151646.0
2017-Dec-03 11:18N 31°29' E 121°25'17481.0
2017-Dec-03 11:16N 31°41' E 121°10'172727.5
2017-Dec-03 11:15N 31°29' E 121°24'37412126.3
2017-Dec-03 11:13N 37°43' E 121°05'41187065.4
2017-Dec-03 11:13N 30°55' E 122°09'571549.5
2017-Dec-03 11:11N 31°31' E 121°18'44945.1
2017-Dec-03 11:08N 31°05' E 121°60'450435327.1
2017-Dec-03 11:00N 44°09' E 028°40'4517739210.8
2017-Dec-03 11:00N 30°57' E 122°10'1139822.9
2017-Dec-03 11:00N 31°05' E 122°01'25466.8
2017-Dec-03 11:00N 31°06' E 121°59'3521266536.7
2017-Dec-03 11:00N 25°14' E 121°48'346178175.8
2017-Dec-03 11:00N 30°60' E 122°13'5218803.6
2017-Dec-03 11:00N 31°30' E 121°23'464238679.3
2017-Dec-03 11:00N 24°19' E 118°07'468120243.9
2017-Dec-03 10:59N 31°36' E 121°16'59655.0
2017-Dec-03 10:59N 31°32' E 121°20'101676.8
2017-Dec-03 10:59N 31°40' E 121°13'117685.7
2017-Dec-03 10:59N 31°37' E 121°25'71124.8
2017-Dec-03 10:59N 31°32' E 121°20'2191.0
2017-Dec-03 10:58N 31°31' E 121°21'5514019.5
2017-Dec-03 10:58N 30°55' E 122°10'531279.8
2017-Dec-03 10:55N 31°30' E 121°22'32657.1
2017-Dec-03 10:55N 31°31' E 121°19'194009.6
2017-Dec-03 10:55N 31°15' E 121°30'361427.9
2017-Dec-03 10:53N 31°00' E 122°08'36486.6
2017-Dec-03 10:49N 31°15' E 121°29'707585.0
2017-Dec-03 10:48N 31°59' E 120°26'4122386.7
2017-Dec-03 10:38N 25°09' E 121°24'38126395.7
2017-Dec-03 10:37N 31°30' E 121°17'59532.2
2017-Dec-03 10:30N 30°57' E 122°14'45211808241.2
2017-Dec-03 10:30N 44°09' E 028°40'45882359710.4
2017-Dec-03 10:30N 24°25' E 118°05'461118587.3
2017-Dec-03 10:30N 31°33' E 121°19'46166374.5
2017-Dec-03 10:30N 31°04' E 122°01'4554295.7
2017-Dec-03 10:30N 31°32' E 121°20'31112.6
2017-Dec-03 10:30N 31°30' E 121°22'380195582.4
2017-Dec-03 10:30N 25°10' E 121°23'2414408.8
2017-Dec-03 10:30N 25°14' E 121°49'380170927.2
2017-Dec-03 10:29N 31°33' E 121°20'0143.6
2017-Dec-03 10:29N 31°32' E 121°20'2547.4
2017-Dec-03 10:29N 31°31' E 121°18'84245.0
2017-Dec-03 10:29N 31°37' E 121°25'7619.9
2017-Dec-03 10:28N 31°36' E 121°16'483855.4
2017-Dec-03 10:27N 31°59' E 120°26'706275.4
2017-Dec-03 10:27N 31°15' E 121°30'3514025.4
2017-Dec-03 10:27N 31°01' E 122°07'2467.7
2017-Dec-03 10:26N 30°59' E 122°10'545858.3
2017-Dec-03 10:26N 31°32' E 121°20'91603.3
2017-Dec-03 10:25N 31°39' E 121°13'93043.9
2017-Dec-03 10:25N 31°31' E 121°19'20928.7
2017-Dec-03 10:24N 31°14' E 121°30'411407.9
2017-Dec-03 10:22N 30°47' E 122°06'44117456.7
2017-Dec-03 10:21N 24°19' E 118°07'44715784.9
2017-Dec-03 10:19N 30°52' E 122°09'7016821.2
2017-Dec-03 10:19N 31°41' E 121°10'67710024.5
2017-Dec-03 10:15N 22°18' E 114°08'140630492.5
2017-Dec-03 10:12N 01°16' E 103°36'140735680.3
2017-Dec-03 10:10N 22°19' E 114°09'66953559.8
2017-Dec-03 10:09N 31°59' E 120°26'361086.4
2017-Dec-03 10:07N 31°44' E 121°06'371383.0
2017-Dec-03 10:05N 31°58' E 120°25'581218.2
2017-Dec-03 10:02N 31°29' E 121°24'4167.0
2017-Dec-03 10:01N 31°32' E 121°20'6012638.8
2017-Dec-03 10:00N 30°55' E 122°14'112202032.8
2017-Dec-03 10:00N 31°58' E 120°26'5323709.4
2017-Dec-03 10:00N 31°32' E 121°20'52259.4
2017-Dec-03 10:00N 31°36' E 121°16'46856113.8
2017-Dec-03 10:00N 24°19' E 118°07'21062878.5
2017-Dec-03 09:59N 25°13' E 121°50'38339408.8
2017-Dec-03 09:59N 31°35' E 121°18'6583.5
2017-Dec-03 09:58N 31°37' E 121°25'5017860.0
2017-Dec-03 09:58N 31°02' E 122°06'334285.9
2017-Dec-03 09:58N 31°15' E 121°30'16907.6
2017-Dec-03 09:57N 31°30' E 121°22'73234.2
2017-Dec-03 09:56N 31°36' E 121°17'134.7
2017-Dec-03 09:55N 31°36' E 121°17'6136737.9
2017-Dec-03 09:55N 30°55' E 122°10'5347740.0
2017-Dec-03 09:55N 31°30' E 121°23'201838.7
2017-Dec-03 09:55N 31°44' E 121°05'16599.4
2017-Dec-03 09:53N 31°31' E 121°18'1100.8
2017-Dec-03 09:52N 31°31' E 121°19'486862.8
2017-Dec-03 09:52N 31°03' E 122°04'6030627.5
2017-Dec-03 09:52N 31°41' E 121°10'241387.3
2017-Dec-03 09:51N 31°17' E 121°08'18534.8
2017-Dec-03 09:49N 31°32' E 121°20'10478.0
2017-Dec-03 09:47N 31°40' E 121°13'2083111930.4
2017-Dec-03 09:46N 01°19' E 103°37'2071122234.2
2017-Dec-03 09:45N 31°15' E 121°32'20690.9
2017-Dec-03 09:44N 31°32' E 121°20'3268.0
2017-Dec-03 09:43N 31°30' E 121°23'5111.9
2017-Dec-03 09:40N 31°30' E 121°17'7456.3
2017-Dec-03 09:39N 31°29' E 121°25'1069.7
2017-Dec-03 09:30N 31°36' E 121°16'445016019025.3
2017-Dec-03 09:30N 44°09' E 028°40'4445470674.2
2017-Dec-03 09:30N 31°39' E 121°13'469105563.8
2017-Dec-03 09:30N 24°19' E 118°07'474189445.0
2017-Dec-03 09:29N 31°46' E 121°06'1210976.5
2017-Dec-03 09:29N 31°37' E 121°16'6685.9
2017-Dec-03 09:29N 31°32' E 121°20'73037.7
2017-Dec-03 09:29N 31°37' E 121°25'71573.6
2017-Dec-03 09:28N 31°32' E 121°20'725712.7
2017-Dec-03 09:28N 31°38' E 121°15'38842318.0
2017-Dec-03 09:28N 25°11' E 121°51'38937881.1
2017-Dec-03 09:27N 31°39' E 121°14'1163.2
2017-Dec-03 09:27N 31°38' E 121°15'103713.8
2017-Dec-03 09:27N 31°30' E 121°22'5210.4
2017-Dec-03 09:25N 31°30' E 121°17'193880.8
2017-Dec-03 09:25N 31°14' E 121°29'215294.3
2017-Dec-03 09:25N 31°17' E 121°05'571742.5
2017-Dec-03 09:23N 31°00' E 122°09'562159689.1
2017-Dec-03 09:17N 48°59' E 002°08'5556476207.8
2017-Dec-03 09:16N 31°33' E 121°19'691.7
2017-Dec-03 09:12N 31°29' E 121°25'593194.4
2017-Dec-03 09:11N 32°02' E 120°26'53191908.8
2017-Dec-03 09:11N 31°31' E 121°18'4425120678.6
2017-Dec-03 09:09N 31°49' E 034°39'437072826.2
2017-Dec-03 09:05N 31°58' E 120°25'71920.6
2017-Dec-03 09:01N 31°14' E 121°30'7123098.3
2017-Dec-03 09:01N 31°58' E 120°25'439615824388.7
2017-Dec-03 09:00N 44°09' E 028°40'47382436514.9
2017-Dec-03 09:00N 25°11' E 121°52'382343853.6
2017-Dec-03 09:00N 31°32' E 121°20'54523.4
2017-Dec-03 09:00N 31°36' E 121°16'44227958930.0
2017-Dec-03 09:00N 31°49' E 034°39'44828068020.5
2017-Dec-03 09:00N 30°59' E 122°10'6356613.0
2017-Dec-03 09:00N 31°39' E 121°13'98074.8
2017-Dec-03 09:00N 31°31' E 121°18'671604112.6
2017-Dec-03 09:00N 22°19' E 114°09'24942729.1
2017-Dec-03 09:00N 24°19' E 118°07'46487852.9
2017-Dec-03 08:59N 31°30' E 121°22'1315526.5
2017-Dec-03 08:59N 31°40' E 121°12'1280.6
2017-Dec-03 08:59N 31°39' E 121°13'55486657210.3
2017-Dec-03 08:59N 48°59' E 002°06'5559769655.8
2017-Dec-03 08:59N 31°37' E 121°25'91356.0
2017-Dec-03 08:58N 31°30' E 121°17'5246905.2
2017-Dec-03 08:58N 31°01' E 122°07'4813390.7
2017-Dec-03 08:58N 31°30' E 121°22'225533.5
2017-Dec-03 08:58N 31°17' E 121°03'553532.6
2017-Dec-03 08:57N 32°01' E 120°25'4726742.4
2017-Dec-03 08:53N 24°26' E 118°05'4466893.6
2017-Dec-03 08:49N 31°14' E 121°30'262011.5
2017-Dec-03 08:48N 31°38' E 121°17'769.8
2017-Dec-03 08:42N 31°41' E 121°10'12172.6
2017-Dec-03 08:38N 31°31' E 121°18'228846.4
2017-Dec-03 08:38N 31°11' E 121°28'715087.5
2017-Dec-03 08:37N 31°58' E 120°27'2068114541.7
2017-Dec-03 08:36N 01°27' E 103°43'20483687153.4
2017-Dec-03 08:36N 31°16' E 121°03'52579.1
2017-Dec-03 08:31N 31°58' E 120°26'43965275247.1
2017-Dec-03 08:30N 44°09' E 028°40'11341020752.6
2017-Dec-03 08:30N 48°59' E 002°05'59097090393.5
2017-Dec-03 08:30N 25°11' E 121°52'350419778.0
2017-Dec-03 08:30N 31°00' E 122°09'44814032695.0
2017-Dec-03 08:30N 31°49' E 034°39'44262276263.1
2017-Dec-03 08:30N 31°32' E 121°20'56202014.9
2017-Dec-03 08:30N 30°57' E 122°10'4641669693.2
2017-Dec-03 08:30N 24°06' E 118°07'243125009.6
2017-Dec-03 08:30N 22°19' E 114°09'6522346071.3
2017-Dec-03 08:30N 31°16' E 121°03'224905.0
2017-Dec-03 08:30N 31°33' E 121°19'466419061.9
2017-Dec-03 08:30N 24°19' E 118°07'475570110.7
2017-Dec-03 08:30N 31°58' E 120°27'512244.9
2017-Dec-03 08:28N 31°30' E 121°17'93766.7
2017-Dec-03 08:28N 31°37' E 121°25'10286.6
2017-Dec-03 08:26N 31°39' E 121°13'414593.4
2017-Dec-03 08:26N 31°36' E 121°16'292523.5
2017-Dec-03 08:25N 31°09' E 121°27'5594.6
2017-Dec-03 08:25N 31°14' E 121°30'716686.7
2017-Dec-03 08:24N 31°58' E 120°25'4919409.9
2017-Dec-03 08:24N 31°38' E 121°17'85714758.8
2017-Dec-03 08:20N 21°11' E 110°25'2191622.3
2017-Dec-03 08:12N 22°19' E 114°10'67378164.3
2017-Dec-03 08:12N 31°32' E 121°20'2143.4
2017-Dec-03 08:11N 31°31' E 121°18'681030.2
2017-Dec-03 08:07N 30°45' E 122°15'62947.6
2017-Dec-03 08:03N 31°29' E 121°25'13569.3
2017-Dec-03 08:02N 31°38' E 121°14'4446197617.5
2017-Dec-03 08:00N 44°09' E 028°40'46023313723.0
2017-Dec-03 08:00N 24°06' E 118°07'578920839130.3
2017-Dec-03 08:00N 48°59' E 002°05'557210030491.9
2017-Dec-03 08:00N 21°14' E 110°26'218156919.1
2017-Dec-03 08:00N 22°19' E 114°10'667266804.9
2017-Dec-03 08:00N 30°44' E 122°15'33586023.3
2017-Dec-03 08:00N 25°11' E 121°52'41430420.5
2017-Dec-03 07:59N 31°58' E 120°27'476032.1
2017-Dec-03 07:59N 31°36' E 121°16'71925.0
2017-Dec-03 07:58N 31°37' E 121°25'610000.7
2017-Dec-03 07:58N 31°36' E 121°18'63005.1
2017-Dec-03 07:58N 31°30' E 121°17'44241592678.0
2017-Dec-03 07:58N 31°49' E 034°39'44191136219.1
2017-Dec-03 07:58N 31°38' E 121°14'4510202.2
2017-Dec-03 07:58N 31°58' E 120°26'5315806.3
2017-Dec-03 07:57N 31°32' E 121°20'46537180.8
2017-Dec-03 07:57N 24°19' E 118°07'469211125.0
2017-Dec-03 07:56N 31°39' E 121°13'443247.6
2017-Dec-03 07:56N 31°58' E 120°26'1549.8
2017-Dec-03 07:56N 31°58' E 120°25'491712.6
2017-Dec-03 07:54N 31°38' E 121°17'601640.9
2017-Dec-03 07:52N 30°58' E 122°10'505948.7
2017-Dec-03 07:51N 31°29' E 121°25'532879.4
2017-Dec-03 07:50N 30°53' E 122°10'401719.2
2017-Dec-03 07:49N 31°14' E 121°30'20752.4
2017-Dec-03 07:47N 31°31' E 121°18'43585.6
2017-Dec-03 07:47N 31°30' E 121°22'646.9
2017-Dec-03 07:39N 31°27' E 121°28'8545705.5
2017-Dec-03 07:31N 21°13' E 110°26'435215668220.4
2017-Dec-03 07:30N 44°09' E 028°40'451816265225.3
2017-Dec-03 07:30N 30°57' E 122°11'348417308.9
2017-Dec-03 07:30N 25°10' E 121°49'590721264943.2
2017-Dec-03 07:30N 48°59' E 002°05'55531999245.0
2017-Dec-03 07:30N 31°38' E 121°19'3166.1
2017-Dec-03 07:29N 31°36' E 121°16'7620.0
2017-Dec-03 07:28N 31°37' E 121°25'92826.2
2017-Dec-03 07:28N 31°30' E 121°17'3425.2
2017-Dec-03 07:28N 31°32' E 121°20'5310537.5
2017-Dec-03 07:28N 31°58' E 120°26'670803729.2
2017-Dec-03 07:28N 22°19' E 114°10'674173311.2
2017-Dec-03 07:27N 31°29' E 121°25'46440757.6
2017-Dec-03 07:27N 24°19' E 118°07'47543835.4
2017-Dec-03 07:26N 31°58' E 120°25'20712485402.2
2017-Dec-03 07:26N 01°14' E 104°01'207333608.9
2017-Dec-03 07:22N 31°28' E 121°26'12535.8
2017-Dec-03 07:21N 31°38' E 121°17'654972.8
2017-Dec-03 07:20N 30°50' E 122°08'45816480.9
2017-Dec-03 07:18N 24°06' E 118°06'1913348.0
2017-Dec-03 07:15N 25°09' E 121°23'38148938.7
2017-Dec-03 07:15N 31°30' E 121°26'3300.5
2017-Dec-03 07:14N 31°30' E 121°22'21257.2
2017-Dec-03 07:09N 31°16' E 121°03'202274.1
2017-Dec-03 07:08N 31°31' E 121°18'039.5
2017-Dec-03 07:08N 31°31' E 121°18'58454.7
2017-Dec-03 07:01N 30°54' E 122°10'56292251659.1
2017-Dec-03 07:00N 48°59' E 002°05'11341361007.8
2017-Dec-03 07:00N 44°09' E 028°40'44582292941.5
2017-Dec-03 07:00N 31°30' E 121°22'9939.4
2017-Dec-03 07:00N 31°39' E 121°20'4711696798.2
2017-Dec-03 07:00N 24°19' E 118°07'466279650.8
2017-Dec-03 07:00N 21°11' E 110°25'65148806.3
2017-Dec-03 06:59N 25°09' E 121°23'1762792772.4
2017-Dec-03 06:59N 01°13' E 103°56'2074414744.0
2017-Dec-03 06:58N 31°30' E 121°17'6018053.6
2017-Dec-03 06:58N 30°48' E 122°06'5926773.0
2017-Dec-03 06:58N 31°32' E 121°20'91677.0
2017-Dec-03 06:58N 31°39' E 121°13'122205.7
2017-Dec-03 06:57N 31°30' E 121°23'223933.1
2017-Dec-03 06:57N 31°16' E 121°03'28932.6
2017-Dec-03 06:55N 31°37' E 121°25'545939.8
2017-Dec-03 06:55N 31°58' E 120°26'488195221.3
2017-Dec-03 06:54N 24°06' E 118°07'24330175.7
2017-Dec-03 06:54N 22°19' E 114°10'11546.5
2017-Dec-03 06:54N 22°19' E 114°09'676608625.0
2017-Dec-03 06:54N 31°38' E 121°17'7568.9
2017-Dec-03 06:53N 31°31' E 121°18'51037.4
2017-Dec-03 06:53N 31°36' E 121°16'3154.8
2017-Dec-03 06:52N 31°38' E 121°14'89398.3
2017-Dec-03 06:52N 31°31' E 121°18'639.6
2017-Dec-03 06:42N 31°29' E 121°25'2441.6
2017-Dec-03 06:42N 31°30' E 121°23'736.6
2017-Dec-03 06:31N 31°30' E 121°31'446616075833.6
2017-Dec-03 06:30N 44°09' E 028°40'1134816602.6
2017-Dec-03 06:30N 48°59' E 002°05'5694759190.2
2017-Dec-03 06:30N 22°19' E 114°10'6752429977.7
2017-Dec-03 06:30N 31°36' E 121°16'74820.3
2017-Dec-03 06:30N 31°31' E 121°21'464111473.7
2017-Dec-03 06:30N 24°19' E 118°07'46387808.2
2017-Dec-03 06:29N 31°31' E 121°18'1011813.7
2017-Dec-03 06:29N 31°40' E 121°13'1011709.6
2017-Dec-03 06:29N 31°32' E 121°20'38398456.4
2017-Dec-03 06:29N 25°09' E 121°23'383229553.9
2017-Dec-03 06:29N 31°32' E 121°20'31121.7
2017-Dec-03 06:29N 31°30' E 121°22'13889.6
2017-Dec-03 06:28N 31°40' E 121°13'4413279.1
2017-Dec-03 06:28N 31°58' E 120°26'2080170202.5
2017-Dec-03 06:27N 01°10' E 103°50'1611156780.0
2017-Dec-03 06:26N 24°08' E 118°07'474213513.3
2017-Dec-03 06:26N 31°31' E 121°18'8450.2
2017-Dec-03 06:25N 31°37' E 121°25'35930047.1
2017-Dec-03 06:24N 37°36' E 121°25'38054681.0
2017-Dec-03 06:24N 31°16' E 121°03'2522295.0
2017-Dec-03 06:24N 31°38' E 121°17'7287.2
2017-Dec-03 06:22N 31°30' E 121°17'12601.6
2017-Dec-03 06:21N 31°41' E 121°10'3622839.5
2017-Dec-03 06:13N 37°43' E 121°06'41624571.0
2017-Dec-03 06:12N 30°50' E 122°08'205651771.9
2017-Dec-03 06:10N 01°27' E 103°45'205836145.1
2017-Dec-03 06:07N 31°14' E 121°30'392129.5
2017-Dec-03 06:06N 30°43' E 121°58'51607.0
2017-Dec-03 06:01N 31°31' E 121°36'8633107449.8
2017-Dec-03 06:01N 21°11' E 110°25'435315669156.3
2017-Dec-03 06:00N 44°09' E 028°40'45212324932.0
2017-Dec-03 06:00N 30°49' E 122°07'56322027380.1
2017-Dec-03 06:00N 48°59' E 002°05'58872649255.6
2017-Dec-03 06:00N 25°09' E 121°23'18737407.0
2017-Dec-03 06:00N 24°11' E 118°08'47145836.1
2017-Dec-03 05:59N 31°31' E 121°18'2068930398.7
2017-Dec-03 05:59N 01°27' E 103°44'2067465180.4
2017-Dec-03 05:59N 31°31' E 121°18'103524.4
2017-Dec-03 05:59N 31°40' E 121°13'1345924.9
2017-Dec-03 05:59N 31°30' E 121°22'51027.2
2017-Dec-03 05:58N 31°30' E 121°17'5914212.9
2017-Dec-03 05:58N 30°43' E 121°58'2064928644.7
2017-Dec-03 05:58N 01°07' E 103°45'20911881928.3
2017-Dec-03 05:58N 31°40' E 121°13'72198.0
2017-Dec-03 05:58N 31°35' E 121°18'61238.3
2017-Dec-03 05:57N 31°37' E 121°25'359645969.9
2017-Dec-03 05:57N 37°36' E 121°25'35598195.9
2017-Dec-03 05:57N 31°41' E 121°10'47054637.4
2017-Dec-03 05:57N 24°19' E 118°07'81841469.5
2017-Dec-03 05:55N 37°43' E 121°06'34628299.7
2017-Dec-03 05:55N 31°58' E 120°26'60705.1
2017-Dec-03 05:50N 31°06' E 120°58'281566.4
2017-Dec-03 05:49N 31°14' E 121°30'232200.0
2017-Dec-03 05:48N 31°16' E 121°03'2529764.2
2017-Dec-03 05:48N 31°38' E 121°17'778.0
2017-Dec-03 05:42N 31°31' E 121°19'2081104047.4
2017-Dec-03 05:41N 01°10' E 103°50'208450010.7
2017-Dec-03 05:39N 31°36' E 121°17'9102.2
2017-Dec-03 05:33N 31°29' E 121°25'11243.7
2017-Dec-03 05:31N 31°37' E 121°16'1797.6
2017-Dec-03 05:30N 31°37' E 121°15'444816013882.2
2017-Dec-03 05:30N 44°09' E 028°40'45981655314.3
2017-Dec-03 05:30N 24°15' E 118°09'8182944679.2
2017-Dec-03 05:30N 37°36' E 121°26'52576308026.2
2017-Dec-03 05:30N 48°59' E 002°05'62242240666.9
2017-Dec-03 05:30N 01°07' E 103°40'2071372861.5
2017-Dec-03 05:30N 30°46' E 122°04'65116104.2
2017-Dec-03 05:30N 31°36' E 121°16'8553078525.1
2017-Dec-03 05:30N 21°11' E 110°25'855180974.7
2017-Dec-03 05:29N 31°32' E 121°20'51223.6
2017-Dec-03 05:29N 31°36' E 121°16'167.1
2017-Dec-03 05:29N 31°37' E 121°17'42053.1
2017-Dec-03 05:28N 31°40' E 121°13'107125.6
2017-Dec-03 05:28N 31°30' E 121°17'1036084.5
2017-Dec-03 05:28N 31°40' E 121°13'20751867489.7
2017-Dec-03 05:28N 01°27' E 103°41'20611484021.1
2017-Dec-03 05:28N 31°15' E 121°30'196287.3
2017-Dec-03 05:28N 31°32' E 121°20'72363.5
2017-Dec-03 05:28N 31°37' E 121°25'5439172.4
2017-Dec-03 05:28N 31°59' E 120°26'587452.5
2017-Dec-03 05:27N 31°29' E 121°25'46443977.6
2017-Dec-03 05:27N 24°19' E 118°07'46372529.0
2017-Dec-03 05:26N 31°31' E 121°18'382458247.5
2017-Dec-03 05:26N 25°09' E 121°23'38298195.4
2017-Dec-03 05:26N 31°31' E 121°18'4511.8
2017-Dec-03 05:25N 31°30' E 121°22'373671901.4
2017-Dec-03 05:25N 37°43' E 121°06'36513546.2
2017-Dec-03 05:24N 31°38' E 121°17'2089108999.1
2017-Dec-03 05:23N 01°08' E 103°46'14108661.6
2017-Dec-03 05:13N 22°19' E 114°09'196.7
2017-Dec-03 05:12N 22°19' E 114°10'67011760.3
2017-Dec-03 05:09N 31°58' E 120°26'439631092.3
2017-Dec-03 05:00N 44°09' E 028°40'45958271451.6
2017-Dec-03 05:00N 24°19' E 118°09'57806935404.8
2017-Dec-03 05:00N 48°59' E 002°05'557410032961.6
2017-Dec-03 05:00N 21°11' E 110°25'1144374349.5
2017-Dec-03 05:00N 37°38' E 121°28'365438007.0
2017-Dec-03 05:00N 31°33' E 121°20'384230288.0
2017-Dec-03 05:00N 25°09' E 121°23'1774110103.5
2017-Dec-03 04:59N 01°11' E 103°37'2086938712.0
2017-Dec-03 04:59N 31°59' E 120°27'5217076.6
2017-Dec-03 04:59N 31°32' E 121°20'53544.4
2017-Dec-03 04:59N 31°36' E 121°16'81610.9
2017-Dec-03 04:58N 31°30' E 121°22'55820.8
2017-Dec-03 04:58N 31°30' E 121°17'515127.7
2017-Dec-03 04:58N 31°59' E 120°26'586956.0
2017-Dec-03 04:57N 31°29' E 121°25'20907522821.3
2017-Dec-03 04:57N 01°06' E 103°42'191534.9
2017-Dec-03 04:56N 01°24' E 103°39'2078393716.0
2017-Dec-03 04:56N 31°40' E 121°13'16908.3
2017-Dec-03 04:55N 31°29' E 121°26'2316582.1
2017-Dec-03 04:55N 31°16' E 121°03'242193.4
2017-Dec-03 04:54N 31°38' E 121°15'166504.2
2017-Dec-03 04:54N 31°27' E 121°28'2110637.8
2017-Dec-03 04:54N 31°41' E 121°11'61253.0
2017-Dec-03 04:54N 31°38' E 121°17'7379.3
2017-Dec-03 04:53N 31°31' E 121°18'595305.4
2017-Dec-03 04:52N 30°44' E 121°59'6111490.6
2017-Dec-03 04:52N 31°37' E 121°25'47124220.2
2017-Dec-03 04:51N 24°19' E 118°07'4525868.4
2017-Dec-03 04:46N 31°14' E 121°30'25961.3
2017-Dec-03 04:44N 31°36' E 121°17'36723172.9
2017-Dec-03 04:43N 37°43' E 121°05'3623626.8
2017-Dec-03 04:37N 31°41' E 121°11'17289.2
2017-Dec-03 04:34N 31°29' E 121°25'674606698.1
2017-Dec-03 04:34N 22°18' E 114°09'448678784.5
2017-Dec-03 04:31N 44°09' E 028°40'45915508851.4
2017-Dec-03 04:30N 24°22' E 118°06'468842697.9
2017-Dec-03 04:30N 31°40' E 121°13'554819971082.8
2017-Dec-03 04:30N 48°59' E 002°05'55533998257.0
2017-Dec-03 04:30N 31°36' E 121°16'20793741555.5
2017-Dec-03 04:30N 01°22' E 103°38'20773737813.7
2017-Dec-03 04:30N 31°28' E 121°26'8561026798.6
2017-Dec-03 04:30N 21°11' E 110°25'855279799.1
2017-Dec-03 04:30N 31°30' E 121°23'42201.8
2017-Dec-03 04:30N 31°32' E 121°20'36978196.9
2017-Dec-03 04:30N 37°41' E 121°30'820984557.8
2017-Dec-03 04:30N 24°19' E 118°07'46948261.9
2017-Dec-03 04:29N 31°39' E 121°13'2091259604.4
2017-Dec-03 04:29N 01°09' E 103°38'2095160456.3
2017-Dec-03 04:28N 31°37' E 121°25'68084362.8
2017-Dec-03 04:27N 22°20' E 114°08'433141760.6
2017-Dec-03 04:27N 25°09' E 121°23'38020418.2
2017-Dec-03 04:26N 31°29' E 121°25'6742427986.3
2017-Dec-03 04:26N 22°18' E 114°09'992123196.4
2017-Dec-03 04:25N 37°43' E 121°05'36216077.9
2017-Dec-03 04:24N 31°41' E 121°11'12445.5
2017-Dec-03 04:23N 31°31' E 121°18'6289.1
2017-Dec-03 04:21N 31°29' E 121°25'5417701.0
2017-Dec-03 04:21N 30°42' E 121°55'391339.9
2017-Dec-03 04:19N 31°15' E 121°30'282071.6
2017-Dec-03 04:18N 31°39' E 121°13'8574453.8
2017-Dec-03 04:07N 21°09' E 110°25'85948290.9
2017-Dec-03 04:06N 31°38' E 121°17'444949896.2
2017-Dec-03 04:01N 44°09' E 028°40'471316965851.0
2017-Dec-03 04:00N 25°10' E 121°20'383690056.5
2017-Dec-03 04:00N 31°33' E 121°19'46376.2
2017-Dec-03 04:00N 31°36' E 121°16'55539995633.3
2017-Dec-03 04:00N 48°59' E 002°05'5563290219.0
2017-Dec-03 03:59N 31°30' E 121°22'208097233.6
2017-Dec-03 03:58N 01°19' E 103°37'12572261725.7
2017-Dec-03 03:58N 21°10' E 110°25'85768533.1
2017-Dec-03 03:57N 31°40' E 121°13'2081288085.6
2017-Dec-03 03:57N 01°22' E 103°38'2394109092.3
2017-Dec-03 03:55N 37°43' E 121°06'36624427.2
2017-Dec-03 03:55N 31°37' E 121°25'68066156.5
2017-Dec-03 03:54N 22°19' E 114°09'677812343.5
2017-Dec-03 03:54N 31°38' E 121°17'4905.0
2017-Dec-03 03:54N 31°40' E 121°13'4701693334.3
2017-Dec-03 03:54N 24°19' E 118°07'4657649.1
2017-Dec-03 03:50N 31°32' E 121°20'37026099.5
2017-Dec-03 03:49N 37°42' E 121°31'38810749.7
2017-Dec-03 03:47N 31°14' E 121°30'37915521.2
2017-Dec-03 03:45N 37°32' E 122°12'364100897.0
2017-Dec-03 03:45N 31°29' E 121°25'675.7
2017-Dec-03 03:40N 31°31' E 121°18'22790.4
2017-Dec-03 03:39N 31°12' E 121°30'23515.6
2017-Dec-03 03:36N 31°16' E 121°03'4405107.3
2017-Dec-03 03:31N 24°26' E 118°05'446401842.6
2017-Dec-03 03:31N 31°14' E 121°30'44751464522.7
2017-Dec-03 03:30N 44°09' E 028°40'458816516643.7
2017-Dec-03 03:30N 24°26' E 118°05'465418205.7
2017-Dec-03 03:30N 21°14' E 110°26'557220060245.1
2017-Dec-03 03:30N 48°59' E 002°05'62092794158.8
2017-Dec-03 03:30N 01°26' E 103°40'1036759.7
2017-Dec-03 03:30N 01°16' E 103°36'24091084261.1
2017-Dec-03 03:30N 37°42' E 121°32'1148344506.4
2017-Dec-03 03:30N 21°11' E 110°25'8571027810.3
2017-Dec-03 03:30N 31°38' E 121°17'279834.3
2017-Dec-03 03:30N 31°13' E 121°30'451270662.5
2017-Dec-03 03:30N 24°19' E 118°07'47042333.9
2017-Dec-03 03:29N 31°40' E 121°13'827969.7
2017-Dec-03 03:29N 31°34' E 121°19'2080623955.2
2017-Dec-03 03:29N 01°20' E 103°37'1766147878.5
2017-Dec-03 03:28N 25°09' E 121°23'38441918.4
2017-Dec-03 03:27N 31°33' E 121°20'61768.9
2017-Dec-03 03:27N 31°29' E 121°25'103609.6
2017-Dec-03 03:27N 31°36' E 121°16'7167.0
2017-Dec-03 03:24N 31°37' E 121°25'81931.9
2017-Dec-03 03:24N 31°31' E 121°18'480.5
2017-Dec-03 03:21N 31°35' E 121°17'54943.8
2017-Dec-03 03:21N 31°40' E 121°13'2156.7
2017-Dec-03 03:20N 31°41' E 121°12'6768032.8
2017-Dec-03 03:15N 22°20' E 114°08'652123529.6
2017-Dec-03 03:15N 31°16' E 121°03'23479.0
2017-Dec-03 03:12N 31°14' E 121°30'127.2
2017-Dec-03 03:11N 31°14' E 121°29'171254.6
2017-Dec-03 03:10N 31°30' E 121°22'581353.6
2017-Dec-03 03:07N 30°37' E 121°50'404143.7
2017-Dec-03 03:07N 31°14' E 121°30'163.9
2017-Dec-03 03:06N 31°14' E 121°29'011.3
2017-Dec-03 03:05N 31°14' E 121°29'291237.2
2017-Dec-03 03:04N 31°39' E 121°13'444579223.7
2017-Dec-03 03:00N 44°09' E 028°40'1134291643.5
2017-Dec-03 03:00N 48°59' E 002°05'5549951305.2
2017-Dec-03 03:00N 31°39' E 121°14'856616411.8
2017-Dec-03 03:00N 21°11' E 110°25'466129115.2
2017-Dec-03 03:00N 24°19' E 118°07'4641671452.6
2017-Dec-03 03:00N 31°31' E 121°22'81858.2
2017-Dec-03 02:59N 31°37' E 121°16'2071532577.3
2017-Dec-03 02:59N 01°27' E 103°45'22011584613.0
2017-Dec-03 02:59N 32°22' E 124°23'16459111.1
2017-Dec-03 02:59N 31°36' E 121°17'36730710.1
2017-Dec-03 02:58N 37°42' E 121°34'36318129.9
2017-Dec-03 02:57N 31°40' E 121°13'2089235054.7
2017-Dec-03 02:56N 01°13' E 103°36'208575056.4
2017-Dec-03 02:55N 31°30' E 121°22'1715557.5
2017-Dec-03 02:55N 31°14' E 121°30'301205.4
2017-Dec-03 02:53N 31°40' E 121°13'85673345.3
2017-Dec-03 02:52N 21°11' E 110°25'85581039.5
2017-Dec-03 02:52N 31°38' E 121°15'121281.9
2017-Dec-03 02:51N 31°29' E 121°25'233766.8
2017-Dec-03 02:51N 31°16' E 121°03'2849926.5
2017-Dec-03 02:51N 31°37' E 121°25'53423742.5
2017-Dec-03 02:50N 22°47' E 120°08'53519053.5
2017-Dec-03 02:48N 31°38' E 121°17'67714499.4
2017-Dec-03 02:45N 22°20' E 114°08'98948757.6
2017-Dec-03 02:44N 37°34' E 121°23'17293.1
2017-Dec-03 02:40N 37°43' E 121°05'3897921.7
2017-Dec-03 02:37N 31°14' E 121°30'447538538.8
2017-Dec-03 02:31N 44°09' E 028°40'44755369793.9
2017-Dec-03 02:30N 31°14' E 121°30'55825023824.6
2017-Dec-03 02:30N 48°59' E 002°05'5554644946.6
2017-Dec-03 02:30N 31°36' E 121°17'2088442231.9
2017-Dec-03 02:30N 01°12' E 103°38'1264182020.6
2017-Dec-03 02:29N 21°11' E 110°25'856205464.3
2017-Dec-03 02:29N 31°40' E 121°13'237.8
2017-Dec-03 02:26N 31°38' E 121°14'36542339.6
2017-Dec-03 02:25N 37°43' E 121°06'36824054.7
2017-Dec-03 02:25N 31°36' E 121°18'61231.9
2017-Dec-03 02:24N 31°37' E 121°25'75209.3
2017-Dec-03 02:24N 31°36' E 121°16'20711863742.0
2017-Dec-03 02:24N 01°27' E 103°45'2073466375.2
2017-Dec-03 02:24N 31°38' E 121°17'11254.5
2017-Dec-03 02:21N 31°29' E 121°25'52625245.3
2017-Dec-03 02:20N 22°48' E 120°07'160158803.9
2017-Dec-03 02:18N 01°27' E 103°45'204824247.7
2017-Dec-03 02:13N 31°13' E 121°09'23225.1
2017-Dec-03 02:07N 31°34' E 121°20'168.5
2017-Dec-03 02:07N 31°34' E 121°19'231789.1
2017-Dec-03 02:06N 31°16' E 121°03'579367.8
2017-Dec-03 02:06N 31°01' E 122°07'5145517.3
2017-Dec-03 02:05N 31°11' E 121°09'391156572.7
2017-Dec-03 02:05N 37°42' E 121°36'4186404.8
2017-Dec-03 02:01N 30°44' E 121°47'4508312080.2
2017-Dec-03 02:01N 44°09' E 028°40'1134240177.0
2017-Dec-03 02:00N 48°59' E 002°05'55584001498.1
2017-Dec-03 02:00N 31°34' E 121°20'1147.3
2017-Dec-03 02:00N 31°33' E 121°20'53740.0
2017-Dec-03 02:00N 31°38' E 121°17'2343.9
2017-Dec-03 01:59N 31°36' E 121°16'2088197768.4
2017-Dec-03 01:59N 01°10' E 103°42'2087220982.7
2017-Dec-03 01:58N 31°33' E 121°20'6316.1
2017-Dec-03 01:57N 31°29' E 121°25'20693724512.7
2017-Dec-03 01:57N 01°27' E 103°45'20757471383.7
2017-Dec-03 01:57N 31°37' E 121°25'10673.9
2017-Dec-03 01:56N 31°40' E 121°13'36327212.6
2017-Dec-03 01:55N 37°43' E 121°06'89528510.4
2017-Dec-03 01:54N 22°49' E 120°06'505113736.1
2017-Dec-03 01:53N 31°12' E 121°09'204726036.9
2017-Dec-03 01:49N 01°27' E 103°45'20681489117.2
2017-Dec-03 01:49N 31°30' E 121°22'45810714.0
2017-Dec-03 01:46N 24°26' E 118°05'817326651.9
2017-Dec-03 01:46N 37°42' E 121°37'3715612.8
2017-Dec-03 01:42N 31°31' E 121°19'20229.5
2017-Dec-03 01:37N 31°14' E 121°30'386534.9
2017-Dec-03 01:36N 30°58' E 122°10'451746593.0
2017-Dec-03 01:30N 44°09' E 028°40'44585350141.4
2017-Dec-03 01:30N 31°31' E 121°23'1859.6
2017-Dec-03 01:30N 31°30' E 121°22'55622860654.9
2017-Dec-03 01:30N 48°59' E 002°05'62262241298.1
2017-Dec-03 01:30N 01°09' E 103°44'181620.6
2017-Dec-03 01:29N 01°27' E 103°45'2073143505.2
2017-Dec-03 01:29N 31°40' E 121°13'389791.4
2017-Dec-03 01:28N 31°03' E 121°03'312259.6
2017-Dec-03 01:27N 31°30' E 121°22'3751.7
2017-Dec-03 01:27N 31°29' E 121°25'72985.0
2017-Dec-03 01:27N 31°37' E 121°25'61292.9
2017-Dec-03 01:27N 31°38' E 121°17'36541028.6
2017-Dec-03 01:26N 37°42' E 121°35'37155648.0
2017-Dec-03 01:26N 31°31' E 121°23'81154.7
2017-Dec-03 01:25N 31°36' E 121°16'3671320670.0
2017-Dec-03 01:25N 37°43' E 121°05'41022690.0
2017-Dec-03 01:24N 30°57' E 122°11'49912642.0
2017-Dec-03 01:22N 22°51' E 120°05'5099157.8
2017-Dec-03 01:19N 31°14' E 121°30'19170.8
2017-Dec-03 01:12N 31°31' E 121°19'11642.5
2017-Dec-03 01:11N 31°40' E 121°13'57726.8
2017-Dec-03 01:06N 30°50' E 121°44'4865191.1
2017-Dec-03 01:00N 22°52' E 120°05'474817092898.5
2017-Dec-03 01:00N 44°09' E 028°40'11341020751.9
2017-Dec-03 01:00N 48°59' E 002°05'55451425892.1
2017-Dec-03 01:00N 31°41' E 121°11'123692.6
2017-Dec-03 01:00N 31°37' E 121°25'38138197.1
2017-Dec-03 01:00N 31°05' E 120°60'128430.1
2017-Dec-03 01:00N 31°16' E 121°03'236867.3
2017-Dec-03 01:00N 31°36' E 121°16'5441.4
2017-Dec-03 00:59N 31°40' E 121°13'102211.7
2017-Dec-03 00:59N 31°32' E 121°20'3120.9
2017-Dec-03 00:57N 31°30' E 121°22'372191525.8
2017-Dec-03 00:57N 37°42' E 121°34'3737626.7
2017-Dec-03 00:54N 31°29' E 121°25'208148975.4
2017-Dec-03 00:52N 01°11' E 103°49'240064953.4
2017-Dec-03 00:49N 37°43' E 121°05'37213514.2
2017-Dec-03 00:48N 31°31' E 121°19'234.3
2017-Dec-03 00:43N 31°30' E 121°17'602552.6
2017-Dec-03 00:42N 30°40' E 121°54'592.4
2017-Dec-03 00:39N 30°43' E 121°58'391237.1
2017-Dec-03 00:37N 31°14' E 121°30'29443.4
2017-Dec-03 00:33N 31°39' E 121°12'164364.6
2017-Dec-03 00:32N 31°28' E 121°25'712885.3
2017-Dec-03 00:32N 31°31' E 121°18'382114563.7
2017-Dec-03 00:32N 25°09' E 121°23'39616004.5
2017-Dec-03 00:31N 31°45' E 121°06'535120270.8
2017-Dec-03 00:30N 22°53' E 120°04'474717088257.1
2017-Dec-03 00:30N 44°09' E 028°40'1134272201.6
2017-Dec-03 00:30N 48°59' E 002°05'55636675472.3
2017-Dec-03 00:30N 31°30' E 121°22'380684788.0
2017-Dec-03 00:30N 25°09' E 121°24'392352630.2
2017-Dec-03 00:30N 31°41' E 121°11'20821874116.8
2017-Dec-03 00:30N 01°13' E 103°52'2080936215.5
2017-Dec-03 00:30N 31°36' E 121°16'78682.2
2017-Dec-03 00:30N 31°37' E 121°25'725779.5
2017-Dec-03 00:30N 31°31' E 121°19'711885.6
2017-Dec-03 00:30N 31°38' E 121°17'9421.4
2017-Dec-03 00:29N 31°30' E 121°23'39682.8
2017-Dec-03 00:28N 31°29' E 121°25'1554623.1
2017-Dec-03 00:28N 31°40' E 121°13'147.8
2017-Dec-03 00:27N 31°39' E 121°13'7483.2
2017-Dec-03 00:26N 31°44' E 121°07'35833064.5
2017-Dec-03 00:26N 37°42' E 121°32'37110277.5
2017-Dec-03 00:23N 31°31' E 121°18'176.6
2017-Dec-03 00:23N 31°30' E 121°17'608633.7
2017-Dec-03 00:22N 30°44' E 122°01'5015063.9
2017-Dec-03 00:22N 31°26' E 121°29'3779365.3
2017-Dec-03 00:19N 37°43' E 121°06'39028622.2
2017-Dec-03 00:19N 31°14' E 121°30'391127.6
2017-Dec-03 00:17N 30°42' E 121°56'542448.7
2017-Dec-03 00:15N 31°29' E 121°25'37389.6
2017-Dec-03 00:09N 31°06' E 121°59'450330077.0
2017-Dec-03 00:00N 44°09' E 028°40'1134816605.0
2017-Dec-03 00:00N 48°59' E 002°05'55532498670.4
2017-Dec-03 00:00N 31°38' E 121°17'47554.9
2017-Dec-03 00:00N 31°40' E 121°13'51703.7
2017-Dec-03 00:00N 31°36' E 121°16'61037.9
2017-Dec-03 00:00N 31°31' E 121°21'372446014.1
2017-Dec-03 00:00N 37°43' E 121°05'889400237.4
2017-Dec-03 00:00N 22°55' E 120°03'52036690.1
2017-Dec-02 23:59N 31°30' E 121°23'297.2
2017-Dec-02 23:57N 31°29' E 121°25'2073252.7
2017-Dec-02 23:57N 31°43' E 121°08'227283.6
2017-Dec-02 23:57N 31°28' E 121°27'525861.9
2017-Dec-02 23:57N 30°43' E 121°58'33620834.6
2017-Dec-02 23:56N 25°09' E 121°23'36525241.6
2017-Dec-02 23:55N 31°14' E 121°30'388174700.9
2017-Dec-02 23:55N 37°42' E 121°30'37240608.4
2017-Dec-02 23:54N 31°30' E 121°22'13685.4
2017-Dec-02 23:53N 31°40' E 121°13'101771.2
2017-Dec-02 23:53N 31°30' E 121°17'601488.0
2017-Dec-02 23:50N 30°47' E 122°05'2053217337.7
2017-Dec-02 23:50N 01°27' E 103°45'206754710.2
2017-Dec-02 23:47N 31°58' E 120°26'0 2.9
2017-Dec-02 23:42N 31°58' E 120°26'52877.1
2017-Dec-02 23:39N 31°31' E 121°18'361477.6
2017-Dec-02 23:37N 31°10' E 121°52'5064631.8
2017-Dec-02 23:31N 22°54' E 120°04'474617084596.7
2017-Dec-02 23:30N 44°09' E 028°40'439615825973.6
2017-Dec-02 23:30N 31°59' E 120°26'54971319191.1
2017-Dec-02 23:30N 48°59' E 002°05'54966595582.6
2017-Dec-02 23:30N 31°58' E 120°26'569179.3
2017-Dec-02 23:30N 31°30' E 121°23'71937.1
2017-Dec-02 23:30N 31°37' E 121°25'85957.8
2017-Dec-02 23:30N 31°31' E 121°18'31725.3
2017-Dec-02 23:29N 31°34' E 121°18'4266.9
2017-Dec-02 23:29N 31°30' E 121°17'3811372595.0
2017-Dec-02 23:29N 25°09' E 121°23'39370782.3
2017-Dec-02 23:28N 31°42' E 121°09'184262.6
2017-Dec-02 23:28N 31°30' E 121°24'5511605.6
2017-Dec-02 23:28N 30°49' E 122°07'418150462.2
2017-Dec-02 23:28N 37°44' E 121°08'36593861.6
2017-Dec-02 23:27N 31°39' E 121°13'1526196.1
2017-Dec-02 23:27N 31°29' E 121°25'1012116.2
2017-Dec-02 23:27N 31°36' E 121°16'73383.9
2017-Dec-02 23:27N 31°41' E 121°11'152924.2
2017-Dec-02 23:27N 31°30' E 121°22'9357.3
2017-Dec-02 23:25N 31°38' E 121°18'262794.3
2017-Dec-02 23:25N 31°14' E 121°30'17722.1
2017-Dec-02 23:23N 31°30' E 121°24'46432767.3
2017-Dec-02 23:22N 24°19' E 118°08'4567821.4
2017-Dec-02 23:19N 31°09' E 121°54'251046.9
2017-Dec-02 23:17N 30°46' E 122°05'54325.1
2017-Dec-02 23:08N 31°28' E 121°26'53594.0
2017-Dec-02 23:02N 30°44' E 122°01'1104039.4
2017-Dec-02 23:01N 31°59' E 120°26'439615825990.4
2017-Dec-02 23:01N 44°09' E 028°40'474817091670.8
2017-Dec-02 23:00N 22°52' E 120°05'528271389.0
2017-Dec-02 23:00N 31°36' E 121°16'104040.4
2017-Dec-02 23:00N 31°29' E 121°25'556520035729.7
2017-Dec-02 23:00N 48°59' E 002°05'52376284442.9
2017-Dec-02 23:00N 37°46' E 121°10'756302554.1
2017-Dec-02 23:00N 25°09' E 121°24'748384588.4
2017-Dec-02 23:00N 37°37' E 121°27'366263416.3
2017-Dec-02 23:00N 31°31' E 121°19'5734451.6
2017-Dec-02 23:00N 30°52' E 122°08'41299.7
2017-Dec-02 23:00N 30°48' E 122°07'593473.3
2017-Dec-02 22:58N 31°32' E 121°21'71241.8 </